<?xml version="1.0" encoding="UTF-8"?>
<gpx version="1.1" creator="https://www.youtrack.es" xsi:schemaLocation="http://www.topografix.com/GPX/1/1 http://www.topografix.com/GPX/1/1/gpx.xsd http://www.garmin.com/xmlschemas/GpxExtensions/v3 http://www.garmin.com/xmlschemas/GpxExtensionsv3.xsd http://www.garmin.com/xmlschemas/TrackPointExtension/v1 http://www.garmin.com/xmlschemas/TrackPointExtensionv1.xsd" xmlns:gpxtpx="http://www.garmin.com/xmlschemas/TrackPointExtension/v1" xmlns:gpxx="http://www.garmin.com/xmlschemas/GpxExtensions/v3" xmlns:xsi="http://www.w3.org/2001/XMLSchema-instance">
  <metadata>
    <author>
      <name>antonio gonzalez</name>
      <email id="antoniomanuelgh" domain="gmail.com"/>
    </author>
    <link href="https://www.youtrack.es">
      <text>YouTrack.es</text>
    </link>
    <time>2026-05-09T08:15:15Z</time>
  </metadata>
  <trk>
    <src>https://www.youtrack.es</src>
    <link href="https://www.youtrack.es/ruta/11500-poio-la-lanzada">
      <text>YouTrack.es</text>
    </link>
    <trkseg>
      <trkpt lat="42.448176" lon="-8.685053">
        <ele>48.9</ele>
        <time>1970-01-01T00:00:00.000Z</time>
      </trkpt>
      <trkpt lat="42.448179" lon="-8.685051">
        <ele>48.9</ele>
        <time>1970-01-01T00:00:01.000Z</time>
      </trkpt>
      <trkpt lat="42.448279" lon="-8.685003">
        <ele>49.1</ele>
        <time>1970-01-01T00:00:10.000Z</time>
      </trkpt>
      <trkpt lat="42.448371" lon="-8.684964">
        <ele>49.3</ele>
        <time>1970-01-01T00:00:15.000Z</time>
      </trkpt>
      <trkpt lat="42.448574" lon="-8.684957">
        <ele>49.6</ele>
        <time>1970-01-01T00:00:23.000Z</time>
      </trkpt>
      <trkpt lat="42.448752" lon="-8.685038">
        <ele>50.3</ele>
        <time>1970-01-01T00:00:29.000Z</time>
      </trkpt>
      <trkpt lat="42.448809" lon="-8.685281">
        <ele>51.2</ele>
        <time>1970-01-01T00:00:36.000Z</time>
      </trkpt>
      <trkpt lat="42.448807" lon="-8.685387">
        <ele>51.7</ele>
        <time>1970-01-01T00:00:39.000Z</time>
      </trkpt>
      <trkpt lat="42.448814" lon="-8.685423">
        <ele>51.9</ele>
        <time>1970-01-01T00:00:40.000Z</time>
      </trkpt>
      <trkpt lat="42.448824" lon="-8.685461">
        <ele>52.1</ele>
        <time>1970-01-01T00:00:41.000Z</time>
      </trkpt>
      <trkpt lat="42.448834" lon="-8.685504">
        <ele>52.2</ele>
        <time>1970-01-01T00:00:42.000Z</time>
      </trkpt>
      <trkpt lat="42.448845" lon="-8.685542">
        <ele>52.4</ele>
        <time>1970-01-01T00:00:43.000Z</time>
      </trkpt>
      <trkpt lat="42.448855" lon="-8.685578">
        <ele>52.5</ele>
        <time>1970-01-01T00:00:44.000Z</time>
      </trkpt>
      <trkpt lat="42.448883" lon="-8.685673">
        <ele>52.9</ele>
        <time>1970-01-01T00:00:47.000Z</time>
      </trkpt>
      <trkpt lat="42.448913" lon="-8.685724">
        <ele>53.1</ele>
        <time>1970-01-01T00:00:49.000Z</time>
      </trkpt>
      <trkpt lat="42.448951" lon="-8.685768">
        <ele>53.3</ele>
        <time>1970-01-01T00:00:51.000Z</time>
      </trkpt>
      <trkpt lat="42.448972" lon="-8.685789">
        <ele>53.4</ele>
        <time>1970-01-01T00:00:52.000Z</time>
      </trkpt>
      <trkpt lat="42.448995" lon="-8.685808">
        <ele>53.5</ele>
        <time>1970-01-01T00:00:53.000Z</time>
      </trkpt>
      <trkpt lat="42.449119" lon="-8.685893">
        <ele>53.9</ele>
        <time>1970-01-01T00:00:58.000Z</time>
      </trkpt>
      <trkpt lat="42.4493" lon="-8.68601">
        <ele>54.6</ele>
        <time>1970-01-01T00:01:05.000Z</time>
      </trkpt>
      <trkpt lat="42.449445" lon="-8.686113">
        <ele>55</ele>
        <time>1970-01-01T00:01:11.000Z</time>
      </trkpt>
      <trkpt lat="42.449518" lon="-8.686163">
        <ele>55.2</ele>
        <time>1970-01-01T00:01:14.000Z</time>
      </trkpt>
      <trkpt lat="42.449541" lon="-8.686179">
        <ele>55.3</ele>
        <time>1970-01-01T00:01:15.000Z</time>
      </trkpt>
      <trkpt lat="42.449714" lon="-8.686277">
        <ele>56.1</ele>
        <time>1970-01-01T00:01:22.000Z</time>
      </trkpt>
      <trkpt lat="42.449805" lon="-8.686342">
        <ele>56.7</ele>
        <time>1970-01-01T00:01:26.000Z</time>
      </trkpt>
      <trkpt lat="42.449969" lon="-8.686462">
        <ele>57.9</ele>
        <time>1970-01-01T00:01:33.000Z</time>
      </trkpt>
      <trkpt lat="42.450155" lon="-8.686574">
        <ele>59.4</ele>
        <time>1970-01-01T00:01:40.000Z</time>
      </trkpt>
      <trkpt lat="42.450328" lon="-8.686684">
        <ele>60.6</ele>
        <time>1970-01-01T00:01:47.000Z</time>
      </trkpt>
      <trkpt lat="42.450497" lon="-8.686805">
        <ele>61.5</ele>
        <time>1970-01-01T00:01:54.000Z</time>
      </trkpt>
      <trkpt lat="42.450668" lon="-8.686923">
        <ele>62.3</ele>
        <time>1970-01-01T00:02:01.000Z</time>
      </trkpt>
      <trkpt lat="42.450838" lon="-8.687046">
        <ele>63.4</ele>
        <time>1970-01-01T00:02:08.000Z</time>
      </trkpt>
      <trkpt lat="42.451002" lon="-8.68715">
        <ele>64.8</ele>
        <time>1970-01-01T00:02:15.000Z</time>
      </trkpt>
      <trkpt lat="42.451173" lon="-8.687273">
        <ele>66.2</ele>
        <time>1970-01-01T00:02:23.000Z</time>
      </trkpt>
      <trkpt lat="42.451365" lon="-8.687324">
        <ele>67.5</ele>
        <time>1970-01-01T00:02:31.000Z</time>
      </trkpt>
      <trkpt lat="42.451541" lon="-8.687255">
        <ele>68.9</ele>
        <time>1970-01-01T00:02:39.000Z</time>
      </trkpt>
      <trkpt lat="42.451722" lon="-8.687153">
        <ele>70.5</ele>
        <time>1970-01-01T00:02:49.000Z</time>
      </trkpt>
      <trkpt lat="42.45191" lon="-8.687063">
        <ele>72.7</ele>
        <time>1970-01-01T00:02:59.000Z</time>
      </trkpt>
      <trkpt lat="42.451947" lon="-8.687046">
        <ele>73</ele>
        <time>1970-01-01T00:03:01.000Z</time>
      </trkpt>
      <trkpt lat="42.451965" lon="-8.687037">
        <ele>73.2</ele>
        <time>1970-01-01T00:03:02.000Z</time>
      </trkpt>
      <trkpt lat="42.451984" lon="-8.687027">
        <ele>73.4</ele>
        <time>1970-01-01T00:03:03.000Z</time>
      </trkpt>
      <trkpt lat="42.452172" lon="-8.686954">
        <ele>76.3</ele>
        <time>1970-01-01T00:03:13.000Z</time>
      </trkpt>
      <trkpt lat="42.45232" lon="-8.686962">
        <ele>78.7</ele>
        <time>1970-01-01T00:03:22.000Z</time>
      </trkpt>
      <trkpt lat="42.452333" lon="-8.686967">
        <ele>78.9</ele>
        <time>1970-01-01T00:03:23.000Z</time>
      </trkpt>
      <trkpt lat="42.45236" lon="-8.686987">
        <ele>79.4</ele>
        <time>1970-01-01T00:03:25.000Z</time>
      </trkpt>
      <trkpt lat="42.452375" lon="-8.686997">
        <ele>79.6</ele>
        <time>1970-01-01T00:03:26.000Z</time>
      </trkpt>
      <trkpt lat="42.452425" lon="-8.687042">
        <ele>80.2</ele>
        <time>1970-01-01T00:03:30.000Z</time>
      </trkpt>
      <trkpt lat="42.452452" lon="-8.687069">
        <ele>80.6</ele>
        <time>1970-01-01T00:03:32.000Z</time>
      </trkpt>
      <trkpt lat="42.452488" lon="-8.687116">
        <ele>81.1</ele>
        <time>1970-01-01T00:03:35.000Z</time>
      </trkpt>
      <trkpt lat="42.452607" lon="-8.687265">
        <ele>82.8</ele>
        <time>1970-01-01T00:03:45.000Z</time>
      </trkpt>
      <trkpt lat="42.452687" lon="-8.687357">
        <ele>83.6</ele>
        <time>1970-01-01T00:03:52.000Z</time>
      </trkpt>
      <trkpt lat="42.452535" lon="-8.687503">
        <ele>83.8</ele>
        <time>1970-01-01T00:04:02.000Z</time>
      </trkpt>
      <trkpt lat="42.452423" lon="-8.687582">
        <ele>84.5</ele>
        <time>1970-01-01T00:04:09.000Z</time>
      </trkpt>
      <trkpt lat="42.45235" lon="-8.68761">
        <ele>84.9</ele>
        <time>1970-01-01T00:04:13.000Z</time>
      </trkpt>
      <trkpt lat="42.452312" lon="-8.68762">
        <ele>85.1</ele>
        <time>1970-01-01T00:04:15.000Z</time>
      </trkpt>
      <trkpt lat="42.452293" lon="-8.687625">
        <ele>85.2</ele>
        <time>1970-01-01T00:04:16.000Z</time>
      </trkpt>
      <trkpt lat="42.452256" lon="-8.687632">
        <ele>85.3</ele>
        <time>1970-01-01T00:04:18.000Z</time>
      </trkpt>
      <trkpt lat="42.452162" lon="-8.687655">
        <ele>85.5</ele>
        <time>1970-01-01T00:04:23.000Z</time>
      </trkpt>
      <trkpt lat="42.452033" lon="-8.687779">
        <ele>85.7</ele>
        <time>1970-01-01T00:04:32.000Z</time>
      </trkpt>
      <trkpt lat="42.451982" lon="-8.687879">
        <ele>86</ele>
        <time>1970-01-01T00:04:37.000Z</time>
      </trkpt>
      <trkpt lat="42.45198" lon="-8.688139">
        <ele>86.9</ele>
        <time>1970-01-01T00:04:46.000Z</time>
      </trkpt>
      <trkpt lat="42.451997" lon="-8.688304">
        <ele>87.3</ele>
        <time>1970-01-01T00:04:51.000Z</time>
      </trkpt>
      <trkpt lat="42.452017" lon="-8.688554">
        <ele>87.8</ele>
        <time>1970-01-01T00:04:59.000Z</time>
      </trkpt>
      <trkpt lat="42.452037" lon="-8.688776">
        <ele>88.2</ele>
        <time>1970-01-01T00:05:07.000Z</time>
      </trkpt>
      <trkpt lat="42.452038" lon="-8.688887">
        <ele>88.6</ele>
        <time>1970-01-01T00:05:11.000Z</time>
      </trkpt>
      <trkpt lat="42.452057" lon="-8.689136">
        <ele>90.6</ele>
        <time>1970-01-01T00:05:20.000Z</time>
      </trkpt>
      <trkpt lat="42.452086" lon="-8.689396">
        <ele>92.2</ele>
        <time>1970-01-01T00:05:30.000Z</time>
      </trkpt>
      <trkpt lat="42.452107" lon="-8.689524">
        <ele>92.8</ele>
        <time>1970-01-01T00:05:35.000Z</time>
      </trkpt>
      <trkpt lat="42.452119" lon="-8.689572">
        <ele>93.1</ele>
        <time>1970-01-01T00:05:37.000Z</time>
      </trkpt>
      <trkpt lat="42.452146" lon="-8.689694">
        <ele>93.7</ele>
        <time>1970-01-01T00:05:42.000Z</time>
      </trkpt>
      <trkpt lat="42.452165" lon="-8.689771">
        <ele>94.1</ele>
        <time>1970-01-01T00:05:46.000Z</time>
      </trkpt>
      <trkpt lat="42.452207" lon="-8.689925">
        <ele>94.5</ele>
        <time>1970-01-01T00:05:53.000Z</time>
      </trkpt>
      <trkpt lat="42.452264" lon="-8.690161">
        <ele>94.6</ele>
        <time>1970-01-01T00:06:03.000Z</time>
      </trkpt>
      <trkpt lat="42.452328" lon="-8.690403">
        <ele>94.6</ele>
        <time>1970-01-01T00:06:13.000Z</time>
      </trkpt>
      <trkpt lat="42.452393" lon="-8.690639">
        <ele>94.4</ele>
        <time>1970-01-01T00:06:23.000Z</time>
      </trkpt>
      <trkpt lat="42.452459" lon="-8.690875">
        <ele>96.4</ele>
        <time>1970-01-01T00:06:33.000Z</time>
      </trkpt>
      <trkpt lat="42.452531" lon="-8.691137">
        <ele>97.3</ele>
        <time>1970-01-01T00:06:40.000Z</time>
      </trkpt>
      <trkpt lat="42.452577" lon="-8.691324">
        <ele>97.8</ele>
        <time>1970-01-01T00:06:51.000Z</time>
      </trkpt>
      <trkpt lat="42.452531" lon="-8.691134">
        <ele>98.1</ele>
        <time>1970-01-01T00:07:00.000Z</time>
      </trkpt>
      <trkpt lat="42.452565" lon="-8.691116">
        <ele>98.2</ele>
        <time>1970-01-01T00:07:03.000Z</time>
      </trkpt>
      <trkpt lat="42.452638" lon="-8.691209">
        <ele>98.4</ele>
        <time>1970-01-01T00:07:10.000Z</time>
      </trkpt>
      <trkpt lat="42.452798" lon="-8.691349">
        <ele>101.6</ele>
        <time>1970-01-01T00:07:21.000Z</time>
      </trkpt>
      <trkpt lat="42.452934" lon="-8.69151">
        <ele>103.4</ele>
        <time>1970-01-01T00:07:31.000Z</time>
      </trkpt>
      <trkpt lat="42.45302" lon="-8.691708">
        <ele>103.8</ele>
        <time>1970-01-01T00:07:41.000Z</time>
      </trkpt>
      <trkpt lat="42.453126" lon="-8.691907">
        <ele>103.6</ele>
        <time>1970-01-01T00:07:55.000Z</time>
      </trkpt>
      <trkpt lat="42.453178" lon="-8.692004">
        <ele>103.9</ele>
        <time>1970-01-01T00:08:02.000Z</time>
      </trkpt>
      <trkpt lat="42.453198" lon="-8.692043">
        <ele>104.1</ele>
        <time>1970-01-01T00:08:03.000Z</time>
      </trkpt>
      <trkpt lat="42.453206" lon="-8.692057">
        <ele>104.1</ele>
        <time>1970-01-01T00:08:05.000Z</time>
      </trkpt>
      <trkpt lat="42.453216" lon="-8.692074">
        <ele>103.6</ele>
        <time>1970-01-01T00:08:06.000Z</time>
      </trkpt>
      <trkpt lat="42.453227" lon="-8.692112">
        <ele>103.6</ele>
        <time>1970-01-01T00:08:07.000Z</time>
      </trkpt>
      <trkpt lat="42.453227" lon="-8.692112">
        <ele>103.6</ele>
        <time>1970-01-01T00:08:08.000Z</time>
      </trkpt>
      <trkpt lat="42.453243" lon="-8.692144">
        <ele>103.8</ele>
        <time>1970-01-01T00:08:10.000Z</time>
      </trkpt>
      <trkpt lat="42.453326" lon="-8.692284">
        <ele>105.5</ele>
        <time>1970-01-01T00:08:20.000Z</time>
      </trkpt>
      <trkpt lat="42.453327" lon="-8.692289">
        <ele>105.2</ele>
        <time>1970-01-01T00:08:21.000Z</time>
      </trkpt>
      <trkpt lat="42.453331" lon="-8.692297">
        <ele>105.2</ele>
        <time>1970-01-01T00:08:23.000Z</time>
      </trkpt>
      <trkpt lat="42.453336" lon="-8.692301">
        <ele>105.2</ele>
        <time>1970-01-01T00:08:24.000Z</time>
      </trkpt>
      <trkpt lat="42.4534" lon="-8.692383">
        <ele>107.7</ele>
        <time>1970-01-01T00:08:40.000Z</time>
      </trkpt>
      <trkpt lat="42.453443" lon="-8.692467">
        <ele>109.2</ele>
        <time>1970-01-01T00:08:45.000Z</time>
      </trkpt>
      <trkpt lat="42.453525" lon="-8.692615">
        <ele>112.8</ele>
        <time>1970-01-01T00:08:54.000Z</time>
      </trkpt>
      <trkpt lat="42.453567" lon="-8.692686">
        <ele>114.1</ele>
        <time>1970-01-01T00:08:58.000Z</time>
      </trkpt>
      <trkpt lat="42.45359" lon="-8.692717">
        <ele>114.9</ele>
        <time>1970-01-01T00:09:00.000Z</time>
      </trkpt>
      <trkpt lat="42.453719" lon="-8.692894">
        <ele>116.9</ele>
        <time>1970-01-01T00:09:10.000Z</time>
      </trkpt>
      <trkpt lat="42.453823" lon="-8.693095">
        <ele>116.4</ele>
        <time>1970-01-01T00:09:23.000Z</time>
      </trkpt>
      <trkpt lat="42.453931" lon="-8.693318">
        <ele>118.2</ele>
        <time>1970-01-01T00:09:35.000Z</time>
      </trkpt>
      <trkpt lat="42.454055" lon="-8.69352">
        <ele>123.1</ele>
        <time>1970-01-01T00:09:46.000Z</time>
      </trkpt>
      <trkpt lat="42.454221" lon="-8.69363">
        <ele>127.4</ele>
        <time>1970-01-01T00:10:00.000Z</time>
      </trkpt>
      <trkpt lat="42.454345" lon="-8.693694">
        <ele>129.8</ele>
        <time>1970-01-01T00:10:11.000Z</time>
      </trkpt>
      <trkpt lat="42.454409" lon="-8.693748">
        <ele>130.5</ele>
        <time>1970-01-01T00:10:17.000Z</time>
      </trkpt>
      <trkpt lat="42.45456" lon="-8.693892">
        <ele>130.8</ele>
        <time>1970-01-01T00:10:29.000Z</time>
      </trkpt>
      <trkpt lat="42.454572" lon="-8.693903">
        <ele>130.8</ele>
        <time>1970-01-01T00:10:30.000Z</time>
      </trkpt>
      <trkpt lat="42.454595" lon="-8.693921">
        <ele>130.4</ele>
        <time>1970-01-01T00:10:32.000Z</time>
      </trkpt>
      <trkpt lat="42.454619" lon="-8.693948">
        <ele>130.4</ele>
        <time>1970-01-01T00:10:33.000Z</time>
      </trkpt>
      <trkpt lat="42.454619" lon="-8.693948">
        <ele>130.4</ele>
        <time>1970-01-01T00:10:34.000Z</time>
      </trkpt>
      <trkpt lat="42.45463" lon="-8.693965">
        <ele>130</ele>
        <time>1970-01-01T00:10:35.000Z</time>
      </trkpt>
      <trkpt lat="42.454643" lon="-8.693979">
        <ele>130</ele>
        <time>1970-01-01T00:10:36.000Z</time>
      </trkpt>
      <trkpt lat="42.454781" lon="-8.694144">
        <ele>129.5</ele>
        <time>1970-01-01T00:10:48.000Z</time>
      </trkpt>
      <trkpt lat="42.454815" lon="-8.694187">
        <ele>129.8</ele>
        <time>1970-01-01T00:10:51.000Z</time>
      </trkpt>
      <trkpt lat="42.45484" lon="-8.694202">
        <ele>129.8</ele>
        <time>1970-01-01T00:10:53.000Z</time>
      </trkpt>
      <trkpt lat="42.454849" lon="-8.694212">
        <ele>130.1</ele>
        <time>1970-01-01T00:10:54.000Z</time>
      </trkpt>
      <trkpt lat="42.454859" lon="-8.694224">
        <ele>130.3</ele>
        <time>1970-01-01T00:10:55.000Z</time>
      </trkpt>
      <trkpt lat="42.45487" lon="-8.694237">
        <ele>130.3</ele>
        <time>1970-01-01T00:10:57.000Z</time>
      </trkpt>
      <trkpt lat="42.454875" lon="-8.694239">
        <ele>130.7</ele>
        <time>1970-01-01T00:10:58.000Z</time>
      </trkpt>
      <trkpt lat="42.454916" lon="-8.694242">
        <ele>131.2</ele>
        <time>1970-01-01T00:11:14.000Z</time>
      </trkpt>
      <trkpt lat="42.454948" lon="-8.694215">
        <ele>131.8</ele>
        <time>1970-01-01T00:11:19.000Z</time>
      </trkpt>
      <trkpt lat="42.454946" lon="-8.694218">
        <ele>131.8</ele>
        <time>1970-01-01T00:11:21.000Z</time>
      </trkpt>
      <trkpt lat="42.454949" lon="-8.694227">
        <ele>132</ele>
        <time>1970-01-01T00:11:24.000Z</time>
      </trkpt>
      <trkpt lat="42.454946" lon="-8.694219">
        <ele>131.8</ele>
        <time>1970-01-01T00:11:33.000Z</time>
      </trkpt>
      <trkpt lat="42.454945" lon="-8.694218">
        <ele>131.8</ele>
        <time>1970-01-01T00:11:34.000Z</time>
      </trkpt>
      <trkpt lat="42.455021" lon="-8.694375">
        <ele>134.3</ele>
        <time>1970-01-01T00:11:56.000Z</time>
      </trkpt>
      <trkpt lat="42.455026" lon="-8.694391">
        <ele>134.3</ele>
        <time>1970-01-01T00:11:57.000Z</time>
      </trkpt>
      <trkpt lat="42.455027" lon="-8.694412">
        <ele>134.3</ele>
        <time>1970-01-01T00:11:59.000Z</time>
      </trkpt>
      <trkpt lat="42.455031" lon="-8.694411">
        <ele>134.3</ele>
        <time>1970-01-01T00:12:03.000Z</time>
      </trkpt>
      <trkpt lat="42.455237" lon="-8.695371">
        <ele>145.1</ele>
        <time>1970-01-01T00:42:01.000Z</time>
      </trkpt>
      <trkpt lat="42.455238" lon="-8.695371">
        <ele>145.2</ele>
        <time>1970-01-01T00:42:02.000Z</time>
      </trkpt>
      <trkpt lat="42.456036" lon="-8.696626">
        <ele>168.5</ele>
        <time>1970-01-01T00:55:25.000Z</time>
      </trkpt>
      <trkpt lat="42.456053" lon="-8.696632">
        <ele>168.4</ele>
        <time>1970-01-01T00:55:26.000Z</time>
      </trkpt>
      <trkpt lat="42.45615" lon="-8.696683">
        <ele>169.9</ele>
        <time>1970-01-01T00:55:33.000Z</time>
      </trkpt>
      <trkpt lat="42.456188" lon="-8.696711">
        <ele>172</ele>
        <time>1970-01-01T00:55:37.000Z</time>
      </trkpt>
      <trkpt lat="42.456197" lon="-8.69672">
        <ele>172</ele>
        <time>1970-01-01T00:55:38.000Z</time>
      </trkpt>
      <trkpt lat="42.456241" lon="-8.696741">
        <ele>171.7</ele>
        <time>1970-01-01T00:55:42.000Z</time>
      </trkpt>
      <trkpt lat="42.456321" lon="-8.696764">
        <ele>173.9</ele>
        <time>1970-01-01T00:55:48.000Z</time>
      </trkpt>
      <trkpt lat="42.456481" lon="-8.696823">
        <ele>176</ele>
        <time>1970-01-01T00:56:02.000Z</time>
      </trkpt>
      <trkpt lat="42.456492" lon="-8.696829">
        <ele>176</ele>
        <time>1970-01-01T00:56:03.000Z</time>
      </trkpt>
      <trkpt lat="42.456515" lon="-8.696837">
        <ele>176</ele>
        <time>1970-01-01T00:56:05.000Z</time>
      </trkpt>
      <trkpt lat="42.456528" lon="-8.696843">
        <ele>178.3</ele>
        <time>1970-01-01T00:56:06.000Z</time>
      </trkpt>
      <trkpt lat="42.45654" lon="-8.696848">
        <ele>178.3</ele>
        <time>1970-01-01T00:56:07.000Z</time>
      </trkpt>
      <trkpt lat="42.456549" lon="-8.696855">
        <ele>178.3</ele>
        <time>1970-01-01T00:56:08.000Z</time>
      </trkpt>
      <trkpt lat="42.456559" lon="-8.696862">
        <ele>178.3</ele>
        <time>1970-01-01T00:56:09.000Z</time>
      </trkpt>
      <trkpt lat="42.45658" lon="-8.696874">
        <ele>178.3</ele>
        <time>1970-01-01T00:56:11.000Z</time>
      </trkpt>
      <trkpt lat="42.456591" lon="-8.696885">
        <ele>180.4</ele>
        <time>1970-01-01T00:56:13.000Z</time>
      </trkpt>
      <trkpt lat="42.45659" lon="-8.696888">
        <ele>180.4</ele>
        <time>1970-01-01T00:56:14.000Z</time>
      </trkpt>
      <trkpt lat="42.456586" lon="-8.696891">
        <ele>180.4</ele>
        <time>1970-01-01T00:56:16.000Z</time>
      </trkpt>
      <trkpt lat="42.456592" lon="-8.696892">
        <ele>180.4</ele>
        <time>1970-01-01T00:56:20.000Z</time>
      </trkpt>
      <trkpt lat="42.456471" lon="-8.696845">
        <ele>178.4</ele>
        <time>1970-01-01T00:56:46.000Z</time>
      </trkpt>
      <trkpt lat="42.456458" lon="-8.696844">
        <ele>178.4</ele>
        <time>1970-01-01T00:56:47.000Z</time>
      </trkpt>
      <trkpt lat="42.456285" lon="-8.696755">
        <ele>174.1</ele>
        <time>1970-01-01T00:56:58.000Z</time>
      </trkpt>
      <trkpt lat="42.45616" lon="-8.696708">
        <ele>170</ele>
        <time>1970-01-01T00:57:07.000Z</time>
      </trkpt>
      <trkpt lat="42.456092" lon="-8.696675">
        <ele>170.4</ele>
        <time>1970-01-01T00:57:12.000Z</time>
      </trkpt>
      <trkpt lat="42.456057" lon="-8.696657">
        <ele>168.5</ele>
        <time>1970-01-01T00:57:14.000Z</time>
      </trkpt>
      <trkpt lat="42.456015" lon="-8.69664">
        <ele>168.7</ele>
        <time>1970-01-01T00:57:16.000Z</time>
      </trkpt>
      <trkpt lat="42.455982" lon="-8.696623">
        <ele>169</ele>
        <time>1970-01-01T00:57:18.000Z</time>
      </trkpt>
      <trkpt lat="42.455953" lon="-8.696607">
        <ele>167.3</ele>
        <time>1970-01-01T00:57:20.000Z</time>
      </trkpt>
      <trkpt lat="42.455942" lon="-8.696602">
        <ele>167.4</ele>
        <time>1970-01-01T00:57:21.000Z</time>
      </trkpt>
      <trkpt lat="42.455936" lon="-8.696598">
        <ele>167.5</ele>
        <time>1970-01-01T00:57:22.000Z</time>
      </trkpt>
      <trkpt lat="42.455934" lon="-8.696595">
        <ele>167.5</ele>
        <time>1970-01-01T00:57:23.000Z</time>
      </trkpt>
      <trkpt lat="42.455932" lon="-8.696592">
        <ele>167.5</ele>
        <time>1970-01-01T00:57:24.000Z</time>
      </trkpt>
      <trkpt lat="42.455934" lon="-8.696593">
        <ele>167.5</ele>
        <time>1970-01-01T00:57:25.000Z</time>
      </trkpt>
      <trkpt lat="42.455733" lon="-8.696599">
        <ele>168.8</ele>
        <time>1970-01-01T00:57:45.000Z</time>
      </trkpt>
      <trkpt lat="42.455701" lon="-8.6966">
        <ele>169</ele>
        <time>1970-01-01T00:57:47.000Z</time>
      </trkpt>
      <trkpt lat="42.455684" lon="-8.696601">
        <ele>169.3</ele>
        <time>1970-01-01T00:57:48.000Z</time>
      </trkpt>
      <trkpt lat="42.455652" lon="-8.696605">
        <ele>169.6</ele>
        <time>1970-01-01T00:57:50.000Z</time>
      </trkpt>
      <trkpt lat="42.455586" lon="-8.696617">
        <ele>170.2</ele>
        <time>1970-01-01T00:57:54.000Z</time>
      </trkpt>
      <trkpt lat="42.455537" lon="-8.696629">
        <ele>172.6</ele>
        <time>1970-01-01T00:57:57.000Z</time>
      </trkpt>
      <trkpt lat="42.455356" lon="-8.696678">
        <ele>176</ele>
        <time>1970-01-01T00:58:09.000Z</time>
      </trkpt>
      <trkpt lat="42.455256" lon="-8.696686">
        <ele>177.1</ele>
        <time>1970-01-01T00:58:16.000Z</time>
      </trkpt>
      <trkpt lat="42.455142" lon="-8.696662">
        <ele>177.1</ele>
        <time>1970-01-01T00:58:23.000Z</time>
      </trkpt>
      <trkpt lat="42.455045" lon="-8.696622">
        <ele>176.8</ele>
        <time>1970-01-01T00:58:28.000Z</time>
      </trkpt>
      <trkpt lat="42.454984" lon="-8.696599">
        <ele>177.5</ele>
        <time>1970-01-01T00:58:33.000Z</time>
      </trkpt>
      <trkpt lat="42.454906" lon="-8.69654">
        <ele>177.2</ele>
        <time>1970-01-01T00:58:40.000Z</time>
      </trkpt>
      <trkpt lat="42.454867" lon="-8.696508">
        <ele>176.3</ele>
        <time>1970-01-01T00:58:43.000Z</time>
      </trkpt>
      <trkpt lat="42.454803" lon="-8.696447">
        <ele>174.5</ele>
        <time>1970-01-01T00:58:48.000Z</time>
      </trkpt>
      <trkpt lat="42.454646" lon="-8.696307">
        <ele>172.3</ele>
        <time>1970-01-01T00:58:59.000Z</time>
      </trkpt>
      <trkpt lat="42.454498" lon="-8.696145">
        <ele>170</ele>
        <time>1970-01-01T00:59:10.000Z</time>
      </trkpt>
      <trkpt lat="42.454334" lon="-8.696036">
        <ele>166.8</ele>
        <time>1970-01-01T00:59:22.000Z</time>
      </trkpt>
      <trkpt lat="42.454161" lon="-8.695926">
        <ele>165</ele>
        <time>1970-01-01T00:59:34.000Z</time>
      </trkpt>
      <trkpt lat="42.45412" lon="-8.695891">
        <ele>164.8</ele>
        <time>1970-01-01T00:59:37.000Z</time>
      </trkpt>
      <trkpt lat="42.453943" lon="-8.695791">
        <ele>162.5</ele>
        <time>1970-01-01T00:59:49.000Z</time>
      </trkpt>
      <trkpt lat="42.453811" lon="-8.695636">
        <ele>159.8</ele>
        <time>1970-01-01T01:00:01.000Z</time>
      </trkpt>
      <trkpt lat="42.453812" lon="-8.695619">
        <ele>159.6</ele>
        <time>1970-01-01T01:00:02.000Z</time>
      </trkpt>
      <trkpt lat="42.453798" lon="-8.695539">
        <ele>159.2</ele>
        <time>1970-01-01T01:00:08.000Z</time>
      </trkpt>
      <trkpt lat="42.453725" lon="-8.69529">
        <ele>157.5</ele>
        <time>1970-01-01T01:00:22.000Z</time>
      </trkpt>
      <trkpt lat="42.453655" lon="-8.695161">
        <ele>156.8</ele>
        <time>1970-01-01T01:00:30.000Z</time>
      </trkpt>
      <trkpt lat="42.453551" lon="-8.695021">
        <ele>156.3</ele>
        <time>1970-01-01T01:00:43.000Z</time>
      </trkpt>
      <trkpt lat="42.45354" lon="-8.695009">
        <ele>156.3</ele>
        <time>1970-01-01T01:00:46.000Z</time>
      </trkpt>
      <trkpt lat="42.453534" lon="-8.694993">
        <ele>156.2</ele>
        <time>1970-01-01T01:00:48.000Z</time>
      </trkpt>
      <trkpt lat="42.453462" lon="-8.694881">
        <ele>155.6</ele>
        <time>1970-01-01T01:00:55.000Z</time>
      </trkpt>
      <trkpt lat="42.453324" lon="-8.694706">
        <ele>154.3</ele>
        <time>1970-01-01T01:01:04.000Z</time>
      </trkpt>
      <trkpt lat="42.453269" lon="-8.694659">
        <ele>153.8</ele>
        <time>1970-01-01T01:01:06.000Z</time>
      </trkpt>
      <trkpt lat="42.453201" lon="-8.694596">
        <ele>153.5</ele>
        <time>1970-01-01T01:01:10.000Z</time>
      </trkpt>
      <trkpt lat="42.453131" lon="-8.694617">
        <ele>153.1</ele>
        <time>1970-01-01T01:01:18.000Z</time>
      </trkpt>
      <trkpt lat="42.453072" lon="-8.694749">
        <ele>153.3</ele>
        <time>1970-01-01T01:02:27.000Z</time>
      </trkpt>
      <trkpt lat="42.453078" lon="-8.694727">
        <ele>153.1</ele>
        <time>1970-01-01T01:02:28.000Z</time>
      </trkpt>
      <trkpt lat="42.453098" lon="-8.694642">
        <ele>152.6</ele>
        <time>1970-01-01T01:02:32.000Z</time>
      </trkpt>
      <trkpt lat="42.453112" lon="-8.694563">
        <ele>151.9</ele>
        <time>1970-01-01T01:02:36.000Z</time>
      </trkpt>
      <trkpt lat="42.45306" lon="-8.694491">
        <ele>151.1</ele>
        <time>1970-01-01T01:02:43.000Z</time>
      </trkpt>
      <trkpt lat="42.453067" lon="-8.694492">
        <ele>151.1</ele>
        <time>1970-01-01T01:02:45.000Z</time>
      </trkpt>
      <trkpt lat="42.452958" lon="-8.694456">
        <ele>149.9</ele>
        <time>1970-01-01T01:02:56.000Z</time>
      </trkpt>
      <trkpt lat="42.452874" lon="-8.694433">
        <ele>149.7</ele>
        <time>1970-01-01T01:02:59.000Z</time>
      </trkpt>
      <trkpt lat="42.452719" lon="-8.694414">
        <ele>150.1</ele>
        <time>1970-01-01T01:03:05.000Z</time>
      </trkpt>
      <trkpt lat="42.452569" lon="-8.694556">
        <ele>151</ele>
        <time>1970-01-01T01:03:13.000Z</time>
      </trkpt>
      <trkpt lat="42.452537" lon="-8.694589">
        <ele>150.9</ele>
        <time>1970-01-01T01:03:17.000Z</time>
      </trkpt>
      <trkpt lat="42.452432" lon="-8.694608">
        <ele>149.7</ele>
        <time>1970-01-01T01:03:27.000Z</time>
      </trkpt>
      <trkpt lat="42.452294" lon="-8.694451">
        <ele>147.4</ele>
        <time>1970-01-01T01:03:39.000Z</time>
      </trkpt>
      <trkpt lat="42.452164" lon="-8.694273">
        <ele>145.9</ele>
        <time>1970-01-01T01:03:53.000Z</time>
      </trkpt>
      <trkpt lat="42.451995" lon="-8.694187">
        <ele>145.8</ele>
        <time>1970-01-01T01:04:04.000Z</time>
      </trkpt>
      <trkpt lat="42.451795" lon="-8.694156">
        <ele>145.2</ele>
        <time>1970-01-01T01:04:11.000Z</time>
      </trkpt>
      <trkpt lat="42.451599" lon="-8.694152">
        <ele>144</ele>
        <time>1970-01-01T01:04:16.000Z</time>
      </trkpt>
      <trkpt lat="42.451494" lon="-8.694143">
        <ele>143</ele>
        <time>1970-01-01T01:04:19.000Z</time>
      </trkpt>
      <trkpt lat="42.451402" lon="-8.694127">
        <ele>141.6</ele>
        <time>1970-01-01T01:04:22.000Z</time>
      </trkpt>
      <trkpt lat="42.451352" lon="-8.694126">
        <ele>140.9</ele>
        <time>1970-01-01T01:04:24.000Z</time>
      </trkpt>
      <trkpt lat="42.451327" lon="-8.694128">
        <ele>140.6</ele>
        <time>1970-01-01T01:04:25.000Z</time>
      </trkpt>
      <trkpt lat="42.451262" lon="-8.694147">
        <ele>140.2</ele>
        <time>1970-01-01T01:04:28.000Z</time>
      </trkpt>
      <trkpt lat="42.451192" lon="-8.694211">
        <ele>140.3</ele>
        <time>1970-01-01T01:04:34.000Z</time>
      </trkpt>
      <trkpt lat="42.451182" lon="-8.694227">
        <ele>140.3</ele>
        <time>1970-01-01T01:04:35.000Z</time>
      </trkpt>
      <trkpt lat="42.451171" lon="-8.694248">
        <ele>140.4</ele>
        <time>1970-01-01T01:04:36.000Z</time>
      </trkpt>
      <trkpt lat="42.451157" lon="-8.694273">
        <ele>140.3</ele>
        <time>1970-01-01T01:04:37.000Z</time>
      </trkpt>
      <trkpt lat="42.451117" lon="-8.694372">
        <ele>139.9</ele>
        <time>1970-01-01T01:04:40.000Z</time>
      </trkpt>
      <trkpt lat="42.451084" lon="-8.694433">
        <ele>139.7</ele>
        <time>1970-01-01T01:04:42.000Z</time>
      </trkpt>
      <trkpt lat="42.451051" lon="-8.694477">
        <ele>139.7</ele>
        <time>1970-01-01T01:04:44.000Z</time>
      </trkpt>
      <trkpt lat="42.451026" lon="-8.694502">
        <ele>139.7</ele>
        <time>1970-01-01T01:04:45.000Z</time>
      </trkpt>
      <trkpt lat="42.451026" lon="-8.694502">
        <ele>139.7</ele>
        <time>1970-01-01T01:04:46.000Z</time>
      </trkpt>
      <trkpt lat="42.450976" lon="-8.694532">
        <ele>139.2</ele>
        <time>1970-01-01T01:04:50.000Z</time>
      </trkpt>
      <trkpt lat="42.450954" lon="-8.694547">
        <ele>139</ele>
        <time>1970-01-01T01:04:51.000Z</time>
      </trkpt>
      <trkpt lat="42.450815" lon="-8.694552">
        <ele>137.4</ele>
        <time>1970-01-01T01:05:00.000Z</time>
      </trkpt>
      <trkpt lat="42.450719" lon="-8.694564">
        <ele>136.3</ele>
        <time>1970-01-01T01:05:04.000Z</time>
      </trkpt>
      <trkpt lat="42.450544" lon="-8.694691">
        <ele>134.9</ele>
        <time>1970-01-01T01:05:11.000Z</time>
      </trkpt>
      <trkpt lat="42.450449" lon="-8.694791">
        <ele>134.4</ele>
        <time>1970-01-01T01:05:14.000Z</time>
      </trkpt>
      <trkpt lat="42.450385" lon="-8.694852">
        <ele>134</ele>
        <time>1970-01-01T01:05:16.000Z</time>
      </trkpt>
      <trkpt lat="42.450352" lon="-8.694876">
        <ele>133.8</ele>
        <time>1970-01-01T01:05:17.000Z</time>
      </trkpt>
      <trkpt lat="42.450266" lon="-8.694934">
        <ele>133.3</ele>
        <time>1970-01-01T01:05:20.000Z</time>
      </trkpt>
      <trkpt lat="42.450082" lon="-8.695002">
        <ele>132.2</ele>
        <time>1970-01-01T01:05:28.000Z</time>
      </trkpt>
      <trkpt lat="42.449937" lon="-8.695178">
        <ele>131.3</ele>
        <time>1970-01-01T01:05:37.000Z</time>
      </trkpt>
      <trkpt lat="42.449904" lon="-8.695354">
        <ele>131.6</ele>
        <time>1970-01-01T01:05:43.000Z</time>
      </trkpt>
      <trkpt lat="42.449902" lon="-8.69545">
        <ele>131.9</ele>
        <time>1970-01-01T01:05:46.000Z</time>
      </trkpt>
      <trkpt lat="42.449892" lon="-8.695555">
        <ele>132.1</ele>
        <time>1970-01-01T01:05:52.000Z</time>
      </trkpt>
      <trkpt lat="42.44989" lon="-8.695553">
        <ele>132.1</ele>
        <time>1970-01-01T01:05:55.000Z</time>
      </trkpt>
      <trkpt lat="42.449919" lon="-8.695605">
        <ele>132.2</ele>
        <time>1970-01-01T01:06:16.000Z</time>
      </trkpt>
      <trkpt lat="42.449968" lon="-8.695582">
        <ele>132.3</ele>
        <time>1970-01-01T01:06:21.000Z</time>
      </trkpt>
      <trkpt lat="42.449993" lon="-8.695588">
        <ele>132.9</ele>
        <time>1970-01-01T01:06:23.000Z</time>
      </trkpt>
      <trkpt lat="42.450007" lon="-8.695585">
        <ele>133</ele>
        <time>1970-01-01T01:06:24.000Z</time>
      </trkpt>
      <trkpt lat="42.450039" lon="-8.695583">
        <ele>133.2</ele>
        <time>1970-01-01T01:06:26.000Z</time>
      </trkpt>
      <trkpt lat="42.450118" lon="-8.6956">
        <ele>133.9</ele>
        <time>1970-01-01T01:06:31.000Z</time>
      </trkpt>
      <trkpt lat="42.450132" lon="-8.6956">
        <ele>134.1</ele>
        <time>1970-01-01T01:06:32.000Z</time>
      </trkpt>
      <trkpt lat="42.450321" lon="-8.695587">
        <ele>135.3</ele>
        <time>1970-01-01T01:06:42.000Z</time>
      </trkpt>
      <trkpt lat="42.45049" lon="-8.695461">
        <ele>136.6</ele>
        <time>1970-01-01T01:06:51.000Z</time>
      </trkpt>
      <trkpt lat="42.450565" lon="-8.695417">
        <ele>137.3</ele>
        <time>1970-01-01T01:06:58.000Z</time>
      </trkpt>
      <trkpt lat="42.450587" lon="-8.695415">
        <ele>137.5</ele>
        <time>1970-01-01T01:07:00.000Z</time>
      </trkpt>
      <trkpt lat="42.450598" lon="-8.695412">
        <ele>137.6</ele>
        <time>1970-01-01T01:07:01.000Z</time>
      </trkpt>
      <trkpt lat="42.450615" lon="-8.695409">
        <ele>137.7</ele>
        <time>1970-01-01T01:07:03.000Z</time>
      </trkpt>
      <trkpt lat="42.45062" lon="-8.695411">
        <ele>137.7</ele>
        <time>1970-01-01T01:07:04.000Z</time>
      </trkpt>
      <trkpt lat="42.450627" lon="-8.695412">
        <ele>137.8</ele>
        <time>1970-01-01T01:07:05.000Z</time>
      </trkpt>
      <trkpt lat="42.450626" lon="-8.695413">
        <ele>137.8</ele>
        <time>1970-01-01T01:07:06.000Z</time>
      </trkpt>
      <trkpt lat="42.45063" lon="-8.695411">
        <ele>137.8</ele>
        <time>1970-01-01T01:07:08.000Z</time>
      </trkpt>
      <trkpt lat="42.45068" lon="-8.695375">
        <ele>138</ele>
        <time>1970-01-01T01:07:12.000Z</time>
      </trkpt>
      <trkpt lat="42.450696" lon="-8.695371">
        <ele>138</ele>
        <time>1970-01-01T01:07:13.000Z</time>
      </trkpt>
      <trkpt lat="42.450724" lon="-8.695363">
        <ele>138.1</ele>
        <time>1970-01-01T01:07:15.000Z</time>
      </trkpt>
      <trkpt lat="42.450769" lon="-8.695347">
        <ele>138.4</ele>
        <time>1970-01-01T01:07:18.000Z</time>
      </trkpt>
      <trkpt lat="42.450784" lon="-8.695341">
        <ele>138.4</ele>
        <time>1970-01-01T01:07:19.000Z</time>
      </trkpt>
      <trkpt lat="42.450813" lon="-8.695333">
        <ele>138.6</ele>
        <time>1970-01-01T01:07:20.000Z</time>
      </trkpt>
      <trkpt lat="42.450828" lon="-8.695325">
        <ele>138.7</ele>
        <time>1970-01-01T01:07:21.000Z</time>
      </trkpt>
      <trkpt lat="42.450842" lon="-8.695317">
        <ele>138.8</ele>
        <time>1970-01-01T01:07:27.000Z</time>
      </trkpt>
      <trkpt lat="42.450857" lon="-8.695309">
        <ele>138.9</ele>
        <time>1970-01-01T01:07:28.000Z</time>
      </trkpt>
      <trkpt lat="42.450871" lon="-8.695302">
        <ele>138.9</ele>
        <time>1970-01-01T01:07:29.000Z</time>
      </trkpt>
      <trkpt lat="42.450886" lon="-8.695294">
        <ele>139</ele>
        <time>1970-01-01T01:07:31.000Z</time>
      </trkpt>
      <trkpt lat="42.4509" lon="-8.695286">
        <ele>139.1</ele>
        <time>1970-01-01T01:07:45.000Z</time>
      </trkpt>
      <trkpt lat="42.450915" lon="-8.695278">
        <ele>139.1</ele>
        <time>1970-01-01T01:08:25.000Z</time>
      </trkpt>
      <trkpt lat="42.450929" lon="-8.69527">
        <ele>139.2</ele>
        <time>1970-01-01T01:08:26.000Z</time>
      </trkpt>
      <trkpt lat="42.450722" lon="-8.695323">
        <ele>139.5</ele>
        <time>1970-01-01T01:08:30.000Z</time>
      </trkpt>
      <trkpt lat="42.450547" lon="-8.695385">
        <ele>139.5</ele>
        <time>1970-01-01T01:08:33.000Z</time>
      </trkpt>
      <trkpt lat="42.450451" lon="-8.69546">
        <ele>138.7</ele>
        <time>1970-01-01T01:08:34.000Z</time>
      </trkpt>
      <trkpt lat="42.450416" lon="-8.695495">
        <ele>138.2</ele>
        <time>1970-01-01T01:08:36.000Z</time>
      </trkpt>
      <trkpt lat="42.450388" lon="-8.695523">
        <ele>138</ele>
        <time>1970-01-01T01:08:37.000Z</time>
      </trkpt>
      <trkpt lat="42.450333" lon="-8.695551">
        <ele>137.4</ele>
        <time>1970-01-01T01:08:39.000Z</time>
      </trkpt>
      <trkpt lat="42.450174" lon="-8.69556">
        <ele>135.3</ele>
        <time>1970-01-01T01:08:43.000Z</time>
      </trkpt>
      <trkpt lat="42.449992" lon="-8.695532">
        <ele>132.8</ele>
        <time>1970-01-01T01:08:46.000Z</time>
      </trkpt>
      <trkpt lat="42.449879" lon="-8.69556">
        <ele>131.3</ele>
        <time>1970-01-01T01:08:47.000Z</time>
      </trkpt>
      <trkpt lat="42.449674" lon="-8.695656">
        <ele>127.7</ele>
        <time>1970-01-01T01:08:52.000Z</time>
      </trkpt>
      <trkpt lat="42.449598" lon="-8.695696">
        <ele>126.5</ele>
        <time>1970-01-01T01:08:55.000Z</time>
      </trkpt>
      <trkpt lat="42.44959" lon="-8.695749">
        <ele>125.9</ele>
        <time>1970-01-01T01:08:57.000Z</time>
      </trkpt>
      <trkpt lat="42.449709" lon="-8.695846">
        <ele>128.8</ele>
        <time>1970-01-01T01:09:08.000Z</time>
      </trkpt>
      <trkpt lat="42.449782" lon="-8.695858">
        <ele>129.6</ele>
        <time>1970-01-01T01:09:13.000Z</time>
      </trkpt>
      <trkpt lat="42.449808" lon="-8.695871">
        <ele>129.9</ele>
        <time>1970-01-01T01:09:16.000Z</time>
      </trkpt>
      <trkpt lat="42.449813" lon="-8.695877">
        <ele>129.9</ele>
        <time>1970-01-01T01:09:20.000Z</time>
      </trkpt>
      <trkpt lat="42.44988" lon="-8.69591">
        <ele>130.5</ele>
        <time>1970-01-01T01:09:25.000Z</time>
      </trkpt>
      <trkpt lat="42.450024" lon="-8.69593">
        <ele>131.8</ele>
        <time>1970-01-01T01:09:34.000Z</time>
      </trkpt>
      <trkpt lat="42.450051" lon="-8.695939">
        <ele>132</ele>
        <time>1970-01-01T01:09:35.000Z</time>
      </trkpt>
      <trkpt lat="42.450127" lon="-8.695972">
        <ele>132.7</ele>
        <time>1970-01-01T01:09:41.000Z</time>
      </trkpt>
      <trkpt lat="42.450166" lon="-8.69598">
        <ele>133.2</ele>
        <time>1970-01-01T01:09:43.000Z</time>
      </trkpt>
      <trkpt lat="42.450274" lon="-8.696008">
        <ele>134.4</ele>
        <time>1970-01-01T01:09:48.000Z</time>
      </trkpt>
      <trkpt lat="42.450366" lon="-8.696036">
        <ele>135.5</ele>
        <time>1970-01-01T01:09:52.000Z</time>
      </trkpt>
      <trkpt lat="42.450549" lon="-8.696132">
        <ele>137.8</ele>
        <time>1970-01-01T01:10:00.000Z</time>
      </trkpt>
      <trkpt lat="42.450717" lon="-8.696235">
        <ele>139.7</ele>
        <time>1970-01-01T01:10:09.000Z</time>
      </trkpt>
      <trkpt lat="42.450865" lon="-8.6964">
        <ele>141.6</ele>
        <time>1970-01-01T01:10:19.000Z</time>
      </trkpt>
      <trkpt lat="42.450991" lon="-8.696576">
        <ele>143.8</ele>
        <time>1970-01-01T01:10:30.000Z</time>
      </trkpt>
      <trkpt lat="42.451005" lon="-8.696591">
        <ele>144.1</ele>
        <time>1970-01-01T01:10:34.000Z</time>
      </trkpt>
      <trkpt lat="42.451104" lon="-8.696734">
        <ele>146.1</ele>
        <time>1970-01-01T01:13:05.000Z</time>
      </trkpt>
      <trkpt lat="42.451114" lon="-8.696741">
        <ele>146.3</ele>
        <time>1970-01-01T01:13:06.000Z</time>
      </trkpt>
      <trkpt lat="42.451155" lon="-8.696787">
        <ele>147.3</ele>
        <time>1970-01-01T01:13:10.000Z</time>
      </trkpt>
      <trkpt lat="42.45118" lon="-8.696807">
        <ele>147.8</ele>
        <time>1970-01-01T01:13:12.000Z</time>
      </trkpt>
      <trkpt lat="42.451191" lon="-8.696818">
        <ele>148</ele>
        <time>1970-01-01T01:13:13.000Z</time>
      </trkpt>
      <trkpt lat="42.451239" lon="-8.696865">
        <ele>149.1</ele>
        <time>1970-01-01T01:13:17.000Z</time>
      </trkpt>
      <trkpt lat="42.451259" lon="-8.696884">
        <ele>149.6</ele>
        <time>1970-01-01T01:13:18.000Z</time>
      </trkpt>
      <trkpt lat="42.451259" lon="-8.696884">
        <ele>149.6</ele>
        <time>1970-01-01T01:13:19.000Z</time>
      </trkpt>
      <trkpt lat="42.451264" lon="-8.696897">
        <ele>149.8</ele>
        <time>1970-01-01T01:13:20.000Z</time>
      </trkpt>
      <trkpt lat="42.451261" lon="-8.69712">
        <ele>152.3</ele>
        <time>1970-01-01T01:13:33.000Z</time>
      </trkpt>
      <trkpt lat="42.45127" lon="-8.697158">
        <ele>152.7</ele>
        <time>1970-01-01T01:13:35.000Z</time>
      </trkpt>
      <trkpt lat="42.451276" lon="-8.697174">
        <ele>152.9</ele>
        <time>1970-01-01T01:13:36.000Z</time>
      </trkpt>
      <trkpt lat="42.451281" lon="-8.69719">
        <ele>153.1</ele>
        <time>1970-01-01T01:13:37.000Z</time>
      </trkpt>
      <trkpt lat="42.451285" lon="-8.69723">
        <ele>153.6</ele>
        <time>1970-01-01T01:13:39.000Z</time>
      </trkpt>
      <trkpt lat="42.451284" lon="-8.697263">
        <ele>153.5</ele>
        <time>1970-01-01T01:13:41.000Z</time>
      </trkpt>
      <trkpt lat="42.45128" lon="-8.697313">
        <ele>153.3</ele>
        <time>1970-01-01T01:13:47.000Z</time>
      </trkpt>
      <trkpt lat="42.451271" lon="-8.697312">
        <ele>153.3</ele>
        <time>1970-01-01T01:13:49.000Z</time>
      </trkpt>
      <trkpt lat="42.451271" lon="-8.697312">
        <ele>153.3</ele>
        <time>1970-01-01T01:13:50.000Z</time>
      </trkpt>
      <trkpt lat="42.451263" lon="-8.697312">
        <ele>153.3</ele>
        <time>1970-01-01T01:13:53.000Z</time>
      </trkpt>
      <trkpt lat="42.451264" lon="-8.697305">
        <ele>153.2</ele>
        <time>1970-01-01T01:13:55.000Z</time>
      </trkpt>
      <trkpt lat="42.451272" lon="-8.697287">
        <ele>153.2</ele>
        <time>1970-01-01T01:13:57.000Z</time>
      </trkpt>
      <trkpt lat="42.451249" lon="-8.69716">
        <ele>152.7</ele>
        <time>1970-01-01T01:14:02.000Z</time>
      </trkpt>
      <trkpt lat="42.451274" lon="-8.696987">
        <ele>150.4</ele>
        <time>1970-01-01T01:14:06.000Z</time>
      </trkpt>
      <trkpt lat="42.451458" lon="-8.696985">
        <ele>154.4</ele>
        <time>1970-01-01T01:14:14.000Z</time>
      </trkpt>
      <trkpt lat="42.451622" lon="-8.697042">
        <ele>157.7</ele>
        <time>1970-01-01T01:14:21.000Z</time>
      </trkpt>
      <trkpt lat="42.451696" lon="-8.697066">
        <ele>159.2</ele>
        <time>1970-01-01T01:14:27.000Z</time>
      </trkpt>
      <trkpt lat="42.451717" lon="-8.69707">
        <ele>159.5</ele>
        <time>1970-01-01T01:14:29.000Z</time>
      </trkpt>
      <trkpt lat="42.451738" lon="-8.697076">
        <ele>159.9</ele>
        <time>1970-01-01T01:14:31.000Z</time>
      </trkpt>
      <trkpt lat="42.451748" lon="-8.697082">
        <ele>160.1</ele>
        <time>1970-01-01T01:14:32.000Z</time>
      </trkpt>
      <trkpt lat="42.451757" lon="-8.697087">
        <ele>160.3</ele>
        <time>1970-01-01T01:14:33.000Z</time>
      </trkpt>
      <trkpt lat="42.451767" lon="-8.697094">
        <ele>160.5</ele>
        <time>1970-01-01T01:14:34.000Z</time>
      </trkpt>
      <trkpt lat="42.451778" lon="-8.697099">
        <ele>160.7</ele>
        <time>1970-01-01T01:14:35.000Z</time>
      </trkpt>
      <trkpt lat="42.451788" lon="-8.697106">
        <ele>161</ele>
        <time>1970-01-01T01:14:36.000Z</time>
      </trkpt>
      <trkpt lat="42.451833" lon="-8.697139">
        <ele>162</ele>
        <time>1970-01-01T01:14:40.000Z</time>
      </trkpt>
      <trkpt lat="42.451877" lon="-8.697186">
        <ele>163.2</ele>
        <time>1970-01-01T01:14:45.000Z</time>
      </trkpt>
      <trkpt lat="42.452037" lon="-8.697298">
        <ele>167</ele>
        <time>1970-01-01T01:15:00.000Z</time>
      </trkpt>
      <trkpt lat="42.452095" lon="-8.697298">
        <ele>168.3</ele>
        <time>1970-01-01T01:15:05.000Z</time>
      </trkpt>
      <trkpt lat="42.452275" lon="-8.697271">
        <ele>172.1</ele>
        <time>1970-01-01T01:15:19.000Z</time>
      </trkpt>
      <trkpt lat="42.45236" lon="-8.697254">
        <ele>173.8</ele>
        <time>1970-01-01T01:15:26.000Z</time>
      </trkpt>
      <trkpt lat="42.452424" lon="-8.697257">
        <ele>175</ele>
        <time>1970-01-01T01:15:31.000Z</time>
      </trkpt>
      <trkpt lat="42.452439" lon="-8.697255">
        <ele>175.3</ele>
        <time>1970-01-01T01:15:32.000Z</time>
      </trkpt>
      <trkpt lat="42.452455" lon="-8.697254">
        <ele>175.6</ele>
        <time>1970-01-01T01:15:33.000Z</time>
      </trkpt>
      <trkpt lat="42.452499" lon="-8.697261">
        <ele>176.6</ele>
        <time>1970-01-01T01:15:36.000Z</time>
      </trkpt>
      <trkpt lat="42.452509" lon="-8.697271">
        <ele>176.9</ele>
        <time>1970-01-01T01:15:37.000Z</time>
      </trkpt>
      <trkpt lat="42.452534" lon="-8.697306">
        <ele>177.8</ele>
        <time>1970-01-01T01:15:40.000Z</time>
      </trkpt>
      <trkpt lat="42.452554" lon="-8.69736">
        <ele>179.1</ele>
        <time>1970-01-01T01:15:44.000Z</time>
      </trkpt>
      <trkpt lat="42.45255" lon="-8.697374">
        <ele>179.4</ele>
        <time>1970-01-01T01:15:46.000Z</time>
      </trkpt>
      <trkpt lat="42.452498" lon="-8.697502">
        <ele>182.5</ele>
        <time>1970-01-01T01:15:56.000Z</time>
      </trkpt>
      <trkpt lat="42.452412" lon="-8.697733">
        <ele>187.5</ele>
        <time>1970-01-01T01:16:12.000Z</time>
      </trkpt>
      <trkpt lat="42.4524" lon="-8.697814">
        <ele>189.1</ele>
        <time>1970-01-01T01:16:17.000Z</time>
      </trkpt>
      <trkpt lat="42.452369" lon="-8.698059">
        <ele>193.6</ele>
        <time>1970-01-01T01:16:31.000Z</time>
      </trkpt>
      <trkpt lat="42.452347" lon="-8.698308">
        <ele>197</ele>
        <time>1970-01-01T01:16:46.000Z</time>
      </trkpt>
      <trkpt lat="42.452298" lon="-8.698552">
        <ele>201.2</ele>
        <time>1970-01-01T01:17:00.000Z</time>
      </trkpt>
      <trkpt lat="42.452291" lon="-8.698587">
        <ele>201.8</ele>
        <time>1970-01-01T01:17:02.000Z</time>
      </trkpt>
      <trkpt lat="42.45228" lon="-8.698666">
        <ele>203</ele>
        <time>1970-01-01T01:17:06.000Z</time>
      </trkpt>
      <trkpt lat="42.452279" lon="-8.698682">
        <ele>203.3</ele>
        <time>1970-01-01T01:17:07.000Z</time>
      </trkpt>
      <trkpt lat="42.452283" lon="-8.698725">
        <ele>203.9</ele>
        <time>1970-01-01T01:17:10.000Z</time>
      </trkpt>
      <trkpt lat="42.452282" lon="-8.698732">
        <ele>204</ele>
        <time>1970-01-01T01:17:11.000Z</time>
      </trkpt>
      <trkpt lat="42.452282" lon="-8.698736">
        <ele>204.1</ele>
        <time>1970-01-01T01:17:12.000Z</time>
      </trkpt>
      <trkpt lat="42.45228" lon="-8.698738">
        <ele>204.1</ele>
        <time>1970-01-01T01:17:14.000Z</time>
      </trkpt>
      <trkpt lat="42.452277" lon="-8.698736">
        <ele>204.2</ele>
        <time>1970-01-01T01:17:16.000Z</time>
      </trkpt>
      <trkpt lat="42.452231" lon="-8.698743">
        <ele>205.2</ele>
        <time>1970-01-01T01:21:05.000Z</time>
      </trkpt>
      <trkpt lat="42.452223" lon="-8.698759">
        <ele>205.3</ele>
        <time>1970-01-01T01:21:06.000Z</time>
      </trkpt>
      <trkpt lat="42.452206" lon="-8.69879">
        <ele>205.6</ele>
        <time>1970-01-01T01:21:08.000Z</time>
      </trkpt>
      <trkpt lat="42.452076" lon="-8.698966">
        <ele>207.4</ele>
        <time>1970-01-01T01:21:21.000Z</time>
      </trkpt>
      <trkpt lat="42.452064" lon="-8.698976">
        <ele>207.5</ele>
        <time>1970-01-01T01:21:22.000Z</time>
      </trkpt>
      <trkpt lat="42.452043" lon="-8.698995">
        <ele>207.7</ele>
        <time>1970-01-01T01:21:24.000Z</time>
      </trkpt>
      <trkpt lat="42.452015" lon="-8.699025">
        <ele>208</ele>
        <time>1970-01-01T01:21:27.000Z</time>
      </trkpt>
      <trkpt lat="42.451992" lon="-8.699075">
        <ele>208.4</ele>
        <time>1970-01-01T01:21:30.000Z</time>
      </trkpt>
      <trkpt lat="42.451971" lon="-8.699135">
        <ele>209</ele>
        <time>1970-01-01T01:21:33.000Z</time>
      </trkpt>
      <trkpt lat="42.451926" lon="-8.699369">
        <ele>211.8</ele>
        <time>1970-01-01T01:21:46.000Z</time>
      </trkpt>
      <trkpt lat="42.451907" lon="-8.699414">
        <ele>212.7</ele>
        <time>1970-01-01T01:21:49.000Z</time>
      </trkpt>
      <trkpt lat="42.451888" lon="-8.699471">
        <ele>213.7</ele>
        <time>1970-01-01T01:21:53.000Z</time>
      </trkpt>
      <trkpt lat="42.451882" lon="-8.699487">
        <ele>214</ele>
        <time>1970-01-01T01:21:54.000Z</time>
      </trkpt>
      <trkpt lat="42.451877" lon="-8.699502">
        <ele>214.3</ele>
        <time>1970-01-01T01:21:55.000Z</time>
      </trkpt>
      <trkpt lat="42.451869" lon="-8.699517">
        <ele>214.5</ele>
        <time>1970-01-01T01:21:56.000Z</time>
      </trkpt>
      <trkpt lat="42.451862" lon="-8.699544">
        <ele>214.8</ele>
        <time>1970-01-01T01:21:58.000Z</time>
      </trkpt>
      <trkpt lat="42.451859" lon="-8.699558">
        <ele>215</ele>
        <time>1970-01-01T01:21:59.000Z</time>
      </trkpt>
      <trkpt lat="42.451852" lon="-8.699589">
        <ele>215.4</ele>
        <time>1970-01-01T01:22:01.000Z</time>
      </trkpt>
      <trkpt lat="42.45183" lon="-8.699656">
        <ele>216.4</ele>
        <time>1970-01-01T01:22:05.000Z</time>
      </trkpt>
      <trkpt lat="42.451826" lon="-8.699672">
        <ele>216.7</ele>
        <time>1970-01-01T01:22:06.000Z</time>
      </trkpt>
      <trkpt lat="42.451786" lon="-8.699802">
        <ele>218.8</ele>
        <time>1970-01-01T01:22:14.000Z</time>
      </trkpt>
      <trkpt lat="42.451736" lon="-8.699884">
        <ele>219.8</ele>
        <time>1970-01-01T01:22:21.000Z</time>
      </trkpt>
      <trkpt lat="42.451717" lon="-8.699915">
        <ele>220.2</ele>
        <time>1970-01-01T01:22:24.000Z</time>
      </trkpt>
      <trkpt lat="42.451651" lon="-8.700023">
        <ele>221.8</ele>
        <time>1970-01-01T01:22:33.000Z</time>
      </trkpt>
      <trkpt lat="42.451564" lon="-8.700194">
        <ele>223.8</ele>
        <time>1970-01-01T01:22:48.000Z</time>
      </trkpt>
      <trkpt lat="42.451544" lon="-8.700248">
        <ele>224.5</ele>
        <time>1970-01-01T01:22:52.000Z</time>
      </trkpt>
      <trkpt lat="42.451533" lon="-8.700299">
        <ele>225.2</ele>
        <time>1970-01-01T01:22:56.000Z</time>
      </trkpt>
      <trkpt lat="42.451524" lon="-8.700353">
        <ele>226</ele>
        <time>1970-01-01T01:23:00.000Z</time>
      </trkpt>
      <trkpt lat="42.45152" lon="-8.700377">
        <ele>226.3</ele>
        <time>1970-01-01T01:23:02.000Z</time>
      </trkpt>
      <trkpt lat="42.451516" lon="-8.700387">
        <ele>226.5</ele>
        <time>1970-01-01T01:23:03.000Z</time>
      </trkpt>
      <trkpt lat="42.451501" lon="-8.700445">
        <ele>227.2</ele>
        <time>1970-01-01T01:23:08.000Z</time>
      </trkpt>
      <trkpt lat="42.451494" lon="-8.700473">
        <ele>227.7</ele>
        <time>1970-01-01T01:23:10.000Z</time>
      </trkpt>
      <trkpt lat="42.451491" lon="-8.700487">
        <ele>227.9</ele>
        <time>1970-01-01T01:23:11.000Z</time>
      </trkpt>
      <trkpt lat="42.451487" lon="-8.700501">
        <ele>228.2</ele>
        <time>1970-01-01T01:23:12.000Z</time>
      </trkpt>
      <trkpt lat="42.451481" lon="-8.700554">
        <ele>229</ele>
        <time>1970-01-01T01:23:15.000Z</time>
      </trkpt>
      <trkpt lat="42.451469" lon="-8.700642">
        <ele>230.2</ele>
        <time>1970-01-01T01:23:20.000Z</time>
      </trkpt>
      <trkpt lat="42.451435" lon="-8.700747">
        <ele>231.7</ele>
        <time>1970-01-01T01:23:27.000Z</time>
      </trkpt>
      <trkpt lat="42.451412" lon="-8.700794">
        <ele>232.4</ele>
        <time>1970-01-01T01:23:31.000Z</time>
      </trkpt>
      <trkpt lat="42.4514" lon="-8.70089">
        <ele>233.7</ele>
        <time>1970-01-01T01:23:38.000Z</time>
      </trkpt>
      <trkpt lat="42.451408" lon="-8.700967">
        <ele>234.7</ele>
        <time>1970-01-01T01:23:43.000Z</time>
      </trkpt>
      <trkpt lat="42.451409" lon="-8.701009">
        <ele>235.2</ele>
        <time>1970-01-01T01:23:46.000Z</time>
      </trkpt>
      <trkpt lat="42.451411" lon="-8.701023">
        <ele>235.4</ele>
        <time>1970-01-01T01:23:47.000Z</time>
      </trkpt>
      <trkpt lat="42.451441" lon="-8.701271">
        <ele>238.7</ele>
        <time>1970-01-01T01:24:04.000Z</time>
      </trkpt>
      <trkpt lat="42.451437" lon="-8.701344">
        <ele>239.5</ele>
        <time>1970-01-01T01:24:09.000Z</time>
      </trkpt>
      <trkpt lat="42.45144" lon="-8.701448">
        <ele>240.8</ele>
        <time>1970-01-01T01:24:17.000Z</time>
      </trkpt>
      <trkpt lat="42.451431" lon="-8.701639">
        <ele>242.3</ele>
        <time>1970-01-01T01:24:30.000Z</time>
      </trkpt>
      <trkpt lat="42.451433" lon="-8.701889">
        <ele>244</ele>
        <time>1970-01-01T01:24:47.000Z</time>
      </trkpt>
      <trkpt lat="42.451451" lon="-8.702131">
        <ele>245.8</ele>
        <time>1970-01-01T01:25:02.000Z</time>
      </trkpt>
      <trkpt lat="42.451452" lon="-8.702147">
        <ele>245.9</ele>
        <time>1970-01-01T01:25:03.000Z</time>
      </trkpt>
      <trkpt lat="42.451523" lon="-8.702377">
        <ele>248.8</ele>
        <time>1970-01-01T01:25:21.000Z</time>
      </trkpt>
      <trkpt lat="42.451532" lon="-8.702418">
        <ele>249.3</ele>
        <time>1970-01-01T01:25:24.000Z</time>
      </trkpt>
      <trkpt lat="42.451542" lon="-8.702455">
        <ele>249.6</ele>
        <time>1970-01-01T01:25:27.000Z</time>
      </trkpt>
      <trkpt lat="42.451549" lon="-8.702481">
        <ele>249.9</ele>
        <time>1970-01-01T01:25:29.000Z</time>
      </trkpt>
      <trkpt lat="42.451552" lon="-8.702492">
        <ele>250</ele>
        <time>1970-01-01T01:25:30.000Z</time>
      </trkpt>
      <trkpt lat="42.451563" lon="-8.702535">
        <ele>250.4</ele>
        <time>1970-01-01T01:25:33.000Z</time>
      </trkpt>
      <trkpt lat="42.451582" lon="-8.702627">
        <ele>251.4</ele>
        <time>1970-01-01T01:25:40.000Z</time>
      </trkpt>
      <trkpt lat="42.451592" lon="-8.702746">
        <ele>252.7</ele>
        <time>1970-01-01T01:25:51.000Z</time>
      </trkpt>
      <trkpt lat="42.451596" lon="-8.702783">
        <ele>253.1</ele>
        <time>1970-01-01T01:25:55.000Z</time>
      </trkpt>
      <trkpt lat="42.451602" lon="-8.702813">
        <ele>253.4</ele>
        <time>1970-01-01T01:25:59.000Z</time>
      </trkpt>
      <trkpt lat="42.451607" lon="-8.702854">
        <ele>253.9</ele>
        <time>1970-01-01T01:26:03.000Z</time>
      </trkpt>
      <trkpt lat="42.45161" lon="-8.702869">
        <ele>254</ele>
        <time>1970-01-01T01:26:04.000Z</time>
      </trkpt>
      <trkpt lat="42.451646" lon="-8.703094">
        <ele>255.8</ele>
        <time>1970-01-01T01:26:18.000Z</time>
      </trkpt>
      <trkpt lat="42.451652" lon="-8.703124">
        <ele>256</ele>
        <time>1970-01-01T01:26:19.000Z</time>
      </trkpt>
      <trkpt lat="42.45166" lon="-8.703153">
        <ele>256.3</ele>
        <time>1970-01-01T01:26:22.000Z</time>
      </trkpt>
      <trkpt lat="42.451678" lon="-8.703251">
        <ele>257.2</ele>
        <time>1970-01-01T01:26:27.000Z</time>
      </trkpt>
      <trkpt lat="42.451732" lon="-8.703473">
        <ele>259.5</ele>
        <time>1970-01-01T01:26:41.000Z</time>
      </trkpt>
      <trkpt lat="42.451773" lon="-8.70372">
        <ele>262.1</ele>
        <time>1970-01-01T01:26:58.000Z</time>
      </trkpt>
      <trkpt lat="42.451796" lon="-8.703875">
        <ele>263.6</ele>
        <time>1970-01-01T01:27:09.000Z</time>
      </trkpt>
      <trkpt lat="42.45181" lon="-8.70394">
        <ele>263.9</ele>
        <time>1970-01-01T01:27:13.000Z</time>
      </trkpt>
      <trkpt lat="42.451832" lon="-8.704115">
        <ele>264.9</ele>
        <time>1970-01-01T01:27:23.000Z</time>
      </trkpt>
      <trkpt lat="42.451835" lon="-8.704148">
        <ele>265</ele>
        <time>1970-01-01T01:27:25.000Z</time>
      </trkpt>
      <trkpt lat="42.451834" lon="-8.704164">
        <ele>265.1</ele>
        <time>1970-01-01T01:27:26.000Z</time>
      </trkpt>
      <trkpt lat="42.45184" lon="-8.704266">
        <ele>265.6</ele>
        <time>1970-01-01T01:27:32.000Z</time>
      </trkpt>
      <trkpt lat="42.451869" lon="-8.70439">
        <ele>266.4</ele>
        <time>1970-01-01T01:27:41.000Z</time>
      </trkpt>
      <trkpt lat="42.451916" lon="-8.704555">
        <ele>267.4</ele>
        <time>1970-01-01T01:27:52.000Z</time>
      </trkpt>
      <trkpt lat="42.452026" lon="-8.704757">
        <ele>269.7</ele>
        <time>1970-01-01T01:28:09.000Z</time>
      </trkpt>
      <trkpt lat="42.452139" lon="-8.704812">
        <ele>271.2</ele>
        <time>1970-01-01T01:28:20.000Z</time>
      </trkpt>
      <trkpt lat="42.45218" lon="-8.704814">
        <ele>271.8</ele>
        <time>1970-01-01T01:28:24.000Z</time>
      </trkpt>
      <trkpt lat="42.452361" lon="-8.704771">
        <ele>274.4</ele>
        <time>1970-01-01T01:28:40.000Z</time>
      </trkpt>
      <trkpt lat="42.452421" lon="-8.704705">
        <ele>275.3</ele>
        <time>1970-01-01T01:28:46.000Z</time>
      </trkpt>
      <trkpt lat="42.452459" lon="-8.704625">
        <ele>276.4</ele>
        <time>1970-01-01T01:28:52.000Z</time>
      </trkpt>
      <trkpt lat="42.452476" lon="-8.704372">
        <ele>278.8</ele>
        <time>1970-01-01T01:29:07.000Z</time>
      </trkpt>
      <trkpt lat="42.452545" lon="-8.704287">
        <ele>279.6</ele>
        <time>1970-01-01T01:29:21.000Z</time>
      </trkpt>
      <trkpt lat="42.452564" lon="-8.704323">
        <ele>279.8</ele>
        <time>1970-01-01T01:29:25.000Z</time>
      </trkpt>
      <trkpt lat="42.452573" lon="-8.704343">
        <ele>279.9</ele>
        <time>1970-01-01T01:29:29.000Z</time>
      </trkpt>
      <trkpt lat="42.452571" lon="-8.704346">
        <ele>279.9</ele>
        <time>1970-01-01T01:29:31.000Z</time>
      </trkpt>
      <trkpt lat="42.452628" lon="-8.704577">
        <ele>280.5</ele>
        <time>1970-01-01T01:31:05.000Z</time>
      </trkpt>
      <trkpt lat="42.452637" lon="-8.7046">
        <ele>280.6</ele>
        <time>1970-01-01T01:31:06.000Z</time>
      </trkpt>
      <trkpt lat="42.452691" lon="-8.704708">
        <ele>280.9</ele>
        <time>1970-01-01T01:31:11.000Z</time>
      </trkpt>
      <trkpt lat="42.452723" lon="-8.704749">
        <ele>281.1</ele>
        <time>1970-01-01T01:31:12.000Z</time>
      </trkpt>
      <trkpt lat="42.452723" lon="-8.704749">
        <ele>281.1</ele>
        <time>1970-01-01T01:31:13.000Z</time>
      </trkpt>
      <trkpt lat="42.452786" lon="-8.704836">
        <ele>281.4</ele>
        <time>1970-01-01T01:31:17.000Z</time>
      </trkpt>
      <trkpt lat="42.452873" lon="-8.704948">
        <ele>281.9</ele>
        <time>1970-01-01T01:31:23.000Z</time>
      </trkpt>
      <trkpt lat="42.452932" lon="-8.70501">
        <ele>282.2</ele>
        <time>1970-01-01T01:31:27.000Z</time>
      </trkpt>
      <trkpt lat="42.452973" lon="-8.705065">
        <ele>282.4</ele>
        <time>1970-01-01T01:31:30.000Z</time>
      </trkpt>
      <trkpt lat="42.453055" lon="-8.70517">
        <ele>282.6</ele>
        <time>1970-01-01T01:31:37.000Z</time>
      </trkpt>
      <trkpt lat="42.453084" lon="-8.705186">
        <ele>282.7</ele>
        <time>1970-01-01T01:31:39.000Z</time>
      </trkpt>
      <trkpt lat="42.453142" lon="-8.705225">
        <ele>282.8</ele>
        <time>1970-01-01T01:31:43.000Z</time>
      </trkpt>
      <trkpt lat="42.453183" lon="-8.705259">
        <ele>282.8</ele>
        <time>1970-01-01T01:31:46.000Z</time>
      </trkpt>
      <trkpt lat="42.453252" lon="-8.705308">
        <ele>282.9</ele>
        <time>1970-01-01T01:31:51.000Z</time>
      </trkpt>
      <trkpt lat="42.453433" lon="-8.705362">
        <ele>283.1</ele>
        <time>1970-01-01T01:32:03.000Z</time>
      </trkpt>
      <trkpt lat="42.45362" lon="-8.705442">
        <ele>283.3</ele>
        <time>1970-01-01T01:32:15.000Z</time>
      </trkpt>
      <trkpt lat="42.453815" lon="-8.705492">
        <ele>283.4</ele>
        <time>1970-01-01T01:32:26.000Z</time>
      </trkpt>
      <trkpt lat="42.453974" lon="-8.705562">
        <ele>283.6</ele>
        <time>1970-01-01T01:32:34.000Z</time>
      </trkpt>
      <trkpt lat="42.454032" lon="-8.70562">
        <ele>283.7</ele>
        <time>1970-01-01T01:32:37.000Z</time>
      </trkpt>
      <trkpt lat="42.454073" lon="-8.705696">
        <ele>283.7</ele>
        <time>1970-01-01T01:32:40.000Z</time>
      </trkpt>
      <trkpt lat="42.454081" lon="-8.70575">
        <ele>283.8</ele>
        <time>1970-01-01T01:32:41.000Z</time>
      </trkpt>
      <trkpt lat="42.454081" lon="-8.70575">
        <ele>283.8</ele>
        <time>1970-01-01T01:32:42.000Z</time>
      </trkpt>
      <trkpt lat="42.454081" lon="-8.705778">
        <ele>283.8</ele>
        <time>1970-01-01T01:32:43.000Z</time>
      </trkpt>
      <trkpt lat="42.454081" lon="-8.705807">
        <ele>283.8</ele>
        <time>1970-01-01T01:32:44.000Z</time>
      </trkpt>
      <trkpt lat="42.45408" lon="-8.705838">
        <ele>283.8</ele>
        <time>1970-01-01T01:32:45.000Z</time>
      </trkpt>
      <trkpt lat="42.454028" lon="-8.706087">
        <ele>284</ele>
        <time>1970-01-01T01:32:53.000Z</time>
      </trkpt>
      <trkpt lat="42.454038" lon="-8.706288">
        <ele>284.2</ele>
        <time>1970-01-01T01:33:00.000Z</time>
      </trkpt>
      <trkpt lat="42.454071" lon="-8.706363">
        <ele>284.2</ele>
        <time>1970-01-01T01:33:03.000Z</time>
      </trkpt>
      <trkpt lat="42.454099" lon="-8.706411">
        <ele>284.3</ele>
        <time>1970-01-01T01:33:05.000Z</time>
      </trkpt>
      <trkpt lat="42.454216" lon="-8.70661">
        <ele>284.6</ele>
        <time>1970-01-01T01:33:13.000Z</time>
      </trkpt>
      <trkpt lat="42.454349" lon="-8.706817">
        <ele>285.5</ele>
        <time>1970-01-01T01:33:22.000Z</time>
      </trkpt>
      <trkpt lat="42.454433" lon="-8.706931">
        <ele>286.2</ele>
        <time>1970-01-01T01:33:27.000Z</time>
      </trkpt>
      <trkpt lat="42.454451" lon="-8.706953">
        <ele>286.3</ele>
        <time>1970-01-01T01:33:28.000Z</time>
      </trkpt>
      <trkpt lat="42.454468" lon="-8.706974">
        <ele>286.5</ele>
        <time>1970-01-01T01:33:29.000Z</time>
      </trkpt>
      <trkpt lat="42.454485" lon="-8.706995">
        <ele>286.6</ele>
        <time>1970-01-01T01:33:30.000Z</time>
      </trkpt>
      <trkpt lat="42.454501" lon="-8.707019">
        <ele>286.7</ele>
        <time>1970-01-01T01:33:31.000Z</time>
      </trkpt>
      <trkpt lat="42.454641" lon="-8.707194">
        <ele>287.7</ele>
        <time>1970-01-01T01:33:40.000Z</time>
      </trkpt>
      <trkpt lat="42.454769" lon="-8.707296">
        <ele>288.5</ele>
        <time>1970-01-01T01:33:47.000Z</time>
      </trkpt>
      <trkpt lat="42.454939" lon="-8.707402">
        <ele>289.5</ele>
        <time>1970-01-01T01:33:56.000Z</time>
      </trkpt>
      <trkpt lat="42.455119" lon="-8.70751">
        <ele>290.6</ele>
        <time>1970-01-01T01:34:05.000Z</time>
      </trkpt>
      <trkpt lat="42.455246" lon="-8.707619">
        <ele>291.5</ele>
        <time>1970-01-01T01:34:14.000Z</time>
      </trkpt>
      <trkpt lat="42.455323" lon="-8.707762">
        <ele>292.3</ele>
        <time>1970-01-01T01:34:23.000Z</time>
      </trkpt>
      <trkpt lat="42.455404" lon="-8.707999">
        <ele>293.8</ele>
        <time>1970-01-01T01:34:36.000Z</time>
      </trkpt>
      <trkpt lat="42.455394" lon="-8.70823">
        <ele>294.9</ele>
        <time>1970-01-01T01:34:45.000Z</time>
      </trkpt>
      <trkpt lat="42.455358" lon="-8.708389">
        <ele>295.8</ele>
        <time>1970-01-01T01:34:52.000Z</time>
      </trkpt>
      <trkpt lat="42.455301" lon="-8.708566">
        <ele>296.8</ele>
        <time>1970-01-01T01:35:00.000Z</time>
      </trkpt>
      <trkpt lat="42.455234" lon="-8.708793">
        <ele>298.1</ele>
        <time>1970-01-01T01:35:10.000Z</time>
      </trkpt>
      <trkpt lat="42.455203" lon="-8.708937">
        <ele>298.8</ele>
        <time>1970-01-01T01:35:16.000Z</time>
      </trkpt>
      <trkpt lat="42.455146" lon="-8.709121">
        <ele>299.7</ele>
        <time>1970-01-01T01:35:24.000Z</time>
      </trkpt>
      <trkpt lat="42.455083" lon="-8.709375">
        <ele>301.2</ele>
        <time>1970-01-01T01:35:36.000Z</time>
      </trkpt>
      <trkpt lat="42.455101" lon="-8.709625">
        <ele>302.6</ele>
        <time>1970-01-01T01:35:46.000Z</time>
      </trkpt>
      <trkpt lat="42.455185" lon="-8.709855">
        <ele>304</ele>
        <time>1970-01-01T01:35:57.000Z</time>
      </trkpt>
      <trkpt lat="42.455277" lon="-8.710085">
        <ele>305.3</ele>
        <time>1970-01-01T01:36:08.000Z</time>
      </trkpt>
      <trkpt lat="42.45529" lon="-8.710292">
        <ele>306.3</ele>
        <time>1970-01-01T01:36:17.000Z</time>
      </trkpt>
      <trkpt lat="42.455283" lon="-8.710366">
        <ele>306.6</ele>
        <time>1970-01-01T01:36:20.000Z</time>
      </trkpt>
      <trkpt lat="42.455272" lon="-8.710406">
        <ele>306.8</ele>
        <time>1970-01-01T01:36:22.000Z</time>
      </trkpt>
      <trkpt lat="42.455236" lon="-8.71051">
        <ele>307.4</ele>
        <time>1970-01-01T01:36:27.000Z</time>
      </trkpt>
      <trkpt lat="42.455222" lon="-8.710557">
        <ele>307.6</ele>
        <time>1970-01-01T01:36:28.000Z</time>
      </trkpt>
      <trkpt lat="42.455154" lon="-8.710763">
        <ele>308.7</ele>
        <time>1970-01-01T01:36:39.000Z</time>
      </trkpt>
      <trkpt lat="42.455035" lon="-8.710955">
        <ele>309.6</ele>
        <time>1970-01-01T01:36:49.000Z</time>
      </trkpt>
      <trkpt lat="42.454909" lon="-8.711094">
        <ele>310.4</ele>
        <time>1970-01-01T01:36:57.000Z</time>
      </trkpt>
      <trkpt lat="42.454739" lon="-8.711182">
        <ele>311.3</ele>
        <time>1970-01-01T01:37:06.000Z</time>
      </trkpt>
      <trkpt lat="42.454575" lon="-8.711307">
        <ele>312.2</ele>
        <time>1970-01-01T01:37:16.000Z</time>
      </trkpt>
      <trkpt lat="42.454485" lon="-8.71146">
        <ele>312.9</ele>
        <time>1970-01-01T01:37:24.000Z</time>
      </trkpt>
      <trkpt lat="42.454456" lon="-8.711564">
        <ele>313.3</ele>
        <time>1970-01-01T01:37:28.000Z</time>
      </trkpt>
      <trkpt lat="42.454448" lon="-8.711782">
        <ele>314.1</ele>
        <time>1970-01-01T01:37:36.000Z</time>
      </trkpt>
      <trkpt lat="42.454453" lon="-8.711809">
        <ele>314.2</ele>
        <time>1970-01-01T01:37:37.000Z</time>
      </trkpt>
      <trkpt lat="42.454466" lon="-8.71191">
        <ele>314.5</ele>
        <time>1970-01-01T01:37:41.000Z</time>
      </trkpt>
      <trkpt lat="42.454523" lon="-8.712073">
        <ele>315.1</ele>
        <time>1970-01-01T01:37:48.000Z</time>
      </trkpt>
      <trkpt lat="42.454643" lon="-8.712254">
        <ele>315.9</ele>
        <time>1970-01-01T01:37:57.000Z</time>
      </trkpt>
      <trkpt lat="42.45467" lon="-8.712292">
        <ele>316.1</ele>
        <time>1970-01-01T01:37:59.000Z</time>
      </trkpt>
      <trkpt lat="42.454695" lon="-8.712327">
        <ele>316.3</ele>
        <time>1970-01-01T01:38:01.000Z</time>
      </trkpt>
      <trkpt lat="42.454709" lon="-8.712344">
        <ele>316.4</ele>
        <time>1970-01-01T01:38:02.000Z</time>
      </trkpt>
      <trkpt lat="42.454722" lon="-8.712362">
        <ele>316.5</ele>
        <time>1970-01-01T01:38:03.000Z</time>
      </trkpt>
      <trkpt lat="42.454877" lon="-8.712505">
        <ele>317.6</ele>
        <time>1970-01-01T01:38:13.000Z</time>
      </trkpt>
      <trkpt lat="42.454912" lon="-8.712533">
        <ele>317.9</ele>
        <time>1970-01-01T01:38:14.000Z</time>
      </trkpt>
      <trkpt lat="42.454951" lon="-8.712557">
        <ele>318.1</ele>
        <time>1970-01-01T01:38:17.000Z</time>
      </trkpt>
      <trkpt lat="42.455072" lon="-8.712619">
        <ele>318.9</ele>
        <time>1970-01-01T01:38:24.000Z</time>
      </trkpt>
      <trkpt lat="42.455123" lon="-8.712647">
        <ele>319.2</ele>
        <time>1970-01-01T01:38:27.000Z</time>
      </trkpt>
      <trkpt lat="42.455159" lon="-8.712664">
        <ele>319.4</ele>
        <time>1970-01-01T01:38:29.000Z</time>
      </trkpt>
      <trkpt lat="42.455176" lon="-8.712672">
        <ele>319.5</ele>
        <time>1970-01-01T01:38:30.000Z</time>
      </trkpt>
      <trkpt lat="42.455193" lon="-8.712682">
        <ele>319.7</ele>
        <time>1970-01-01T01:38:31.000Z</time>
      </trkpt>
      <trkpt lat="42.455358" lon="-8.712795">
        <ele>320.7</ele>
        <time>1970-01-01T01:38:40.000Z</time>
      </trkpt>
      <trkpt lat="42.455426" lon="-8.71285">
        <ele>321.1</ele>
        <time>1970-01-01T01:38:44.000Z</time>
      </trkpt>
      <trkpt lat="42.455577" lon="-8.712991">
        <ele>322</ele>
        <time>1970-01-01T01:38:53.000Z</time>
      </trkpt>
      <trkpt lat="42.455693" lon="-8.713139">
        <ele>322.8</ele>
        <time>1970-01-01T01:39:01.000Z</time>
      </trkpt>
      <trkpt lat="42.455816" lon="-8.713321">
        <ele>323.3</ele>
        <time>1970-01-01T01:39:10.000Z</time>
      </trkpt>
      <trkpt lat="42.455844" lon="-8.71336">
        <ele>323.4</ele>
        <time>1970-01-01T01:39:12.000Z</time>
      </trkpt>
      <trkpt lat="42.455969" lon="-8.713525">
        <ele>323.8</ele>
        <time>1970-01-01T01:39:20.000Z</time>
      </trkpt>
      <trkpt lat="42.456107" lon="-8.713687">
        <ele>324.5</ele>
        <time>1970-01-01T01:39:29.000Z</time>
      </trkpt>
      <trkpt lat="42.456146" lon="-8.713757">
        <ele>324.7</ele>
        <time>1970-01-01T01:39:32.000Z</time>
      </trkpt>
      <trkpt lat="42.456162" lon="-8.713869">
        <ele>324.9</ele>
        <time>1970-01-01T01:39:36.000Z</time>
      </trkpt>
      <trkpt lat="42.456067" lon="-8.714079">
        <ele>324.7</ele>
        <time>1970-01-01T01:39:46.000Z</time>
      </trkpt>
      <trkpt lat="42.456048" lon="-8.714105">
        <ele>324.7</ele>
        <time>1970-01-01T01:39:48.000Z</time>
      </trkpt>
      <trkpt lat="42.455947" lon="-8.714329">
        <ele>324.4</ele>
        <time>1970-01-01T01:39:59.000Z</time>
      </trkpt>
      <trkpt lat="42.455941" lon="-8.714523">
        <ele>324.1</ele>
        <time>1970-01-01T01:40:08.000Z</time>
      </trkpt>
      <trkpt lat="42.456056" lon="-8.714725">
        <ele>323.5</ele>
        <time>1970-01-01T01:40:17.000Z</time>
      </trkpt>
      <trkpt lat="42.456152" lon="-8.714959">
        <ele>322.8</ele>
        <time>1970-01-01T01:40:25.000Z</time>
      </trkpt>
      <trkpt lat="42.456152" lon="-8.715018">
        <ele>322.7</ele>
        <time>1970-01-01T01:40:26.000Z</time>
      </trkpt>
      <trkpt lat="42.45603" lon="-8.715197">
        <ele>322.3</ele>
        <time>1970-01-01T01:40:35.000Z</time>
      </trkpt>
      <trkpt lat="42.455993" lon="-8.715227">
        <ele>322.1</ele>
        <time>1970-01-01T01:40:37.000Z</time>
      </trkpt>
      <trkpt lat="42.455845" lon="-8.715322">
        <ele>321.5</ele>
        <time>1970-01-01T01:40:44.000Z</time>
      </trkpt>
      <trkpt lat="42.455777" lon="-8.715375">
        <ele>321.2</ele>
        <time>1970-01-01T01:40:47.000Z</time>
      </trkpt>
      <trkpt lat="42.455731" lon="-8.715412">
        <ele>321</ele>
        <time>1970-01-01T01:40:49.000Z</time>
      </trkpt>
      <trkpt lat="42.455686" lon="-8.715451">
        <ele>320.9</ele>
        <time>1970-01-01T01:40:50.000Z</time>
      </trkpt>
      <trkpt lat="42.455686" lon="-8.715451">
        <ele>320.9</ele>
        <time>1970-01-01T01:40:51.000Z</time>
      </trkpt>
      <trkpt lat="42.455638" lon="-8.715484">
        <ele>320.8</ele>
        <time>1970-01-01T01:40:53.000Z</time>
      </trkpt>
      <trkpt lat="42.455614" lon="-8.715493">
        <ele>320.7</ele>
        <time>1970-01-01T01:40:54.000Z</time>
      </trkpt>
      <trkpt lat="42.455506" lon="-8.715504">
        <ele>320.3</ele>
        <time>1970-01-01T01:40:58.000Z</time>
      </trkpt>
      <trkpt lat="42.455458" lon="-8.715505">
        <ele>320.1</ele>
        <time>1970-01-01T01:41:00.000Z</time>
      </trkpt>
      <trkpt lat="42.455409" lon="-8.715502">
        <ele>319.9</ele>
        <time>1970-01-01T01:41:02.000Z</time>
      </trkpt>
      <trkpt lat="42.455362" lon="-8.7155">
        <ele>319.7</ele>
        <time>1970-01-01T01:41:04.000Z</time>
      </trkpt>
      <trkpt lat="42.455308" lon="-8.715504">
        <ele>319.5</ele>
        <time>1970-01-01T01:41:06.000Z</time>
      </trkpt>
      <trkpt lat="42.455233" lon="-8.715509">
        <ele>319.3</ele>
        <time>1970-01-01T01:41:09.000Z</time>
      </trkpt>
      <trkpt lat="42.455188" lon="-8.715515">
        <ele>319.2</ele>
        <time>1970-01-01T01:41:10.000Z</time>
      </trkpt>
      <trkpt lat="42.455151" lon="-8.715523">
        <ele>319.2</ele>
        <time>1970-01-01T01:41:13.000Z</time>
      </trkpt>
      <trkpt lat="42.455123" lon="-8.715523">
        <ele>319.1</ele>
        <time>1970-01-01T01:41:14.000Z</time>
      </trkpt>
      <trkpt lat="42.455123" lon="-8.715523">
        <ele>319.1</ele>
        <time>1970-01-01T01:41:15.000Z</time>
      </trkpt>
      <trkpt lat="42.455108" lon="-8.715523">
        <ele>319.1</ele>
        <time>1970-01-01T01:41:16.000Z</time>
      </trkpt>
      <trkpt lat="42.455089" lon="-8.715523">
        <ele>319.1</ele>
        <time>1970-01-01T01:41:17.000Z</time>
      </trkpt>
      <trkpt lat="42.455067" lon="-8.715526">
        <ele>319</ele>
        <time>1970-01-01T01:41:18.000Z</time>
      </trkpt>
      <trkpt lat="42.454948" lon="-8.715538">
        <ele>318.6</ele>
        <time>1970-01-01T01:41:23.000Z</time>
      </trkpt>
      <trkpt lat="42.454896" lon="-8.715537">
        <ele>318.4</ele>
        <time>1970-01-01T01:41:26.000Z</time>
      </trkpt>
      <trkpt lat="42.45486" lon="-8.715543">
        <ele>318.2</ele>
        <time>1970-01-01T01:41:27.000Z</time>
      </trkpt>
      <trkpt lat="42.454742" lon="-8.715565">
        <ele>317.8</ele>
        <time>1970-01-01T01:41:35.000Z</time>
      </trkpt>
      <trkpt lat="42.454692" lon="-8.715597">
        <ele>317.6</ele>
        <time>1970-01-01T01:41:38.000Z</time>
      </trkpt>
      <trkpt lat="42.454662" lon="-8.715621">
        <ele>317.6</ele>
        <time>1970-01-01T01:41:39.000Z</time>
      </trkpt>
      <trkpt lat="42.454662" lon="-8.715621">
        <ele>317.6</ele>
        <time>1970-01-01T01:41:40.000Z</time>
      </trkpt>
      <trkpt lat="42.454583" lon="-8.71571">
        <ele>317.4</ele>
        <time>1970-01-01T01:41:45.000Z</time>
      </trkpt>
      <trkpt lat="42.45448" lon="-8.715786">
        <ele>317.3</ele>
        <time>1970-01-01T01:41:50.000Z</time>
      </trkpt>
      <trkpt lat="42.454289" lon="-8.715859">
        <ele>317</ele>
        <time>1970-01-01T01:41:58.000Z</time>
      </trkpt>
      <trkpt lat="42.454159" lon="-8.715878">
        <ele>316.8</ele>
        <time>1970-01-01T01:42:04.000Z</time>
      </trkpt>
      <trkpt lat="42.453974" lon="-8.71588">
        <ele>316.8</ele>
        <time>1970-01-01T01:42:13.000Z</time>
      </trkpt>
      <trkpt lat="42.453778" lon="-8.715883">
        <ele>316.8</ele>
        <time>1970-01-01T01:42:24.000Z</time>
      </trkpt>
      <trkpt lat="42.453594" lon="-8.715868">
        <ele>316.9</ele>
        <time>1970-01-01T01:42:33.000Z</time>
      </trkpt>
      <trkpt lat="42.453402" lon="-8.715808">
        <ele>317.1</ele>
        <time>1970-01-01T01:42:42.000Z</time>
      </trkpt>
      <trkpt lat="42.453227" lon="-8.715728">
        <ele>317.4</ele>
        <time>1970-01-01T01:42:50.000Z</time>
      </trkpt>
      <trkpt lat="42.453042" lon="-8.715672">
        <ele>317.6</ele>
        <time>1970-01-01T01:42:58.000Z</time>
      </trkpt>
      <trkpt lat="42.452949" lon="-8.715647">
        <ele>317.7</ele>
        <time>1970-01-01T01:43:02.000Z</time>
      </trkpt>
      <trkpt lat="42.452857" lon="-8.715623">
        <ele>317.9</ele>
        <time>1970-01-01T01:43:06.000Z</time>
      </trkpt>
      <trkpt lat="42.452832" lon="-8.715614">
        <ele>317.9</ele>
        <time>1970-01-01T01:43:07.000Z</time>
      </trkpt>
      <trkpt lat="42.452807" lon="-8.71561">
        <ele>318</ele>
        <time>1970-01-01T01:43:08.000Z</time>
      </trkpt>
      <trkpt lat="42.452613" lon="-8.715561">
        <ele>318.2</ele>
        <time>1970-01-01T01:43:16.000Z</time>
      </trkpt>
      <trkpt lat="42.452434" lon="-8.715508">
        <ele>318.4</ele>
        <time>1970-01-01T01:43:23.000Z</time>
      </trkpt>
      <trkpt lat="42.452336" lon="-8.715478">
        <ele>318.4</ele>
        <time>1970-01-01T01:43:27.000Z</time>
      </trkpt>
      <trkpt lat="42.452285" lon="-8.715461">
        <ele>318.4</ele>
        <time>1970-01-01T01:43:29.000Z</time>
      </trkpt>
      <trkpt lat="42.452233" lon="-8.715446">
        <ele>318.5</ele>
        <time>1970-01-01T01:43:31.000Z</time>
      </trkpt>
      <trkpt lat="42.452208" lon="-8.715439">
        <ele>318.5</ele>
        <time>1970-01-01T01:43:32.000Z</time>
      </trkpt>
      <trkpt lat="42.452182" lon="-8.715432">
        <ele>318.5</ele>
        <time>1970-01-01T01:43:33.000Z</time>
      </trkpt>
      <trkpt lat="42.452132" lon="-8.71542">
        <ele>318.5</ele>
        <time>1970-01-01T01:43:34.000Z</time>
      </trkpt>
      <trkpt lat="42.452106" lon="-8.715412">
        <ele>318.5</ele>
        <time>1970-01-01T01:43:36.000Z</time>
      </trkpt>
      <trkpt lat="42.452083" lon="-8.715407">
        <ele>318.5</ele>
        <time>1970-01-01T01:43:37.000Z</time>
      </trkpt>
      <trkpt lat="42.452009" lon="-8.71539">
        <ele>318.5</ele>
        <time>1970-01-01T01:43:40.000Z</time>
      </trkpt>
      <trkpt lat="42.451963" lon="-8.715383">
        <ele>318.6</ele>
        <time>1970-01-01T01:43:41.000Z</time>
      </trkpt>
      <trkpt lat="42.451963" lon="-8.715383">
        <ele>318.6</ele>
        <time>1970-01-01T01:43:42.000Z</time>
      </trkpt>
      <trkpt lat="42.451917" lon="-8.715376">
        <ele>318.7</ele>
        <time>1970-01-01T01:43:44.000Z</time>
      </trkpt>
      <trkpt lat="42.451868" lon="-8.715373">
        <ele>318.7</ele>
        <time>1970-01-01T01:43:45.000Z</time>
      </trkpt>
      <trkpt lat="42.451868" lon="-8.715373">
        <ele>318.7</ele>
        <time>1970-01-01T01:43:46.000Z</time>
      </trkpt>
      <trkpt lat="42.451843" lon="-8.715377">
        <ele>318.7</ele>
        <time>1970-01-01T01:43:47.000Z</time>
      </trkpt>
      <trkpt lat="42.451799" lon="-8.715383">
        <ele>318.8</ele>
        <time>1970-01-01T01:43:49.000Z</time>
      </trkpt>
      <trkpt lat="42.451753" lon="-8.715392">
        <ele>318.9</ele>
        <time>1970-01-01T01:43:50.000Z</time>
      </trkpt>
      <trkpt lat="42.45171" lon="-8.715405">
        <ele>319</ele>
        <time>1970-01-01T01:43:53.000Z</time>
      </trkpt>
      <trkpt lat="42.45164" lon="-8.715431">
        <ele>319.1</ele>
        <time>1970-01-01T01:43:56.000Z</time>
      </trkpt>
      <trkpt lat="42.451594" lon="-8.715451">
        <ele>319.2</ele>
        <time>1970-01-01T01:43:57.000Z</time>
      </trkpt>
      <trkpt lat="42.451572" lon="-8.715463">
        <ele>319.2</ele>
        <time>1970-01-01T01:43:59.000Z</time>
      </trkpt>
      <trkpt lat="42.451455" lon="-8.715518">
        <ele>319.4</ele>
        <time>1970-01-01T01:44:04.000Z</time>
      </trkpt>
      <trkpt lat="42.451293" lon="-8.715648">
        <ele>319.8</ele>
        <time>1970-01-01T01:44:12.000Z</time>
      </trkpt>
      <trkpt lat="42.451164" lon="-8.715819">
        <ele>320.4</ele>
        <time>1970-01-01T01:44:20.000Z</time>
      </trkpt>
      <trkpt lat="42.451028" lon="-8.716011">
        <ele>321</ele>
        <time>1970-01-01T01:44:28.000Z</time>
      </trkpt>
      <trkpt lat="42.450886" lon="-8.716212">
        <ele>321.7</ele>
        <time>1970-01-01T01:44:36.000Z</time>
      </trkpt>
      <trkpt lat="42.450769" lon="-8.716412">
        <ele>322</ele>
        <time>1970-01-01T01:44:44.000Z</time>
      </trkpt>
      <trkpt lat="42.450664" lon="-8.716586">
        <ele>322.1</ele>
        <time>1970-01-01T01:44:51.000Z</time>
      </trkpt>
      <trkpt lat="42.450557" lon="-8.716805">
        <ele>322.1</ele>
        <time>1970-01-01T01:44:59.000Z</time>
      </trkpt>
      <trkpt lat="42.450522" lon="-8.716939">
        <ele>322.1</ele>
        <time>1970-01-01T01:45:04.000Z</time>
      </trkpt>
      <trkpt lat="42.450512" lon="-8.717156">
        <ele>322.1</ele>
        <time>1970-01-01T01:45:11.000Z</time>
      </trkpt>
      <trkpt lat="42.450417" lon="-8.717349">
        <ele>322</ele>
        <time>1970-01-01T01:45:19.000Z</time>
      </trkpt>
      <trkpt lat="42.450236" lon="-8.71728">
        <ele>322</ele>
        <time>1970-01-01T01:45:27.000Z</time>
      </trkpt>
      <trkpt lat="42.450112" lon="-8.717069">
        <ele>322.1</ele>
        <time>1970-01-01T01:45:35.000Z</time>
      </trkpt>
      <trkpt lat="42.450071" lon="-8.717018">
        <ele>322.2</ele>
        <time>1970-01-01T01:45:37.000Z</time>
      </trkpt>
      <trkpt lat="42.450025" lon="-8.716978">
        <ele>322.3</ele>
        <time>1970-01-01T01:45:39.000Z</time>
      </trkpt>
      <trkpt lat="42.449976" lon="-8.716941">
        <ele>322.4</ele>
        <time>1970-01-01T01:45:41.000Z</time>
      </trkpt>
      <trkpt lat="42.449902" lon="-8.716901">
        <ele>322.5</ele>
        <time>1970-01-01T01:45:44.000Z</time>
      </trkpt>
      <trkpt lat="42.449721" lon="-8.716911">
        <ele>322.8</ele>
        <time>1970-01-01T01:45:51.000Z</time>
      </trkpt>
      <trkpt lat="42.449672" lon="-8.716936">
        <ele>322.8</ele>
        <time>1970-01-01T01:45:53.000Z</time>
      </trkpt>
      <trkpt lat="42.449644" lon="-8.716948">
        <ele>322.8</ele>
        <time>1970-01-01T01:45:54.000Z</time>
      </trkpt>
      <trkpt lat="42.449571" lon="-8.716987">
        <ele>322.9</ele>
        <time>1970-01-01T01:45:57.000Z</time>
      </trkpt>
      <trkpt lat="42.449547" lon="-8.716997">
        <ele>322.9</ele>
        <time>1970-01-01T01:45:58.000Z</time>
      </trkpt>
      <trkpt lat="42.449473" lon="-8.717029">
        <ele>322.9</ele>
        <time>1970-01-01T01:46:01.000Z</time>
      </trkpt>
      <trkpt lat="42.449347" lon="-8.717103">
        <ele>323</ele>
        <time>1970-01-01T01:46:06.000Z</time>
      </trkpt>
      <trkpt lat="42.449301" lon="-8.717141">
        <ele>323.1</ele>
        <time>1970-01-01T01:46:08.000Z</time>
      </trkpt>
      <trkpt lat="42.449253" lon="-8.717181">
        <ele>323.1</ele>
        <time>1970-01-01T01:46:10.000Z</time>
      </trkpt>
      <trkpt lat="42.44921" lon="-8.717223">
        <ele>323.2</ele>
        <time>1970-01-01T01:46:11.000Z</time>
      </trkpt>
      <trkpt lat="42.449155" lon="-8.717293">
        <ele>323.3</ele>
        <time>1970-01-01T01:46:15.000Z</time>
      </trkpt>
      <trkpt lat="42.449094" lon="-8.717369">
        <ele>323.5</ele>
        <time>1970-01-01T01:46:18.000Z</time>
      </trkpt>
      <trkpt lat="42.448959" lon="-8.717498">
        <ele>323.7</ele>
        <time>1970-01-01T01:46:24.000Z</time>
      </trkpt>
      <trkpt lat="42.448915" lon="-8.717533">
        <ele>323.7</ele>
        <time>1970-01-01T01:46:26.000Z</time>
      </trkpt>
      <trkpt lat="42.448871" lon="-8.717563">
        <ele>323.8</ele>
        <time>1970-01-01T01:46:28.000Z</time>
      </trkpt>
      <trkpt lat="42.448831" lon="-8.717591">
        <ele>323.8</ele>
        <time>1970-01-01T01:46:29.000Z</time>
      </trkpt>
      <trkpt lat="42.448786" lon="-8.717617">
        <ele>323.8</ele>
        <time>1970-01-01T01:46:32.000Z</time>
      </trkpt>
      <trkpt lat="42.448595" lon="-8.717724">
        <ele>323.8</ele>
        <time>1970-01-01T01:46:40.000Z</time>
      </trkpt>
      <trkpt lat="42.448516" lon="-8.717777">
        <ele>323.8</ele>
        <time>1970-01-01T01:46:43.000Z</time>
      </trkpt>
      <trkpt lat="42.448394" lon="-8.717863">
        <ele>323.8</ele>
        <time>1970-01-01T01:46:48.000Z</time>
      </trkpt>
      <trkpt lat="42.44837" lon="-8.71788">
        <ele>323.8</ele>
        <time>1970-01-01T01:46:49.000Z</time>
      </trkpt>
      <trkpt lat="42.448296" lon="-8.717931">
        <ele>323.8</ele>
        <time>1970-01-01T01:46:52.000Z</time>
      </trkpt>
      <trkpt lat="42.448251" lon="-8.717963">
        <ele>323.8</ele>
        <time>1970-01-01T01:46:54.000Z</time>
      </trkpt>
      <trkpt lat="42.448094" lon="-8.718109">
        <ele>323.9</ele>
        <time>1970-01-01T01:47:01.000Z</time>
      </trkpt>
      <trkpt lat="42.447992" lon="-8.718326">
        <ele>324.2</ele>
        <time>1970-01-01T01:47:08.000Z</time>
      </trkpt>
      <trkpt lat="42.447961" lon="-8.718474">
        <ele>324.4</ele>
        <time>1970-01-01T01:47:12.000Z</time>
      </trkpt>
      <trkpt lat="42.44791" lon="-8.718718">
        <ele>324.9</ele>
        <time>1970-01-01T01:47:19.000Z</time>
      </trkpt>
      <trkpt lat="42.447805" lon="-8.718928">
        <ele>325.4</ele>
        <time>1970-01-01T01:47:27.000Z</time>
      </trkpt>
      <trkpt lat="42.44762" lon="-8.719008">
        <ele>326.1</ele>
        <time>1970-01-01T01:47:36.000Z</time>
      </trkpt>
      <trkpt lat="42.447431" lon="-8.719082">
        <ele>326.9</ele>
        <time>1970-01-01T01:47:45.000Z</time>
      </trkpt>
      <trkpt lat="42.447298" lon="-8.719155">
        <ele>327.4</ele>
        <time>1970-01-01T01:47:53.000Z</time>
      </trkpt>
      <trkpt lat="42.447209" lon="-8.719194">
        <ele>327.8</ele>
        <time>1970-01-01T01:47:57.000Z</time>
      </trkpt>
      <trkpt lat="42.44709" lon="-8.719267">
        <ele>328.3</ele>
        <time>1970-01-01T01:48:03.000Z</time>
      </trkpt>
      <trkpt lat="42.446943" lon="-8.7194">
        <ele>329</ele>
        <time>1970-01-01T01:48:11.000Z</time>
      </trkpt>
      <trkpt lat="42.446929" lon="-8.719423">
        <ele>329.1</ele>
        <time>1970-01-01T01:48:12.000Z</time>
      </trkpt>
      <trkpt lat="42.446904" lon="-8.71947">
        <ele>329.3</ele>
        <time>1970-01-01T01:48:14.000Z</time>
      </trkpt>
      <trkpt lat="42.446891" lon="-8.719495">
        <ele>329.3</ele>
        <time>1970-01-01T01:48:15.000Z</time>
      </trkpt>
      <trkpt lat="42.446856" lon="-8.719568">
        <ele>329.6</ele>
        <time>1970-01-01T01:48:18.000Z</time>
      </trkpt>
      <trkpt lat="42.446828" lon="-8.719619">
        <ele>329.8</ele>
        <time>1970-01-01T01:48:19.000Z</time>
      </trkpt>
      <trkpt lat="42.446813" lon="-8.719642">
        <ele>329.9</ele>
        <time>1970-01-01T01:48:21.000Z</time>
      </trkpt>
      <trkpt lat="42.446785" lon="-8.719689">
        <ele>330</ele>
        <time>1970-01-01T01:48:22.000Z</time>
      </trkpt>
      <trkpt lat="42.446785" lon="-8.719689">
        <ele>330</ele>
        <time>1970-01-01T01:48:23.000Z</time>
      </trkpt>
      <trkpt lat="42.44669" lon="-8.719807">
        <ele>330.5</ele>
        <time>1970-01-01T01:48:29.000Z</time>
      </trkpt>
      <trkpt lat="42.44656" lon="-8.719898">
        <ele>331.1</ele>
        <time>1970-01-01T01:48:37.000Z</time>
      </trkpt>
      <trkpt lat="42.446369" lon="-8.71988">
        <ele>331.8</ele>
        <time>1970-01-01T01:48:47.000Z</time>
      </trkpt>
      <trkpt lat="42.446215" lon="-8.719862">
        <ele>332.3</ele>
        <time>1970-01-01T01:48:55.000Z</time>
      </trkpt>
      <trkpt lat="42.446098" lon="-8.719859">
        <ele>332.7</ele>
        <time>1970-01-01T01:49:01.000Z</time>
      </trkpt>
      <trkpt lat="42.445911" lon="-8.719945">
        <ele>333.2</ele>
        <time>1970-01-01T01:49:11.000Z</time>
      </trkpt>
      <trkpt lat="42.445831" lon="-8.719975">
        <ele>333.4</ele>
        <time>1970-01-01T01:49:15.000Z</time>
      </trkpt>
      <trkpt lat="42.445656" lon="-8.719966">
        <ele>333.9</ele>
        <time>1970-01-01T01:49:23.000Z</time>
      </trkpt>
      <trkpt lat="42.44557" lon="-8.719943">
        <ele>334.2</ele>
        <time>1970-01-01T01:49:27.000Z</time>
      </trkpt>
      <trkpt lat="42.445527" lon="-8.719928">
        <ele>334.3</ele>
        <time>1970-01-01T01:49:28.000Z</time>
      </trkpt>
      <trkpt lat="42.445527" lon="-8.719928">
        <ele>334.3</ele>
        <time>1970-01-01T01:49:29.000Z</time>
      </trkpt>
      <trkpt lat="42.445344" lon="-8.719853">
        <ele>334.9</ele>
        <time>1970-01-01T01:49:37.000Z</time>
      </trkpt>
      <trkpt lat="42.445154" lon="-8.719854">
        <ele>335.5</ele>
        <time>1970-01-01T01:49:45.000Z</time>
      </trkpt>
      <trkpt lat="42.445009" lon="-8.719872">
        <ele>336</ele>
        <time>1970-01-01T01:49:52.000Z</time>
      </trkpt>
      <trkpt lat="42.444971" lon="-8.719877">
        <ele>336.1</ele>
        <time>1970-01-01T01:49:54.000Z</time>
      </trkpt>
      <trkpt lat="42.444922" lon="-8.719892">
        <ele>336.2</ele>
        <time>1970-01-01T01:49:57.000Z</time>
      </trkpt>
      <trkpt lat="42.444796" lon="-8.719966">
        <ele>336.6</ele>
        <time>1970-01-01T01:50:04.000Z</time>
      </trkpt>
      <trkpt lat="42.444778" lon="-8.71998">
        <ele>336.7</ele>
        <time>1970-01-01T01:50:05.000Z</time>
      </trkpt>
      <trkpt lat="42.444742" lon="-8.720006">
        <ele>336.8</ele>
        <time>1970-01-01T01:50:06.000Z</time>
      </trkpt>
      <trkpt lat="42.444724" lon="-8.720017">
        <ele>336.9</ele>
        <time>1970-01-01T01:50:08.000Z</time>
      </trkpt>
      <trkpt lat="42.44458" lon="-8.720108">
        <ele>337.3</ele>
        <time>1970-01-01T01:50:16.000Z</time>
      </trkpt>
      <trkpt lat="42.444563" lon="-8.72012">
        <ele>337.4</ele>
        <time>1970-01-01T01:50:17.000Z</time>
      </trkpt>
      <trkpt lat="42.444528" lon="-8.720137">
        <ele>337.5</ele>
        <time>1970-01-01T01:50:18.000Z</time>
      </trkpt>
      <trkpt lat="42.444528" lon="-8.720137">
        <ele>337.5</ele>
        <time>1970-01-01T01:50:19.000Z</time>
      </trkpt>
      <trkpt lat="42.444509" lon="-8.720145">
        <ele>337.6</ele>
        <time>1970-01-01T01:50:20.000Z</time>
      </trkpt>
      <trkpt lat="42.444396" lon="-8.720221">
        <ele>337.9</ele>
        <time>1970-01-01T01:50:26.000Z</time>
      </trkpt>
      <trkpt lat="42.444334" lon="-8.720253">
        <ele>338.1</ele>
        <time>1970-01-01T01:50:29.000Z</time>
      </trkpt>
      <trkpt lat="42.4443" lon="-8.720271">
        <ele>338.2</ele>
        <time>1970-01-01T01:50:31.000Z</time>
      </trkpt>
      <trkpt lat="42.44413" lon="-8.720365">
        <ele>338.6</ele>
        <time>1970-01-01T01:50:41.000Z</time>
      </trkpt>
      <trkpt lat="42.444057" lon="-8.720399">
        <ele>338.8</ele>
        <time>1970-01-01T01:50:45.000Z</time>
      </trkpt>
      <trkpt lat="42.443986" lon="-8.720441">
        <ele>339</ele>
        <time>1970-01-01T01:50:49.000Z</time>
      </trkpt>
      <trkpt lat="42.443947" lon="-8.720459">
        <ele>339</ele>
        <time>1970-01-01T01:50:51.000Z</time>
      </trkpt>
      <trkpt lat="42.443895" lon="-8.720501">
        <ele>339.1</ele>
        <time>1970-01-01T01:50:54.000Z</time>
      </trkpt>
      <trkpt lat="42.44386" lon="-8.720531">
        <ele>339.2</ele>
        <time>1970-01-01T01:50:56.000Z</time>
      </trkpt>
      <trkpt lat="42.443751" lon="-8.720725">
        <ele>340.8</ele>
        <time>1970-01-01T01:51:06.000Z</time>
      </trkpt>
      <trkpt lat="42.443687" lon="-8.720895">
        <ele>341.8</ele>
        <time>1970-01-01T01:51:14.000Z</time>
      </trkpt>
      <trkpt lat="42.443664" lon="-8.720957">
        <ele>342.1</ele>
        <time>1970-01-01T01:51:17.000Z</time>
      </trkpt>
      <trkpt lat="42.443655" lon="-8.720978">
        <ele>342.3</ele>
        <time>1970-01-01T01:51:18.000Z</time>
      </trkpt>
      <trkpt lat="42.443629" lon="-8.721042">
        <ele>342.8</ele>
        <time>1970-01-01T01:51:21.000Z</time>
      </trkpt>
      <trkpt lat="42.44362" lon="-8.721064">
        <ele>342.9</ele>
        <time>1970-01-01T01:51:22.000Z</time>
      </trkpt>
      <trkpt lat="42.443602" lon="-8.721109">
        <ele>343.1</ele>
        <time>1970-01-01T01:51:24.000Z</time>
      </trkpt>
      <trkpt lat="42.44355" lon="-8.721251">
        <ele>343.8</ele>
        <time>1970-01-01T01:51:30.000Z</time>
      </trkpt>
      <trkpt lat="42.443531" lon="-8.721298">
        <ele>344.1</ele>
        <time>1970-01-01T01:51:32.000Z</time>
      </trkpt>
      <trkpt lat="42.443514" lon="-8.721351">
        <ele>344.3</ele>
        <time>1970-01-01T01:51:34.000Z</time>
      </trkpt>
      <trkpt lat="42.44349" lon="-8.721425">
        <ele>344.6</ele>
        <time>1970-01-01T01:51:37.000Z</time>
      </trkpt>
      <trkpt lat="42.443468" lon="-8.721503">
        <ele>344.9</ele>
        <time>1970-01-01T01:51:40.000Z</time>
      </trkpt>
      <trkpt lat="42.443445" lon="-8.721611">
        <ele>345.3</ele>
        <time>1970-01-01T01:51:44.000Z</time>
      </trkpt>
      <trkpt lat="42.443433" lon="-8.721665">
        <ele>345.5</ele>
        <time>1970-01-01T01:51:46.000Z</time>
      </trkpt>
      <trkpt lat="42.443414" lon="-8.721748">
        <ele>345.8</ele>
        <time>1970-01-01T01:51:49.000Z</time>
      </trkpt>
      <trkpt lat="42.443402" lon="-8.721805">
        <ele>346</ele>
        <time>1970-01-01T01:51:50.000Z</time>
      </trkpt>
      <trkpt lat="42.443396" lon="-8.721834">
        <ele>346.2</ele>
        <time>1970-01-01T01:51:52.000Z</time>
      </trkpt>
      <trkpt lat="42.443385" lon="-8.721891">
        <ele>346.4</ele>
        <time>1970-01-01T01:51:53.000Z</time>
      </trkpt>
      <trkpt lat="42.443385" lon="-8.721891">
        <ele>346.4</ele>
        <time>1970-01-01T01:51:54.000Z</time>
      </trkpt>
      <trkpt lat="42.443332" lon="-8.722151">
        <ele>347.7</ele>
        <time>1970-01-01T01:52:03.000Z</time>
      </trkpt>
      <trkpt lat="42.443273" lon="-8.7224">
        <ele>348.9</ele>
        <time>1970-01-01T01:52:12.000Z</time>
      </trkpt>
      <trkpt lat="42.443224" lon="-8.722656">
        <ele>349.8</ele>
        <time>1970-01-01T01:52:21.000Z</time>
      </trkpt>
      <trkpt lat="42.443197" lon="-8.722791">
        <ele>350.2</ele>
        <time>1970-01-01T01:52:26.000Z</time>
      </trkpt>
      <trkpt lat="42.443191" lon="-8.722819">
        <ele>350.3</ele>
        <time>1970-01-01T01:52:27.000Z</time>
      </trkpt>
      <trkpt lat="42.443186" lon="-8.722848">
        <ele>350.4</ele>
        <time>1970-01-01T01:52:28.000Z</time>
      </trkpt>
      <trkpt lat="42.443176" lon="-8.722907">
        <ele>350.6</ele>
        <time>1970-01-01T01:52:30.000Z</time>
      </trkpt>
      <trkpt lat="42.443142" lon="-8.723116">
        <ele>351</ele>
        <time>1970-01-01T01:52:37.000Z</time>
      </trkpt>
      <trkpt lat="42.443122" lon="-8.723379">
        <ele>351.5</ele>
        <time>1970-01-01T01:52:46.000Z</time>
      </trkpt>
      <trkpt lat="42.443174" lon="-8.723633">
        <ele>351.9</ele>
        <time>1970-01-01T01:52:57.000Z</time>
      </trkpt>
      <trkpt lat="42.443272" lon="-8.723846">
        <ele>352.6</ele>
        <time>1970-01-01T01:53:07.000Z</time>
      </trkpt>
      <trkpt lat="42.44336" lon="-8.72408">
        <ele>353</ele>
        <time>1970-01-01T01:53:17.000Z</time>
      </trkpt>
      <trkpt lat="42.44342" lon="-8.724216">
        <ele>353.1</ele>
        <time>1970-01-01T01:53:22.000Z</time>
      </trkpt>
      <trkpt lat="42.44349" lon="-8.724469">
        <ele>352.8</ele>
        <time>1970-01-01T01:53:29.000Z</time>
      </trkpt>
      <trkpt lat="42.44351" lon="-8.72472">
        <ele>352.4</ele>
        <time>1970-01-01T01:53:35.000Z</time>
      </trkpt>
      <trkpt lat="42.443447" lon="-8.724964">
        <ele>352</ele>
        <time>1970-01-01T01:53:43.000Z</time>
      </trkpt>
      <trkpt lat="42.443429" lon="-8.725022">
        <ele>352</ele>
        <time>1970-01-01T01:53:44.000Z</time>
      </trkpt>
      <trkpt lat="42.443429" lon="-8.725022">
        <ele>352</ele>
        <time>1970-01-01T01:53:45.000Z</time>
      </trkpt>
      <trkpt lat="42.443397" lon="-8.72508">
        <ele>351.9</ele>
        <time>1970-01-01T01:53:47.000Z</time>
      </trkpt>
      <trkpt lat="42.443379" lon="-8.72511">
        <ele>351.8</ele>
        <time>1970-01-01T01:53:48.000Z</time>
      </trkpt>
      <trkpt lat="42.443345" lon="-8.725167">
        <ele>351.7</ele>
        <time>1970-01-01T01:53:50.000Z</time>
      </trkpt>
      <trkpt lat="42.443276" lon="-8.725277">
        <ele>351.6</ele>
        <time>1970-01-01T01:53:54.000Z</time>
      </trkpt>
      <trkpt lat="42.443245" lon="-8.725333">
        <ele>351.5</ele>
        <time>1970-01-01T01:53:55.000Z</time>
      </trkpt>
      <trkpt lat="42.443245" lon="-8.725333">
        <ele>351.5</ele>
        <time>1970-01-01T01:53:56.000Z</time>
      </trkpt>
      <trkpt lat="42.443208" lon="-8.725393">
        <ele>351.4</ele>
        <time>1970-01-01T01:53:58.000Z</time>
      </trkpt>
      <trkpt lat="42.443189" lon="-8.725424">
        <ele>351.3</ele>
        <time>1970-01-01T01:53:59.000Z</time>
      </trkpt>
      <trkpt lat="42.44317" lon="-8.725453">
        <ele>351.3</ele>
        <time>1970-01-01T01:54:00.000Z</time>
      </trkpt>
      <trkpt lat="42.443114" lon="-8.725539">
        <ele>351.2</ele>
        <time>1970-01-01T01:54:03.000Z</time>
      </trkpt>
      <trkpt lat="42.443083" lon="-8.725588">
        <ele>351.1</ele>
        <time>1970-01-01T01:54:05.000Z</time>
      </trkpt>
      <trkpt lat="42.443057" lon="-8.725629">
        <ele>351.1</ele>
        <time>1970-01-01T01:54:06.000Z</time>
      </trkpt>
      <trkpt lat="42.443044" lon="-8.725639">
        <ele>351.1</ele>
        <time>1970-01-01T01:54:08.000Z</time>
      </trkpt>
      <trkpt lat="42.442951" lon="-8.725795">
        <ele>351.1</ele>
        <time>1970-01-01T01:54:16.000Z</time>
      </trkpt>
      <trkpt lat="42.442904" lon="-8.72588">
        <ele>351.1</ele>
        <time>1970-01-01T01:54:20.000Z</time>
      </trkpt>
      <trkpt lat="42.442861" lon="-8.725955">
        <ele>351.1</ele>
        <time>1970-01-01T01:54:23.000Z</time>
      </trkpt>
      <trkpt lat="42.442729" lon="-8.726155">
        <ele>351</ele>
        <time>1970-01-01T01:54:31.000Z</time>
      </trkpt>
      <trkpt lat="42.442624" lon="-8.726316">
        <ele>351</ele>
        <time>1970-01-01T01:54:38.000Z</time>
      </trkpt>
      <trkpt lat="42.442533" lon="-8.726444">
        <ele>351</ele>
        <time>1970-01-01T01:54:44.000Z</time>
      </trkpt>
      <trkpt lat="42.442467" lon="-8.72653">
        <ele>351</ele>
        <time>1970-01-01T01:54:48.000Z</time>
      </trkpt>
      <trkpt lat="42.442394" lon="-8.72662">
        <ele>351</ele>
        <time>1970-01-01T01:54:52.000Z</time>
      </trkpt>
      <trkpt lat="42.442327" lon="-8.726706">
        <ele>351</ele>
        <time>1970-01-01T01:54:56.000Z</time>
      </trkpt>
      <trkpt lat="42.44224" lon="-8.726811">
        <ele>350.9</ele>
        <time>1970-01-01T01:55:01.000Z</time>
      </trkpt>
      <trkpt lat="42.442209" lon="-8.726858">
        <ele>350.9</ele>
        <time>1970-01-01T01:55:03.000Z</time>
      </trkpt>
      <trkpt lat="42.442181" lon="-8.726909">
        <ele>350.8</ele>
        <time>1970-01-01T01:55:04.000Z</time>
      </trkpt>
      <trkpt lat="42.442181" lon="-8.726909">
        <ele>350.8</ele>
        <time>1970-01-01T01:55:05.000Z</time>
      </trkpt>
      <trkpt lat="42.442167" lon="-8.726935">
        <ele>350.8</ele>
        <time>1970-01-01T01:55:06.000Z</time>
      </trkpt>
      <trkpt lat="42.44211" lon="-8.727044">
        <ele>350.8</ele>
        <time>1970-01-01T01:55:10.000Z</time>
      </trkpt>
      <trkpt lat="42.442082" lon="-8.727101">
        <ele>350.7</ele>
        <time>1970-01-01T01:55:11.000Z</time>
      </trkpt>
      <trkpt lat="42.442041" lon="-8.727193">
        <ele>350.6</ele>
        <time>1970-01-01T01:55:15.000Z</time>
      </trkpt>
      <trkpt lat="42.441983" lon="-8.727343">
        <ele>350.4</ele>
        <time>1970-01-01T01:55:20.000Z</time>
      </trkpt>
      <trkpt lat="42.441967" lon="-8.727408">
        <ele>350.3</ele>
        <time>1970-01-01T01:55:22.000Z</time>
      </trkpt>
      <trkpt lat="42.441961" lon="-8.727473">
        <ele>350.2</ele>
        <time>1970-01-01T01:55:23.000Z</time>
      </trkpt>
      <trkpt lat="42.442065" lon="-8.727692">
        <ele>349.7</ele>
        <time>1970-01-01T01:55:32.000Z</time>
      </trkpt>
      <trkpt lat="42.442137" lon="-8.727763">
        <ele>349.5</ele>
        <time>1970-01-01T01:55:36.000Z</time>
      </trkpt>
      <trkpt lat="42.442156" lon="-8.72778">
        <ele>349.4</ele>
        <time>1970-01-01T01:55:37.000Z</time>
      </trkpt>
      <trkpt lat="42.442175" lon="-8.727798">
        <ele>349.4</ele>
        <time>1970-01-01T01:55:38.000Z</time>
      </trkpt>
      <trkpt lat="42.442196" lon="-8.727817">
        <ele>349.3</ele>
        <time>1970-01-01T01:55:39.000Z</time>
      </trkpt>
      <trkpt lat="42.442242" lon="-8.727865">
        <ele>349.2</ele>
        <time>1970-01-01T01:55:41.000Z</time>
      </trkpt>
      <trkpt lat="42.442398" lon="-8.728035">
        <ele>348.8</ele>
        <time>1970-01-01T01:55:48.000Z</time>
      </trkpt>
      <trkpt lat="42.442524" lon="-8.728196">
        <ele>348.3</ele>
        <time>1970-01-01T01:55:54.000Z</time>
      </trkpt>
      <trkpt lat="42.442673" lon="-8.728373">
        <ele>347.9</ele>
        <time>1970-01-01T01:56:01.000Z</time>
      </trkpt>
      <trkpt lat="42.442759" lon="-8.728473">
        <ele>347.6</ele>
        <time>1970-01-01T01:56:06.000Z</time>
      </trkpt>
      <trkpt lat="42.442911" lon="-8.728649">
        <ele>347.2</ele>
        <time>1970-01-01T01:56:15.000Z</time>
      </trkpt>
      <trkpt lat="42.443045" lon="-8.728788">
        <ele>346.9</ele>
        <time>1970-01-01T01:56:21.000Z</time>
      </trkpt>
      <trkpt lat="42.443125" lon="-8.729026">
        <ele>347.1</ele>
        <time>1970-01-01T01:56:28.000Z</time>
      </trkpt>
      <trkpt lat="42.4431" lon="-8.729291">
        <ele>346.3</ele>
        <time>1970-01-01T01:56:35.000Z</time>
      </trkpt>
      <trkpt lat="42.44304" lon="-8.729539">
        <ele>346.6</ele>
        <time>1970-01-01T01:56:42.000Z</time>
      </trkpt>
      <trkpt lat="42.443133" lon="-8.72975">
        <ele>348.4</ele>
        <time>1970-01-01T01:56:49.000Z</time>
      </trkpt>
      <trkpt lat="42.443232" lon="-8.729849">
        <ele>349.5</ele>
        <time>1970-01-01T01:56:54.000Z</time>
      </trkpt>
      <trkpt lat="42.443288" lon="-8.730096">
        <ele>350.4</ele>
        <time>1970-01-01T01:57:03.000Z</time>
      </trkpt>
      <trkpt lat="42.443243" lon="-8.730357">
        <ele>350.4</ele>
        <time>1970-01-01T01:57:12.000Z</time>
      </trkpt>
      <trkpt lat="42.443222" lon="-8.73047">
        <ele>350.4</ele>
        <time>1970-01-01T01:57:16.000Z</time>
      </trkpt>
      <trkpt lat="42.443137" lon="-8.730701">
        <ele>350.4</ele>
        <time>1970-01-01T01:57:24.000Z</time>
      </trkpt>
      <trkpt lat="42.443076" lon="-8.730823">
        <ele>350.4</ele>
        <time>1970-01-01T01:57:29.000Z</time>
      </trkpt>
      <trkpt lat="42.443024" lon="-8.730948">
        <ele>350.4</ele>
        <time>1970-01-01T01:57:34.000Z</time>
      </trkpt>
      <trkpt lat="42.443003" lon="-8.730999">
        <ele>350.4</ele>
        <time>1970-01-01T01:57:36.000Z</time>
      </trkpt>
      <trkpt lat="42.442959" lon="-8.731122">
        <ele>350.5</ele>
        <time>1970-01-01T01:57:41.000Z</time>
      </trkpt>
      <trkpt lat="42.442941" lon="-8.73117">
        <ele>350.5</ele>
        <time>1970-01-01T01:57:42.000Z</time>
      </trkpt>
      <trkpt lat="42.442941" lon="-8.73117">
        <ele>350.5</ele>
        <time>1970-01-01T01:57:43.000Z</time>
      </trkpt>
      <trkpt lat="42.442923" lon="-8.73122">
        <ele>350.5</ele>
        <time>1970-01-01T01:57:45.000Z</time>
      </trkpt>
      <trkpt lat="42.442835" lon="-8.731435">
        <ele>350.8</ele>
        <time>1970-01-01T01:57:54.000Z</time>
      </trkpt>
      <trkpt lat="42.442723" lon="-8.731642">
        <ele>351.3</ele>
        <time>1970-01-01T01:58:03.000Z</time>
      </trkpt>
      <trkpt lat="42.442645" lon="-8.731848">
        <ele>351.7</ele>
        <time>1970-01-01T01:58:11.000Z</time>
      </trkpt>
      <trkpt lat="42.44263" lon="-8.731897">
        <ele>351.8</ele>
        <time>1970-01-01T01:58:12.000Z</time>
      </trkpt>
      <trkpt lat="42.44263" lon="-8.731897">
        <ele>351.8</ele>
        <time>1970-01-01T01:58:13.000Z</time>
      </trkpt>
      <trkpt lat="42.442609" lon="-8.731962">
        <ele>352</ele>
        <time>1970-01-01T01:58:16.000Z</time>
      </trkpt>
      <trkpt lat="42.442589" lon="-8.73202">
        <ele>352.1</ele>
        <time>1970-01-01T01:58:19.000Z</time>
      </trkpt>
      <trkpt lat="42.442532" lon="-8.732251">
        <ele>352.6</ele>
        <time>1970-01-01T01:58:29.000Z</time>
      </trkpt>
      <trkpt lat="42.442528" lon="-8.732317">
        <ele>352.7</ele>
        <time>1970-01-01T01:58:32.000Z</time>
      </trkpt>
      <trkpt lat="42.442525" lon="-8.732422">
        <ele>353</ele>
        <time>1970-01-01T01:58:36.000Z</time>
      </trkpt>
      <trkpt lat="42.442525" lon="-8.732465">
        <ele>353</ele>
        <time>1970-01-01T01:58:38.000Z</time>
      </trkpt>
      <trkpt lat="42.442529" lon="-8.732525">
        <ele>353.2</ele>
        <time>1970-01-01T01:58:41.000Z</time>
      </trkpt>
      <trkpt lat="42.44254" lon="-8.732768">
        <ele>353.7</ele>
        <time>1970-01-01T01:58:51.000Z</time>
      </trkpt>
      <trkpt lat="42.442588" lon="-8.732996">
        <ele>354.4</ele>
        <time>1970-01-01T01:59:01.000Z</time>
      </trkpt>
      <trkpt lat="42.442614" lon="-8.73309">
        <ele>354.8</ele>
        <time>1970-01-01T01:59:05.000Z</time>
      </trkpt>
      <trkpt lat="42.442624" lon="-8.733138">
        <ele>354.9</ele>
        <time>1970-01-01T01:59:07.000Z</time>
      </trkpt>
      <trkpt lat="42.442627" lon="-8.733187">
        <ele>355.2</ele>
        <time>1970-01-01T01:59:09.000Z</time>
      </trkpt>
      <trkpt lat="42.442625" lon="-8.733212">
        <ele>355.3</ele>
        <time>1970-01-01T01:59:10.000Z</time>
      </trkpt>
      <trkpt lat="42.442624" lon="-8.733234">
        <ele>355.4</ele>
        <time>1970-01-01T01:59:11.000Z</time>
      </trkpt>
      <trkpt lat="42.442601" lon="-8.733339">
        <ele>356</ele>
        <time>1970-01-01T01:59:15.000Z</time>
      </trkpt>
      <trkpt lat="42.442579" lon="-8.733414">
        <ele>356.4</ele>
        <time>1970-01-01T01:59:18.000Z</time>
      </trkpt>
      <trkpt lat="42.442574" lon="-8.733439">
        <ele>356.5</ele>
        <time>1970-01-01T01:59:19.000Z</time>
      </trkpt>
      <trkpt lat="42.44257" lon="-8.733589">
        <ele>357.4</ele>
        <time>1970-01-01T01:59:25.000Z</time>
      </trkpt>
      <trkpt lat="42.44259" lon="-8.733636">
        <ele>357.7</ele>
        <time>1970-01-01T01:59:27.000Z</time>
      </trkpt>
      <trkpt lat="42.44272" lon="-8.733836">
        <ele>361.5</ele>
        <time>1970-01-01T01:59:37.000Z</time>
      </trkpt>
      <trkpt lat="42.442797" lon="-8.733902">
        <ele>363.1</ele>
        <time>1970-01-01T01:59:44.000Z</time>
      </trkpt>
      <trkpt lat="42.442971" lon="-8.733838">
        <ele>366.2</ele>
        <time>1970-01-01T01:59:59.000Z</time>
      </trkpt>
      <trkpt lat="42.443152" lon="-8.733758">
        <ele>369</ele>
        <time>1970-01-01T02:00:12.000Z</time>
      </trkpt>
      <trkpt lat="42.443175" lon="-8.733746">
        <ele>369.3</ele>
        <time>1970-01-01T02:00:13.000Z</time>
      </trkpt>
      <trkpt lat="42.443175" lon="-8.733746">
        <ele>369.3</ele>
        <time>1970-01-01T02:00:14.000Z</time>
      </trkpt>
      <trkpt lat="42.443229" lon="-8.733728">
        <ele>370.3</ele>
        <time>1970-01-01T02:00:18.000Z</time>
      </trkpt>
      <trkpt lat="42.443244" lon="-8.733726">
        <ele>370.6</ele>
        <time>1970-01-01T02:00:19.000Z</time>
      </trkpt>
      <trkpt lat="42.443259" lon="-8.733724">
        <ele>370.8</ele>
        <time>1970-01-01T02:00:20.000Z</time>
      </trkpt>
      <trkpt lat="42.443289" lon="-8.73373">
        <ele>371.1</ele>
        <time>1970-01-01T02:00:21.000Z</time>
      </trkpt>
      <trkpt lat="42.443303" lon="-8.733741">
        <ele>371.3</ele>
        <time>1970-01-01T02:00:23.000Z</time>
      </trkpt>
      <trkpt lat="42.44335" lon="-8.733765">
        <ele>371.9</ele>
        <time>1970-01-01T02:00:26.000Z</time>
      </trkpt>
      <trkpt lat="42.443526" lon="-8.733871">
        <ele>374.4</ele>
        <time>1970-01-01T02:00:37.000Z</time>
      </trkpt>
      <trkpt lat="42.443708" lon="-8.733967">
        <ele>376.9</ele>
        <time>1970-01-01T02:00:48.000Z</time>
      </trkpt>
      <trkpt lat="42.443801" lon="-8.734014">
        <ele>377.8</ele>
        <time>1970-01-01T02:00:53.000Z</time>
      </trkpt>
      <trkpt lat="42.443906" lon="-8.734053">
        <ele>378.2</ele>
        <time>1970-01-01T02:00:59.000Z</time>
      </trkpt>
      <trkpt lat="42.443926" lon="-8.734059">
        <ele>378.3</ele>
        <time>1970-01-01T02:01:00.000Z</time>
      </trkpt>
      <trkpt lat="42.443964" lon="-8.734079">
        <ele>378.5</ele>
        <time>1970-01-01T02:01:01.000Z</time>
      </trkpt>
      <trkpt lat="42.443964" lon="-8.734079">
        <ele>378.5</ele>
        <time>1970-01-01T02:01:02.000Z</time>
      </trkpt>
      <trkpt lat="42.444137" lon="-8.734157">
        <ele>379.1</ele>
        <time>1970-01-01T02:01:11.000Z</time>
      </trkpt>
      <trkpt lat="42.444196" lon="-8.734183">
        <ele>379.2</ele>
        <time>1970-01-01T02:01:14.000Z</time>
      </trkpt>
      <trkpt lat="42.444273" lon="-8.734219">
        <ele>379.5</ele>
        <time>1970-01-01T02:01:18.000Z</time>
      </trkpt>
      <trkpt lat="42.44444" lon="-8.734265">
        <ele>380.2</ele>
        <time>1970-01-01T02:01:26.000Z</time>
      </trkpt>
      <trkpt lat="42.444622" lon="-8.734316">
        <ele>381.5</ele>
        <time>1970-01-01T02:01:35.000Z</time>
      </trkpt>
      <trkpt lat="42.444658" lon="-8.734337">
        <ele>381.8</ele>
        <time>1970-01-01T02:01:37.000Z</time>
      </trkpt>
      <trkpt lat="42.444753" lon="-8.734379">
        <ele>382.5</ele>
        <time>1970-01-01T02:01:42.000Z</time>
      </trkpt>
      <trkpt lat="42.444945" lon="-8.734427">
        <ele>383.6</ele>
        <time>1970-01-01T02:01:54.000Z</time>
      </trkpt>
      <trkpt lat="42.445084" lon="-8.73449">
        <ele>384.3</ele>
        <time>1970-01-01T02:02:01.000Z</time>
      </trkpt>
      <trkpt lat="42.445105" lon="-8.7345">
        <ele>384.4</ele>
        <time>1970-01-01T02:02:02.000Z</time>
      </trkpt>
      <trkpt lat="42.445143" lon="-8.734521">
        <ele>384.5</ele>
        <time>1970-01-01T02:02:03.000Z</time>
      </trkpt>
      <trkpt lat="42.445331" lon="-8.734565">
        <ele>384.8</ele>
        <time>1970-01-01T02:02:14.000Z</time>
      </trkpt>
      <trkpt lat="42.445411" lon="-8.734586">
        <ele>384.9</ele>
        <time>1970-01-01T02:02:18.000Z</time>
      </trkpt>
      <trkpt lat="42.445599" lon="-8.734616">
        <ele>385.6</ele>
        <time>1970-01-01T02:02:28.000Z</time>
      </trkpt>
      <trkpt lat="42.445768" lon="-8.734697">
        <ele>386.7</ele>
        <time>1970-01-01T02:02:39.000Z</time>
      </trkpt>
      <trkpt lat="42.445941" lon="-8.734819">
        <ele>388.4</ele>
        <time>1970-01-01T02:02:50.000Z</time>
      </trkpt>
      <trkpt lat="42.445977" lon="-8.734856">
        <ele>388.8</ele>
        <time>1970-01-01T02:02:53.000Z</time>
      </trkpt>
      <trkpt lat="42.446077" lon="-8.734923">
        <ele>389.6</ele>
        <time>1970-01-01T02:03:02.000Z</time>
      </trkpt>
      <trkpt lat="42.446098" lon="-8.734934">
        <ele>389.8</ele>
        <time>1970-01-01T02:03:03.000Z</time>
      </trkpt>
      <trkpt lat="42.446125" lon="-8.734952">
        <ele>390.1</ele>
        <time>1970-01-01T02:03:07.000Z</time>
      </trkpt>
      <trkpt lat="42.446299" lon="-8.735044">
        <ele>391.6</ele>
        <time>1970-01-01T02:03:19.000Z</time>
      </trkpt>
      <trkpt lat="42.446365" lon="-8.735043">
        <ele>392.3</ele>
        <time>1970-01-01T02:03:25.000Z</time>
      </trkpt>
      <trkpt lat="42.446554" lon="-8.735049">
        <ele>394.1</ele>
        <time>1970-01-01T02:03:37.000Z</time>
      </trkpt>
      <trkpt lat="42.446633" lon="-8.735035">
        <ele>395</ele>
        <time>1970-01-01T02:03:42.000Z</time>
      </trkpt>
      <trkpt lat="42.446806" lon="-8.734949">
        <ele>396.9</ele>
        <time>1970-01-01T02:03:54.000Z</time>
      </trkpt>
      <trkpt lat="42.44682" lon="-8.734938">
        <ele>397.1</ele>
        <time>1970-01-01T02:03:55.000Z</time>
      </trkpt>
      <trkpt lat="42.446864" lon="-8.734908">
        <ele>397.4</ele>
        <time>1970-01-01T02:03:58.000Z</time>
      </trkpt>
      <trkpt lat="42.446921" lon="-8.734865">
        <ele>397.8</ele>
        <time>1970-01-01T02:04:02.000Z</time>
      </trkpt>
      <trkpt lat="42.446976" lon="-8.734832">
        <ele>398.2</ele>
        <time>1970-01-01T02:04:06.000Z</time>
      </trkpt>
      <trkpt lat="42.447013" lon="-8.734832">
        <ele>398.5</ele>
        <time>1970-01-01T02:04:09.000Z</time>
      </trkpt>
      <trkpt lat="42.447039" lon="-8.734835">
        <ele>398.6</ele>
        <time>1970-01-01T02:04:11.000Z</time>
      </trkpt>
      <trkpt lat="42.447071" lon="-8.734846">
        <ele>398.9</ele>
        <time>1970-01-01T02:04:13.000Z</time>
      </trkpt>
      <trkpt lat="42.447103" lon="-8.734869">
        <ele>399.1</ele>
        <time>1970-01-01T02:04:15.000Z</time>
      </trkpt>
      <trkpt lat="42.447132" lon="-8.734899">
        <ele>399.5</ele>
        <time>1970-01-01T02:04:16.000Z</time>
      </trkpt>
      <trkpt lat="42.447132" lon="-8.734899">
        <ele>399.5</ele>
        <time>1970-01-01T02:04:17.000Z</time>
      </trkpt>
      <trkpt lat="42.447141" lon="-8.734915">
        <ele>399.6</ele>
        <time>1970-01-01T02:04:18.000Z</time>
      </trkpt>
      <trkpt lat="42.447146" lon="-8.73493">
        <ele>399.7</ele>
        <time>1970-01-01T02:04:19.000Z</time>
      </trkpt>
      <trkpt lat="42.447152" lon="-8.734944">
        <ele>399.9</ele>
        <time>1970-01-01T02:04:20.000Z</time>
      </trkpt>
      <trkpt lat="42.447164" lon="-8.73498">
        <ele>400.1</ele>
        <time>1970-01-01T02:04:21.000Z</time>
      </trkpt>
      <trkpt lat="42.447164" lon="-8.73498">
        <ele>400.1</ele>
        <time>1970-01-01T02:04:22.000Z</time>
      </trkpt>
      <trkpt lat="42.447167" lon="-8.734997">
        <ele>400.3</ele>
        <time>1970-01-01T02:04:23.000Z</time>
      </trkpt>
      <trkpt lat="42.447171" lon="-8.735012">
        <ele>400.4</ele>
        <time>1970-01-01T02:04:24.000Z</time>
      </trkpt>
      <trkpt lat="42.447176" lon="-8.735161">
        <ele>401.5</ele>
        <time>1970-01-01T02:04:33.000Z</time>
      </trkpt>
      <trkpt lat="42.447182" lon="-8.735212">
        <ele>401.9</ele>
        <time>1970-01-01T02:04:36.000Z</time>
      </trkpt>
      <trkpt lat="42.447179" lon="-8.735249">
        <ele>402.1</ele>
        <time>1970-01-01T02:04:38.000Z</time>
      </trkpt>
      <trkpt lat="42.44718" lon="-8.735287">
        <ele>402.4</ele>
        <time>1970-01-01T02:04:40.000Z</time>
      </trkpt>
      <trkpt lat="42.447182" lon="-8.735306">
        <ele>402.5</ele>
        <time>1970-01-01T02:04:41.000Z</time>
      </trkpt>
      <trkpt lat="42.447223" lon="-8.735546">
        <ele>404.2</ele>
        <time>1970-01-01T02:04:54.000Z</time>
      </trkpt>
      <trkpt lat="42.447323" lon="-8.735759">
        <ele>406.2</ele>
        <time>1970-01-01T02:05:07.000Z</time>
      </trkpt>
      <trkpt lat="42.447394" lon="-8.735858">
        <ele>407.5</ele>
        <time>1970-01-01T02:05:15.000Z</time>
      </trkpt>
      <trkpt lat="42.447473" lon="-8.735962">
        <ele>408.9</ele>
        <time>1970-01-01T02:05:23.000Z</time>
      </trkpt>
      <trkpt lat="42.447527" lon="-8.736022">
        <ele>409.6</ele>
        <time>1970-01-01T02:05:28.000Z</time>
      </trkpt>
      <trkpt lat="42.447645" lon="-8.73616">
        <ele>409.6</ele>
        <time>1970-01-01T02:05:38.000Z</time>
      </trkpt>
      <trkpt lat="42.447752" lon="-8.736238">
        <ele>409.2</ele>
        <time>1970-01-01T02:05:46.000Z</time>
      </trkpt>
      <trkpt lat="42.447857" lon="-8.736277">
        <ele>408.5</ele>
        <time>1970-01-01T02:05:51.000Z</time>
      </trkpt>
      <trkpt lat="42.448069" lon="-8.736327">
        <ele>407.4</ele>
        <time>1970-01-01T02:05:57.000Z</time>
      </trkpt>
      <trkpt lat="42.448283" lon="-8.736377">
        <ele>406.5</ele>
        <time>1970-01-01T02:06:02.000Z</time>
      </trkpt>
      <trkpt lat="42.448491" lon="-8.736428">
        <ele>405.7</ele>
        <time>1970-01-01T02:06:07.000Z</time>
      </trkpt>
      <trkpt lat="42.448719" lon="-8.736486">
        <ele>404.9</ele>
        <time>1970-01-01T02:06:12.000Z</time>
      </trkpt>
      <trkpt lat="42.448948" lon="-8.736548">
        <ele>404.5</ele>
        <time>1970-01-01T02:06:16.000Z</time>
      </trkpt>
      <trkpt lat="42.449136" lon="-8.736594">
        <ele>405.1</ele>
        <time>1970-01-01T02:06:20.000Z</time>
      </trkpt>
      <trkpt lat="42.449331" lon="-8.736649">
        <ele>405.8</ele>
        <time>1970-01-01T02:06:25.000Z</time>
      </trkpt>
      <trkpt lat="42.449518" lon="-8.736711">
        <ele>406.7</ele>
        <time>1970-01-01T02:06:33.000Z</time>
      </trkpt>
      <trkpt lat="42.44965" lon="-8.736761">
        <ele>407.1</ele>
        <time>1970-01-01T02:06:39.000Z</time>
      </trkpt>
      <trkpt lat="42.449844" lon="-8.736797">
        <ele>407.5</ele>
        <time>1970-01-01T02:06:47.000Z</time>
      </trkpt>
      <trkpt lat="42.449982" lon="-8.736766">
        <ele>407.7</ele>
        <time>1970-01-01T02:06:53.000Z</time>
      </trkpt>
      <trkpt lat="42.450101" lon="-8.736707">
        <ele>408.1</ele>
        <time>1970-01-01T02:06:58.000Z</time>
      </trkpt>
      <trkpt lat="42.450143" lon="-8.736679">
        <ele>408.2</ele>
        <time>1970-01-01T02:07:00.000Z</time>
      </trkpt>
      <trkpt lat="42.450254" lon="-8.736612">
        <ele>408.6</ele>
        <time>1970-01-01T02:07:05.000Z</time>
      </trkpt>
      <trkpt lat="42.450431" lon="-8.736504">
        <ele>408.7</ele>
        <time>1970-01-01T02:07:12.000Z</time>
      </trkpt>
      <trkpt lat="42.450616" lon="-8.736391">
        <ele>408.8</ele>
        <time>1970-01-01T02:07:20.000Z</time>
      </trkpt>
      <trkpt lat="42.450663" lon="-8.736356">
        <ele>408.9</ele>
        <time>1970-01-01T02:07:22.000Z</time>
      </trkpt>
      <trkpt lat="42.450836" lon="-8.736242">
        <ele>409.3</ele>
        <time>1970-01-01T02:07:29.000Z</time>
      </trkpt>
      <trkpt lat="42.451015" lon="-8.736154">
        <ele>409.5</ele>
        <time>1970-01-01T02:07:36.000Z</time>
      </trkpt>
      <trkpt lat="42.451198" lon="-8.736037">
        <ele>409.6</ele>
        <time>1970-01-01T02:07:44.000Z</time>
      </trkpt>
      <trkpt lat="42.451346" lon="-8.735875">
        <ele>409.5</ele>
        <time>1970-01-01T02:07:51.000Z</time>
      </trkpt>
      <trkpt lat="42.451463" lon="-8.735722">
        <ele>409.5</ele>
        <time>1970-01-01T02:07:57.000Z</time>
      </trkpt>
      <trkpt lat="42.451531" lon="-8.735661">
        <ele>409.5</ele>
        <time>1970-01-01T02:08:00.000Z</time>
      </trkpt>
      <trkpt lat="42.451552" lon="-8.735643">
        <ele>409.5</ele>
        <time>1970-01-01T02:08:01.000Z</time>
      </trkpt>
      <trkpt lat="42.451596" lon="-8.735614">
        <ele>409.5</ele>
        <time>1970-01-01T02:08:04.000Z</time>
      </trkpt>
      <trkpt lat="42.451602" lon="-8.73561">
        <ele>409.5</ele>
        <time>1970-01-01T02:08:06.000Z</time>
      </trkpt>
      <trkpt lat="42.451608" lon="-8.73562">
        <ele>409.5</ele>
        <time>1970-01-01T02:08:08.000Z</time>
      </trkpt>
      <trkpt lat="42.451756" lon="-8.735657">
        <ele>410.3</ele>
        <time>1970-01-01T02:12:06.000Z</time>
      </trkpt>
      <trkpt lat="42.451799" lon="-8.735652">
        <ele>409.9</ele>
        <time>1970-01-01T02:12:12.000Z</time>
      </trkpt>
      <trkpt lat="42.451803" lon="-8.735654">
        <ele>409.9</ele>
        <time>1970-01-01T02:12:14.000Z</time>
      </trkpt>
      <trkpt lat="42.451806" lon="-8.735655">
        <ele>409.9</ele>
        <time>1970-01-01T02:12:16.000Z</time>
      </trkpt>
      <trkpt lat="42.451854" lon="-8.735759">
        <ele>409.4</ele>
        <time>1970-01-01T02:14:01.000Z</time>
      </trkpt>
      <trkpt lat="42.45186" lon="-8.735771">
        <ele>409.4</ele>
        <time>1970-01-01T02:14:02.000Z</time>
      </trkpt>
      <trkpt lat="42.451882" lon="-8.735823">
        <ele>409.2</ele>
        <time>1970-01-01T02:14:06.000Z</time>
      </trkpt>
      <trkpt lat="42.451896" lon="-8.735891">
        <ele>409</ele>
        <time>1970-01-01T02:14:10.000Z</time>
      </trkpt>
      <trkpt lat="42.451902" lon="-8.735918">
        <ele>408.9</ele>
        <time>1970-01-01T02:14:12.000Z</time>
      </trkpt>
      <trkpt lat="42.451916" lon="-8.735964">
        <ele>408.8</ele>
        <time>1970-01-01T02:14:15.000Z</time>
      </trkpt>
      <trkpt lat="42.451927" lon="-8.736001">
        <ele>408.7</ele>
        <time>1970-01-01T02:14:17.000Z</time>
      </trkpt>
      <trkpt lat="42.451934" lon="-8.736046">
        <ele>408.6</ele>
        <time>1970-01-01T02:14:19.000Z</time>
      </trkpt>
      <trkpt lat="42.451938" lon="-8.736071">
        <ele>408.5</ele>
        <time>1970-01-01T02:14:20.000Z</time>
      </trkpt>
      <trkpt lat="42.45194" lon="-8.736177">
        <ele>408.2</ele>
        <time>1970-01-01T02:14:24.000Z</time>
      </trkpt>
      <trkpt lat="42.451919" lon="-8.736291">
        <ele>408</ele>
        <time>1970-01-01T02:14:31.000Z</time>
      </trkpt>
      <trkpt lat="42.451908" lon="-8.736304">
        <ele>407.9</ele>
        <time>1970-01-01T02:14:33.000Z</time>
      </trkpt>
      <trkpt lat="42.451911" lon="-8.736346">
        <ele>407.9</ele>
        <time>1970-01-01T02:14:37.000Z</time>
      </trkpt>
      <trkpt lat="42.451914" lon="-8.73639">
        <ele>407.8</ele>
        <time>1970-01-01T02:14:40.000Z</time>
      </trkpt>
      <trkpt lat="42.451924" lon="-8.736563">
        <ele>407.7</ele>
        <time>1970-01-01T02:14:47.000Z</time>
      </trkpt>
      <trkpt lat="42.452" lon="-8.736801">
        <ele>407.8</ele>
        <time>1970-01-01T02:14:57.000Z</time>
      </trkpt>
      <trkpt lat="42.452113" lon="-8.736983">
        <ele>407.9</ele>
        <time>1970-01-01T02:15:06.000Z</time>
      </trkpt>
      <trkpt lat="42.452118" lon="-8.737153">
        <ele>408</ele>
        <time>1970-01-01T02:15:12.000Z</time>
      </trkpt>
      <trkpt lat="42.452111" lon="-8.737372">
        <ele>407.8</ele>
        <time>1970-01-01T02:15:23.000Z</time>
      </trkpt>
      <trkpt lat="42.452118" lon="-8.737414">
        <ele>407.7</ele>
        <time>1970-01-01T02:15:25.000Z</time>
      </trkpt>
      <trkpt lat="42.45212" lon="-8.737438">
        <ele>407.7</ele>
        <time>1970-01-01T02:15:26.000Z</time>
      </trkpt>
      <trkpt lat="42.452088" lon="-8.737697">
        <ele>406.8</ele>
        <time>1970-01-01T02:15:35.000Z</time>
      </trkpt>
      <trkpt lat="42.452081" lon="-8.737749">
        <ele>406.6</ele>
        <time>1970-01-01T02:15:36.000Z</time>
      </trkpt>
      <trkpt lat="42.452061" lon="-8.737995">
        <ele>405.2</ele>
        <time>1970-01-01T02:15:45.000Z</time>
      </trkpt>
      <trkpt lat="42.452054" lon="-8.73829">
        <ele>403.5</ele>
        <time>1970-01-01T02:15:50.000Z</time>
      </trkpt>
      <trkpt lat="42.452053" lon="-8.738348">
        <ele>403.1</ele>
        <time>1970-01-01T02:15:51.000Z</time>
      </trkpt>
      <trkpt lat="42.452042" lon="-8.738532">
        <ele>401.7</ele>
        <time>1970-01-01T02:15:54.000Z</time>
      </trkpt>
      <trkpt lat="42.451995" lon="-8.738806">
        <ele>400.4</ele>
        <time>1970-01-01T02:15:59.000Z</time>
      </trkpt>
      <trkpt lat="42.451917" lon="-8.738977">
        <ele>399.7</ele>
        <time>1970-01-01T02:16:03.000Z</time>
      </trkpt>
      <trkpt lat="42.451864" lon="-8.739077">
        <ele>399.3</ele>
        <time>1970-01-01T02:16:05.000Z</time>
      </trkpt>
      <trkpt lat="42.451819" lon="-8.739159">
        <ele>399</ele>
        <time>1970-01-01T02:16:06.000Z</time>
      </trkpt>
      <trkpt lat="42.451819" lon="-8.739159">
        <ele>399</ele>
        <time>1970-01-01T02:16:07.000Z</time>
      </trkpt>
      <trkpt lat="42.451783" lon="-8.739236">
        <ele>398.8</ele>
        <time>1970-01-01T02:16:09.000Z</time>
      </trkpt>
      <trkpt lat="42.451768" lon="-8.739296">
        <ele>398.6</ele>
        <time>1970-01-01T02:16:11.000Z</time>
      </trkpt>
      <trkpt lat="42.451767" lon="-8.739339">
        <ele>398.4</ele>
        <time>1970-01-01T02:16:13.000Z</time>
      </trkpt>
      <trkpt lat="42.451769" lon="-8.739374">
        <ele>398.3</ele>
        <time>1970-01-01T02:16:15.000Z</time>
      </trkpt>
      <trkpt lat="42.451778" lon="-8.739398">
        <ele>398.2</ele>
        <time>1970-01-01T02:16:16.000Z</time>
      </trkpt>
      <trkpt lat="42.451784" lon="-8.739428">
        <ele>398.1</ele>
        <time>1970-01-01T02:16:19.000Z</time>
      </trkpt>
      <trkpt lat="42.451753" lon="-8.73965">
        <ele>396.9</ele>
        <time>1970-01-01T02:16:31.000Z</time>
      </trkpt>
      <trkpt lat="42.451742" lon="-8.739665">
        <ele>396.7</ele>
        <time>1970-01-01T02:16:32.000Z</time>
      </trkpt>
      <trkpt lat="42.45173" lon="-8.73968">
        <ele>396.6</ele>
        <time>1970-01-01T02:16:33.000Z</time>
      </trkpt>
      <trkpt lat="42.451704" lon="-8.739712">
        <ele>396.4</ele>
        <time>1970-01-01T02:16:35.000Z</time>
      </trkpt>
      <trkpt lat="42.451587" lon="-8.739899">
        <ele>395.6</ele>
        <time>1970-01-01T02:16:46.000Z</time>
      </trkpt>
      <trkpt lat="42.451534" lon="-8.739969">
        <ele>395.5</ele>
        <time>1970-01-01T02:16:50.000Z</time>
      </trkpt>
      <trkpt lat="42.451402" lon="-8.740085">
        <ele>395.2</ele>
        <time>1970-01-01T02:17:00.000Z</time>
      </trkpt>
      <trkpt lat="42.451258" lon="-8.74026">
        <ele>394.5</ele>
        <time>1970-01-01T02:17:09.000Z</time>
      </trkpt>
      <trkpt lat="42.451163" lon="-8.740358">
        <ele>394.2</ele>
        <time>1970-01-01T02:17:15.000Z</time>
      </trkpt>
      <trkpt lat="42.451047" lon="-8.740538">
        <ele>393.5</ele>
        <time>1970-01-01T02:17:23.000Z</time>
      </trkpt>
      <trkpt lat="42.450949" lon="-8.740742">
        <ele>393</ele>
        <time>1970-01-01T02:17:29.000Z</time>
      </trkpt>
      <trkpt lat="42.450873" lon="-8.740979">
        <ele>392.4</ele>
        <time>1970-01-01T02:17:35.000Z</time>
      </trkpt>
      <trkpt lat="42.450836" lon="-8.741053">
        <ele>392.3</ele>
        <time>1970-01-01T02:17:38.000Z</time>
      </trkpt>
      <trkpt lat="42.450746" lon="-8.74122">
        <ele>392</ele>
        <time>1970-01-01T02:17:43.000Z</time>
      </trkpt>
      <trkpt lat="42.45073" lon="-8.741246">
        <ele>391.9</ele>
        <time>1970-01-01T02:17:44.000Z</time>
      </trkpt>
      <trkpt lat="42.450699" lon="-8.74129">
        <ele>391.8</ele>
        <time>1970-01-01T02:17:45.000Z</time>
      </trkpt>
      <trkpt lat="42.450699" lon="-8.74129">
        <ele>391.8</ele>
        <time>1970-01-01T02:17:46.000Z</time>
      </trkpt>
      <trkpt lat="42.450685" lon="-8.741309">
        <ele>391.7</ele>
        <time>1970-01-01T02:17:47.000Z</time>
      </trkpt>
      <trkpt lat="42.450587" lon="-8.741392">
        <ele>391.4</ele>
        <time>1970-01-01T02:17:54.000Z</time>
      </trkpt>
      <trkpt lat="42.450545" lon="-8.741432">
        <ele>391.3</ele>
        <time>1970-01-01T02:17:57.000Z</time>
      </trkpt>
      <trkpt lat="42.450532" lon="-8.741447">
        <ele>391.2</ele>
        <time>1970-01-01T02:17:58.000Z</time>
      </trkpt>
      <trkpt lat="42.450493" lon="-8.741472">
        <ele>391.1</ele>
        <time>1970-01-01T02:18:02.000Z</time>
      </trkpt>
      <trkpt lat="42.450479" lon="-8.741481">
        <ele>391.1</ele>
        <time>1970-01-01T02:18:05.000Z</time>
      </trkpt>
      <trkpt lat="42.450359" lon="-8.741602">
        <ele>390.9</ele>
        <time>1970-01-01T02:18:20.000Z</time>
      </trkpt>
      <trkpt lat="42.450308" lon="-8.741684">
        <ele>390.7</ele>
        <time>1970-01-01T02:18:24.000Z</time>
      </trkpt>
      <trkpt lat="42.450286" lon="-8.741729">
        <ele>390.6</ele>
        <time>1970-01-01T02:18:26.000Z</time>
      </trkpt>
      <trkpt lat="42.450256" lon="-8.741818">
        <ele>390.4</ele>
        <time>1970-01-01T02:18:30.000Z</time>
      </trkpt>
      <trkpt lat="42.450238" lon="-8.741923">
        <ele>390.2</ele>
        <time>1970-01-01T02:18:35.000Z</time>
      </trkpt>
      <trkpt lat="42.450232" lon="-8.741996">
        <ele>390.1</ele>
        <time>1970-01-01T02:18:40.000Z</time>
      </trkpt>
      <trkpt lat="42.450223" lon="-8.741996">
        <ele>390.1</ele>
        <time>1970-01-01T02:18:43.000Z</time>
      </trkpt>
      <trkpt lat="42.45016" lon="-8.742187">
        <ele>390</ele>
        <time>1970-01-01T02:20:31.000Z</time>
      </trkpt>
      <trkpt lat="42.450159" lon="-8.74221">
        <ele>390</ele>
        <time>1970-01-01T02:20:32.000Z</time>
      </trkpt>
      <trkpt lat="42.450164" lon="-8.742464">
        <ele>390.4</ele>
        <time>1970-01-01T02:20:44.000Z</time>
      </trkpt>
      <trkpt lat="42.450156" lon="-8.742629">
        <ele>390.6</ele>
        <time>1970-01-01T02:20:50.000Z</time>
      </trkpt>
      <trkpt lat="42.45014" lon="-8.742735">
        <ele>390.7</ele>
        <time>1970-01-01T02:20:54.000Z</time>
      </trkpt>
      <trkpt lat="42.45012" lon="-8.742867">
        <ele>390.9</ele>
        <time>1970-01-01T02:21:00.000Z</time>
      </trkpt>
      <trkpt lat="42.450115" lon="-8.742899">
        <ele>391</ele>
        <time>1970-01-01T02:21:01.000Z</time>
      </trkpt>
      <trkpt lat="42.450111" lon="-8.742916">
        <ele>391</ele>
        <time>1970-01-01T02:21:03.000Z</time>
      </trkpt>
      <trkpt lat="42.450104" lon="-8.742983">
        <ele>391.1</ele>
        <time>1970-01-01T02:21:06.000Z</time>
      </trkpt>
      <trkpt lat="42.450057" lon="-8.743237">
        <ele>391.5</ele>
        <time>1970-01-01T02:21:17.000Z</time>
      </trkpt>
      <trkpt lat="42.449939" lon="-8.743436">
        <ele>391.8</ele>
        <time>1970-01-01T02:21:26.000Z</time>
      </trkpt>
      <trkpt lat="42.449826" lon="-8.743635">
        <ele>391.6</ele>
        <time>1970-01-01T02:21:35.000Z</time>
      </trkpt>
      <trkpt lat="42.449782" lon="-8.743757">
        <ele>391.7</ele>
        <time>1970-01-01T02:21:40.000Z</time>
      </trkpt>
      <trkpt lat="42.449765" lon="-8.74381">
        <ele>391.7</ele>
        <time>1970-01-01T02:21:41.000Z</time>
      </trkpt>
      <trkpt lat="42.449765" lon="-8.74381">
        <ele>391.7</ele>
        <time>1970-01-01T02:21:42.000Z</time>
      </trkpt>
      <trkpt lat="42.449759" lon="-8.743837">
        <ele>391.7</ele>
        <time>1970-01-01T02:21:43.000Z</time>
      </trkpt>
      <trkpt lat="42.449752" lon="-8.743864">
        <ele>391.7</ele>
        <time>1970-01-01T02:21:44.000Z</time>
      </trkpt>
      <trkpt lat="42.449738" lon="-8.743917">
        <ele>391.7</ele>
        <time>1970-01-01T02:21:45.000Z</time>
      </trkpt>
      <trkpt lat="42.449665" lon="-8.744124">
        <ele>391.7</ele>
        <time>1970-01-01T02:21:54.000Z</time>
      </trkpt>
      <trkpt lat="42.449656" lon="-8.744152">
        <ele>391.7</ele>
        <time>1970-01-01T02:21:55.000Z</time>
      </trkpt>
      <trkpt lat="42.449626" lon="-8.744237">
        <ele>391.6</ele>
        <time>1970-01-01T02:21:58.000Z</time>
      </trkpt>
      <trkpt lat="42.449609" lon="-8.744296">
        <ele>391.6</ele>
        <time>1970-01-01T02:22:00.000Z</time>
      </trkpt>
      <trkpt lat="42.449573" lon="-8.744429">
        <ele>391.2</ele>
        <time>1970-01-01T02:22:04.000Z</time>
      </trkpt>
      <trkpt lat="42.449566" lon="-8.744465">
        <ele>391</ele>
        <time>1970-01-01T02:22:05.000Z</time>
      </trkpt>
      <trkpt lat="42.449546" lon="-8.744538">
        <ele>390.8</ele>
        <time>1970-01-01T02:22:06.000Z</time>
      </trkpt>
      <trkpt lat="42.449546" lon="-8.744538">
        <ele>390.8</ele>
        <time>1970-01-01T02:22:07.000Z</time>
      </trkpt>
      <trkpt lat="42.449534" lon="-8.744575">
        <ele>390.6</ele>
        <time>1970-01-01T02:22:08.000Z</time>
      </trkpt>
      <trkpt lat="42.449481" lon="-8.744784">
        <ele>389.9</ele>
        <time>1970-01-01T02:22:13.000Z</time>
      </trkpt>
      <trkpt lat="42.449468" lon="-8.744829">
        <ele>389.7</ele>
        <time>1970-01-01T02:22:14.000Z</time>
      </trkpt>
      <trkpt lat="42.449441" lon="-8.744923">
        <ele>389.3</ele>
        <time>1970-01-01T02:22:16.000Z</time>
      </trkpt>
      <trkpt lat="42.449402" lon="-8.745131">
        <ele>388.1</ele>
        <time>1970-01-01T02:22:20.000Z</time>
      </trkpt>
      <trkpt lat="42.449373" lon="-8.7453">
        <ele>387.2</ele>
        <time>1970-01-01T02:22:23.000Z</time>
      </trkpt>
      <trkpt lat="42.449352" lon="-8.745422">
        <ele>386.3</ele>
        <time>1970-01-01T02:22:25.000Z</time>
      </trkpt>
      <trkpt lat="42.449286" lon="-8.745648">
        <ele>384.7</ele>
        <time>1970-01-01T02:22:29.000Z</time>
      </trkpt>
      <trkpt lat="42.449145" lon="-8.74581">
        <ele>383.4</ele>
        <time>1970-01-01T02:22:34.000Z</time>
      </trkpt>
      <trkpt lat="42.449113" lon="-8.745832">
        <ele>383.1</ele>
        <time>1970-01-01T02:22:35.000Z</time>
      </trkpt>
      <trkpt lat="42.44905" lon="-8.745869">
        <ele>382.7</ele>
        <time>1970-01-01T02:22:37.000Z</time>
      </trkpt>
      <trkpt lat="42.448852" lon="-8.745937">
        <ele>380.8</ele>
        <time>1970-01-01T02:22:42.000Z</time>
      </trkpt>
      <trkpt lat="42.448661" lon="-8.746022">
        <ele>379</ele>
        <time>1970-01-01T02:22:46.000Z</time>
      </trkpt>
      <trkpt lat="42.448481" lon="-8.746075">
        <ele>377</ele>
        <time>1970-01-01T02:22:49.000Z</time>
      </trkpt>
      <trkpt lat="42.448257" lon="-8.746116">
        <ele>374.5</ele>
        <time>1970-01-01T02:22:53.000Z</time>
      </trkpt>
      <trkpt lat="42.44808" lon="-8.746168">
        <ele>371.5</ele>
        <time>1970-01-01T02:23:02.000Z</time>
      </trkpt>
      <trkpt lat="42.448075" lon="-8.74624">
        <ele>371</ele>
        <time>1970-01-01T02:23:04.000Z</time>
      </trkpt>
      <trkpt lat="42.448087" lon="-8.746298">
        <ele>370</ele>
        <time>1970-01-01T02:23:10.000Z</time>
      </trkpt>
      <trkpt lat="42.4481" lon="-8.746355">
        <ele>369.8</ele>
        <time>1970-01-01T02:24:15.000Z</time>
      </trkpt>
      <trkpt lat="42.448112" lon="-8.746413">
        <ele>369.7</ele>
        <time>1970-01-01T02:24:16.000Z</time>
      </trkpt>
      <trkpt lat="42.448288" lon="-8.746593">
        <ele>369.5</ele>
        <time>1970-01-01T02:24:20.000Z</time>
      </trkpt>
      <trkpt lat="42.448473" lon="-8.746728">
        <ele>369.6</ele>
        <time>1970-01-01T02:24:23.000Z</time>
      </trkpt>
      <trkpt lat="42.448667" lon="-8.746842">
        <ele>369.7</ele>
        <time>1970-01-01T02:24:26.000Z</time>
      </trkpt>
      <trkpt lat="42.448877" lon="-8.74695">
        <ele>370.6</ele>
        <time>1970-01-01T02:24:29.000Z</time>
      </trkpt>
      <trkpt lat="42.449107" lon="-8.747069">
        <ele>372.5</ele>
        <time>1970-01-01T02:24:32.000Z</time>
      </trkpt>
      <trkpt lat="42.449328" lon="-8.747161">
        <ele>371.2</ele>
        <time>1970-01-01T02:24:35.000Z</time>
      </trkpt>
      <trkpt lat="42.449535" lon="-8.747272">
        <ele>369.9</ele>
        <time>1970-01-01T02:24:38.000Z</time>
      </trkpt>
      <trkpt lat="42.44974" lon="-8.747365">
        <ele>368.4</ele>
        <time>1970-01-01T02:24:41.000Z</time>
      </trkpt>
      <trkpt lat="42.449928" lon="-8.747441">
        <ele>366.8</ele>
        <time>1970-01-01T02:24:44.000Z</time>
      </trkpt>
      <trkpt lat="42.450158" lon="-8.747534">
        <ele>365</ele>
        <time>1970-01-01T02:24:48.000Z</time>
      </trkpt>
      <trkpt lat="42.450332" lon="-8.747603">
        <ele>363.4</ele>
        <time>1970-01-01T02:24:51.000Z</time>
      </trkpt>
      <trkpt lat="42.450517" lon="-8.747679">
        <ele>361.6</ele>
        <time>1970-01-01T02:24:54.000Z</time>
      </trkpt>
      <trkpt lat="42.450702" lon="-8.747753">
        <ele>359.9</ele>
        <time>1970-01-01T02:24:57.000Z</time>
      </trkpt>
      <trkpt lat="42.450886" lon="-8.747833">
        <ele>358.4</ele>
        <time>1970-01-01T02:25:00.000Z</time>
      </trkpt>
      <trkpt lat="42.451064" lon="-8.747918">
        <ele>356.9</ele>
        <time>1970-01-01T02:25:03.000Z</time>
      </trkpt>
      <trkpt lat="42.451243" lon="-8.748022">
        <ele>355.3</ele>
        <time>1970-01-01T02:25:06.000Z</time>
      </trkpt>
      <trkpt lat="42.451417" lon="-8.748145">
        <ele>353.6</ele>
        <time>1970-01-01T02:25:09.000Z</time>
      </trkpt>
      <trkpt lat="42.451584" lon="-8.748283">
        <ele>351.9</ele>
        <time>1970-01-01T02:25:12.000Z</time>
      </trkpt>
      <trkpt lat="42.451749" lon="-8.748442">
        <ele>350.3</ele>
        <time>1970-01-01T02:25:16.000Z</time>
      </trkpt>
      <trkpt lat="42.451821" lon="-8.748508">
        <ele>349.7</ele>
        <time>1970-01-01T02:25:21.000Z</time>
      </trkpt>
      <trkpt lat="42.451828" lon="-8.748512">
        <ele>349.6</ele>
        <time>1970-01-01T02:25:26.000Z</time>
      </trkpt>
      <trkpt lat="42.451762" lon="-8.748641">
        <ele>349.1</ele>
        <time>1970-01-01T02:27:56.000Z</time>
      </trkpt>
      <trkpt lat="42.45174" lon="-8.748657">
        <ele>349.1</ele>
        <time>1970-01-01T02:27:57.000Z</time>
      </trkpt>
      <trkpt lat="42.451676" lon="-8.748695">
        <ele>349.3</ele>
        <time>1970-01-01T02:28:00.000Z</time>
      </trkpt>
      <trkpt lat="42.451623" lon="-8.748722">
        <ele>349.4</ele>
        <time>1970-01-01T02:28:03.000Z</time>
      </trkpt>
      <trkpt lat="42.451584" lon="-8.748742">
        <ele>349.5</ele>
        <time>1970-01-01T02:28:04.000Z</time>
      </trkpt>
      <trkpt lat="42.451584" lon="-8.748742">
        <ele>349.5</ele>
        <time>1970-01-01T02:28:05.000Z</time>
      </trkpt>
      <trkpt lat="42.451562" lon="-8.74875">
        <ele>349.6</ele>
        <time>1970-01-01T02:28:06.000Z</time>
      </trkpt>
      <trkpt lat="42.451518" lon="-8.748758">
        <ele>349.6</ele>
        <time>1970-01-01T02:28:08.000Z</time>
      </trkpt>
      <trkpt lat="42.451328" lon="-8.748839">
        <ele>349.4</ele>
        <time>1970-01-01T02:28:17.000Z</time>
      </trkpt>
      <trkpt lat="42.451284" lon="-8.748851">
        <ele>349.5</ele>
        <time>1970-01-01T02:28:19.000Z</time>
      </trkpt>
      <trkpt lat="42.451234" lon="-8.748863">
        <ele>349.6</ele>
        <time>1970-01-01T02:28:21.000Z</time>
      </trkpt>
      <trkpt lat="42.451186" lon="-8.748868">
        <ele>349.6</ele>
        <time>1970-01-01T02:28:23.000Z</time>
      </trkpt>
      <trkpt lat="42.451139" lon="-8.748863">
        <ele>349.7</ele>
        <time>1970-01-01T02:28:24.000Z</time>
      </trkpt>
      <trkpt lat="42.451112" lon="-8.74886">
        <ele>349.7</ele>
        <time>1970-01-01T02:28:26.000Z</time>
      </trkpt>
      <trkpt lat="42.451055" lon="-8.748866">
        <ele>349.8</ele>
        <time>1970-01-01T02:28:28.000Z</time>
      </trkpt>
      <trkpt lat="42.451028" lon="-8.748873">
        <ele>349.9</ele>
        <time>1970-01-01T02:28:29.000Z</time>
      </trkpt>
      <trkpt lat="42.450978" lon="-8.748886">
        <ele>350</ele>
        <time>1970-01-01T02:28:30.000Z</time>
      </trkpt>
      <trkpt lat="42.450892" lon="-8.748876">
        <ele>349.9</ele>
        <time>1970-01-01T02:28:34.000Z</time>
      </trkpt>
      <trkpt lat="42.450781" lon="-8.748856">
        <ele>349.4</ele>
        <time>1970-01-01T02:28:39.000Z</time>
      </trkpt>
      <trkpt lat="42.450758" lon="-8.748854">
        <ele>349.2</ele>
        <time>1970-01-01T02:28:40.000Z</time>
      </trkpt>
      <trkpt lat="42.450712" lon="-8.748849">
        <ele>348.9</ele>
        <time>1970-01-01T02:28:41.000Z</time>
      </trkpt>
      <trkpt lat="42.450691" lon="-8.748834">
        <ele>348.9</ele>
        <time>1970-01-01T02:28:43.000Z</time>
      </trkpt>
      <trkpt lat="42.45061" lon="-8.7488">
        <ele>349</ele>
        <time>1970-01-01T02:28:47.000Z</time>
      </trkpt>
      <trkpt lat="42.450572" lon="-8.748786">
        <ele>349</ele>
        <time>1970-01-01T02:28:49.000Z</time>
      </trkpt>
      <trkpt lat="42.450531" lon="-8.748771">
        <ele>349</ele>
        <time>1970-01-01T02:28:50.000Z</time>
      </trkpt>
      <trkpt lat="42.450496" lon="-8.748761">
        <ele>349</ele>
        <time>1970-01-01T02:28:53.000Z</time>
      </trkpt>
      <trkpt lat="42.450459" lon="-8.748742">
        <ele>349</ele>
        <time>1970-01-01T02:28:55.000Z</time>
      </trkpt>
      <trkpt lat="42.450437" lon="-8.748735">
        <ele>349</ele>
        <time>1970-01-01T02:28:56.000Z</time>
      </trkpt>
      <trkpt lat="42.450415" lon="-8.748718">
        <ele>349.1</ele>
        <time>1970-01-01T02:28:57.000Z</time>
      </trkpt>
      <trkpt lat="42.450415" lon="-8.748718">
        <ele>349.1</ele>
        <time>1970-01-01T02:28:58.000Z</time>
      </trkpt>
      <trkpt lat="42.450349" lon="-8.748667">
        <ele>349.2</ele>
        <time>1970-01-01T02:29:04.000Z</time>
      </trkpt>
      <trkpt lat="42.450312" lon="-8.748661">
        <ele>349.2</ele>
        <time>1970-01-01T02:29:08.000Z</time>
      </trkpt>
      <trkpt lat="42.450285" lon="-8.748646">
        <ele>349.3</ele>
        <time>1970-01-01T02:29:10.000Z</time>
      </trkpt>
      <trkpt lat="42.450266" lon="-8.748629">
        <ele>349.4</ele>
        <time>1970-01-01T02:29:11.000Z</time>
      </trkpt>
      <trkpt lat="42.450266" lon="-8.748629">
        <ele>349.4</ele>
        <time>1970-01-01T02:29:12.000Z</time>
      </trkpt>
      <trkpt lat="42.450221" lon="-8.748607">
        <ele>349.5</ele>
        <time>1970-01-01T02:29:15.000Z</time>
      </trkpt>
      <trkpt lat="42.450209" lon="-8.748603">
        <ele>349.6</ele>
        <time>1970-01-01T02:29:16.000Z</time>
      </trkpt>
      <trkpt lat="42.450195" lon="-8.748589">
        <ele>349.6</ele>
        <time>1970-01-01T02:29:18.000Z</time>
      </trkpt>
      <trkpt lat="42.450174" lon="-8.748574">
        <ele>349.7</ele>
        <time>1970-01-01T02:29:22.000Z</time>
      </trkpt>
      <trkpt lat="42.450159" lon="-8.748563">
        <ele>349.8</ele>
        <time>1970-01-01T02:29:25.000Z</time>
      </trkpt>
      <trkpt lat="42.450158" lon="-8.748562">
        <ele>349.8</ele>
        <time>1970-01-01T02:29:26.000Z</time>
      </trkpt>
      <trkpt lat="42.450084" lon="-8.748575">
        <ele>350.1</ele>
        <time>1970-01-01T02:29:37.000Z</time>
      </trkpt>
      <trkpt lat="42.450013" lon="-8.748653">
        <ele>350.8</ele>
        <time>1970-01-01T02:29:41.000Z</time>
      </trkpt>
      <trkpt lat="42.449988" lon="-8.748732">
        <ele>350.5</ele>
        <time>1970-01-01T02:29:44.000Z</time>
      </trkpt>
      <trkpt lat="42.44996" lon="-8.748793">
        <ele>350.1</ele>
        <time>1970-01-01T02:29:47.000Z</time>
      </trkpt>
      <trkpt lat="42.449948" lon="-8.748809">
        <ele>350</ele>
        <time>1970-01-01T02:29:49.000Z</time>
      </trkpt>
      <trkpt lat="42.449937" lon="-8.748825">
        <ele>349.9</ele>
        <time>1970-01-01T02:29:51.000Z</time>
      </trkpt>
      <trkpt lat="42.449926" lon="-8.748841">
        <ele>349.8</ele>
        <time>1970-01-01T02:29:54.000Z</time>
      </trkpt>
      <trkpt lat="42.449915" lon="-8.748857">
        <ele>349.7</ele>
        <time>1970-01-01T02:29:56.000Z</time>
      </trkpt>
      <trkpt lat="42.449903" lon="-8.748872">
        <ele>349.5</ele>
        <time>1970-01-01T02:29:58.000Z</time>
      </trkpt>
      <trkpt lat="42.449892" lon="-8.748888">
        <ele>349.4</ele>
        <time>1970-01-01T02:30:01.000Z</time>
      </trkpt>
      <trkpt lat="42.449881" lon="-8.748904">
        <ele>349.3</ele>
        <time>1970-01-01T02:30:04.000Z</time>
      </trkpt>
      <trkpt lat="42.449869" lon="-8.74892">
        <ele>349.2</ele>
        <time>1970-01-01T02:30:41.000Z</time>
      </trkpt>
      <trkpt lat="42.449858" lon="-8.748936">
        <ele>349.1</ele>
        <time>1970-01-01T02:30:42.000Z</time>
      </trkpt>
      <trkpt lat="42.449862" lon="-8.749197">
        <ele>347.5</ele>
        <time>1970-01-01T02:30:49.000Z</time>
      </trkpt>
      <trkpt lat="42.449843" lon="-8.749341">
        <ele>345.3</ele>
        <time>1970-01-01T02:30:54.000Z</time>
      </trkpt>
      <trkpt lat="42.449794" lon="-8.749405">
        <ele>343.5</ele>
        <time>1970-01-01T02:31:00.000Z</time>
      </trkpt>
      <trkpt lat="42.449787" lon="-8.749409">
        <ele>343.3</ele>
        <time>1970-01-01T02:31:02.000Z</time>
      </trkpt>
      <trkpt lat="42.449669" lon="-8.749646">
        <ele>341.1</ele>
        <time>1970-01-01T02:35:58.000Z</time>
      </trkpt>
      <trkpt lat="42.449594" lon="-8.749706">
        <ele>340.5</ele>
        <time>1970-01-01T02:36:02.000Z</time>
      </trkpt>
      <trkpt lat="42.44955" lon="-8.74975">
        <ele>340</ele>
        <time>1970-01-01T02:36:06.000Z</time>
      </trkpt>
      <trkpt lat="42.449443" lon="-8.749796">
        <ele>338.8</ele>
        <time>1970-01-01T02:36:15.000Z</time>
      </trkpt>
      <trkpt lat="42.44936" lon="-8.74979">
        <ele>338.9</ele>
        <time>1970-01-01T02:36:25.000Z</time>
      </trkpt>
      <trkpt lat="42.449341" lon="-8.749772">
        <ele>339</ele>
        <time>1970-01-01T02:36:32.000Z</time>
      </trkpt>
      <trkpt lat="42.449333" lon="-8.749755">
        <ele>338.9</ele>
        <time>1970-01-01T02:36:37.000Z</time>
      </trkpt>
      <trkpt lat="42.449288" lon="-8.749737">
        <ele>339.1</ele>
        <time>1970-01-01T02:36:42.000Z</time>
      </trkpt>
      <trkpt lat="42.449248" lon="-8.749723">
        <ele>338.9</ele>
        <time>1970-01-01T02:36:45.000Z</time>
      </trkpt>
      <trkpt lat="42.449121" lon="-8.749682">
        <ele>338.2</ele>
        <time>1970-01-01T02:37:02.000Z</time>
      </trkpt>
      <trkpt lat="42.449044" lon="-8.74963">
        <ele>338.4</ele>
        <time>1970-01-01T02:37:15.000Z</time>
      </trkpt>
      <trkpt lat="42.449036" lon="-8.749622">
        <ele>339.1</ele>
        <time>1970-01-01T02:37:16.000Z</time>
      </trkpt>
      <trkpt lat="42.449026" lon="-8.749608">
        <ele>339.2</ele>
        <time>1970-01-01T02:37:17.000Z</time>
      </trkpt>
      <trkpt lat="42.449024" lon="-8.749595">
        <ele>339.3</ele>
        <time>1970-01-01T02:37:19.000Z</time>
      </trkpt>
      <trkpt lat="42.449004" lon="-8.749565">
        <ele>340.2</ele>
        <time>1970-01-01T02:37:24.000Z</time>
      </trkpt>
      <trkpt lat="42.449005" lon="-8.749556">
        <ele>340.3</ele>
        <time>1970-01-01T02:37:25.000Z</time>
      </trkpt>
      <trkpt lat="42.448989" lon="-8.749552">
        <ele>340.4</ele>
        <time>1970-01-01T02:37:26.000Z</time>
      </trkpt>
      <trkpt lat="42.448989" lon="-8.749552">
        <ele>340.5</ele>
        <time>1970-01-01T02:37:27.000Z</time>
      </trkpt>
      <trkpt lat="42.448983" lon="-8.749553">
        <ele>340.7</ele>
        <time>1970-01-01T02:37:28.000Z</time>
      </trkpt>
      <trkpt lat="42.448881" lon="-8.749642">
        <ele>339.7</ele>
        <time>1970-01-01T02:37:34.000Z</time>
      </trkpt>
      <trkpt lat="42.448732" lon="-8.749801">
        <ele>337.7</ele>
        <time>1970-01-01T02:37:39.000Z</time>
      </trkpt>
      <trkpt lat="42.448575" lon="-8.749935">
        <ele>336.7</ele>
        <time>1970-01-01T02:37:43.000Z</time>
      </trkpt>
      <trkpt lat="42.448379" lon="-8.749982">
        <ele>336.1</ele>
        <time>1970-01-01T02:37:50.000Z</time>
      </trkpt>
      <trkpt lat="42.448193" lon="-8.750052">
        <ele>335.7</ele>
        <time>1970-01-01T02:37:59.000Z</time>
      </trkpt>
      <trkpt lat="42.448008" lon="-8.750119">
        <ele>335</ele>
        <time>1970-01-01T02:38:08.000Z</time>
      </trkpt>
      <trkpt lat="42.447832" lon="-8.750208">
        <ele>334.3</ele>
        <time>1970-01-01T02:38:17.000Z</time>
      </trkpt>
      <trkpt lat="42.447668" lon="-8.750309">
        <ele>333.6</ele>
        <time>1970-01-01T02:38:24.000Z</time>
      </trkpt>
      <trkpt lat="42.447497" lon="-8.750499">
        <ele>331.5</ele>
        <time>1970-01-01T02:38:28.000Z</time>
      </trkpt>
      <trkpt lat="42.447457" lon="-8.750552">
        <ele>330.8</ele>
        <time>1970-01-01T02:38:29.000Z</time>
      </trkpt>
      <trkpt lat="42.447309" lon="-8.750706">
        <ele>328.9</ele>
        <time>1970-01-01T02:38:32.000Z</time>
      </trkpt>
      <trkpt lat="42.447151" lon="-8.750849">
        <ele>327.3</ele>
        <time>1970-01-01T02:38:35.000Z</time>
      </trkpt>
      <trkpt lat="42.447003" lon="-8.751022">
        <ele>325.5</ele>
        <time>1970-01-01T02:38:38.000Z</time>
      </trkpt>
      <trkpt lat="42.446853" lon="-8.751202">
        <ele>323.3</ele>
        <time>1970-01-01T02:38:41.000Z</time>
      </trkpt>
      <trkpt lat="42.446696" lon="-8.751372">
        <ele>320.5</ele>
        <time>1970-01-01T02:38:44.000Z</time>
      </trkpt>
      <trkpt lat="42.446604" lon="-8.751449">
        <ele>319.1</ele>
        <time>1970-01-01T02:38:46.000Z</time>
      </trkpt>
      <trkpt lat="42.446435" lon="-8.751601">
        <ele>316.9</ele>
        <time>1970-01-01T02:38:50.000Z</time>
      </trkpt>
      <trkpt lat="42.4463" lon="-8.751725">
        <ele>315.6</ele>
        <time>1970-01-01T02:38:53.000Z</time>
      </trkpt>
      <trkpt lat="42.446208" lon="-8.751784">
        <ele>315.4</ele>
        <time>1970-01-01T02:38:55.000Z</time>
      </trkpt>
      <trkpt lat="42.446138" lon="-8.751809">
        <ele>315.3</ele>
        <time>1970-01-01T02:38:57.000Z</time>
      </trkpt>
      <trkpt lat="42.446091" lon="-8.751808">
        <ele>315.3</ele>
        <time>1970-01-01T02:38:58.000Z</time>
      </trkpt>
      <trkpt lat="42.446091" lon="-8.751808">
        <ele>315.3</ele>
        <time>1970-01-01T02:38:59.000Z</time>
      </trkpt>
      <trkpt lat="42.44607" lon="-8.751803">
        <ele>315.3</ele>
        <time>1970-01-01T02:39:00.000Z</time>
      </trkpt>
      <trkpt lat="42.445937" lon="-8.751796">
        <ele>315.2</ele>
        <time>1970-01-01T02:39:06.000Z</time>
      </trkpt>
      <trkpt lat="42.445881" lon="-8.751815">
        <ele>315.2</ele>
        <time>1970-01-01T02:39:09.000Z</time>
      </trkpt>
      <trkpt lat="42.445839" lon="-8.75184">
        <ele>315.1</ele>
        <time>1970-01-01T02:39:11.000Z</time>
      </trkpt>
      <trkpt lat="42.44578" lon="-8.751867">
        <ele>314.9</ele>
        <time>1970-01-01T02:39:13.000Z</time>
      </trkpt>
      <trkpt lat="42.445592" lon="-8.751951">
        <ele>314.1</ele>
        <time>1970-01-01T02:39:18.000Z</time>
      </trkpt>
      <trkpt lat="42.445397" lon="-8.752031">
        <ele>313.2</ele>
        <time>1970-01-01T02:39:23.000Z</time>
      </trkpt>
      <trkpt lat="42.445222" lon="-8.752131">
        <ele>312.3</ele>
        <time>1970-01-01T02:39:28.000Z</time>
      </trkpt>
      <trkpt lat="42.445046" lon="-8.752223">
        <ele>311.5</ele>
        <time>1970-01-01T02:39:35.000Z</time>
      </trkpt>
      <trkpt lat="42.445024" lon="-8.752239">
        <ele>311.5</ele>
        <time>1970-01-01T02:39:36.000Z</time>
      </trkpt>
      <trkpt lat="42.444848" lon="-8.752285">
        <ele>311.7</ele>
        <time>1970-01-01T02:39:43.000Z</time>
      </trkpt>
      <trkpt lat="42.444822" lon="-8.752286">
        <ele>311.8</ele>
        <time>1970-01-01T02:39:44.000Z</time>
      </trkpt>
      <trkpt lat="42.444762" lon="-8.752284">
        <ele>312</ele>
        <time>1970-01-01T02:39:45.000Z</time>
      </trkpt>
      <trkpt lat="42.444762" lon="-8.752284">
        <ele>312</ele>
        <time>1970-01-01T02:39:46.000Z</time>
      </trkpt>
      <trkpt lat="42.444732" lon="-8.752285">
        <ele>312.1</ele>
        <time>1970-01-01T02:39:47.000Z</time>
      </trkpt>
      <trkpt lat="42.444707" lon="-8.752284">
        <ele>312.2</ele>
        <time>1970-01-01T02:39:48.000Z</time>
      </trkpt>
      <trkpt lat="42.444661" lon="-8.752279">
        <ele>312.5</ele>
        <time>1970-01-01T02:39:49.000Z</time>
      </trkpt>
      <trkpt lat="42.444661" lon="-8.752279">
        <ele>312.5</ele>
        <time>1970-01-01T02:39:50.000Z</time>
      </trkpt>
      <trkpt lat="42.444637" lon="-8.752279">
        <ele>312.6</ele>
        <time>1970-01-01T02:39:51.000Z</time>
      </trkpt>
      <trkpt lat="42.444572" lon="-8.752275">
        <ele>312.9</ele>
        <time>1970-01-01T02:39:54.000Z</time>
      </trkpt>
      <trkpt lat="42.444479" lon="-8.752278">
        <ele>313.2</ele>
        <time>1970-01-01T02:39:58.000Z</time>
      </trkpt>
      <trkpt lat="42.444289" lon="-8.752289">
        <ele>312.8</ele>
        <time>1970-01-01T02:40:07.000Z</time>
      </trkpt>
      <trkpt lat="42.444257" lon="-8.752292">
        <ele>312.6</ele>
        <time>1970-01-01T02:40:11.000Z</time>
      </trkpt>
      <trkpt lat="42.444243" lon="-8.752287">
        <ele>312.5</ele>
        <time>1970-01-01T02:40:15.000Z</time>
      </trkpt>
      <trkpt lat="42.444072" lon="-8.752308">
        <ele>311.4</ele>
        <time>1970-01-01T02:41:01.000Z</time>
      </trkpt>
      <trkpt lat="42.443996" lon="-8.752346">
        <ele>310.9</ele>
        <time>1970-01-01T02:41:04.000Z</time>
      </trkpt>
      <trkpt lat="42.443912" lon="-8.752386">
        <ele>310.5</ele>
        <time>1970-01-01T02:41:07.000Z</time>
      </trkpt>
      <trkpt lat="42.443732" lon="-8.752439">
        <ele>309.8</ele>
        <time>1970-01-01T02:41:13.000Z</time>
      </trkpt>
      <trkpt lat="42.443555" lon="-8.752482">
        <ele>309.5</ele>
        <time>1970-01-01T02:41:19.000Z</time>
      </trkpt>
      <trkpt lat="42.443362" lon="-8.752545">
        <ele>309.3</ele>
        <time>1970-01-01T02:41:25.000Z</time>
      </trkpt>
      <trkpt lat="42.443313" lon="-8.752563">
        <ele>309.2</ele>
        <time>1970-01-01T02:41:27.000Z</time>
      </trkpt>
      <trkpt lat="42.443283" lon="-8.752575">
        <ele>309.2</ele>
        <time>1970-01-01T02:41:28.000Z</time>
      </trkpt>
      <trkpt lat="42.443224" lon="-8.752604">
        <ele>309</ele>
        <time>1970-01-01T02:41:29.000Z</time>
      </trkpt>
      <trkpt lat="42.443224" lon="-8.752604">
        <ele>309</ele>
        <time>1970-01-01T02:41:30.000Z</time>
      </trkpt>
      <trkpt lat="42.443201" lon="-8.752619">
        <ele>309</ele>
        <time>1970-01-01T02:41:31.000Z</time>
      </trkpt>
      <trkpt lat="42.443178" lon="-8.752632">
        <ele>308.9</ele>
        <time>1970-01-01T02:41:32.000Z</time>
      </trkpt>
      <trkpt lat="42.443088" lon="-8.752689">
        <ele>308.4</ele>
        <time>1970-01-01T02:41:36.000Z</time>
      </trkpt>
      <trkpt lat="42.442908" lon="-8.752857">
        <ele>306.6</ele>
        <time>1970-01-01T02:41:41.000Z</time>
      </trkpt>
      <trkpt lat="42.442732" lon="-8.753033">
        <ele>304</ele>
        <time>1970-01-01T02:41:45.000Z</time>
      </trkpt>
      <trkpt lat="42.442632" lon="-8.753124">
        <ele>302.6</ele>
        <time>1970-01-01T02:41:47.000Z</time>
      </trkpt>
      <trkpt lat="42.442457" lon="-8.753295">
        <ele>300.4</ele>
        <time>1970-01-01T02:41:51.000Z</time>
      </trkpt>
      <trkpt lat="42.442325" lon="-8.753392">
        <ele>299.2</ele>
        <time>1970-01-01T02:41:54.000Z</time>
      </trkpt>
      <trkpt lat="42.442276" lon="-8.753407">
        <ele>298.8</ele>
        <time>1970-01-01T02:41:55.000Z</time>
      </trkpt>
      <trkpt lat="42.442225" lon="-8.753408">
        <ele>298.6</ele>
        <time>1970-01-01T02:41:56.000Z</time>
      </trkpt>
      <trkpt lat="42.442035" lon="-8.753351">
        <ele>298.6</ele>
        <time>1970-01-01T02:42:00.000Z</time>
      </trkpt>
      <trkpt lat="42.441823" lon="-8.753304">
        <ele>298.6</ele>
        <time>1970-01-01T02:42:04.000Z</time>
      </trkpt>
      <trkpt lat="42.441616" lon="-8.753315">
        <ele>298.6</ele>
        <time>1970-01-01T02:42:08.000Z</time>
      </trkpt>
      <trkpt lat="42.441432" lon="-8.753327">
        <ele>298.5</ele>
        <time>1970-01-01T02:42:13.000Z</time>
      </trkpt>
      <trkpt lat="42.441373" lon="-8.753323">
        <ele>298.5</ele>
        <time>1970-01-01T02:42:15.000Z</time>
      </trkpt>
      <trkpt lat="42.441289" lon="-8.753324">
        <ele>298.4</ele>
        <time>1970-01-01T02:42:18.000Z</time>
      </trkpt>
      <trkpt lat="42.441262" lon="-8.753322">
        <ele>298.4</ele>
        <time>1970-01-01T02:42:19.000Z</time>
      </trkpt>
      <trkpt lat="42.441201" lon="-8.75331">
        <ele>298.3</ele>
        <time>1970-01-01T02:42:20.000Z</time>
      </trkpt>
      <trkpt lat="42.441141" lon="-8.753303">
        <ele>298.2</ele>
        <time>1970-01-01T02:42:22.000Z</time>
      </trkpt>
      <trkpt lat="42.441111" lon="-8.753301">
        <ele>298.1</ele>
        <time>1970-01-01T02:42:23.000Z</time>
      </trkpt>
      <trkpt lat="42.440993" lon="-8.753308">
        <ele>297.7</ele>
        <time>1970-01-01T02:42:28.000Z</time>
      </trkpt>
      <trkpt lat="42.440927" lon="-8.753307">
        <ele>297.4</ele>
        <time>1970-01-01T02:42:30.000Z</time>
      </trkpt>
      <trkpt lat="42.44086" lon="-8.75331">
        <ele>297.1</ele>
        <time>1970-01-01T02:42:32.000Z</time>
      </trkpt>
      <trkpt lat="42.440796" lon="-8.753309">
        <ele>296.7</ele>
        <time>1970-01-01T02:42:33.000Z</time>
      </trkpt>
      <trkpt lat="42.440796" lon="-8.753309">
        <ele>296.7</ele>
        <time>1970-01-01T02:42:34.000Z</time>
      </trkpt>
      <trkpt lat="42.440589" lon="-8.753294">
        <ele>295.3</ele>
        <time>1970-01-01T02:42:40.000Z</time>
      </trkpt>
      <trkpt lat="42.440551" lon="-8.753292">
        <ele>295.2</ele>
        <time>1970-01-01T02:42:41.000Z</time>
      </trkpt>
      <trkpt lat="42.440471" lon="-8.753275">
        <ele>295</ele>
        <time>1970-01-01T02:42:43.000Z</time>
      </trkpt>
      <trkpt lat="42.440282" lon="-8.753136">
        <ele>295.2</ele>
        <time>1970-01-01T02:42:47.000Z</time>
      </trkpt>
      <trkpt lat="42.440104" lon="-8.752989">
        <ele>295.9</ele>
        <time>1970-01-01T02:42:51.000Z</time>
      </trkpt>
      <trkpt lat="42.439906" lon="-8.752939">
        <ele>297.2</ele>
        <time>1970-01-01T02:42:56.000Z</time>
      </trkpt>
      <trkpt lat="42.439773" lon="-8.752958">
        <ele>297.9</ele>
        <time>1970-01-01T02:43:00.000Z</time>
      </trkpt>
      <trkpt lat="42.439661" lon="-8.752996">
        <ele>298.4</ele>
        <time>1970-01-01T02:43:03.000Z</time>
      </trkpt>
      <trkpt lat="42.439512" lon="-8.753059">
        <ele>299.2</ele>
        <time>1970-01-01T02:43:07.000Z</time>
      </trkpt>
      <trkpt lat="42.439322" lon="-8.753169">
        <ele>299.4</ele>
        <time>1970-01-01T02:43:13.000Z</time>
      </trkpt>
      <trkpt lat="42.439163" lon="-8.753284">
        <ele>299</ele>
        <time>1970-01-01T02:43:19.000Z</time>
      </trkpt>
      <trkpt lat="42.438996" lon="-8.75338">
        <ele>298.2</ele>
        <time>1970-01-01T02:43:25.000Z</time>
      </trkpt>
      <trkpt lat="42.438828" lon="-8.753484">
        <ele>297.7</ele>
        <time>1970-01-01T02:43:30.000Z</time>
      </trkpt>
      <trkpt lat="42.438629" lon="-8.753606">
        <ele>297.5</ele>
        <time>1970-01-01T02:43:35.000Z</time>
      </trkpt>
      <trkpt lat="42.438463" lon="-8.753726">
        <ele>297.6</ele>
        <time>1970-01-01T02:43:39.000Z</time>
      </trkpt>
      <trkpt lat="42.438367" lon="-8.75383">
        <ele>297.8</ele>
        <time>1970-01-01T02:43:42.000Z</time>
      </trkpt>
      <trkpt lat="42.438246" lon="-8.754063">
        <ele>298.1</ele>
        <time>1970-01-01T02:43:47.000Z</time>
      </trkpt>
      <trkpt lat="42.438179" lon="-8.754189">
        <ele>298.3</ele>
        <time>1970-01-01T02:43:50.000Z</time>
      </trkpt>
      <trkpt lat="42.438049" lon="-8.75436">
        <ele>298.4</ele>
        <time>1970-01-01T02:43:55.000Z</time>
      </trkpt>
      <trkpt lat="42.437891" lon="-8.75449">
        <ele>298.3</ele>
        <time>1970-01-01T02:44:00.000Z</time>
      </trkpt>
      <trkpt lat="42.437732" lon="-8.754556">
        <ele>297.9</ele>
        <time>1970-01-01T02:44:04.000Z</time>
      </trkpt>
      <trkpt lat="42.437565" lon="-8.754619">
        <ele>297.2</ele>
        <time>1970-01-01T02:44:09.000Z</time>
      </trkpt>
      <trkpt lat="42.437438" lon="-8.754664">
        <ele>296.7</ele>
        <time>1970-01-01T02:44:13.000Z</time>
      </trkpt>
      <trkpt lat="42.437318" lon="-8.75467">
        <ele>296</ele>
        <time>1970-01-01T02:44:16.000Z</time>
      </trkpt>
      <trkpt lat="42.437236" lon="-8.754651">
        <ele>295.4</ele>
        <time>1970-01-01T02:44:18.000Z</time>
      </trkpt>
      <trkpt lat="42.437133" lon="-8.754602">
        <ele>294.6</ele>
        <time>1970-01-01T02:44:21.000Z</time>
      </trkpt>
      <trkpt lat="42.437101" lon="-8.754586">
        <ele>294.4</ele>
        <time>1970-01-01T02:44:22.000Z</time>
      </trkpt>
      <trkpt lat="42.437066" lon="-8.75457">
        <ele>294</ele>
        <time>1970-01-01T02:44:23.000Z</time>
      </trkpt>
      <trkpt lat="42.436995" lon="-8.754563">
        <ele>293.4</ele>
        <time>1970-01-01T02:44:24.000Z</time>
      </trkpt>
      <trkpt lat="42.436886" lon="-8.754558">
        <ele>292.9</ele>
        <time>1970-01-01T02:44:28.000Z</time>
      </trkpt>
      <trkpt lat="42.436766" lon="-8.754544">
        <ele>292.3</ele>
        <time>1970-01-01T02:44:31.000Z</time>
      </trkpt>
      <trkpt lat="42.436584" lon="-8.754537">
        <ele>291.4</ele>
        <time>1970-01-01T02:44:36.000Z</time>
      </trkpt>
      <trkpt lat="42.436536" lon="-8.754551">
        <ele>291.1</ele>
        <time>1970-01-01T02:44:37.000Z</time>
      </trkpt>
      <trkpt lat="42.436375" lon="-8.754591">
        <ele>290.2</ele>
        <time>1970-01-01T02:44:40.000Z</time>
      </trkpt>
      <trkpt lat="42.436148" lon="-8.754675">
        <ele>289.3</ele>
        <time>1970-01-01T02:44:44.000Z</time>
      </trkpt>
      <trkpt lat="42.435963" lon="-8.754736">
        <ele>288.2</ele>
        <time>1970-01-01T02:44:47.000Z</time>
      </trkpt>
      <trkpt lat="42.43583" lon="-8.754764">
        <ele>287.3</ele>
        <time>1970-01-01T02:44:49.000Z</time>
      </trkpt>
      <trkpt lat="42.435641" lon="-8.754812">
        <ele>286.4</ele>
        <time>1970-01-01T02:44:52.000Z</time>
      </trkpt>
      <trkpt lat="42.435455" lon="-8.754872">
        <ele>285.6</ele>
        <time>1970-01-01T02:44:55.000Z</time>
      </trkpt>
      <trkpt lat="42.435246" lon="-8.754941">
        <ele>284.2</ele>
        <time>1970-01-01T02:44:58.000Z</time>
      </trkpt>
      <trkpt lat="42.435045" lon="-8.755035">
        <ele>282.1</ele>
        <time>1970-01-01T02:45:01.000Z</time>
      </trkpt>
      <trkpt lat="42.434873" lon="-8.75515">
        <ele>279.8</ele>
        <time>1970-01-01T02:45:04.000Z</time>
      </trkpt>
      <trkpt lat="42.434726" lon="-8.755284">
        <ele>277.4</ele>
        <time>1970-01-01T02:45:07.000Z</time>
      </trkpt>
      <trkpt lat="42.434575" lon="-8.755437">
        <ele>275.2</ele>
        <time>1970-01-01T02:45:11.000Z</time>
      </trkpt>
      <trkpt lat="42.434533" lon="-8.75548">
        <ele>274.4</ele>
        <time>1970-01-01T02:45:13.000Z</time>
      </trkpt>
      <trkpt lat="42.434516" lon="-8.755496">
        <ele>274.1</ele>
        <time>1970-01-01T02:45:14.000Z</time>
      </trkpt>
      <trkpt lat="42.434467" lon="-8.75555">
        <ele>273.1</ele>
        <time>1970-01-01T02:45:17.000Z</time>
      </trkpt>
      <trkpt lat="42.43433" lon="-8.755763">
        <ele>269.1</ele>
        <time>1970-01-01T02:45:23.000Z</time>
      </trkpt>
      <trkpt lat="42.434285" lon="-8.756019">
        <ele>265.5</ele>
        <time>1970-01-01T02:45:27.000Z</time>
      </trkpt>
      <trkpt lat="42.434301" lon="-8.756185">
        <ele>263.6</ele>
        <time>1970-01-01T02:45:29.000Z</time>
      </trkpt>
      <trkpt lat="42.434335" lon="-8.756443">
        <ele>261.6</ele>
        <time>1970-01-01T02:45:32.000Z</time>
      </trkpt>
      <trkpt lat="42.434342" lon="-8.756533">
        <ele>261</ele>
        <time>1970-01-01T02:45:33.000Z</time>
      </trkpt>
      <trkpt lat="42.434353" lon="-8.756801">
        <ele>258.9</ele>
        <time>1970-01-01T02:45:36.000Z</time>
      </trkpt>
      <trkpt lat="42.434341" lon="-8.756877">
        <ele>257.9</ele>
        <time>1970-01-01T02:45:37.000Z</time>
      </trkpt>
      <trkpt lat="42.43432" lon="-8.756938">
        <ele>257</ele>
        <time>1970-01-01T02:45:38.000Z</time>
      </trkpt>
      <trkpt lat="42.434293" lon="-8.756987">
        <ele>256.2</ele>
        <time>1970-01-01T02:45:39.000Z</time>
      </trkpt>
      <trkpt lat="42.434226" lon="-8.757073">
        <ele>254.7</ele>
        <time>1970-01-01T02:45:41.000Z</time>
      </trkpt>
      <trkpt lat="42.434193" lon="-8.757133">
        <ele>253.6</ele>
        <time>1970-01-01T02:45:42.000Z</time>
      </trkpt>
      <trkpt lat="42.434153" lon="-8.757273">
        <ele>251.1</ele>
        <time>1970-01-01T02:45:44.000Z</time>
      </trkpt>
      <trkpt lat="42.434128" lon="-8.757527">
        <ele>247.7</ele>
        <time>1970-01-01T02:45:47.000Z</time>
      </trkpt>
      <trkpt lat="42.434103" lon="-8.757774">
        <ele>244.8</ele>
        <time>1970-01-01T02:45:50.000Z</time>
      </trkpt>
      <trkpt lat="42.434045" lon="-8.758005">
        <ele>241.5</ele>
        <time>1970-01-01T02:45:53.000Z</time>
      </trkpt>
      <trkpt lat="42.433969" lon="-8.758139">
        <ele>240</ele>
        <time>1970-01-01T02:45:55.000Z</time>
      </trkpt>
      <trkpt lat="42.433872" lon="-8.758271">
        <ele>238.4</ele>
        <time>1970-01-01T02:45:57.000Z</time>
      </trkpt>
      <trkpt lat="42.433696" lon="-8.758412">
        <ele>236.3</ele>
        <time>1970-01-01T02:46:00.000Z</time>
      </trkpt>
      <trkpt lat="42.433564" lon="-8.758457">
        <ele>235.1</ele>
        <time>1970-01-01T02:46:02.000Z</time>
      </trkpt>
      <trkpt lat="42.433353" lon="-8.758488">
        <ele>233.3</ele>
        <time>1970-01-01T02:46:05.000Z</time>
      </trkpt>
      <trkpt lat="42.433171" lon="-8.758534">
        <ele>231.4</ele>
        <time>1970-01-01T02:46:08.000Z</time>
      </trkpt>
      <trkpt lat="42.433069" lon="-8.758549">
        <ele>230.3</ele>
        <time>1970-01-01T02:46:10.000Z</time>
      </trkpt>
      <trkpt lat="42.432968" lon="-8.758547">
        <ele>229.4</ele>
        <time>1970-01-01T02:46:12.000Z</time>
      </trkpt>
      <trkpt lat="42.432738" lon="-8.75847">
        <ele>229.1</ele>
        <time>1970-01-01T02:46:16.000Z</time>
      </trkpt>
      <trkpt lat="42.432614" lon="-8.758426">
        <ele>229.2</ele>
        <time>1970-01-01T02:46:18.000Z</time>
      </trkpt>
      <trkpt lat="42.432428" lon="-8.75838">
        <ele>229.8</ele>
        <time>1970-01-01T02:46:21.000Z</time>
      </trkpt>
      <trkpt lat="42.432235" lon="-8.758343">
        <ele>230.6</ele>
        <time>1970-01-01T02:46:26.000Z</time>
      </trkpt>
      <trkpt lat="42.432091" lon="-8.758386">
        <ele>231.2</ele>
        <time>1970-01-01T02:46:30.000Z</time>
      </trkpt>
      <trkpt lat="42.431973" lon="-8.75844">
        <ele>231.6</ele>
        <time>1970-01-01T02:46:34.000Z</time>
      </trkpt>
      <trkpt lat="42.431929" lon="-8.758469">
        <ele>231.8</ele>
        <time>1970-01-01T02:46:36.000Z</time>
      </trkpt>
      <trkpt lat="42.431776" lon="-8.758564">
        <ele>232.2</ele>
        <time>1970-01-01T02:46:43.000Z</time>
      </trkpt>
      <trkpt lat="42.431732" lon="-8.758605">
        <ele>232.3</ele>
        <time>1970-01-01T02:46:44.000Z</time>
      </trkpt>
      <trkpt lat="42.431652" lon="-8.758678">
        <ele>232.5</ele>
        <time>1970-01-01T02:46:49.000Z</time>
      </trkpt>
      <trkpt lat="42.431628" lon="-8.758693">
        <ele>232.6</ele>
        <time>1970-01-01T02:46:50.000Z</time>
      </trkpt>
      <trkpt lat="42.431582" lon="-8.758734">
        <ele>232.8</ele>
        <time>1970-01-01T02:46:51.000Z</time>
      </trkpt>
      <trkpt lat="42.431427" lon="-8.758876">
        <ele>233.3</ele>
        <time>1970-01-01T02:46:59.000Z</time>
      </trkpt>
      <trkpt lat="42.431253" lon="-8.759">
        <ele>233.7</ele>
        <time>1970-01-01T02:47:06.000Z</time>
      </trkpt>
      <trkpt lat="42.431062" lon="-8.759085">
        <ele>234.2</ele>
        <time>1970-01-01T02:47:13.000Z</time>
      </trkpt>
      <trkpt lat="42.430889" lon="-8.75916">
        <ele>234.6</ele>
        <time>1970-01-01T02:47:20.000Z</time>
      </trkpt>
      <trkpt lat="42.430766" lon="-8.759206">
        <ele>234.8</ele>
        <time>1970-01-01T02:47:25.000Z</time>
      </trkpt>
      <trkpt lat="42.430583" lon="-8.759277">
        <ele>235.1</ele>
        <time>1970-01-01T02:47:32.000Z</time>
      </trkpt>
      <trkpt lat="42.430475" lon="-8.759321">
        <ele>235.1</ele>
        <time>1970-01-01T02:47:36.000Z</time>
      </trkpt>
      <trkpt lat="42.430283" lon="-8.75941">
        <ele>234.8</ele>
        <time>1970-01-01T02:47:44.000Z</time>
      </trkpt>
      <trkpt lat="42.430111" lon="-8.759538">
        <ele>233.7</ele>
        <time>1970-01-01T02:47:52.000Z</time>
      </trkpt>
      <trkpt lat="42.429959" lon="-8.759699">
        <ele>232.2</ele>
        <time>1970-01-01T02:47:58.000Z</time>
      </trkpt>
      <trkpt lat="42.429814" lon="-8.759892">
        <ele>230.2</ele>
        <time>1970-01-01T02:48:02.000Z</time>
      </trkpt>
      <trkpt lat="42.429699" lon="-8.760104">
        <ele>228.7</ele>
        <time>1970-01-01T02:48:05.000Z</time>
      </trkpt>
      <trkpt lat="42.429654" lon="-8.76018">
        <ele>228.3</ele>
        <time>1970-01-01T02:48:06.000Z</time>
      </trkpt>
      <trkpt lat="42.429497" lon="-8.760376">
        <ele>227.9</ele>
        <time>1970-01-01T02:48:09.000Z</time>
      </trkpt>
      <trkpt lat="42.429325" lon="-8.760535">
        <ele>227.8</ele>
        <time>1970-01-01T02:48:12.000Z</time>
      </trkpt>
      <trkpt lat="42.429278" lon="-8.760577">
        <ele>227.9</ele>
        <time>1970-01-01T02:48:13.000Z</time>
      </trkpt>
      <trkpt lat="42.429239" lon="-8.760615">
        <ele>227.9</ele>
        <time>1970-01-01T02:48:14.000Z</time>
      </trkpt>
      <trkpt lat="42.429173" lon="-8.76069">
        <ele>228</ele>
        <time>1970-01-01T02:48:16.000Z</time>
      </trkpt>
      <trkpt lat="42.429116" lon="-8.760757">
        <ele>228</ele>
        <time>1970-01-01T02:48:17.000Z</time>
      </trkpt>
      <trkpt lat="42.429116" lon="-8.760757">
        <ele>228</ele>
        <time>1970-01-01T02:48:18.000Z</time>
      </trkpt>
      <trkpt lat="42.429061" lon="-8.76082">
        <ele>228.1</ele>
        <time>1970-01-01T02:48:21.000Z</time>
      </trkpt>
      <trkpt lat="42.429058" lon="-8.760826">
        <ele>228.1</ele>
        <time>1970-01-01T02:48:24.000Z</time>
      </trkpt>
      <trkpt lat="42.427356" lon="-8.762254">
        <ele>216.7</ele>
        <time>1970-01-01T00:00:00.000Z</time>
      </trkpt>
      <trkpt lat="42.427366" lon="-8.762236">
        <ele>216.6</ele>
        <time>1970-01-01T00:00:01.000Z</time>
      </trkpt>
      <trkpt lat="42.427292" lon="-8.762357">
        <ele>215.8</ele>
        <time>1970-01-01T00:00:17.000Z</time>
      </trkpt>
      <trkpt lat="42.427275" lon="-8.762375">
        <ele>215.6</ele>
        <time>1970-01-01T00:00:18.000Z</time>
      </trkpt>
      <trkpt lat="42.427131" lon="-8.762525">
        <ele>214.4</ele>
        <time>1970-01-01T00:00:26.000Z</time>
      </trkpt>
      <trkpt lat="42.427082" lon="-8.762577">
        <ele>214</ele>
        <time>1970-01-01T00:00:29.000Z</time>
      </trkpt>
      <trkpt lat="42.427066" lon="-8.762599">
        <ele>213.8</ele>
        <time>1970-01-01T00:00:30.000Z</time>
      </trkpt>
      <trkpt lat="42.427049" lon="-8.762621">
        <ele>213.7</ele>
        <time>1970-01-01T00:00:31.000Z</time>
      </trkpt>
      <trkpt lat="42.427033" lon="-8.762647">
        <ele>213.5</ele>
        <time>1970-01-01T00:00:32.000Z</time>
      </trkpt>
      <trkpt lat="42.42702" lon="-8.762671">
        <ele>213.4</ele>
        <time>1970-01-01T00:00:33.000Z</time>
      </trkpt>
      <trkpt lat="42.426943" lon="-8.762771">
        <ele>212.8</ele>
        <time>1970-01-01T00:00:39.000Z</time>
      </trkpt>
      <trkpt lat="42.426896" lon="-8.762863">
        <ele>212.4</ele>
        <time>1970-01-01T00:00:44.000Z</time>
      </trkpt>
      <trkpt lat="42.426857" lon="-8.762934">
        <ele>212.1</ele>
        <time>1970-01-01T00:00:48.000Z</time>
      </trkpt>
      <trkpt lat="42.426803" lon="-8.763069">
        <ele>211.6</ele>
        <time>1970-01-01T00:00:55.000Z</time>
      </trkpt>
      <trkpt lat="42.426712" lon="-8.763233">
        <ele>211.2</ele>
        <time>1970-01-01T00:01:02.000Z</time>
      </trkpt>
      <trkpt lat="42.426616" lon="-8.763339">
        <ele>211.1</ele>
        <time>1970-01-01T00:01:08.000Z</time>
      </trkpt>
      <trkpt lat="42.426469" lon="-8.763481">
        <ele>211.2</ele>
        <time>1970-01-01T00:01:19.000Z</time>
      </trkpt>
      <trkpt lat="42.426321" lon="-8.763628">
        <ele>211.3</ele>
        <time>1970-01-01T00:01:28.000Z</time>
      </trkpt>
      <trkpt lat="42.42619" lon="-8.763756">
        <ele>211.6</ele>
        <time>1970-01-01T00:01:36.000Z</time>
      </trkpt>
      <trkpt lat="42.426156" lon="-8.763802">
        <ele>211.6</ele>
        <time>1970-01-01T00:01:39.000Z</time>
      </trkpt>
      <trkpt lat="42.42613" lon="-8.763828">
        <ele>211.7</ele>
        <time>1970-01-01T00:01:41.000Z</time>
      </trkpt>
      <trkpt lat="42.426094" lon="-8.763862">
        <ele>211.8</ele>
        <time>1970-01-01T00:01:43.000Z</time>
      </trkpt>
      <trkpt lat="42.426067" lon="-8.763901">
        <ele>211.9</ele>
        <time>1970-01-01T00:01:45.000Z</time>
      </trkpt>
      <trkpt lat="42.42601" lon="-8.764041">
        <ele>212.2</ele>
        <time>1970-01-01T00:01:50.000Z</time>
      </trkpt>
      <trkpt lat="42.426002" lon="-8.764066">
        <ele>212.2</ele>
        <time>1970-01-01T00:01:51.000Z</time>
      </trkpt>
      <trkpt lat="42.42598" lon="-8.764123">
        <ele>212.3</ele>
        <time>1970-01-01T00:01:53.000Z</time>
      </trkpt>
      <trkpt lat="42.425953" lon="-8.764184">
        <ele>212.2</ele>
        <time>1970-01-01T00:01:54.000Z</time>
      </trkpt>
      <trkpt lat="42.425953" lon="-8.764184">
        <ele>212.2</ele>
        <time>1970-01-01T00:01:55.000Z</time>
      </trkpt>
      <trkpt lat="42.425941" lon="-8.764218">
        <ele>212.2</ele>
        <time>1970-01-01T00:01:56.000Z</time>
      </trkpt>
      <trkpt lat="42.425892" lon="-8.764366">
        <ele>212</ele>
        <time>1970-01-01T00:02:00.000Z</time>
      </trkpt>
      <trkpt lat="42.425875" lon="-8.764405">
        <ele>211.9</ele>
        <time>1970-01-01T00:02:01.000Z</time>
      </trkpt>
      <trkpt lat="42.425862" lon="-8.764442">
        <ele>211.8</ele>
        <time>1970-01-01T00:02:02.000Z</time>
      </trkpt>
      <trkpt lat="42.425841" lon="-8.764519">
        <ele>211.6</ele>
        <time>1970-01-01T00:02:04.000Z</time>
      </trkpt>
      <trkpt lat="42.425747" lon="-8.764736">
        <ele>211</ele>
        <time>1970-01-01T00:02:13.000Z</time>
      </trkpt>
      <trkpt lat="42.425715" lon="-8.764773">
        <ele>210.8</ele>
        <time>1970-01-01T00:02:15.000Z</time>
      </trkpt>
      <trkpt lat="42.425558" lon="-8.764927">
        <ele>210</ele>
        <time>1970-01-01T00:02:25.000Z</time>
      </trkpt>
      <trkpt lat="42.425511" lon="-8.764981">
        <ele>209.7</ele>
        <time>1970-01-01T00:02:28.000Z</time>
      </trkpt>
      <trkpt lat="42.425479" lon="-8.765034">
        <ele>209.4</ele>
        <time>1970-01-01T00:02:30.000Z</time>
      </trkpt>
      <trkpt lat="42.42533" lon="-8.765185">
        <ele>208.5</ele>
        <time>1970-01-01T00:02:38.000Z</time>
      </trkpt>
      <trkpt lat="42.425292" lon="-8.7652">
        <ele>208.3</ele>
        <time>1970-01-01T00:02:41.000Z</time>
      </trkpt>
      <trkpt lat="42.425099" lon="-8.765275">
        <ele>207.4</ele>
        <time>1970-01-01T00:02:50.000Z</time>
      </trkpt>
      <trkpt lat="42.424906" lon="-8.765394">
        <ele>206.4</ele>
        <time>1970-01-01T00:02:56.000Z</time>
      </trkpt>
      <trkpt lat="42.424727" lon="-8.765513">
        <ele>205.4</ele>
        <time>1970-01-01T00:03:04.000Z</time>
      </trkpt>
      <trkpt lat="42.424692" lon="-8.765542">
        <ele>205.1</ele>
        <time>1970-01-01T00:03:09.000Z</time>
      </trkpt>
      <trkpt lat="42.424687" lon="-8.765545">
        <ele>205.1</ele>
        <time>1970-01-01T00:03:11.000Z</time>
      </trkpt>
      <trkpt lat="42.424597" lon="-8.76565">
        <ele>204.4</ele>
        <time>1970-01-01T00:04:36.000Z</time>
      </trkpt>
      <trkpt lat="42.424579" lon="-8.765681">
        <ele>204.2</ele>
        <time>1970-01-01T00:04:37.000Z</time>
      </trkpt>
      <trkpt lat="42.424537" lon="-8.765746">
        <ele>203.9</ele>
        <time>1970-01-01T00:04:38.000Z</time>
      </trkpt>
      <trkpt lat="42.424537" lon="-8.765746">
        <ele>203.9</ele>
        <time>1970-01-01T00:04:39.000Z</time>
      </trkpt>
      <trkpt lat="42.424377" lon="-8.765932">
        <ele>202.9</ele>
        <time>1970-01-01T00:04:46.000Z</time>
      </trkpt>
      <trkpt lat="42.424312" lon="-8.765996">
        <ele>202.7</ele>
        <time>1970-01-01T00:04:48.000Z</time>
      </trkpt>
      <trkpt lat="42.424253" lon="-8.766064">
        <ele>202.5</ele>
        <time>1970-01-01T00:04:50.000Z</time>
      </trkpt>
      <trkpt lat="42.424159" lon="-8.766178">
        <ele>202.3</ele>
        <time>1970-01-01T00:04:53.000Z</time>
      </trkpt>
      <trkpt lat="42.424005" lon="-8.766329">
        <ele>202</ele>
        <time>1970-01-01T00:04:58.000Z</time>
      </trkpt>
      <trkpt lat="42.423965" lon="-8.766377">
        <ele>202</ele>
        <time>1970-01-01T00:05:00.000Z</time>
      </trkpt>
      <trkpt lat="42.423787" lon="-8.766513">
        <ele>201.8</ele>
        <time>1970-01-01T00:05:07.000Z</time>
      </trkpt>
      <trkpt lat="42.423712" lon="-8.766544">
        <ele>201.9</ele>
        <time>1970-01-01T00:05:09.000Z</time>
      </trkpt>
      <trkpt lat="42.423541" lon="-8.766685">
        <ele>202</ele>
        <time>1970-01-01T00:05:15.000Z</time>
      </trkpt>
      <trkpt lat="42.423407" lon="-8.766873">
        <ele>202.2</ele>
        <time>1970-01-01T00:05:20.000Z</time>
      </trkpt>
      <trkpt lat="42.423284" lon="-8.767068">
        <ele>202.2</ele>
        <time>1970-01-01T00:05:26.000Z</time>
      </trkpt>
      <trkpt lat="42.423164" lon="-8.767276">
        <ele>202</ele>
        <time>1970-01-01T00:05:33.000Z</time>
      </trkpt>
      <trkpt lat="42.423019" lon="-8.767453">
        <ele>202.2</ele>
        <time>1970-01-01T00:05:41.000Z</time>
      </trkpt>
      <trkpt lat="42.422838" lon="-8.767618">
        <ele>202.6</ele>
        <time>1970-01-01T00:05:49.000Z</time>
      </trkpt>
      <trkpt lat="42.422682" lon="-8.76777">
        <ele>203.3</ele>
        <time>1970-01-01T00:05:59.000Z</time>
      </trkpt>
      <trkpt lat="42.422646" lon="-8.767793">
        <ele>203.4</ele>
        <time>1970-01-01T00:06:05.000Z</time>
      </trkpt>
      <trkpt lat="42.422392" lon="-8.769009">
        <ele>213.3</ele>
        <time>1970-01-01T00:12:59.000Z</time>
      </trkpt>
      <trkpt lat="42.422383" lon="-8.769027">
        <ele>213.4</ele>
        <time>1970-01-01T00:13:01.000Z</time>
      </trkpt>
      <trkpt lat="42.422373" lon="-8.76905">
        <ele>213.6</ele>
        <time>1970-01-01T00:13:04.000Z</time>
      </trkpt>
      <trkpt lat="42.422342" lon="-8.769108">
        <ele>214.1</ele>
        <time>1970-01-01T00:13:09.000Z</time>
      </trkpt>
      <trkpt lat="42.422335" lon="-8.769138">
        <ele>214.3</ele>
        <time>1970-01-01T00:13:11.000Z</time>
      </trkpt>
      <trkpt lat="42.422332" lon="-8.769154">
        <ele>214.4</ele>
        <time>1970-01-01T00:13:12.000Z</time>
      </trkpt>
      <trkpt lat="42.422326" lon="-8.769183">
        <ele>214.6</ele>
        <time>1970-01-01T00:13:14.000Z</time>
      </trkpt>
      <trkpt lat="42.422321" lon="-8.769197">
        <ele>214.7</ele>
        <time>1970-01-01T00:13:15.000Z</time>
      </trkpt>
      <trkpt lat="42.422315" lon="-8.769208">
        <ele>214.8</ele>
        <time>1970-01-01T00:13:16.000Z</time>
      </trkpt>
      <trkpt lat="42.422308" lon="-8.769219">
        <ele>214.9</ele>
        <time>1970-01-01T00:13:17.000Z</time>
      </trkpt>
      <trkpt lat="42.422303" lon="-8.76923">
        <ele>214.9</ele>
        <time>1970-01-01T00:13:18.000Z</time>
      </trkpt>
      <trkpt lat="42.422293" lon="-8.769265">
        <ele>215.2</ele>
        <time>1970-01-01T00:13:21.000Z</time>
      </trkpt>
      <trkpt lat="42.422228" lon="-8.769407">
        <ele>216.6</ele>
        <time>1970-01-01T00:13:32.000Z</time>
      </trkpt>
      <trkpt lat="42.422224" lon="-8.76942">
        <ele>216.7</ele>
        <time>1970-01-01T00:13:33.000Z</time>
      </trkpt>
      <trkpt lat="42.422219" lon="-8.769429">
        <ele>216.8</ele>
        <time>1970-01-01T00:13:34.000Z</time>
      </trkpt>
      <trkpt lat="42.422216" lon="-8.76944">
        <ele>216.9</ele>
        <time>1970-01-01T00:13:35.000Z</time>
      </trkpt>
      <trkpt lat="42.422211" lon="-8.769449">
        <ele>217</ele>
        <time>1970-01-01T00:13:36.000Z</time>
      </trkpt>
      <trkpt lat="42.422185" lon="-8.769499">
        <ele>217.5</ele>
        <time>1970-01-01T00:13:40.000Z</time>
      </trkpt>
      <trkpt lat="42.422164" lon="-8.769523">
        <ele>217.8</ele>
        <time>1970-01-01T00:13:42.000Z</time>
      </trkpt>
      <trkpt lat="42.422106" lon="-8.76957">
        <ele>218.7</ele>
        <time>1970-01-01T00:13:49.000Z</time>
      </trkpt>
      <trkpt lat="42.422083" lon="-8.769583">
        <ele>219</ele>
        <time>1970-01-01T00:13:52.000Z</time>
      </trkpt>
      <trkpt lat="42.422035" lon="-8.769611">
        <ele>219.5</ele>
        <time>1970-01-01T00:13:57.000Z</time>
      </trkpt>
      <trkpt lat="42.421951" lon="-8.769718">
        <ele>220.2</ele>
        <time>1970-01-01T00:14:03.000Z</time>
      </trkpt>
      <trkpt lat="42.421886" lon="-8.769788">
        <ele>220.4</ele>
        <time>1970-01-01T00:14:07.000Z</time>
      </trkpt>
      <trkpt lat="42.421861" lon="-8.769817">
        <ele>220.4</ele>
        <time>1970-01-01T00:14:09.000Z</time>
      </trkpt>
      <trkpt lat="42.421835" lon="-8.769851">
        <ele>220.4</ele>
        <time>1970-01-01T00:14:12.000Z</time>
      </trkpt>
      <trkpt lat="42.421794" lon="-8.769985">
        <ele>220.3</ele>
        <time>1970-01-01T00:14:21.000Z</time>
      </trkpt>
      <trkpt lat="42.421819" lon="-8.770085">
        <ele>220.3</ele>
        <time>1970-01-01T00:14:25.000Z</time>
      </trkpt>
      <trkpt lat="42.421815" lon="-8.770285">
        <ele>220.9</ele>
        <time>1970-01-01T00:14:36.000Z</time>
      </trkpt>
      <trkpt lat="42.421807" lon="-8.770342">
        <ele>221.1</ele>
        <time>1970-01-01T00:14:39.000Z</time>
      </trkpt>
      <trkpt lat="42.42179" lon="-8.770585">
        <ele>222.4</ele>
        <time>1970-01-01T00:14:46.000Z</time>
      </trkpt>
      <trkpt lat="42.421742" lon="-8.770807">
        <ele>223</ele>
        <time>1970-01-01T00:14:52.000Z</time>
      </trkpt>
      <trkpt lat="42.421682" lon="-8.770989">
        <ele>223.2</ele>
        <time>1970-01-01T00:14:59.000Z</time>
      </trkpt>
      <trkpt lat="42.421605" lon="-8.771227">
        <ele>223.5</ele>
        <time>1970-01-01T00:15:09.000Z</time>
      </trkpt>
      <trkpt lat="42.421604" lon="-8.771247">
        <ele>223.5</ele>
        <time>1970-01-01T00:15:10.000Z</time>
      </trkpt>
      <trkpt lat="42.421598" lon="-8.771263">
        <ele>223.5</ele>
        <time>1970-01-01T00:15:11.000Z</time>
      </trkpt>
      <trkpt lat="42.421594" lon="-8.771284">
        <ele>223.6</ele>
        <time>1970-01-01T00:15:12.000Z</time>
      </trkpt>
      <trkpt lat="42.421589" lon="-8.771329">
        <ele>223.7</ele>
        <time>1970-01-01T00:15:14.000Z</time>
      </trkpt>
      <trkpt lat="42.421598" lon="-8.771447">
        <ele>224</ele>
        <time>1970-01-01T00:15:21.000Z</time>
      </trkpt>
      <trkpt lat="42.421621" lon="-8.771528">
        <ele>224.4</ele>
        <time>1970-01-01T00:15:25.000Z</time>
      </trkpt>
      <trkpt lat="42.421628" lon="-8.771695">
        <ele>225.3</ele>
        <time>1970-01-01T00:15:32.000Z</time>
      </trkpt>
      <trkpt lat="42.421625" lon="-8.771767">
        <ele>225.6</ele>
        <time>1970-01-01T00:15:35.000Z</time>
      </trkpt>
      <trkpt lat="42.421639" lon="-8.772016">
        <ele>227.2</ele>
        <time>1970-01-01T00:15:44.000Z</time>
      </trkpt>
      <trkpt lat="42.421628" lon="-8.772069">
        <ele>227.6</ele>
        <time>1970-01-01T00:15:46.000Z</time>
      </trkpt>
      <trkpt lat="42.421613" lon="-8.772124">
        <ele>227.9</ele>
        <time>1970-01-01T00:15:49.000Z</time>
      </trkpt>
      <trkpt lat="42.421601" lon="-8.772158">
        <ele>228.1</ele>
        <time>1970-01-01T00:15:51.000Z</time>
      </trkpt>
      <trkpt lat="42.421545" lon="-8.772253">
        <ele>228.7</ele>
        <time>1970-01-01T00:16:02.000Z</time>
      </trkpt>
      <trkpt lat="42.42154" lon="-8.772268">
        <ele>228.8</ele>
        <time>1970-01-01T00:16:05.000Z</time>
      </trkpt>
      <trkpt lat="42.421509" lon="-8.772312">
        <ele>229.1</ele>
        <time>1970-01-01T00:16:09.000Z</time>
      </trkpt>
      <trkpt lat="42.421435" lon="-8.772362">
        <ele>229.6</ele>
        <time>1970-01-01T00:16:16.000Z</time>
      </trkpt>
      <trkpt lat="42.421304" lon="-8.772409">
        <ele>230.4</ele>
        <time>1970-01-01T00:16:29.000Z</time>
      </trkpt>
      <trkpt lat="42.421291" lon="-8.772422">
        <ele>230.4</ele>
        <time>1970-01-01T00:16:31.000Z</time>
      </trkpt>
      <trkpt lat="42.421273" lon="-8.772431">
        <ele>230.5</ele>
        <time>1970-01-01T00:16:33.000Z</time>
      </trkpt>
      <trkpt lat="42.421241" lon="-8.772455">
        <ele>230.7</ele>
        <time>1970-01-01T00:16:36.000Z</time>
      </trkpt>
      <trkpt lat="42.421169" lon="-8.772505">
        <ele>231.1</ele>
        <time>1970-01-01T00:16:41.000Z</time>
      </trkpt>
      <trkpt lat="42.421019" lon="-8.772649">
        <ele>231.6</ele>
        <time>1970-01-01T00:16:52.000Z</time>
      </trkpt>
      <trkpt lat="42.420834" lon="-8.772743">
        <ele>231.7</ele>
        <time>1970-01-01T00:17:03.000Z</time>
      </trkpt>
      <trkpt lat="42.420686" lon="-8.772906">
        <ele>231.5</ele>
        <time>1970-01-01T00:17:12.000Z</time>
      </trkpt>
      <trkpt lat="42.420535" lon="-8.773041">
        <ele>232.4</ele>
        <time>1970-01-01T00:17:23.000Z</time>
      </trkpt>
      <trkpt lat="42.420466" lon="-8.773119">
        <ele>233.1</ele>
        <time>1970-01-01T00:17:28.000Z</time>
      </trkpt>
      <trkpt lat="42.42044" lon="-8.773143">
        <ele>233.3</ele>
        <time>1970-01-01T00:17:29.000Z</time>
      </trkpt>
      <trkpt lat="42.420427" lon="-8.773158">
        <ele>233.5</ele>
        <time>1970-01-01T00:17:31.000Z</time>
      </trkpt>
      <trkpt lat="42.420276" lon="-8.773329">
        <ele>235.7</ele>
        <time>1970-01-01T00:17:43.000Z</time>
      </trkpt>
      <trkpt lat="42.420185" lon="-8.773502">
        <ele>237.7</ele>
        <time>1970-01-01T00:17:53.000Z</time>
      </trkpt>
      <trkpt lat="42.420181" lon="-8.77352">
        <ele>237.9</ele>
        <time>1970-01-01T00:17:54.000Z</time>
      </trkpt>
      <trkpt lat="42.420151" lon="-8.773582">
        <ele>239</ele>
        <time>1970-01-01T00:17:59.000Z</time>
      </trkpt>
      <trkpt lat="42.420123" lon="-8.773648">
        <ele>239.6</ele>
        <time>1970-01-01T00:18:05.000Z</time>
      </trkpt>
      <trkpt lat="42.420025" lon="-8.77387">
        <ele>241.9</ele>
        <time>1970-01-01T00:18:21.000Z</time>
      </trkpt>
      <trkpt lat="42.41991" lon="-8.774017">
        <ele>244.2</ele>
        <time>1970-01-01T00:18:33.000Z</time>
      </trkpt>
      <trkpt lat="42.419902" lon="-8.774029">
        <ele>244.3</ele>
        <time>1970-01-01T00:18:34.000Z</time>
      </trkpt>
      <trkpt lat="42.419895" lon="-8.774041">
        <ele>244.4</ele>
        <time>1970-01-01T00:18:35.000Z</time>
      </trkpt>
      <trkpt lat="42.419875" lon="-8.774059">
        <ele>244.6</ele>
        <time>1970-01-01T00:18:37.000Z</time>
      </trkpt>
      <trkpt lat="42.419866" lon="-8.774067">
        <ele>244.7</ele>
        <time>1970-01-01T00:18:38.000Z</time>
      </trkpt>
      <trkpt lat="42.419853" lon="-8.774075">
        <ele>244.8</ele>
        <time>1970-01-01T00:18:39.000Z</time>
      </trkpt>
      <trkpt lat="42.419844" lon="-8.774083">
        <ele>244.9</ele>
        <time>1970-01-01T00:18:40.000Z</time>
      </trkpt>
      <trkpt lat="42.41983" lon="-8.774102">
        <ele>245.1</ele>
        <time>1970-01-01T00:18:42.000Z</time>
      </trkpt>
      <trkpt lat="42.419823" lon="-8.774113">
        <ele>245.2</ele>
        <time>1970-01-01T00:18:43.000Z</time>
      </trkpt>
      <trkpt lat="42.419761" lon="-8.774186">
        <ele>246</ele>
        <time>1970-01-01T00:18:53.000Z</time>
      </trkpt>
      <trkpt lat="42.419753" lon="-8.774192">
        <ele>246.1</ele>
        <time>1970-01-01T00:18:54.000Z</time>
      </trkpt>
      <trkpt lat="42.419748" lon="-8.774198">
        <ele>246.2</ele>
        <time>1970-01-01T00:18:55.000Z</time>
      </trkpt>
      <trkpt lat="42.41971" lon="-8.774222">
        <ele>246.4</ele>
        <time>1970-01-01T00:18:59.000Z</time>
      </trkpt>
      <trkpt lat="42.419701" lon="-8.774227">
        <ele>246.5</ele>
        <time>1970-01-01T00:19:00.000Z</time>
      </trkpt>
      <trkpt lat="42.419691" lon="-8.774231">
        <ele>246.6</ele>
        <time>1970-01-01T00:19:01.000Z</time>
      </trkpt>
      <trkpt lat="42.419682" lon="-8.774236">
        <ele>246.6</ele>
        <time>1970-01-01T00:19:02.000Z</time>
      </trkpt>
      <trkpt lat="42.419657" lon="-8.774252">
        <ele>246.8</ele>
        <time>1970-01-01T00:19:05.000Z</time>
      </trkpt>
      <trkpt lat="42.419629" lon="-8.77426">
        <ele>247</ele>
        <time>1970-01-01T00:19:08.000Z</time>
      </trkpt>
      <trkpt lat="42.419617" lon="-8.774265">
        <ele>247</ele>
        <time>1970-01-01T00:19:09.000Z</time>
      </trkpt>
      <trkpt lat="42.419609" lon="-8.774271">
        <ele>247.1</ele>
        <time>1970-01-01T00:19:10.000Z</time>
      </trkpt>
      <trkpt lat="42.419599" lon="-8.774274">
        <ele>247.1</ele>
        <time>1970-01-01T00:19:11.000Z</time>
      </trkpt>
      <trkpt lat="42.419576" lon="-8.774288">
        <ele>247.3</ele>
        <time>1970-01-01T00:19:12.000Z</time>
      </trkpt>
      <trkpt lat="42.419549" lon="-8.774316">
        <ele>247.5</ele>
        <time>1970-01-01T00:19:16.000Z</time>
      </trkpt>
      <trkpt lat="42.419488" lon="-8.774355">
        <ele>247.9</ele>
        <time>1970-01-01T00:19:22.000Z</time>
      </trkpt>
      <trkpt lat="42.419438" lon="-8.774425">
        <ele>248.3</ele>
        <time>1970-01-01T00:19:30.000Z</time>
      </trkpt>
      <trkpt lat="42.419428" lon="-8.774436">
        <ele>248.4</ele>
        <time>1970-01-01T00:19:32.000Z</time>
      </trkpt>
      <trkpt lat="42.419428" lon="-8.77444">
        <ele>248.4</ele>
        <time>1970-01-01T00:19:33.000Z</time>
      </trkpt>
      <trkpt lat="42.419423" lon="-8.774447">
        <ele>248.4</ele>
        <time>1970-01-01T00:19:35.000Z</time>
      </trkpt>
      <trkpt lat="42.419417" lon="-8.774444">
        <ele>248.4</ele>
        <time>1970-01-01T00:19:37.000Z</time>
      </trkpt>
      <trkpt lat="42.41929" lon="-8.774626">
        <ele>249.3</ele>
        <time>1970-01-01T00:20:52.000Z</time>
      </trkpt>
      <trkpt lat="42.419285" lon="-8.774661">
        <ele>249.4</ele>
        <time>1970-01-01T00:20:53.000Z</time>
      </trkpt>
      <trkpt lat="42.419241" lon="-8.774909">
        <ele>250.4</ele>
        <time>1970-01-01T00:21:00.000Z</time>
      </trkpt>
      <trkpt lat="42.41916" lon="-8.775102">
        <ele>251.1</ele>
        <time>1970-01-01T00:21:07.000Z</time>
      </trkpt>
      <trkpt lat="42.418996" lon="-8.775174">
        <ele>251.9</ele>
        <time>1970-01-01T00:21:16.000Z</time>
      </trkpt>
      <trkpt lat="42.418978" lon="-8.775175">
        <ele>252</ele>
        <time>1970-01-01T00:21:17.000Z</time>
      </trkpt>
      <trkpt lat="42.41894" lon="-8.775181">
        <ele>252.1</ele>
        <time>1970-01-01T00:21:20.000Z</time>
      </trkpt>
      <trkpt lat="42.418932" lon="-8.775185">
        <ele>252.1</ele>
        <time>1970-01-01T00:21:21.000Z</time>
      </trkpt>
      <trkpt lat="42.41892" lon="-8.77519">
        <ele>252.1</ele>
        <time>1970-01-01T00:21:22.000Z</time>
      </trkpt>
      <trkpt lat="42.418916" lon="-8.775196">
        <ele>252.1</ele>
        <time>1970-01-01T00:21:23.000Z</time>
      </trkpt>
      <trkpt lat="42.418911" lon="-8.775194">
        <ele>252.1</ele>
        <time>1970-01-01T00:21:24.000Z</time>
      </trkpt>
      <trkpt lat="42.418903" lon="-8.775191">
        <ele>252.1</ele>
        <time>1970-01-01T00:21:25.000Z</time>
      </trkpt>
      <trkpt lat="42.418869" lon="-8.775206">
        <ele>252.2</ele>
        <time>1970-01-01T00:21:28.000Z</time>
      </trkpt>
      <trkpt lat="42.418792" lon="-8.775263">
        <ele>252.3</ele>
        <time>1970-01-01T00:21:34.000Z</time>
      </trkpt>
      <trkpt lat="42.41878" lon="-8.775273">
        <ele>252.3</ele>
        <time>1970-01-01T00:21:35.000Z</time>
      </trkpt>
      <trkpt lat="42.418769" lon="-8.775288">
        <ele>252.3</ele>
        <time>1970-01-01T00:21:36.000Z</time>
      </trkpt>
      <trkpt lat="42.418748" lon="-8.775331">
        <ele>252.3</ele>
        <time>1970-01-01T00:21:38.000Z</time>
      </trkpt>
      <trkpt lat="42.418695" lon="-8.775473">
        <ele>252.4</ele>
        <time>1970-01-01T00:21:45.000Z</time>
      </trkpt>
      <trkpt lat="42.418645" lon="-8.775567">
        <ele>252.5</ele>
        <time>1970-01-01T00:21:50.000Z</time>
      </trkpt>
      <trkpt lat="42.418601" lon="-8.775658">
        <ele>252.6</ele>
        <time>1970-01-01T00:21:55.000Z</time>
      </trkpt>
      <trkpt lat="42.418535" lon="-8.775787">
        <ele>252.8</ele>
        <time>1970-01-01T00:22:01.000Z</time>
      </trkpt>
      <trkpt lat="42.418512" lon="-8.775832">
        <ele>252.9</ele>
        <time>1970-01-01T00:22:02.000Z</time>
      </trkpt>
      <trkpt lat="42.418491" lon="-8.775876">
        <ele>253</ele>
        <time>1970-01-01T00:22:05.000Z</time>
      </trkpt>
      <trkpt lat="42.418481" lon="-8.775892">
        <ele>253</ele>
        <time>1970-01-01T00:22:06.000Z</time>
      </trkpt>
      <trkpt lat="42.418452" lon="-8.775943">
        <ele>253.1</ele>
        <time>1970-01-01T00:22:09.000Z</time>
      </trkpt>
      <trkpt lat="42.418403" lon="-8.776016">
        <ele>253.2</ele>
        <time>1970-01-01T00:22:13.000Z</time>
      </trkpt>
      <trkpt lat="42.418302" lon="-8.776181">
        <ele>253.5</ele>
        <time>1970-01-01T00:22:22.000Z</time>
      </trkpt>
      <trkpt lat="42.418136" lon="-8.776323">
        <ele>253.9</ele>
        <time>1970-01-01T00:22:33.000Z</time>
      </trkpt>
      <trkpt lat="42.418093" lon="-8.776366">
        <ele>254.1</ele>
        <time>1970-01-01T00:22:36.000Z</time>
      </trkpt>
      <trkpt lat="42.417985" lon="-8.776575">
        <ele>254.6</ele>
        <time>1970-01-01T00:22:48.000Z</time>
      </trkpt>
      <trkpt lat="42.417909" lon="-8.776683">
        <ele>254.9</ele>
        <time>1970-01-01T00:22:56.000Z</time>
      </trkpt>
      <trkpt lat="42.417738" lon="-8.776794">
        <ele>255.4</ele>
        <time>1970-01-01T00:23:07.000Z</time>
      </trkpt>
      <trkpt lat="42.417571" lon="-8.776932">
        <ele>256.2</ele>
        <time>1970-01-01T00:23:19.000Z</time>
      </trkpt>
      <trkpt lat="42.417425" lon="-8.777095">
        <ele>257.6</ele>
        <time>1970-01-01T00:23:30.000Z</time>
      </trkpt>
      <trkpt lat="42.41737" lon="-8.777159">
        <ele>258.1</ele>
        <time>1970-01-01T00:23:34.000Z</time>
      </trkpt>
      <trkpt lat="42.417316" lon="-8.777251">
        <ele>258.7</ele>
        <time>1970-01-01T00:23:39.000Z</time>
      </trkpt>
      <trkpt lat="42.417293" lon="-8.777282">
        <ele>258.9</ele>
        <time>1970-01-01T00:23:40.000Z</time>
      </trkpt>
      <trkpt lat="42.417293" lon="-8.777282">
        <ele>258.9</ele>
        <time>1970-01-01T00:23:41.000Z</time>
      </trkpt>
      <trkpt lat="42.417275" lon="-8.777314">
        <ele>259</ele>
        <time>1970-01-01T00:23:43.000Z</time>
      </trkpt>
      <trkpt lat="42.417263" lon="-8.777346">
        <ele>259.1</ele>
        <time>1970-01-01T00:23:45.000Z</time>
      </trkpt>
      <trkpt lat="42.417162" lon="-8.777558">
        <ele>259.9</ele>
        <time>1970-01-01T00:23:58.000Z</time>
      </trkpt>
      <trkpt lat="42.417148" lon="-8.777622">
        <ele>260.2</ele>
        <time>1970-01-01T00:24:01.000Z</time>
      </trkpt>
      <trkpt lat="42.417145" lon="-8.777647">
        <ele>260.2</ele>
        <time>1970-01-01T00:24:02.000Z</time>
      </trkpt>
      <trkpt lat="42.417142" lon="-8.77767">
        <ele>260.3</ele>
        <time>1970-01-01T00:24:03.000Z</time>
      </trkpt>
      <trkpt lat="42.417136" lon="-8.77769">
        <ele>260.4</ele>
        <time>1970-01-01T00:24:04.000Z</time>
      </trkpt>
      <trkpt lat="42.417129" lon="-8.777753">
        <ele>260.6</ele>
        <time>1970-01-01T00:24:07.000Z</time>
      </trkpt>
      <trkpt lat="42.417119" lon="-8.777814">
        <ele>260.7</ele>
        <time>1970-01-01T00:24:12.000Z</time>
      </trkpt>
      <trkpt lat="42.417114" lon="-8.777815">
        <ele>260.7</ele>
        <time>1970-01-01T00:24:14.000Z</time>
      </trkpt>
      <trkpt lat="42.415371" lon="-8.780295">
        <ele>251.8</ele>
        <time>1970-01-01T00:27:53.000Z</time>
      </trkpt>
      <trkpt lat="42.415366" lon="-8.780294">
        <ele>251.8</ele>
        <time>1970-01-01T00:27:56.000Z</time>
      </trkpt>
      <trkpt lat="42.415339" lon="-8.780277">
        <ele>251.8</ele>
        <time>1970-01-01T00:27:59.000Z</time>
      </trkpt>
      <trkpt lat="42.415292" lon="-8.780228">
        <ele>251.9</ele>
        <time>1970-01-01T00:28:02.000Z</time>
      </trkpt>
      <trkpt lat="42.415231" lon="-8.780128">
        <ele>251.9</ele>
        <time>1970-01-01T00:28:06.000Z</time>
      </trkpt>
      <trkpt lat="42.415138" lon="-8.779963">
        <ele>252.1</ele>
        <time>1970-01-01T00:28:11.000Z</time>
      </trkpt>
      <trkpt lat="42.414948" lon="-8.779951">
        <ele>251.1</ele>
        <time>1970-01-01T00:28:17.000Z</time>
      </trkpt>
      <trkpt lat="42.414757" lon="-8.77999">
        <ele>250.7</ele>
        <time>1970-01-01T00:28:25.000Z</time>
      </trkpt>
      <trkpt lat="42.414565" lon="-8.779953">
        <ele>250.3</ele>
        <time>1970-01-01T00:28:33.000Z</time>
      </trkpt>
      <trkpt lat="42.414388" lon="-8.779873">
        <ele>249.7</ele>
        <time>1970-01-01T00:28:39.000Z</time>
      </trkpt>
      <trkpt lat="42.414203" lon="-8.779811">
        <ele>248.9</ele>
        <time>1970-01-01T00:28:44.000Z</time>
      </trkpt>
      <trkpt lat="42.414022" lon="-8.779797">
        <ele>247.6</ele>
        <time>1970-01-01T00:28:49.000Z</time>
      </trkpt>
      <trkpt lat="42.413834" lon="-8.779804">
        <ele>246.3</ele>
        <time>1970-01-01T00:28:54.000Z</time>
      </trkpt>
      <trkpt lat="42.413636" lon="-8.779825">
        <ele>244.9</ele>
        <time>1970-01-01T00:28:59.000Z</time>
      </trkpt>
      <trkpt lat="42.413449" lon="-8.779948">
        <ele>243.3</ele>
        <time>1970-01-01T00:29:04.000Z</time>
      </trkpt>
      <trkpt lat="42.413306" lon="-8.780098">
        <ele>242.6</ele>
        <time>1970-01-01T00:29:09.000Z</time>
      </trkpt>
      <trkpt lat="42.413134" lon="-8.780242">
        <ele>242.2</ele>
        <time>1970-01-01T00:29:14.000Z</time>
      </trkpt>
      <trkpt lat="42.412997" lon="-8.780421">
        <ele>241.8</ele>
        <time>1970-01-01T00:29:20.000Z</time>
      </trkpt>
      <trkpt lat="42.412893" lon="-8.780629">
        <ele>241.8</ele>
        <time>1970-01-01T00:29:27.000Z</time>
      </trkpt>
      <trkpt lat="42.412795" lon="-8.780873">
        <ele>241.5</ele>
        <time>1970-01-01T00:29:36.000Z</time>
      </trkpt>
      <trkpt lat="42.412683" lon="-8.78107">
        <ele>241</ele>
        <time>1970-01-01T00:29:43.000Z</time>
      </trkpt>
      <trkpt lat="42.412519" lon="-8.781237">
        <ele>240.5</ele>
        <time>1970-01-01T00:29:49.000Z</time>
      </trkpt>
      <trkpt lat="42.412335" lon="-8.781312">
        <ele>240.1</ele>
        <time>1970-01-01T00:29:54.000Z</time>
      </trkpt>
      <trkpt lat="42.412291" lon="-8.78132">
        <ele>239.9</ele>
        <time>1970-01-01T00:29:55.000Z</time>
      </trkpt>
      <trkpt lat="42.412203" lon="-8.781367">
        <ele>239.6</ele>
        <time>1970-01-01T00:29:57.000Z</time>
      </trkpt>
      <trkpt lat="42.412055" lon="-8.781551">
        <ele>238.3</ele>
        <time>1970-01-01T00:30:03.000Z</time>
      </trkpt>
      <trkpt lat="42.411907" lon="-8.781706">
        <ele>236</ele>
        <time>1970-01-01T00:30:14.000Z</time>
      </trkpt>
      <trkpt lat="42.41184" lon="-8.781738">
        <ele>234.7</ele>
        <time>1970-01-01T00:30:20.000Z</time>
      </trkpt>
      <trkpt lat="42.411813" lon="-8.781751">
        <ele>234</ele>
        <time>1970-01-01T00:30:24.000Z</time>
      </trkpt>
      <trkpt lat="42.411807" lon="-8.781755">
        <ele>233.9</ele>
        <time>1970-01-01T00:30:25.000Z</time>
      </trkpt>
      <trkpt lat="42.4118" lon="-8.781756">
        <ele>233.7</ele>
        <time>1970-01-01T00:30:26.000Z</time>
      </trkpt>
      <trkpt lat="42.411622" lon="-8.781781">
        <ele>229.6</ele>
        <time>1970-01-01T00:30:42.000Z</time>
      </trkpt>
      <trkpt lat="42.411611" lon="-8.781786">
        <ele>229.4</ele>
        <time>1970-01-01T00:30:43.000Z</time>
      </trkpt>
      <trkpt lat="42.411453" lon="-8.781902">
        <ele>225.4</ele>
        <time>1970-01-01T00:30:52.000Z</time>
      </trkpt>
      <trkpt lat="42.411287" lon="-8.782025">
        <ele>221.7</ele>
        <time>1970-01-01T00:30:58.000Z</time>
      </trkpt>
      <trkpt lat="42.411139" lon="-8.782172">
        <ele>218.4</ele>
        <time>1970-01-01T00:31:04.000Z</time>
      </trkpt>
      <trkpt lat="42.411069" lon="-8.78232">
        <ele>216</ele>
        <time>1970-01-01T00:31:09.000Z</time>
      </trkpt>
      <trkpt lat="42.411042" lon="-8.782359">
        <ele>215.4</ele>
        <time>1970-01-01T00:31:12.000Z</time>
      </trkpt>
      <trkpt lat="42.411036" lon="-8.782367">
        <ele>215.3</ele>
        <time>1970-01-01T00:31:13.000Z</time>
      </trkpt>
      <trkpt lat="42.411019" lon="-8.782381">
        <ele>214.9</ele>
        <time>1970-01-01T00:31:15.000Z</time>
      </trkpt>
      <trkpt lat="42.410925" lon="-8.7823">
        <ele>212.6</ele>
        <time>1970-01-01T00:31:23.000Z</time>
      </trkpt>
      <trkpt lat="42.410903" lon="-8.782278">
        <ele>212.5</ele>
        <time>1970-01-01T00:31:24.000Z</time>
      </trkpt>
      <trkpt lat="42.410753" lon="-8.782161">
        <ele>211.5</ele>
        <time>1970-01-01T00:31:31.000Z</time>
      </trkpt>
      <trkpt lat="42.410574" lon="-8.78213">
        <ele>209.9</ele>
        <time>1970-01-01T00:31:38.000Z</time>
      </trkpt>
      <trkpt lat="42.410384" lon="-8.782201">
        <ele>208</ele>
        <time>1970-01-01T00:31:46.000Z</time>
      </trkpt>
      <trkpt lat="42.410197" lon="-8.782317">
        <ele>205.5</ele>
        <time>1970-01-01T00:31:52.000Z</time>
      </trkpt>
      <trkpt lat="42.409982" lon="-8.782482">
        <ele>201.7</ele>
        <time>1970-01-01T00:31:56.000Z</time>
      </trkpt>
      <trkpt lat="42.409837" lon="-8.782632">
        <ele>197.6</ele>
        <time>1970-01-01T00:31:59.000Z</time>
      </trkpt>
      <trkpt lat="42.409673" lon="-8.782721">
        <ele>193.5</ele>
        <time>1970-01-01T00:32:04.000Z</time>
      </trkpt>
      <trkpt lat="42.409553" lon="-8.782538">
        <ele>189.1</ele>
        <time>1970-01-01T00:32:09.000Z</time>
      </trkpt>
      <trkpt lat="42.409567" lon="-8.78229">
        <ele>188.6</ele>
        <time>1970-01-01T00:32:12.000Z</time>
      </trkpt>
      <trkpt lat="42.409597" lon="-8.782192">
        <ele>188.7</ele>
        <time>1970-01-01T00:32:13.000Z</time>
      </trkpt>
      <trkpt lat="42.409721" lon="-8.781892">
        <ele>188.8</ele>
        <time>1970-01-01T00:32:16.000Z</time>
      </trkpt>
      <trkpt lat="42.409817" lon="-8.781677">
        <ele>188.7</ele>
        <time>1970-01-01T00:32:18.000Z</time>
      </trkpt>
      <trkpt lat="42.409968" lon="-8.781383">
        <ele>188.1</ele>
        <time>1970-01-01T00:32:21.000Z</time>
      </trkpt>
      <trkpt lat="42.410112" lon="-8.781086">
        <ele>186.7</ele>
        <time>1970-01-01T00:32:24.000Z</time>
      </trkpt>
      <trkpt lat="42.410195" lon="-8.78086">
        <ele>185.8</ele>
        <time>1970-01-01T00:32:26.000Z</time>
      </trkpt>
      <trkpt lat="42.410286" lon="-8.780606">
        <ele>185</ele>
        <time>1970-01-01T00:32:28.000Z</time>
      </trkpt>
      <trkpt lat="42.410356" lon="-8.780329">
        <ele>183.9</ele>
        <time>1970-01-01T00:32:30.000Z</time>
      </trkpt>
      <trkpt lat="42.410411" lon="-8.780096">
        <ele>182</ele>
        <time>1970-01-01T00:32:32.000Z</time>
      </trkpt>
      <trkpt lat="42.410465" lon="-8.779844">
        <ele>177.6</ele>
        <time>1970-01-01T00:32:35.000Z</time>
      </trkpt>
      <trkpt lat="42.410532" lon="-8.779582">
        <ele>173.4</ele>
        <time>1970-01-01T00:32:39.000Z</time>
      </trkpt>
      <trkpt lat="42.410516" lon="-8.779492">
        <ele>172</ele>
        <time>1970-01-01T00:32:41.000Z</time>
      </trkpt>
      <trkpt lat="42.410452" lon="-8.779451">
        <ele>170.5</ele>
        <time>1970-01-01T00:32:43.000Z</time>
      </trkpt>
      <trkpt lat="42.410283" lon="-8.779561">
        <ele>166.3</ele>
        <time>1970-01-01T00:32:49.000Z</time>
      </trkpt>
      <trkpt lat="42.410225" lon="-8.779642">
        <ele>164.5</ele>
        <time>1970-01-01T00:32:56.000Z</time>
      </trkpt>
      <trkpt lat="42.410225" lon="-8.779635">
        <ele>164.4</ele>
        <time>1970-01-01T00:32:58.000Z</time>
      </trkpt>
      <trkpt lat="42.410929" lon="-8.782444">
        <ele>212.9</ele>
        <time>1970-01-01T00:42:21.000Z</time>
      </trkpt>
      <trkpt lat="42.410931" lon="-8.782456">
        <ele>212.9</ele>
        <time>1970-01-01T00:42:22.000Z</time>
      </trkpt>
      <trkpt lat="42.410978" lon="-8.78254">
        <ele>213.2</ele>
        <time>1970-01-01T00:42:27.000Z</time>
      </trkpt>
      <trkpt lat="42.411032" lon="-8.782645">
        <ele>214</ele>
        <time>1970-01-01T00:42:31.000Z</time>
      </trkpt>
      <trkpt lat="42.411162" lon="-8.782838">
        <ele>215.9</ele>
        <time>1970-01-01T00:42:37.000Z</time>
      </trkpt>
      <trkpt lat="42.411209" lon="-8.782902">
        <ele>216.7</ele>
        <time>1970-01-01T00:42:39.000Z</time>
      </trkpt>
      <trkpt lat="42.411294" lon="-8.782972">
        <ele>217.9</ele>
        <time>1970-01-01T00:42:42.000Z</time>
      </trkpt>
      <trkpt lat="42.41148" lon="-8.783054">
        <ele>219.8</ele>
        <time>1970-01-01T00:42:48.000Z</time>
      </trkpt>
      <trkpt lat="42.411523" lon="-8.783082">
        <ele>220.3</ele>
        <time>1970-01-01T00:42:50.000Z</time>
      </trkpt>
      <trkpt lat="42.411563" lon="-8.78311">
        <ele>220.8</ele>
        <time>1970-01-01T00:42:52.000Z</time>
      </trkpt>
      <trkpt lat="42.411598" lon="-8.783135">
        <ele>221.2</ele>
        <time>1970-01-01T00:42:53.000Z</time>
      </trkpt>
      <trkpt lat="42.411598" lon="-8.783135">
        <ele>221.2</ele>
        <time>1970-01-01T00:42:54.000Z</time>
      </trkpt>
      <trkpt lat="42.411745" lon="-8.783312">
        <ele>223.4</ele>
        <time>1970-01-01T00:43:04.000Z</time>
      </trkpt>
      <trkpt lat="42.411874" lon="-8.783493">
        <ele>225.4</ele>
        <time>1970-01-01T00:43:12.000Z</time>
      </trkpt>
      <trkpt lat="42.411985" lon="-8.783698">
        <ele>227</ele>
        <time>1970-01-01T00:43:21.000Z</time>
      </trkpt>
      <trkpt lat="42.412103" lon="-8.783889">
        <ele>227.6</ele>
        <time>1970-01-01T00:43:30.000Z</time>
      </trkpt>
      <trkpt lat="42.412167" lon="-8.784">
        <ele>227.4</ele>
        <time>1970-01-01T00:43:35.000Z</time>
      </trkpt>
      <trkpt lat="42.412179" lon="-8.784025">
        <ele>227.3</ele>
        <time>1970-01-01T00:43:36.000Z</time>
      </trkpt>
      <trkpt lat="42.41219" lon="-8.784047">
        <ele>227.2</ele>
        <time>1970-01-01T00:43:37.000Z</time>
      </trkpt>
      <trkpt lat="42.412207" lon="-8.784095">
        <ele>226.9</ele>
        <time>1970-01-01T00:43:38.000Z</time>
      </trkpt>
      <trkpt lat="42.412207" lon="-8.784095">
        <ele>226.9</ele>
        <time>1970-01-01T00:43:39.000Z</time>
      </trkpt>
      <trkpt lat="42.412279" lon="-8.784349">
        <ele>224.5</ele>
        <time>1970-01-01T00:43:45.000Z</time>
      </trkpt>
      <trkpt lat="42.41236" lon="-8.784656">
        <ele>221.6</ele>
        <time>1970-01-01T00:43:49.000Z</time>
      </trkpt>
      <trkpt lat="42.412502" lon="-8.784913">
        <ele>220</ele>
        <time>1970-01-01T00:43:52.000Z</time>
      </trkpt>
      <trkpt lat="42.412726" lon="-8.785067">
        <ele>219.6</ele>
        <time>1970-01-01T00:43:55.000Z</time>
      </trkpt>
      <trkpt lat="42.412972" lon="-8.785143">
        <ele>220.1</ele>
        <time>1970-01-01T00:43:58.000Z</time>
      </trkpt>
      <trkpt lat="42.413205" lon="-8.78519">
        <ele>221.3</ele>
        <time>1970-01-01T00:44:01.000Z</time>
      </trkpt>
      <trkpt lat="42.413399" lon="-8.785256">
        <ele>222.6</ele>
        <time>1970-01-01T00:44:04.000Z</time>
      </trkpt>
      <trkpt lat="42.413538" lon="-8.785414">
        <ele>222.7</ele>
        <time>1970-01-01T00:44:12.000Z</time>
      </trkpt>
      <trkpt lat="42.413537" lon="-8.785414">
        <ele>222.7</ele>
        <time>1970-01-01T00:44:14.000Z</time>
      </trkpt>
      <trkpt lat="42.413478" lon="-8.785491">
        <ele>222.7</ele>
        <time>1970-01-01T00:44:28.000Z</time>
      </trkpt>
      <trkpt lat="42.413345" lon="-8.785668">
        <ele>224.4</ele>
        <time>1970-01-01T00:44:39.000Z</time>
      </trkpt>
      <trkpt lat="42.413298" lon="-8.785745">
        <ele>225</ele>
        <time>1970-01-01T00:44:45.000Z</time>
      </trkpt>
      <trkpt lat="42.41323" lon="-8.785846">
        <ele>225.7</ele>
        <time>1970-01-01T00:44:52.000Z</time>
      </trkpt>
      <trkpt lat="42.413209" lon="-8.785873">
        <ele>225.8</ele>
        <time>1970-01-01T00:44:54.000Z</time>
      </trkpt>
      <trkpt lat="42.413114" lon="-8.78608">
        <ele>226.8</ele>
        <time>1970-01-01T00:45:08.000Z</time>
      </trkpt>
      <trkpt lat="42.413078" lon="-8.786185">
        <ele>227.1</ele>
        <time>1970-01-01T00:45:14.000Z</time>
      </trkpt>
      <trkpt lat="42.413073" lon="-8.786202">
        <ele>227.1</ele>
        <time>1970-01-01T00:45:15.000Z</time>
      </trkpt>
      <trkpt lat="42.413015" lon="-8.786331">
        <ele>227.2</ele>
        <time>1970-01-01T00:45:23.000Z</time>
      </trkpt>
      <trkpt lat="42.413" lon="-8.786374">
        <ele>227.2</ele>
        <time>1970-01-01T00:45:26.000Z</time>
      </trkpt>
      <trkpt lat="42.412992" lon="-8.786382">
        <ele>227.1</ele>
        <time>1970-01-01T00:45:28.000Z</time>
      </trkpt>
      <trkpt lat="42.412989" lon="-8.786387">
        <ele>227.1</ele>
        <time>1970-01-01T00:45:31.000Z</time>
      </trkpt>
      <trkpt lat="42.412989" lon="-8.78639">
        <ele>227.1</ele>
        <time>1970-01-01T00:45:53.000Z</time>
      </trkpt>
      <trkpt lat="42.412974" lon="-8.787204">
        <ele>230.7</ele>
        <time>1970-01-01T00:47:16.000Z</time>
      </trkpt>
      <trkpt lat="42.412938" lon="-8.78727">
        <ele>230.5</ele>
        <time>1970-01-01T00:47:19.000Z</time>
      </trkpt>
      <trkpt lat="42.412819" lon="-8.78742">
        <ele>230.1</ele>
        <time>1970-01-01T00:47:28.000Z</time>
      </trkpt>
      <trkpt lat="42.412809" lon="-8.78744">
        <ele>229.8</ele>
        <time>1970-01-01T00:47:29.000Z</time>
      </trkpt>
      <trkpt lat="42.412774" lon="-8.787489">
        <ele>229.5</ele>
        <time>1970-01-01T00:47:32.000Z</time>
      </trkpt>
      <trkpt lat="42.412637" lon="-8.787681">
        <ele>228.7</ele>
        <time>1970-01-01T00:47:42.000Z</time>
      </trkpt>
      <trkpt lat="42.412605" lon="-8.78778">
        <ele>228.2</ele>
        <time>1970-01-01T00:47:46.000Z</time>
      </trkpt>
      <trkpt lat="42.412517" lon="-8.787964">
        <ele>227.3</ele>
        <time>1970-01-01T00:47:54.000Z</time>
      </trkpt>
      <trkpt lat="42.412442" lon="-8.788094">
        <ele>226.8</ele>
        <time>1970-01-01T00:48:00.000Z</time>
      </trkpt>
      <trkpt lat="42.412395" lon="-8.788248">
        <ele>226.4</ele>
        <time>1970-01-01T00:48:05.000Z</time>
      </trkpt>
      <trkpt lat="42.412328" lon="-8.788461">
        <ele>226.4</ele>
        <time>1970-01-01T00:48:14.000Z</time>
      </trkpt>
      <trkpt lat="42.412145" lon="-8.788498">
        <ele>225.2</ele>
        <time>1970-01-01T00:48:20.000Z</time>
      </trkpt>
      <trkpt lat="42.41198" lon="-8.788669">
        <ele>224.7</ele>
        <time>1970-01-01T00:48:28.000Z</time>
      </trkpt>
      <trkpt lat="42.411832" lon="-8.788849">
        <ele>224.2</ele>
        <time>1970-01-01T00:48:35.000Z</time>
      </trkpt>
      <trkpt lat="42.411687" lon="-8.788997">
        <ele>222.8</ele>
        <time>1970-01-01T00:48:40.000Z</time>
      </trkpt>
      <trkpt lat="42.411538" lon="-8.789137">
        <ele>220.8</ele>
        <time>1970-01-01T00:48:48.000Z</time>
      </trkpt>
      <trkpt lat="42.411457" lon="-8.789189">
        <ele>219.9</ele>
        <time>1970-01-01T00:48:52.000Z</time>
      </trkpt>
      <trkpt lat="42.411346" lon="-8.789246">
        <ele>217.7</ele>
        <time>1970-01-01T00:48:57.000Z</time>
      </trkpt>
      <trkpt lat="42.411165" lon="-8.789371">
        <ele>214.8</ele>
        <time>1970-01-01T00:49:05.000Z</time>
      </trkpt>
      <trkpt lat="42.411035" lon="-8.789499">
        <ele>211.6</ele>
        <time>1970-01-01T00:49:11.000Z</time>
      </trkpt>
      <trkpt lat="42.411017" lon="-8.789649">
        <ele>211.8</ele>
        <time>1970-01-01T00:49:22.000Z</time>
      </trkpt>
      <trkpt lat="42.411043" lon="-8.789896">
        <ele>211.9</ele>
        <time>1970-01-01T00:49:30.000Z</time>
      </trkpt>
      <trkpt lat="42.411031" lon="-8.790091">
        <ele>211.7</ele>
        <time>1970-01-01T00:49:40.000Z</time>
      </trkpt>
      <trkpt lat="42.41103" lon="-8.790094">
        <ele>211.7</ele>
        <time>1970-01-01T00:49:41.000Z</time>
      </trkpt>
      <trkpt lat="42.410976" lon="-8.790429">
        <ele>210.9</ele>
        <time>1970-01-01T00:51:55.000Z</time>
      </trkpt>
      <trkpt lat="42.410977" lon="-8.790428">
        <ele>210.8</ele>
        <time>1970-01-01T00:51:56.000Z</time>
      </trkpt>
      <trkpt lat="42.410964" lon="-8.790586">
        <ele>209.3</ele>
        <time>1970-01-01T00:52:03.000Z</time>
      </trkpt>
      <trkpt lat="42.410945" lon="-8.790761">
        <ele>207.8</ele>
        <time>1970-01-01T00:52:07.000Z</time>
      </trkpt>
      <trkpt lat="42.410932" lon="-8.790805">
        <ele>207.4</ele>
        <time>1970-01-01T00:52:08.000Z</time>
      </trkpt>
      <trkpt lat="42.410866" lon="-8.791004">
        <ele>205.6</ele>
        <time>1970-01-01T00:52:15.000Z</time>
      </trkpt>
      <trkpt lat="42.410867" lon="-8.791012">
        <ele>205.7</ele>
        <time>1970-01-01T00:52:18.000Z</time>
      </trkpt>
      <trkpt lat="42.410922" lon="-8.791117">
        <ele>206.4</ele>
        <time>1970-01-01T00:52:27.000Z</time>
      </trkpt>
      <trkpt lat="42.411078" lon="-8.791246">
        <ele>208.3</ele>
        <time>1970-01-01T00:52:40.000Z</time>
      </trkpt>
      <trkpt lat="42.411269" lon="-8.791228">
        <ele>211</ele>
        <time>1970-01-01T00:52:53.000Z</time>
      </trkpt>
      <trkpt lat="42.411459" lon="-8.791228">
        <ele>213.3</ele>
        <time>1970-01-01T00:53:07.000Z</time>
      </trkpt>
      <trkpt lat="42.4116" lon="-8.791173">
        <ele>214.8</ele>
        <time>1970-01-01T00:53:17.000Z</time>
      </trkpt>
      <trkpt lat="42.411782" lon="-8.791116">
        <ele>215.8</ele>
        <time>1970-01-01T00:53:27.000Z</time>
      </trkpt>
      <trkpt lat="42.411861" lon="-8.791099">
        <ele>216</ele>
        <time>1970-01-01T00:53:32.000Z</time>
      </trkpt>
      <trkpt lat="42.411877" lon="-8.791097">
        <ele>216</ele>
        <time>1970-01-01T00:53:33.000Z</time>
      </trkpt>
      <trkpt lat="42.411893" lon="-8.791096">
        <ele>216.1</ele>
        <time>1970-01-01T00:53:34.000Z</time>
      </trkpt>
      <trkpt lat="42.411921" lon="-8.791101">
        <ele>216.1</ele>
        <time>1970-01-01T00:53:35.000Z</time>
      </trkpt>
      <trkpt lat="42.411921" lon="-8.791101">
        <ele>216.1</ele>
        <time>1970-01-01T00:53:36.000Z</time>
      </trkpt>
      <trkpt lat="42.411946" lon="-8.791111">
        <ele>216.2</ele>
        <time>1970-01-01T00:53:38.000Z</time>
      </trkpt>
      <trkpt lat="42.411974" lon="-8.791123">
        <ele>216.2</ele>
        <time>1970-01-01T00:53:40.000Z</time>
      </trkpt>
      <trkpt lat="42.412104" lon="-8.791234">
        <ele>216</ele>
        <time>1970-01-01T00:53:49.000Z</time>
      </trkpt>
      <trkpt lat="42.412212" lon="-8.79146">
        <ele>215.6</ele>
        <time>1970-01-01T00:53:59.000Z</time>
      </trkpt>
      <trkpt lat="42.41227" lon="-8.791553">
        <ele>215.3</ele>
        <time>1970-01-01T00:54:03.000Z</time>
      </trkpt>
      <trkpt lat="42.412303" lon="-8.791591">
        <ele>215.1</ele>
        <time>1970-01-01T00:54:05.000Z</time>
      </trkpt>
      <trkpt lat="42.412321" lon="-8.791612">
        <ele>215</ele>
        <time>1970-01-01T00:54:06.000Z</time>
      </trkpt>
      <trkpt lat="42.412368" lon="-8.791681">
        <ele>214.7</ele>
        <time>1970-01-01T00:54:10.000Z</time>
      </trkpt>
      <trkpt lat="42.412377" lon="-8.791705">
        <ele>214.7</ele>
        <time>1970-01-01T00:54:11.000Z</time>
      </trkpt>
      <trkpt lat="42.412424" lon="-8.791837">
        <ele>214.2</ele>
        <time>1970-01-01T00:54:17.000Z</time>
      </trkpt>
      <trkpt lat="42.412494" lon="-8.792077">
        <ele>213.7</ele>
        <time>1970-01-01T00:54:28.000Z</time>
      </trkpt>
      <trkpt lat="42.412543" lon="-8.792217">
        <ele>213.7</ele>
        <time>1970-01-01T00:54:34.000Z</time>
      </trkpt>
      <trkpt lat="42.412608" lon="-8.792349">
        <ele>213.7</ele>
        <time>1970-01-01T00:54:40.000Z</time>
      </trkpt>
      <trkpt lat="42.412699" lon="-8.792587">
        <ele>213.2</ele>
        <time>1970-01-01T00:54:50.000Z</time>
      </trkpt>
      <trkpt lat="42.41275" lon="-8.792826">
        <ele>211.3</ele>
        <time>1970-01-01T00:54:59.000Z</time>
      </trkpt>
      <trkpt lat="42.41279" lon="-8.792939">
        <ele>209.8</ele>
        <time>1970-01-01T00:55:03.000Z</time>
      </trkpt>
      <trkpt lat="42.412801" lon="-8.792994">
        <ele>209.2</ele>
        <time>1970-01-01T00:55:04.000Z</time>
      </trkpt>
      <trkpt lat="42.412804" lon="-8.793019">
        <ele>209</ele>
        <time>1970-01-01T00:55:06.000Z</time>
      </trkpt>
      <trkpt lat="42.412805" lon="-8.793075">
        <ele>208.8</ele>
        <time>1970-01-01T00:55:07.000Z</time>
      </trkpt>
      <trkpt lat="42.412805" lon="-8.793075">
        <ele>208.8</ele>
        <time>1970-01-01T00:55:08.000Z</time>
      </trkpt>
      <trkpt lat="42.412806" lon="-8.793102">
        <ele>208.7</ele>
        <time>1970-01-01T00:55:09.000Z</time>
      </trkpt>
      <trkpt lat="42.412808" lon="-8.793127">
        <ele>208.7</ele>
        <time>1970-01-01T00:55:10.000Z</time>
      </trkpt>
      <trkpt lat="42.412814" lon="-8.793248">
        <ele>208.3</ele>
        <time>1970-01-01T00:55:15.000Z</time>
      </trkpt>
      <trkpt lat="42.412872" lon="-8.793485">
        <ele>209.3</ele>
        <time>1970-01-01T00:55:23.000Z</time>
      </trkpt>
      <trkpt lat="42.4129" lon="-8.793561">
        <ele>209.6</ele>
        <time>1970-01-01T00:55:26.000Z</time>
      </trkpt>
      <trkpt lat="42.412949" lon="-8.793687">
        <ele>210.2</ele>
        <time>1970-01-01T00:55:31.000Z</time>
      </trkpt>
      <trkpt lat="42.413023" lon="-8.793928">
        <ele>211</ele>
        <time>1970-01-01T00:55:39.000Z</time>
      </trkpt>
      <trkpt lat="42.413045" lon="-8.793976">
        <ele>211.1</ele>
        <time>1970-01-01T00:55:41.000Z</time>
      </trkpt>
      <trkpt lat="42.413058" lon="-8.794001">
        <ele>211.2</ele>
        <time>1970-01-01T00:55:42.000Z</time>
      </trkpt>
      <trkpt lat="42.413115" lon="-8.794105">
        <ele>211.5</ele>
        <time>1970-01-01T00:55:46.000Z</time>
      </trkpt>
      <trkpt lat="42.413147" lon="-8.794156">
        <ele>211.7</ele>
        <time>1970-01-01T00:55:48.000Z</time>
      </trkpt>
      <trkpt lat="42.413178" lon="-8.794215">
        <ele>211.9</ele>
        <time>1970-01-01T00:55:49.000Z</time>
      </trkpt>
      <trkpt lat="42.413178" lon="-8.794215">
        <ele>211.9</ele>
        <time>1970-01-01T00:55:50.000Z</time>
      </trkpt>
      <trkpt lat="42.413265" lon="-8.79436">
        <ele>212.4</ele>
        <time>1970-01-01T00:55:58.000Z</time>
      </trkpt>
      <trkpt lat="42.413268" lon="-8.794361">
        <ele>212.4</ele>
        <time>1970-01-01T00:55:59.000Z</time>
      </trkpt>
      <trkpt lat="42.413278" lon="-8.794376">
        <ele>212.5</ele>
        <time>1970-01-01T00:56:02.000Z</time>
      </trkpt>
      <trkpt lat="42.413286" lon="-8.794453">
        <ele>212.7</ele>
        <time>1970-01-01T01:00:22.000Z</time>
      </trkpt>
      <trkpt lat="42.413295" lon="-8.794459">
        <ele>212.8</ele>
        <time>1970-01-01T01:00:23.000Z</time>
      </trkpt>
      <trkpt lat="42.413375" lon="-8.794521">
        <ele>213.2</ele>
        <time>1970-01-01T01:00:29.000Z</time>
      </trkpt>
      <trkpt lat="42.413457" lon="-8.794621">
        <ele>213.7</ele>
        <time>1970-01-01T01:00:32.000Z</time>
      </trkpt>
      <trkpt lat="42.413513" lon="-8.794693">
        <ele>214</ele>
        <time>1970-01-01T01:00:33.000Z</time>
      </trkpt>
      <trkpt lat="42.413513" lon="-8.794693">
        <ele>214</ele>
        <time>1970-01-01T01:00:34.000Z</time>
      </trkpt>
      <trkpt lat="42.413566" lon="-8.794765">
        <ele>214.3</ele>
        <time>1970-01-01T01:00:36.000Z</time>
      </trkpt>
      <trkpt lat="42.413665" lon="-8.794933">
        <ele>215</ele>
        <time>1970-01-01T01:00:40.000Z</time>
      </trkpt>
      <trkpt lat="42.413697" lon="-8.795037">
        <ele>215.2</ele>
        <time>1970-01-01T01:00:42.000Z</time>
      </trkpt>
      <trkpt lat="42.413712" lon="-8.795094">
        <ele>214.8</ele>
        <time>1970-01-01T01:00:43.000Z</time>
      </trkpt>
      <trkpt lat="42.413826" lon="-8.79529">
        <ele>213.1</ele>
        <time>1970-01-01T01:00:48.000Z</time>
      </trkpt>
      <trkpt lat="42.4139" lon="-8.795363">
        <ele>212.2</ele>
        <time>1970-01-01T01:00:50.000Z</time>
      </trkpt>
      <trkpt lat="42.414073" lon="-8.795534">
        <ele>209</ele>
        <time>1970-01-01T01:00:55.000Z</time>
      </trkpt>
      <trkpt lat="42.414102" lon="-8.795568">
        <ele>208.4</ele>
        <time>1970-01-01T01:00:56.000Z</time>
      </trkpt>
      <trkpt lat="42.414165" lon="-8.795637">
        <ele>206.6</ele>
        <time>1970-01-01T01:00:58.000Z</time>
      </trkpt>
      <trkpt lat="42.41431" lon="-8.795799">
        <ele>202.8</ele>
        <time>1970-01-01T01:01:04.000Z</time>
      </trkpt>
      <trkpt lat="42.414349" lon="-8.795834">
        <ele>201.8</ele>
        <time>1970-01-01T01:01:06.000Z</time>
      </trkpt>
      <trkpt lat="42.414372" lon="-8.795854">
        <ele>201.1</ele>
        <time>1970-01-01T01:01:07.000Z</time>
      </trkpt>
      <trkpt lat="42.414394" lon="-8.795875">
        <ele>200.4</ele>
        <time>1970-01-01T01:01:08.000Z</time>
      </trkpt>
      <trkpt lat="42.414462" lon="-8.795955">
        <ele>198.4</ele>
        <time>1970-01-01T01:01:11.000Z</time>
      </trkpt>
      <trkpt lat="42.414588" lon="-8.79616">
        <ele>194.1</ele>
        <time>1970-01-01T01:01:17.000Z</time>
      </trkpt>
      <trkpt lat="42.414616" lon="-8.796213">
        <ele>193.1</ele>
        <time>1970-01-01T01:01:19.000Z</time>
      </trkpt>
      <trkpt lat="42.414645" lon="-8.796328">
        <ele>191.3</ele>
        <time>1970-01-01T01:01:23.000Z</time>
      </trkpt>
      <trkpt lat="42.414657" lon="-8.796391">
        <ele>190.3</ele>
        <time>1970-01-01T01:01:25.000Z</time>
      </trkpt>
      <trkpt lat="42.414709" lon="-8.79662">
        <ele>186.8</ele>
        <time>1970-01-01T01:01:32.000Z</time>
      </trkpt>
      <trkpt lat="42.414739" lon="-8.796803">
        <ele>184.9</ele>
        <time>1970-01-01T01:01:37.000Z</time>
      </trkpt>
      <trkpt lat="42.414765" lon="-8.796936">
        <ele>183.6</ele>
        <time>1970-01-01T01:01:41.000Z</time>
      </trkpt>
      <trkpt lat="42.41477" lon="-8.797043">
        <ele>182.4</ele>
        <time>1970-01-01T01:01:44.000Z</time>
      </trkpt>
      <trkpt lat="42.414801" lon="-8.797299">
        <ele>179.6</ele>
        <time>1970-01-01T01:01:52.000Z</time>
      </trkpt>
      <trkpt lat="42.414807" lon="-8.797387">
        <ele>178.5</ele>
        <time>1970-01-01T01:01:54.000Z</time>
      </trkpt>
      <trkpt lat="42.41486" lon="-8.79763">
        <ele>175.1</ele>
        <time>1970-01-01T01:02:01.000Z</time>
      </trkpt>
      <trkpt lat="42.414875" lon="-8.797754">
        <ele>173.7</ele>
        <time>1970-01-01T01:02:06.000Z</time>
      </trkpt>
      <trkpt lat="42.414892" lon="-8.798008">
        <ele>170</ele>
        <time>1970-01-01T01:02:17.000Z</time>
      </trkpt>
      <trkpt lat="42.414904" lon="-8.798177">
        <ele>167.9</ele>
        <time>1970-01-01T01:02:22.000Z</time>
      </trkpt>
      <trkpt lat="42.414925" lon="-8.798395">
        <ele>164.6</ele>
        <time>1970-01-01T01:02:38.000Z</time>
      </trkpt>
      <trkpt lat="42.414993" lon="-8.798669">
        <ele>160.1</ele>
        <time>1970-01-01T01:02:56.000Z</time>
      </trkpt>
      <trkpt lat="42.415048" lon="-8.798913">
        <ele>156.5</ele>
        <time>1970-01-01T01:03:08.000Z</time>
      </trkpt>
      <trkpt lat="42.415088" lon="-8.799156">
        <ele>153.8</ele>
        <time>1970-01-01T01:03:18.000Z</time>
      </trkpt>
      <trkpt lat="42.415097" lon="-8.799403">
        <ele>150.2</ele>
        <time>1970-01-01T01:03:29.000Z</time>
      </trkpt>
      <trkpt lat="42.415095" lon="-8.799466">
        <ele>149</ele>
        <time>1970-01-01T01:03:34.000Z</time>
      </trkpt>
      <trkpt lat="42.415096" lon="-8.799502">
        <ele>148.3</ele>
        <time>1970-01-01T01:03:36.000Z</time>
      </trkpt>
      <trkpt lat="42.415105" lon="-8.799664">
        <ele>145.5</ele>
        <time>1970-01-01T01:03:46.000Z</time>
      </trkpt>
      <trkpt lat="42.415101" lon="-8.799665">
        <ele>145.3</ele>
        <time>1970-01-01T01:03:53.000Z</time>
      </trkpt>
      <trkpt lat="42.4151" lon="-8.799681">
        <ele>145</ele>
        <time>1970-01-01T01:03:55.000Z</time>
      </trkpt>
      <trkpt lat="42.415084" lon="-8.799843">
        <ele>140</ele>
        <time>1970-01-01T01:04:03.000Z</time>
      </trkpt>
      <trkpt lat="42.41507" lon="-8.799849">
        <ele>139.8</ele>
        <time>1970-01-01T01:04:07.000Z</time>
      </trkpt>
      <trkpt lat="42.415262" lon="-8.799894">
        <ele>136.7</ele>
        <time>1970-01-01T01:05:45.000Z</time>
      </trkpt>
      <trkpt lat="42.415394" lon="-8.799901">
        <ele>134.6</ele>
        <time>1970-01-01T01:05:49.000Z</time>
      </trkpt>
      <trkpt lat="42.415408" lon="-8.799978">
        <ele>132.5</ele>
        <time>1970-01-01T01:05:51.000Z</time>
      </trkpt>
      <trkpt lat="42.415391" lon="-8.800028">
        <ele>132.5</ele>
        <time>1970-01-01T01:05:52.000Z</time>
      </trkpt>
      <trkpt lat="42.415338" lon="-8.800144">
        <ele>132.4</ele>
        <time>1970-01-01T01:05:54.000Z</time>
      </trkpt>
      <trkpt lat="42.415311" lon="-8.800211">
        <ele>132.4</ele>
        <time>1970-01-01T01:05:55.000Z</time>
      </trkpt>
      <trkpt lat="42.415221" lon="-8.800435">
        <ele>132.5</ele>
        <time>1970-01-01T01:05:58.000Z</time>
      </trkpt>
      <trkpt lat="42.41516" lon="-8.800593">
        <ele>132.7</ele>
        <time>1970-01-01T01:06:00.000Z</time>
      </trkpt>
      <trkpt lat="42.415067" lon="-8.800821">
        <ele>132.9</ele>
        <time>1970-01-01T01:06:03.000Z</time>
      </trkpt>
      <trkpt lat="42.415028" lon="-8.800964">
        <ele>132.7</ele>
        <time>1970-01-01T01:06:05.000Z</time>
      </trkpt>
      <trkpt lat="42.415061" lon="-8.80111">
        <ele>132.4</ele>
        <time>1970-01-01T01:06:07.000Z</time>
      </trkpt>
      <trkpt lat="42.415234" lon="-8.801303">
        <ele>129.4</ele>
        <time>1970-01-01T01:06:10.000Z</time>
      </trkpt>
      <trkpt lat="42.415438" lon="-8.801537">
        <ele>127.1</ele>
        <time>1970-01-01T01:06:13.000Z</time>
      </trkpt>
      <trkpt lat="42.415591" lon="-8.801678">
        <ele>125.7</ele>
        <time>1970-01-01T01:06:15.000Z</time>
      </trkpt>
      <trkpt lat="42.415818" lon="-8.801863">
        <ele>123.7</ele>
        <time>1970-01-01T01:06:18.000Z</time>
      </trkpt>
      <trkpt lat="42.415966" lon="-8.802005">
        <ele>122.1</ele>
        <time>1970-01-01T01:06:20.000Z</time>
      </trkpt>
      <trkpt lat="42.416173" lon="-8.802232">
        <ele>119.3</ele>
        <time>1970-01-01T01:06:23.000Z</time>
      </trkpt>
      <trkpt lat="42.416335" lon="-8.802523">
        <ele>116</ele>
        <time>1970-01-01T01:06:26.000Z</time>
      </trkpt>
      <trkpt lat="42.416434" lon="-8.802759">
        <ele>113.2</ele>
        <time>1970-01-01T01:06:28.000Z</time>
      </trkpt>
      <trkpt lat="42.416486" lon="-8.802886">
        <ele>111.5</ele>
        <time>1970-01-01T01:06:29.000Z</time>
      </trkpt>
      <trkpt lat="42.416538" lon="-8.803005">
        <ele>110</ele>
        <time>1970-01-01T01:06:30.000Z</time>
      </trkpt>
      <trkpt lat="42.416664" lon="-8.803265">
        <ele>107.5</ele>
        <time>1970-01-01T01:06:33.000Z</time>
      </trkpt>
      <trkpt lat="42.416746" lon="-8.80349">
        <ele>106</ele>
        <time>1970-01-01T01:06:37.000Z</time>
      </trkpt>
      <trkpt lat="42.41688" lon="-8.803657">
        <ele>104.3</ele>
        <time>1970-01-01T01:06:41.000Z</time>
      </trkpt>
      <trkpt lat="42.417024" lon="-8.803842">
        <ele>102.8</ele>
        <time>1970-01-01T01:06:45.000Z</time>
      </trkpt>
      <trkpt lat="42.417058" lon="-8.803887">
        <ele>102.4</ele>
        <time>1970-01-01T01:06:46.000Z</time>
      </trkpt>
      <trkpt lat="42.417127" lon="-8.803983">
        <ele>101.7</ele>
        <time>1970-01-01T01:06:48.000Z</time>
      </trkpt>
      <trkpt lat="42.41716" lon="-8.804033">
        <ele>101.4</ele>
        <time>1970-01-01T01:06:49.000Z</time>
      </trkpt>
      <trkpt lat="42.417281" lon="-8.804236">
        <ele>100</ele>
        <time>1970-01-01T01:06:53.000Z</time>
      </trkpt>
      <trkpt lat="42.41731" lon="-8.804284">
        <ele>99.7</ele>
        <time>1970-01-01T01:06:54.000Z</time>
      </trkpt>
      <trkpt lat="42.41734" lon="-8.804333">
        <ele>99.4</ele>
        <time>1970-01-01T01:06:55.000Z</time>
      </trkpt>
      <trkpt lat="42.417402" lon="-8.804434">
        <ele>98.8</ele>
        <time>1970-01-01T01:06:57.000Z</time>
      </trkpt>
      <trkpt lat="42.41743" lon="-8.804488">
        <ele>98.5</ele>
        <time>1970-01-01T01:06:58.000Z</time>
      </trkpt>
      <trkpt lat="42.417457" lon="-8.804542">
        <ele>98.2</ele>
        <time>1970-01-01T01:06:59.000Z</time>
      </trkpt>
      <trkpt lat="42.417532" lon="-8.804708">
        <ele>97.5</ele>
        <time>1970-01-01T01:07:02.000Z</time>
      </trkpt>
      <trkpt lat="42.417631" lon="-8.804928">
        <ele>96.9</ele>
        <time>1970-01-01T01:07:06.000Z</time>
      </trkpt>
      <trkpt lat="42.417699" lon="-8.805091">
        <ele>96.3</ele>
        <time>1970-01-01T01:07:09.000Z</time>
      </trkpt>
      <trkpt lat="42.417779" lon="-8.80531">
        <ele>95.7</ele>
        <time>1970-01-01T01:07:13.000Z</time>
      </trkpt>
      <trkpt lat="42.417875" lon="-8.80555">
        <ele>95</ele>
        <time>1970-01-01T01:07:18.000Z</time>
      </trkpt>
      <trkpt lat="42.41798" lon="-8.805775">
        <ele>94.4</ele>
        <time>1970-01-01T01:07:23.000Z</time>
      </trkpt>
      <trkpt lat="42.418099" lon="-8.80598">
        <ele>93.6</ele>
        <time>1970-01-01T01:07:27.000Z</time>
      </trkpt>
      <trkpt lat="42.418229" lon="-8.806172">
        <ele>92.4</ele>
        <time>1970-01-01T01:07:31.000Z</time>
      </trkpt>
      <trkpt lat="42.41836" lon="-8.806357">
        <ele>91.6</ele>
        <time>1970-01-01T01:07:35.000Z</time>
      </trkpt>
      <trkpt lat="42.418504" lon="-8.806531">
        <ele>90.8</ele>
        <time>1970-01-01T01:07:39.000Z</time>
      </trkpt>
      <trkpt lat="42.418663" lon="-8.806667">
        <ele>90.3</ele>
        <time>1970-01-01T01:07:43.000Z</time>
      </trkpt>
      <trkpt lat="42.418857" lon="-8.806815">
        <ele>89.6</ele>
        <time>1970-01-01T01:07:48.000Z</time>
      </trkpt>
      <trkpt lat="42.418994" lon="-8.806898">
        <ele>89</ele>
        <time>1970-01-01T01:07:52.000Z</time>
      </trkpt>
      <trkpt lat="42.41902" lon="-8.806913">
        <ele>89</ele>
        <time>1970-01-01T01:07:55.000Z</time>
      </trkpt>
      <trkpt lat="42.419019" lon="-8.806912">
        <ele>89</ele>
        <time>1970-01-01T01:07:57.000Z</time>
      </trkpt>
      <trkpt lat="42.418944" lon="-8.80698">
        <ele>89.1</ele>
        <time>1970-01-01T01:09:17.000Z</time>
      </trkpt>
      <trkpt lat="42.418816" lon="-8.807097">
        <ele>89.4</ele>
        <time>1970-01-01T01:09:23.000Z</time>
      </trkpt>
      <trkpt lat="42.418668" lon="-8.807243">
        <ele>89.6</ele>
        <time>1970-01-01T01:09:28.000Z</time>
      </trkpt>
      <trkpt lat="42.41855" lon="-8.8074">
        <ele>89.6</ele>
        <time>1970-01-01T01:09:33.000Z</time>
      </trkpt>
      <trkpt lat="42.418498" lon="-8.807469">
        <ele>89.6</ele>
        <time>1970-01-01T01:09:35.000Z</time>
      </trkpt>
      <trkpt lat="42.41833" lon="-8.807615">
        <ele>89.6</ele>
        <time>1970-01-01T01:09:40.000Z</time>
      </trkpt>
      <trkpt lat="42.41817" lon="-8.807727">
        <ele>89.3</ele>
        <time>1970-01-01T01:09:45.000Z</time>
      </trkpt>
      <trkpt lat="42.418107" lon="-8.807769">
        <ele>89.3</ele>
        <time>1970-01-01T01:09:47.000Z</time>
      </trkpt>
      <trkpt lat="42.418084" lon="-8.807862">
        <ele>89</ele>
        <time>1970-01-01T01:09:49.000Z</time>
      </trkpt>
      <trkpt lat="42.41812" lon="-8.808025">
        <ele>88.6</ele>
        <time>1970-01-01T01:09:52.000Z</time>
      </trkpt>
      <trkpt lat="42.41818" lon="-8.808175">
        <ele>87.9</ele>
        <time>1970-01-01T01:09:55.000Z</time>
      </trkpt>
      <trkpt lat="42.418241" lon="-8.808253">
        <ele>87.4</ele>
        <time>1970-01-01T01:09:57.000Z</time>
      </trkpt>
      <trkpt lat="42.418432" lon="-8.808383">
        <ele>86.2</ele>
        <time>1970-01-01T01:10:02.000Z</time>
      </trkpt>
      <trkpt lat="42.4185" lon="-8.808442">
        <ele>85.7</ele>
        <time>1970-01-01T01:10:04.000Z</time>
      </trkpt>
      <trkpt lat="42.41853" lon="-8.808475">
        <ele>85.4</ele>
        <time>1970-01-01T01:10:05.000Z</time>
      </trkpt>
      <trkpt lat="42.418558" lon="-8.80851">
        <ele>85.1</ele>
        <time>1970-01-01T01:10:06.000Z</time>
      </trkpt>
      <trkpt lat="42.418586" lon="-8.808548">
        <ele>85.2</ele>
        <time>1970-01-01T01:10:07.000Z</time>
      </trkpt>
      <trkpt lat="42.418613" lon="-8.808588">
        <ele>85.3</ele>
        <time>1970-01-01T01:10:08.000Z</time>
      </trkpt>
      <trkpt lat="42.41864" lon="-8.808631">
        <ele>85.5</ele>
        <time>1970-01-01T01:10:09.000Z</time>
      </trkpt>
      <trkpt lat="42.418667" lon="-8.808675">
        <ele>85.6</ele>
        <time>1970-01-01T01:10:10.000Z</time>
      </trkpt>
      <trkpt lat="42.418719" lon="-8.80876">
        <ele>85.9</ele>
        <time>1970-01-01T01:10:12.000Z</time>
      </trkpt>
      <trkpt lat="42.418743" lon="-8.808803">
        <ele>86.1</ele>
        <time>1970-01-01T01:10:13.000Z</time>
      </trkpt>
      <trkpt lat="42.418767" lon="-8.808844">
        <ele>86.2</ele>
        <time>1970-01-01T01:10:14.000Z</time>
      </trkpt>
      <trkpt lat="42.418813" lon="-8.808925">
        <ele>86.5</ele>
        <time>1970-01-01T01:10:16.000Z</time>
      </trkpt>
      <trkpt lat="42.418837" lon="-8.808963">
        <ele>86.6</ele>
        <time>1970-01-01T01:10:17.000Z</time>
      </trkpt>
      <trkpt lat="42.418882" lon="-8.809039">
        <ele>84.2</ele>
        <time>1970-01-01T01:10:18.000Z</time>
      </trkpt>
      <trkpt lat="42.418882" lon="-8.809039">
        <ele>84.2</ele>
        <time>1970-01-01T01:10:19.000Z</time>
      </trkpt>
      <trkpt lat="42.418944" lon="-8.809116">
        <ele>84.2</ele>
        <time>1970-01-01T01:10:22.000Z</time>
      </trkpt>
      <trkpt lat="42.419131" lon="-8.808966">
        <ele>84.1</ele>
        <time>1970-01-01T01:10:28.000Z</time>
      </trkpt>
      <trkpt lat="42.419167" lon="-8.808941">
        <ele>84.1</ele>
        <time>1970-01-01T01:10:29.000Z</time>
      </trkpt>
      <trkpt lat="42.419272" lon="-8.808882">
        <ele>84</ele>
        <time>1970-01-01T01:10:32.000Z</time>
      </trkpt>
      <trkpt lat="42.419304" lon="-8.808864">
        <ele>84</ele>
        <time>1970-01-01T01:10:33.000Z</time>
      </trkpt>
      <trkpt lat="42.419336" lon="-8.808847">
        <ele>84</ele>
        <time>1970-01-01T01:10:34.000Z</time>
      </trkpt>
      <trkpt lat="42.419367" lon="-8.80883">
        <ele>84</ele>
        <time>1970-01-01T01:10:35.000Z</time>
      </trkpt>
      <trkpt lat="42.419464" lon="-8.808781">
        <ele>83.9</ele>
        <time>1970-01-01T01:10:38.000Z</time>
      </trkpt>
      <trkpt lat="42.419644" lon="-8.808691">
        <ele>83.7</ele>
        <time>1970-01-01T01:10:44.000Z</time>
      </trkpt>
      <trkpt lat="42.419732" lon="-8.808649">
        <ele>83.5</ele>
        <time>1970-01-01T01:10:47.000Z</time>
      </trkpt>
      <trkpt lat="42.41976" lon="-8.808633">
        <ele>83.5</ele>
        <time>1970-01-01T01:10:48.000Z</time>
      </trkpt>
      <trkpt lat="42.419789" lon="-8.808618">
        <ele>83.4</ele>
        <time>1970-01-01T01:10:49.000Z</time>
      </trkpt>
      <trkpt lat="42.419818" lon="-8.808601">
        <ele>83.4</ele>
        <time>1970-01-01T01:10:50.000Z</time>
      </trkpt>
      <trkpt lat="42.419874" lon="-8.808575">
        <ele>83.2</ele>
        <time>1970-01-01T01:10:52.000Z</time>
      </trkpt>
      <trkpt lat="42.419982" lon="-8.808516">
        <ele>83</ele>
        <time>1970-01-01T01:10:56.000Z</time>
      </trkpt>
      <trkpt lat="42.42001" lon="-8.808502">
        <ele>82.9</ele>
        <time>1970-01-01T01:10:57.000Z</time>
      </trkpt>
      <trkpt lat="42.420184" lon="-8.808409">
        <ele>82.5</ele>
        <time>1970-01-01T01:11:03.000Z</time>
      </trkpt>
      <trkpt lat="42.420214" lon="-8.808394">
        <ele>82.4</ele>
        <time>1970-01-01T01:11:04.000Z</time>
      </trkpt>
      <trkpt lat="42.420244" lon="-8.808379">
        <ele>82.3</ele>
        <time>1970-01-01T01:11:05.000Z</time>
      </trkpt>
      <trkpt lat="42.420342" lon="-8.808328">
        <ele>82.1</ele>
        <time>1970-01-01T01:11:08.000Z</time>
      </trkpt>
      <trkpt lat="42.420509" lon="-8.808233">
        <ele>81.7</ele>
        <time>1970-01-01T01:11:13.000Z</time>
      </trkpt>
      <trkpt lat="42.420682" lon="-8.808142">
        <ele>81.3</ele>
        <time>1970-01-01T01:11:18.000Z</time>
      </trkpt>
      <trkpt lat="42.420857" lon="-8.80806">
        <ele>80.7</ele>
        <time>1970-01-01T01:11:23.000Z</time>
      </trkpt>
      <trkpt lat="42.421045" lon="-8.807977">
        <ele>80</ele>
        <time>1970-01-01T01:11:28.000Z</time>
      </trkpt>
      <trkpt lat="42.421239" lon="-8.807905">
        <ele>79.1</ele>
        <time>1970-01-01T01:11:33.000Z</time>
      </trkpt>
      <trkpt lat="42.421415" lon="-8.80783">
        <ele>78.3</ele>
        <time>1970-01-01T01:11:38.000Z</time>
      </trkpt>
      <trkpt lat="42.421597" lon="-8.807762">
        <ele>77.3</ele>
        <time>1970-01-01T01:11:43.000Z</time>
      </trkpt>
      <trkpt lat="42.421796" lon="-8.80771">
        <ele>76.2</ele>
        <time>1970-01-01T01:11:49.000Z</time>
      </trkpt>
      <trkpt lat="42.421977" lon="-8.807681">
        <ele>75.1</ele>
        <time>1970-01-01T01:11:55.000Z</time>
      </trkpt>
      <trkpt lat="42.422042" lon="-8.807678">
        <ele>74.6</ele>
        <time>1970-01-01T01:11:57.000Z</time>
      </trkpt>
      <trkpt lat="42.422072" lon="-8.807674">
        <ele>74.5</ele>
        <time>1970-01-01T01:11:58.000Z</time>
      </trkpt>
      <trkpt lat="42.422101" lon="-8.807671">
        <ele>74.3</ele>
        <time>1970-01-01T01:11:59.000Z</time>
      </trkpt>
      <trkpt lat="42.422186" lon="-8.807664">
        <ele>73.7</ele>
        <time>1970-01-01T01:12:02.000Z</time>
      </trkpt>
      <trkpt lat="42.422266" lon="-8.807659">
        <ele>73.2</ele>
        <time>1970-01-01T01:12:05.000Z</time>
      </trkpt>
      <trkpt lat="42.422379" lon="-8.807635">
        <ele>72.3</ele>
        <time>1970-01-01T01:12:09.000Z</time>
      </trkpt>
      <trkpt lat="42.422405" lon="-8.807632">
        <ele>90.5</ele>
        <time>1970-01-01T01:12:10.000Z</time>
      </trkpt>
      <trkpt lat="42.422449" lon="-8.807636">
        <ele>90.5</ele>
        <time>1970-01-01T01:12:12.000Z</time>
      </trkpt>
      <trkpt lat="42.422484" lon="-8.80765">
        <ele>90.5</ele>
        <time>1970-01-01T01:12:14.000Z</time>
      </trkpt>
      <trkpt lat="42.422614" lon="-8.807854">
        <ele>88.9</ele>
        <time>1970-01-01T01:12:20.000Z</time>
      </trkpt>
      <trkpt lat="42.422707" lon="-8.808065">
        <ele>87.4</ele>
        <time>1970-01-01T01:12:25.000Z</time>
      </trkpt>
      <trkpt lat="42.422797" lon="-8.808321">
        <ele>85.8</ele>
        <time>1970-01-01T01:12:31.000Z</time>
      </trkpt>
      <trkpt lat="42.422879" lon="-8.808575">
        <ele>84.5</ele>
        <time>1970-01-01T01:12:37.000Z</time>
      </trkpt>
      <trkpt lat="42.422937" lon="-8.808806">
        <ele>82.8</ele>
        <time>1970-01-01T01:12:42.000Z</time>
      </trkpt>
      <trkpt lat="42.423004" lon="-8.809036">
        <ele>81.1</ele>
        <time>1970-01-01T01:12:47.000Z</time>
      </trkpt>
      <trkpt lat="42.423075" lon="-8.809261">
        <ele>79.3</ele>
        <time>1970-01-01T01:12:51.000Z</time>
      </trkpt>
      <trkpt lat="42.423138" lon="-8.809435">
        <ele>78</ele>
        <time>1970-01-01T01:12:54.000Z</time>
      </trkpt>
      <trkpt lat="42.423279" lon="-8.809652">
        <ele>76.5</ele>
        <time>1970-01-01T01:12:58.000Z</time>
      </trkpt>
      <trkpt lat="42.423324" lon="-8.809706">
        <ele>75.8</ele>
        <time>1970-01-01T01:12:59.000Z</time>
      </trkpt>
      <trkpt lat="42.423503" lon="-8.809861">
        <ele>73.2</ele>
        <time>1970-01-01T01:13:02.000Z</time>
      </trkpt>
      <trkpt lat="42.423619" lon="-8.809955">
        <ele>71.7</ele>
        <time>1970-01-01T01:13:04.000Z</time>
      </trkpt>
      <trkpt lat="42.423667" lon="-8.810006">
        <ele>70.9</ele>
        <time>1970-01-01T01:13:05.000Z</time>
      </trkpt>
      <trkpt lat="42.42374" lon="-8.810118">
        <ele>69.5</ele>
        <time>1970-01-01T01:13:07.000Z</time>
      </trkpt>
      <trkpt lat="42.423838" lon="-8.810391">
        <ele>65.8</ele>
        <time>1970-01-01T01:13:11.000Z</time>
      </trkpt>
      <trkpt lat="42.423853" lon="-8.810678">
        <ele>63.5</ele>
        <time>1970-01-01T01:13:14.000Z</time>
      </trkpt>
      <trkpt lat="42.423799" lon="-8.810923">
        <ele>62.6</ele>
        <time>1970-01-01T01:13:16.000Z</time>
      </trkpt>
      <trkpt lat="42.423785" lon="-8.811055">
        <ele>62</ele>
        <time>1970-01-01T01:13:17.000Z</time>
      </trkpt>
      <trkpt lat="42.423773" lon="-8.811329">
        <ele>60.6</ele>
        <time>1970-01-01T01:13:19.000Z</time>
      </trkpt>
      <trkpt lat="42.423781" lon="-8.811469">
        <ele>59.8</ele>
        <time>1970-01-01T01:13:20.000Z</time>
      </trkpt>
      <trkpt lat="42.423823" lon="-8.811737">
        <ele>58</ele>
        <time>1970-01-01T01:13:22.000Z</time>
      </trkpt>
      <trkpt lat="42.42386" lon="-8.811997">
        <ele>56.9</ele>
        <time>1970-01-01T01:13:24.000Z</time>
      </trkpt>
      <trkpt lat="42.42388" lon="-8.812246">
        <ele>55.9</ele>
        <time>1970-01-01T01:13:26.000Z</time>
      </trkpt>
      <trkpt lat="42.423907" lon="-8.812592">
        <ele>54.4</ele>
        <time>1970-01-01T01:13:29.000Z</time>
      </trkpt>
      <trkpt lat="42.423922" lon="-8.812898">
        <ele>53.6</ele>
        <time>1970-01-01T01:13:32.000Z</time>
      </trkpt>
      <trkpt lat="42.423934" lon="-8.813195">
        <ele>53.5</ele>
        <time>1970-01-01T01:13:35.000Z</time>
      </trkpt>
      <trkpt lat="42.423953" lon="-8.813491">
        <ele>53.3</ele>
        <time>1970-01-01T01:13:38.000Z</time>
      </trkpt>
      <trkpt lat="42.423956" lon="-8.813679">
        <ele>53.1</ele>
        <time>1970-01-01T01:13:40.000Z</time>
      </trkpt>
      <trkpt lat="42.423957" lon="-8.813932">
        <ele>53</ele>
        <time>1970-01-01T01:13:43.000Z</time>
      </trkpt>
      <trkpt lat="42.42395" lon="-8.814006">
        <ele>53</ele>
        <time>1970-01-01T01:13:44.000Z</time>
      </trkpt>
      <trkpt lat="42.423917" lon="-8.81426">
        <ele>52.8</ele>
        <time>1970-01-01T01:13:48.000Z</time>
      </trkpt>
      <trkpt lat="42.423906" lon="-8.814427">
        <ele>52.6</ele>
        <time>1970-01-01T01:13:51.000Z</time>
      </trkpt>
      <trkpt lat="42.4239" lon="-8.814538">
        <ele>52.4</ele>
        <time>1970-01-01T01:13:53.000Z</time>
      </trkpt>
      <trkpt lat="42.423899" lon="-8.814594">
        <ele>52.3</ele>
        <time>1970-01-01T01:13:54.000Z</time>
      </trkpt>
      <trkpt lat="42.423903" lon="-8.814701">
        <ele>52.2</ele>
        <time>1970-01-01T01:13:56.000Z</time>
      </trkpt>
      <trkpt lat="42.423907" lon="-8.814753">
        <ele>52.1</ele>
        <time>1970-01-01T01:13:57.000Z</time>
      </trkpt>
      <trkpt lat="42.423913" lon="-8.814801">
        <ele>52.1</ele>
        <time>1970-01-01T01:13:58.000Z</time>
      </trkpt>
      <trkpt lat="42.423916" lon="-8.814851">
        <ele>52</ele>
        <time>1970-01-01T01:13:59.000Z</time>
      </trkpt>
      <trkpt lat="42.423921" lon="-8.814966">
        <ele>51.9</ele>
        <time>1970-01-01T01:14:01.000Z</time>
      </trkpt>
      <trkpt lat="42.423951" lon="-8.81519">
        <ele>51.8</ele>
        <time>1970-01-01T01:14:05.000Z</time>
      </trkpt>
      <trkpt lat="42.424002" lon="-8.815426">
        <ele>51.6</ele>
        <time>1970-01-01T01:14:10.000Z</time>
      </trkpt>
      <trkpt lat="42.424036" lon="-8.815622">
        <ele>51.4</ele>
        <time>1970-01-01T01:14:14.000Z</time>
      </trkpt>
      <trkpt lat="42.424043" lon="-8.815667">
        <ele>51.4</ele>
        <time>1970-01-01T01:14:15.000Z</time>
      </trkpt>
      <trkpt lat="42.424065" lon="-8.815857">
        <ele>51.2</ele>
        <time>1970-01-01T01:14:19.000Z</time>
      </trkpt>
      <trkpt lat="42.424083" lon="-8.815989">
        <ele>51.1</ele>
        <time>1970-01-01T01:14:22.000Z</time>
      </trkpt>
      <trkpt lat="42.424078" lon="-8.816152">
        <ele>51</ele>
        <time>1970-01-01T01:14:26.000Z</time>
      </trkpt>
      <trkpt lat="42.424074" lon="-8.816196">
        <ele>50.9</ele>
        <time>1970-01-01T01:14:27.000Z</time>
      </trkpt>
      <trkpt lat="42.424037" lon="-8.816375">
        <ele>50.8</ele>
        <time>1970-01-01T01:14:31.000Z</time>
      </trkpt>
      <trkpt lat="42.424012" lon="-8.816491">
        <ele>50.7</ele>
        <time>1970-01-01T01:14:34.000Z</time>
      </trkpt>
      <trkpt lat="42.423988" lon="-8.816534">
        <ele>50.7</ele>
        <time>1970-01-01T01:14:35.000Z</time>
      </trkpt>
      <trkpt lat="42.423991" lon="-8.81659">
        <ele>50.6</ele>
        <time>1970-01-01T01:14:39.000Z</time>
      </trkpt>
      <trkpt lat="42.424" lon="-8.816637">
        <ele>50.6</ele>
        <time>1970-01-01T01:16:31.000Z</time>
      </trkpt>
      <trkpt lat="42.424008" lon="-8.816685">
        <ele>50.6</ele>
        <time>1970-01-01T01:16:32.000Z</time>
      </trkpt>
      <trkpt lat="42.424017" lon="-8.816732">
        <ele>50.6</ele>
        <time>1970-01-01T01:16:39.000Z</time>
      </trkpt>
      <trkpt lat="42.424026" lon="-8.816779">
        <ele>50.6</ele>
        <time>1970-01-01T01:16:40.000Z</time>
      </trkpt>
      <trkpt lat="42.424049" lon="-8.816891">
        <ele>50.6</ele>
        <time>1970-01-01T01:16:41.000Z</time>
      </trkpt>
      <trkpt lat="42.424058" lon="-8.816934">
        <ele>50.6</ele>
        <time>1970-01-01T01:16:42.000Z</time>
      </trkpt>
      <trkpt lat="42.424097" lon="-8.817104">
        <ele>50.6</ele>
        <time>1970-01-01T01:16:44.000Z</time>
      </trkpt>
      <trkpt lat="42.424117" lon="-8.817194">
        <ele>50.5</ele>
        <time>1970-01-01T01:16:45.000Z</time>
      </trkpt>
      <trkpt lat="42.424145" lon="-8.817331">
        <ele>50.4</ele>
        <time>1970-01-01T01:16:46.000Z</time>
      </trkpt>
      <trkpt lat="42.424152" lon="-8.817378">
        <ele>50.4</ele>
        <time>1970-01-01T01:16:47.000Z</time>
      </trkpt>
      <trkpt lat="42.424172" lon="-8.817518">
        <ele>50.3</ele>
        <time>1970-01-01T01:16:48.000Z</time>
      </trkpt>
      <trkpt lat="42.424178" lon="-8.817565">
        <ele>50.4</ele>
        <time>1970-01-01T01:16:49.000Z</time>
      </trkpt>
      <trkpt lat="42.424224" lon="-8.817942">
        <ele>49.9</ele>
        <time>1970-01-01T01:16:53.000Z</time>
      </trkpt>
      <trkpt lat="42.424246" lon="-8.818221">
        <ele>49.3</ele>
        <time>1970-01-01T01:16:56.000Z</time>
      </trkpt>
      <trkpt lat="42.424261" lon="-8.818391">
        <ele>49.1</ele>
        <time>1970-01-01T01:16:58.000Z</time>
      </trkpt>
      <trkpt lat="42.424279" lon="-8.818621">
        <ele>48.9</ele>
        <time>1970-01-01T01:17:01.000Z</time>
      </trkpt>
      <trkpt lat="42.424282" lon="-8.818762">
        <ele>48.8</ele>
        <time>1970-01-01T01:17:03.000Z</time>
      </trkpt>
      <trkpt lat="42.424289" lon="-8.818892">
        <ele>48.7</ele>
        <time>1970-01-01T01:17:04.000Z</time>
      </trkpt>
      <trkpt lat="42.424295" lon="-8.818952">
        <ele>48.7</ele>
        <time>1970-01-01T01:17:06.000Z</time>
      </trkpt>
      <trkpt lat="42.424307" lon="-8.819063">
        <ele>48.7</ele>
        <time>1970-01-01T01:17:07.000Z</time>
      </trkpt>
      <trkpt lat="42.424307" lon="-8.819063">
        <ele>48.7</ele>
        <time>1970-01-01T01:17:08.000Z</time>
      </trkpt>
      <trkpt lat="42.424318" lon="-8.819219">
        <ele>48.7</ele>
        <time>1970-01-01T01:17:11.000Z</time>
      </trkpt>
      <trkpt lat="42.424322" lon="-8.819268">
        <ele>48.7</ele>
        <time>1970-01-01T01:17:12.000Z</time>
      </trkpt>
      <trkpt lat="42.424335" lon="-8.819365">
        <ele>48.7</ele>
        <time>1970-01-01T01:17:14.000Z</time>
      </trkpt>
      <trkpt lat="42.42434" lon="-8.819414">
        <ele>48.7</ele>
        <time>1970-01-01T01:17:15.000Z</time>
      </trkpt>
      <trkpt lat="42.424359" lon="-8.819503">
        <ele>48.7</ele>
        <time>1970-01-01T01:17:16.000Z</time>
      </trkpt>
      <trkpt lat="42.424368" lon="-8.819545">
        <ele>48.7</ele>
        <time>1970-01-01T01:17:17.000Z</time>
      </trkpt>
      <trkpt lat="42.424377" lon="-8.819588">
        <ele>48.7</ele>
        <time>1970-01-01T01:17:18.000Z</time>
      </trkpt>
      <trkpt lat="42.424417" lon="-8.819732">
        <ele>48.7</ele>
        <time>1970-01-01T01:17:22.000Z</time>
      </trkpt>
      <trkpt lat="42.424452" lon="-8.819888">
        <ele>48.8</ele>
        <time>1970-01-01T01:17:25.000Z</time>
      </trkpt>
      <trkpt lat="42.424475" lon="-8.820036">
        <ele>48.9</ele>
        <time>1970-01-01T01:17:28.000Z</time>
      </trkpt>
      <trkpt lat="42.424504" lon="-8.820237">
        <ele>49.2</ele>
        <time>1970-01-01T01:17:32.000Z</time>
      </trkpt>
      <trkpt lat="42.424542" lon="-8.82048">
        <ele>49.5</ele>
        <time>1970-01-01T01:17:37.000Z</time>
      </trkpt>
      <trkpt lat="42.424552" lon="-8.820576">
        <ele>49.6</ele>
        <time>1970-01-01T01:17:38.000Z</time>
      </trkpt>
      <trkpt lat="42.424552" lon="-8.820576">
        <ele>49.6</ele>
        <time>1970-01-01T01:17:39.000Z</time>
      </trkpt>
      <trkpt lat="42.42456" lon="-8.820668">
        <ele>49.7</ele>
        <time>1970-01-01T01:17:41.000Z</time>
      </trkpt>
      <trkpt lat="42.424678" lon="-8.821728">
        <ele>51.1</ele>
        <time>1970-01-01T00:00:00.000Z</time>
      </trkpt>
      <trkpt lat="42.424679" lon="-8.821726">
        <ele>51.1</ele>
        <time>1970-01-01T00:00:01.000Z</time>
      </trkpt>
      <trkpt lat="42.42469" lon="-8.821741">
        <ele>51.1</ele>
        <time>1970-01-01T00:00:02.000Z</time>
      </trkpt>
      <trkpt lat="42.424771" lon="-8.821814">
        <ele>51.4</ele>
        <time>1970-01-01T00:00:10.000Z</time>
      </trkpt>
      <trkpt lat="42.424835" lon="-8.821883">
        <ele>51.6</ele>
        <time>1970-01-01T00:00:18.000Z</time>
      </trkpt>
      <trkpt lat="42.425003" lon="-8.822043">
        <ele>52.3</ele>
        <time>1970-01-01T00:00:27.000Z</time>
      </trkpt>
      <trkpt lat="42.425183" lon="-8.822171">
        <ele>53</ele>
        <time>1970-01-01T00:00:33.000Z</time>
      </trkpt>
      <trkpt lat="42.425213" lon="-8.822193">
        <ele>53.1</ele>
        <time>1970-01-01T00:00:34.000Z</time>
      </trkpt>
      <trkpt lat="42.425275" lon="-8.822235">
        <ele>53.2</ele>
        <time>1970-01-01T00:00:36.000Z</time>
      </trkpt>
      <trkpt lat="42.425404" lon="-8.82233">
        <ele>53.4</ele>
        <time>1970-01-01T00:00:40.000Z</time>
      </trkpt>
      <trkpt lat="42.425505" lon="-8.822407">
        <ele>53.4</ele>
        <time>1970-01-01T00:00:43.000Z</time>
      </trkpt>
      <trkpt lat="42.425572" lon="-8.822456">
        <ele>53.4</ele>
        <time>1970-01-01T00:00:44.000Z</time>
      </trkpt>
      <trkpt lat="42.425572" lon="-8.822456">
        <ele>53.4</ele>
        <time>1970-01-01T00:00:45.000Z</time>
      </trkpt>
      <trkpt lat="42.425627" lon="-8.822532">
        <ele>53.4</ele>
        <time>1970-01-01T00:00:47.000Z</time>
      </trkpt>
      <trkpt lat="42.425703" lon="-8.822661">
        <ele>53.4</ele>
        <time>1970-01-01T00:00:50.000Z</time>
      </trkpt>
      <trkpt lat="42.425722" lon="-8.822703">
        <ele>53.4</ele>
        <time>1970-01-01T00:00:51.000Z</time>
      </trkpt>
      <trkpt lat="42.425774" lon="-8.82276">
        <ele>53.4</ele>
        <time>1970-01-01T00:00:53.000Z</time>
      </trkpt>
      <trkpt lat="42.425869" lon="-8.823005">
        <ele>54.5</ele>
        <time>1970-01-01T00:01:00.000Z</time>
      </trkpt>
      <trkpt lat="42.42588" lon="-8.823274">
        <ele>55.3</ele>
        <time>1970-01-01T00:01:06.000Z</time>
      </trkpt>
      <trkpt lat="42.425925" lon="-8.823548">
        <ele>55.7</ele>
        <time>1970-01-01T00:01:13.000Z</time>
      </trkpt>
      <trkpt lat="42.426" lon="-8.823799">
        <ele>55.7</ele>
        <time>1970-01-01T00:01:20.000Z</time>
      </trkpt>
      <trkpt lat="42.426078" lon="-8.824057">
        <ele>54.9</ele>
        <time>1970-01-01T00:01:27.000Z</time>
      </trkpt>
      <trkpt lat="42.426143" lon="-8.824307">
        <ele>54.1</ele>
        <time>1970-01-01T00:01:33.000Z</time>
      </trkpt>
      <trkpt lat="42.426177" lon="-8.824572">
        <ele>53.5</ele>
        <time>1970-01-01T00:01:38.000Z</time>
      </trkpt>
      <trkpt lat="42.426175" lon="-8.824878">
        <ele>53.1</ele>
        <time>1970-01-01T00:01:43.000Z</time>
      </trkpt>
      <trkpt lat="42.426238" lon="-8.825034">
        <ele>52.9</ele>
        <time>1970-01-01T00:01:46.000Z</time>
      </trkpt>
      <trkpt lat="42.42634" lon="-8.82513">
        <ele>52.9</ele>
        <time>1970-01-01T00:01:49.000Z</time>
      </trkpt>
      <trkpt lat="42.426517" lon="-8.825214">
        <ele>52.9</ele>
        <time>1970-01-01T00:01:54.000Z</time>
      </trkpt>
      <trkpt lat="42.426721" lon="-8.825259">
        <ele>53</ele>
        <time>1970-01-01T00:02:00.000Z</time>
      </trkpt>
      <trkpt lat="42.426894" lon="-8.825342">
        <ele>53.1</ele>
        <time>1970-01-01T00:02:06.000Z</time>
      </trkpt>
      <trkpt lat="42.427012" lon="-8.825573">
        <ele>53.7</ele>
        <time>1970-01-01T00:02:13.000Z</time>
      </trkpt>
      <trkpt lat="42.427093" lon="-8.825755">
        <ele>54.4</ele>
        <time>1970-01-01T00:02:19.000Z</time>
      </trkpt>
      <trkpt lat="42.427121" lon="-8.825813">
        <ele>54.7</ele>
        <time>1970-01-01T00:02:21.000Z</time>
      </trkpt>
      <trkpt lat="42.42723" lon="-8.826021">
        <ele>56</ele>
        <time>1970-01-01T00:02:28.000Z</time>
      </trkpt>
      <trkpt lat="42.427313" lon="-8.826265">
        <ele>57.5</ele>
        <time>1970-01-01T00:02:35.000Z</time>
      </trkpt>
      <trkpt lat="42.427347" lon="-8.826503">
        <ele>58.4</ele>
        <time>1970-01-01T00:02:42.000Z</time>
      </trkpt>
      <trkpt lat="42.427362" lon="-8.826752">
        <ele>59.4</ele>
        <time>1970-01-01T00:02:48.000Z</time>
      </trkpt>
      <trkpt lat="42.427379" lon="-8.827004">
        <ele>60.2</ele>
        <time>1970-01-01T00:02:54.000Z</time>
      </trkpt>
      <trkpt lat="42.427378" lon="-8.827266">
        <ele>60.9</ele>
        <time>1970-01-01T00:03:00.000Z</time>
      </trkpt>
      <trkpt lat="42.427378" lon="-8.827309">
        <ele>61.1</ele>
        <time>1970-01-01T00:03:01.000Z</time>
      </trkpt>
      <trkpt lat="42.427377" lon="-8.827352">
        <ele>61.2</ele>
        <time>1970-01-01T00:03:02.000Z</time>
      </trkpt>
      <trkpt lat="42.427375" lon="-8.827396">
        <ele>61.3</ele>
        <time>1970-01-01T00:03:03.000Z</time>
      </trkpt>
      <trkpt lat="42.427377" lon="-8.827644">
        <ele>62</ele>
        <time>1970-01-01T00:03:09.000Z</time>
      </trkpt>
      <trkpt lat="42.427392" lon="-8.82789">
        <ele>62.9</ele>
        <time>1970-01-01T00:03:15.000Z</time>
      </trkpt>
      <trkpt lat="42.427382" lon="-8.828094">
        <ele>63.5</ele>
        <time>1970-01-01T00:03:20.000Z</time>
      </trkpt>
      <trkpt lat="42.427359" lon="-8.828306">
        <ele>64</ele>
        <time>1970-01-01T00:03:25.000Z</time>
      </trkpt>
      <trkpt lat="42.42731" lon="-8.828561">
        <ele>64.7</ele>
        <time>1970-01-01T00:03:31.000Z</time>
      </trkpt>
      <trkpt lat="42.42729" lon="-8.828828">
        <ele>65.4</ele>
        <time>1970-01-01T00:03:37.000Z</time>
      </trkpt>
      <trkpt lat="42.427302" lon="-8.829097">
        <ele>66.5</ele>
        <time>1970-01-01T00:03:43.000Z</time>
      </trkpt>
      <trkpt lat="42.427326" lon="-8.82936">
        <ele>67.5</ele>
        <time>1970-01-01T00:03:49.000Z</time>
      </trkpt>
      <trkpt lat="42.427341" lon="-8.829616">
        <ele>68.9</ele>
        <time>1970-01-01T00:03:55.000Z</time>
      </trkpt>
      <trkpt lat="42.427355" lon="-8.82987">
        <ele>70</ele>
        <time>1970-01-01T00:04:01.000Z</time>
      </trkpt>
      <trkpt lat="42.427413" lon="-8.830112">
        <ele>71</ele>
        <time>1970-01-01T00:04:07.000Z</time>
      </trkpt>
      <trkpt lat="42.427475" lon="-8.830313">
        <ele>71.6</ele>
        <time>1970-01-01T00:04:12.000Z</time>
      </trkpt>
      <trkpt lat="42.427488" lon="-8.830351">
        <ele>71.7</ele>
        <time>1970-01-01T00:04:13.000Z</time>
      </trkpt>
      <trkpt lat="42.427589" lon="-8.830564">
        <ele>72.8</ele>
        <time>1970-01-01T00:04:19.000Z</time>
      </trkpt>
      <trkpt lat="42.427664" lon="-8.830755">
        <ele>73.3</ele>
        <time>1970-01-01T00:04:25.000Z</time>
      </trkpt>
      <trkpt lat="42.427681" lon="-8.830825">
        <ele>73.5</ele>
        <time>1970-01-01T00:04:31.000Z</time>
      </trkpt>
      <trkpt lat="42.427659" lon="-8.830836">
        <ele>73.5</ele>
        <time>1970-01-01T00:04:33.000Z</time>
      </trkpt>
      <trkpt lat="42.427655" lon="-8.830824">
        <ele>73.6</ele>
        <time>1970-01-01T00:04:35.000Z</time>
      </trkpt>
      <trkpt lat="42.427656" lon="-8.830824">
        <ele>73.6</ele>
        <time>1970-01-01T00:04:36.000Z</time>
      </trkpt>
      <trkpt lat="42.427701" lon="-8.830759">
        <ele>73.8</ele>
        <time>1970-01-01T00:10:29.000Z</time>
      </trkpt>
      <trkpt lat="42.427722" lon="-8.830771">
        <ele>73.9</ele>
        <time>1970-01-01T00:10:30.000Z</time>
      </trkpt>
      <trkpt lat="42.427763" lon="-8.8308">
        <ele>74</ele>
        <time>1970-01-01T00:10:32.000Z</time>
      </trkpt>
      <trkpt lat="42.427809" lon="-8.830827">
        <ele>73.8</ele>
        <time>1970-01-01T00:10:34.000Z</time>
      </trkpt>
      <trkpt lat="42.427834" lon="-8.830838">
        <ele>73.6</ele>
        <time>1970-01-01T00:10:35.000Z</time>
      </trkpt>
      <trkpt lat="42.427879" lon="-8.830863">
        <ele>73.3</ele>
        <time>1970-01-01T00:10:37.000Z</time>
      </trkpt>
      <trkpt lat="42.428071" lon="-8.830904">
        <ele>72.5</ele>
        <time>1970-01-01T00:10:45.000Z</time>
      </trkpt>
      <trkpt lat="42.428175" lon="-8.83084">
        <ele>72.2</ele>
        <time>1970-01-01T00:10:50.000Z</time>
      </trkpt>
      <trkpt lat="42.428305" lon="-8.830671">
        <ele>72.1</ele>
        <time>1970-01-01T00:10:58.000Z</time>
      </trkpt>
      <trkpt lat="42.428427" lon="-8.83069">
        <ele>72.5</ele>
        <time>1970-01-01T00:11:04.000Z</time>
      </trkpt>
      <trkpt lat="42.428501" lon="-8.83074">
        <ele>73</ele>
        <time>1970-01-01T00:11:09.000Z</time>
      </trkpt>
      <trkpt lat="42.428602" lon="-8.830803">
        <ele>73.8</ele>
        <time>1970-01-01T00:11:15.000Z</time>
      </trkpt>
      <trkpt lat="42.42862" lon="-8.83081">
        <ele>74</ele>
        <time>1970-01-01T00:11:16.000Z</time>
      </trkpt>
      <trkpt lat="42.428678" lon="-8.83083">
        <ele>74.5</ele>
        <time>1970-01-01T00:11:19.000Z</time>
      </trkpt>
      <trkpt lat="42.428697" lon="-8.830834">
        <ele>74.7</ele>
        <time>1970-01-01T00:11:20.000Z</time>
      </trkpt>
      <trkpt lat="42.428888" lon="-8.830823">
        <ele>76.4</ele>
        <time>1970-01-01T00:11:31.000Z</time>
      </trkpt>
      <trkpt lat="42.428983" lon="-8.830811">
        <ele>77.2</ele>
        <time>1970-01-01T00:11:36.000Z</time>
      </trkpt>
      <trkpt lat="42.429114" lon="-8.830836">
        <ele>78</ele>
        <time>1970-01-01T00:11:42.000Z</time>
      </trkpt>
      <trkpt lat="42.429216" lon="-8.830902">
        <ele>78.6</ele>
        <time>1970-01-01T00:11:47.000Z</time>
      </trkpt>
      <trkpt lat="42.429254" lon="-8.830941">
        <ele>78.7</ele>
        <time>1970-01-01T00:11:48.000Z</time>
      </trkpt>
      <trkpt lat="42.429254" lon="-8.830941">
        <ele>78.7</ele>
        <time>1970-01-01T00:11:49.000Z</time>
      </trkpt>
      <trkpt lat="42.429269" lon="-8.830962">
        <ele>78.8</ele>
        <time>1970-01-01T00:11:50.000Z</time>
      </trkpt>
      <trkpt lat="42.429285" lon="-8.830983">
        <ele>78.8</ele>
        <time>1970-01-01T00:11:51.000Z</time>
      </trkpt>
      <trkpt lat="42.429299" lon="-8.831003">
        <ele>78.9</ele>
        <time>1970-01-01T00:11:52.000Z</time>
      </trkpt>
      <trkpt lat="42.429329" lon="-8.83105">
        <ele>79</ele>
        <time>1970-01-01T00:11:54.000Z</time>
      </trkpt>
      <trkpt lat="42.4294" lon="-8.831156">
        <ele>79.3</ele>
        <time>1970-01-01T00:11:58.000Z</time>
      </trkpt>
      <trkpt lat="42.429438" lon="-8.831211">
        <ele>79.5</ele>
        <time>1970-01-01T00:11:59.000Z</time>
      </trkpt>
      <trkpt lat="42.429438" lon="-8.831211">
        <ele>79.5</ele>
        <time>1970-01-01T00:12:00.000Z</time>
      </trkpt>
      <trkpt lat="42.429459" lon="-8.831238">
        <ele>79.6</ele>
        <time>1970-01-01T00:12:01.000Z</time>
      </trkpt>
      <trkpt lat="42.429522" lon="-8.831316">
        <ele>79.9</ele>
        <time>1970-01-01T00:12:04.000Z</time>
      </trkpt>
      <trkpt lat="42.429685" lon="-8.831455">
        <ele>81</ele>
        <time>1970-01-01T00:12:11.000Z</time>
      </trkpt>
      <trkpt lat="42.429787" lon="-8.831523">
        <ele>81.8</ele>
        <time>1970-01-01T00:12:15.000Z</time>
      </trkpt>
      <trkpt lat="42.429865" lon="-8.831566">
        <ele>82.5</ele>
        <time>1970-01-01T00:12:18.000Z</time>
      </trkpt>
      <trkpt lat="42.43005" lon="-8.831645">
        <ele>84.3</ele>
        <time>1970-01-01T00:12:25.000Z</time>
      </trkpt>
      <trkpt lat="42.430219" lon="-8.831753">
        <ele>85.2</ele>
        <time>1970-01-01T00:12:32.000Z</time>
      </trkpt>
      <trkpt lat="42.430338" lon="-8.831966">
        <ele>85.9</ele>
        <time>1970-01-01T00:12:40.000Z</time>
      </trkpt>
      <trkpt lat="42.430442" lon="-8.832147">
        <ele>86.8</ele>
        <time>1970-01-01T00:12:47.000Z</time>
      </trkpt>
      <trkpt lat="42.430537" lon="-8.832194">
        <ele>87.6</ele>
        <time>1970-01-01T00:12:51.000Z</time>
      </trkpt>
      <trkpt lat="42.430738" lon="-8.832211">
        <ele>90.1</ele>
        <time>1970-01-01T00:12:59.000Z</time>
      </trkpt>
      <trkpt lat="42.430776" lon="-8.832234">
        <ele>90.7</ele>
        <time>1970-01-01T00:13:01.000Z</time>
      </trkpt>
      <trkpt lat="42.430791" lon="-8.83225">
        <ele>90.9</ele>
        <time>1970-01-01T00:13:02.000Z</time>
      </trkpt>
      <trkpt lat="42.430802" lon="-8.83227">
        <ele>91.2</ele>
        <time>1970-01-01T00:13:03.000Z</time>
      </trkpt>
      <trkpt lat="42.430809" lon="-8.832292">
        <ele>91.4</ele>
        <time>1970-01-01T00:13:04.000Z</time>
      </trkpt>
      <trkpt lat="42.430814" lon="-8.832315">
        <ele>91.7</ele>
        <time>1970-01-01T00:13:05.000Z</time>
      </trkpt>
      <trkpt lat="42.430835" lon="-8.832482">
        <ele>95.1</ele>
        <time>1970-01-01T00:13:11.000Z</time>
      </trkpt>
      <trkpt lat="42.430848" lon="-8.832685">
        <ele>97.4</ele>
        <time>1970-01-01T00:13:18.000Z</time>
      </trkpt>
      <trkpt lat="42.430865" lon="-8.832788">
        <ele>98.5</ele>
        <time>1970-01-01T00:13:22.000Z</time>
      </trkpt>
      <trkpt lat="42.430913" lon="-8.832941">
        <ele>100.3</ele>
        <time>1970-01-01T00:13:28.000Z</time>
      </trkpt>
      <trkpt lat="42.43092" lon="-8.832969">
        <ele>100.6</ele>
        <time>1970-01-01T00:13:29.000Z</time>
      </trkpt>
      <trkpt lat="42.430943" lon="-8.833052">
        <ele>101.5</ele>
        <time>1970-01-01T00:13:32.000Z</time>
      </trkpt>
      <trkpt lat="42.430969" lon="-8.833159">
        <ele>102.5</ele>
        <time>1970-01-01T00:13:36.000Z</time>
      </trkpt>
      <trkpt lat="42.430974" lon="-8.833184">
        <ele>102.7</ele>
        <time>1970-01-01T00:13:37.000Z</time>
      </trkpt>
      <trkpt lat="42.430987" lon="-8.833259">
        <ele>103.2</ele>
        <time>1970-01-01T00:13:40.000Z</time>
      </trkpt>
      <trkpt lat="42.431019" lon="-8.833509">
        <ele>105.1</ele>
        <time>1970-01-01T00:13:50.000Z</time>
      </trkpt>
      <trkpt lat="42.43107" lon="-8.833655">
        <ele>106.4</ele>
        <time>1970-01-01T00:13:56.000Z</time>
      </trkpt>
      <trkpt lat="42.431151" lon="-8.833861">
        <ele>108.2</ele>
        <time>1970-01-01T00:14:04.000Z</time>
      </trkpt>
      <trkpt lat="42.431163" lon="-8.833887">
        <ele>108.4</ele>
        <time>1970-01-01T00:14:05.000Z</time>
      </trkpt>
      <trkpt lat="42.431172" lon="-8.833912">
        <ele>108.6</ele>
        <time>1970-01-01T00:14:06.000Z</time>
      </trkpt>
      <trkpt lat="42.431182" lon="-8.833938">
        <ele>108.8</ele>
        <time>1970-01-01T00:14:07.000Z</time>
      </trkpt>
      <trkpt lat="42.431213" lon="-8.834006">
        <ele>109.3</ele>
        <time>1970-01-01T00:14:10.000Z</time>
      </trkpt>
      <trkpt lat="42.431274" lon="-8.834136">
        <ele>110.2</ele>
        <time>1970-01-01T00:14:16.000Z</time>
      </trkpt>
      <trkpt lat="42.431285" lon="-8.834188">
        <ele>110.5</ele>
        <time>1970-01-01T00:14:17.000Z</time>
      </trkpt>
      <trkpt lat="42.431285" lon="-8.834188">
        <ele>110.5</ele>
        <time>1970-01-01T00:14:18.000Z</time>
      </trkpt>
      <trkpt lat="42.431297" lon="-8.834241">
        <ele>110.8</ele>
        <time>1970-01-01T00:14:20.000Z</time>
      </trkpt>
      <trkpt lat="42.431316" lon="-8.834319">
        <ele>111.3</ele>
        <time>1970-01-01T00:14:23.000Z</time>
      </trkpt>
      <trkpt lat="42.431331" lon="-8.834425">
        <ele>112.3</ele>
        <time>1970-01-01T00:14:27.000Z</time>
      </trkpt>
      <trkpt lat="42.431327" lon="-8.834497">
        <ele>113</ele>
        <time>1970-01-01T00:14:30.000Z</time>
      </trkpt>
      <trkpt lat="42.4313" lon="-8.834625">
        <ele>114.5</ele>
        <time>1970-01-01T00:14:36.000Z</time>
      </trkpt>
      <trkpt lat="42.43129" lon="-8.83466">
        <ele>114.9</ele>
        <time>1970-01-01T00:14:41.000Z</time>
      </trkpt>
      <trkpt lat="42.431173" lon="-8.834812">
        <ele>117.6</ele>
        <time>1970-01-01T00:15:56.000Z</time>
      </trkpt>
      <trkpt lat="42.431155" lon="-8.834825">
        <ele>117.9</ele>
        <time>1970-01-01T00:15:57.000Z</time>
      </trkpt>
      <trkpt lat="42.430997" lon="-8.834959">
        <ele>119.9</ele>
        <time>1970-01-01T00:16:07.000Z</time>
      </trkpt>
      <trkpt lat="42.430842" lon="-8.835099">
        <ele>121</ele>
        <time>1970-01-01T00:16:16.000Z</time>
      </trkpt>
      <trkpt lat="42.43072" lon="-8.835181">
        <ele>121.7</ele>
        <time>1970-01-01T00:16:27.000Z</time>
      </trkpt>
      <trkpt lat="42.430689" lon="-8.835669">
        <ele>125.3</ele>
        <time>1970-01-01T00:20:27.000Z</time>
      </trkpt>
      <trkpt lat="42.430653" lon="-8.835834">
        <ele>126.8</ele>
        <time>1970-01-01T00:20:36.000Z</time>
      </trkpt>
      <trkpt lat="42.430644" lon="-8.835892">
        <ele>127.2</ele>
        <time>1970-01-01T00:20:39.000Z</time>
      </trkpt>
      <trkpt lat="42.430636" lon="-8.835935">
        <ele>127.6</ele>
        <time>1970-01-01T00:20:41.000Z</time>
      </trkpt>
      <trkpt lat="42.430634" lon="-8.835977">
        <ele>127.9</ele>
        <time>1970-01-01T00:20:43.000Z</time>
      </trkpt>
      <trkpt lat="42.430599" lon="-8.836229">
        <ele>130</ele>
        <time>1970-01-01T00:20:55.000Z</time>
      </trkpt>
      <trkpt lat="42.430558" lon="-8.836458">
        <ele>131.9</ele>
        <time>1970-01-01T00:21:06.000Z</time>
      </trkpt>
      <trkpt lat="42.43055" lon="-8.836521">
        <ele>132.5</ele>
        <time>1970-01-01T00:21:09.000Z</time>
      </trkpt>
      <trkpt lat="42.430545" lon="-8.83656">
        <ele>132.8</ele>
        <time>1970-01-01T00:21:10.000Z</time>
      </trkpt>
      <trkpt lat="42.430541" lon="-8.836602">
        <ele>133.1</ele>
        <time>1970-01-01T00:21:13.000Z</time>
      </trkpt>
      <trkpt lat="42.430532" lon="-8.836647">
        <ele>133.4</ele>
        <time>1970-01-01T00:21:15.000Z</time>
      </trkpt>
      <trkpt lat="42.430506" lon="-8.836901">
        <ele>135.3</ele>
        <time>1970-01-01T00:21:28.000Z</time>
      </trkpt>
      <trkpt lat="42.430493" lon="-8.837102">
        <ele>136.8</ele>
        <time>1970-01-01T00:21:39.000Z</time>
      </trkpt>
      <trkpt lat="42.430475" lon="-8.837357">
        <ele>138.8</ele>
        <time>1970-01-01T00:21:50.000Z</time>
      </trkpt>
      <trkpt lat="42.430477" lon="-8.837383">
        <ele>139</ele>
        <time>1970-01-01T00:21:51.000Z</time>
      </trkpt>
      <trkpt lat="42.430491" lon="-8.837431">
        <ele>139.3</ele>
        <time>1970-01-01T00:21:52.000Z</time>
      </trkpt>
      <trkpt lat="42.430491" lon="-8.837431">
        <ele>139.3</ele>
        <time>1970-01-01T00:21:53.000Z</time>
      </trkpt>
      <trkpt lat="42.430619" lon="-8.837602">
        <ele>140.2</ele>
        <time>1970-01-01T00:22:03.000Z</time>
      </trkpt>
      <trkpt lat="42.430662" lon="-8.837647">
        <ele>140.4</ele>
        <time>1970-01-01T00:22:07.000Z</time>
      </trkpt>
      <trkpt lat="42.430676" lon="-8.837685">
        <ele>140.7</ele>
        <time>1970-01-01T00:22:08.000Z</time>
      </trkpt>
      <trkpt lat="42.430717" lon="-8.837776">
        <ele>142</ele>
        <time>1970-01-01T00:22:13.000Z</time>
      </trkpt>
      <trkpt lat="42.430827" lon="-8.837912">
        <ele>144.1</ele>
        <time>1970-01-01T00:22:22.000Z</time>
      </trkpt>
      <trkpt lat="42.430918" lon="-8.8381">
        <ele>145.7</ele>
        <time>1970-01-01T00:22:33.000Z</time>
      </trkpt>
      <trkpt lat="42.430951" lon="-8.838229">
        <ele>146.6</ele>
        <time>1970-01-01T00:22:40.000Z</time>
      </trkpt>
      <trkpt lat="42.431023" lon="-8.838459">
        <ele>148.1</ele>
        <time>1970-01-01T00:22:51.000Z</time>
      </trkpt>
      <trkpt lat="42.431098" lon="-8.838684">
        <ele>149.4</ele>
        <time>1970-01-01T00:23:02.000Z</time>
      </trkpt>
      <trkpt lat="42.431135" lon="-8.83894">
        <ele>150.4</ele>
        <time>1970-01-01T00:23:13.000Z</time>
      </trkpt>
      <trkpt lat="42.431143" lon="-8.839022">
        <ele>150.7</ele>
        <time>1970-01-01T00:23:17.000Z</time>
      </trkpt>
      <trkpt lat="42.431148" lon="-8.839066">
        <ele>150.8</ele>
        <time>1970-01-01T00:23:18.000Z</time>
      </trkpt>
      <trkpt lat="42.431188" lon="-8.839262">
        <ele>151.3</ele>
        <time>1970-01-01T00:23:29.000Z</time>
      </trkpt>
      <trkpt lat="42.431237" lon="-8.83951">
        <ele>151.7</ele>
        <time>1970-01-01T00:23:40.000Z</time>
      </trkpt>
      <trkpt lat="42.431286" lon="-8.839745">
        <ele>151.8</ele>
        <time>1970-01-01T00:23:51.000Z</time>
      </trkpt>
      <trkpt lat="42.431346" lon="-8.839975">
        <ele>151.9</ele>
        <time>1970-01-01T00:24:03.000Z</time>
      </trkpt>
      <trkpt lat="42.431356" lon="-8.84002">
        <ele>151.9</ele>
        <time>1970-01-01T00:24:04.000Z</time>
      </trkpt>
      <trkpt lat="42.431384" lon="-8.840236">
        <ele>151.9</ele>
        <time>1970-01-01T00:24:14.000Z</time>
      </trkpt>
      <trkpt lat="42.43138" lon="-8.840327">
        <ele>151.9</ele>
        <time>1970-01-01T00:24:18.000Z</time>
      </trkpt>
      <trkpt lat="42.431375" lon="-8.840356">
        <ele>152</ele>
        <time>1970-01-01T00:24:19.000Z</time>
      </trkpt>
      <trkpt lat="42.431361" lon="-8.84041">
        <ele>152</ele>
        <time>1970-01-01T00:24:21.000Z</time>
      </trkpt>
      <trkpt lat="42.431279" lon="-8.840631">
        <ele>152.1</ele>
        <time>1970-01-01T00:24:30.000Z</time>
      </trkpt>
      <trkpt lat="42.431249" lon="-8.840694">
        <ele>152.2</ele>
        <time>1970-01-01T00:24:31.000Z</time>
      </trkpt>
      <trkpt lat="42.431219" lon="-8.840755">
        <ele>152.3</ele>
        <time>1970-01-01T00:24:34.000Z</time>
      </trkpt>
      <trkpt lat="42.431194" lon="-8.840808">
        <ele>152.5</ele>
        <time>1970-01-01T00:24:36.000Z</time>
      </trkpt>
      <trkpt lat="42.431119" lon="-8.841023">
        <ele>153.3</ele>
        <time>1970-01-01T00:24:48.000Z</time>
      </trkpt>
      <trkpt lat="42.431118" lon="-8.841016">
        <ele>153.3</ele>
        <time>1970-01-01T00:24:51.000Z</time>
      </trkpt>
      <trkpt lat="42.431108" lon="-8.84113">
        <ele>153.7</ele>
        <time>1970-01-01T00:25:42.000Z</time>
      </trkpt>
      <trkpt lat="42.431109" lon="-8.84116">
        <ele>153.7</ele>
        <time>1970-01-01T00:25:43.000Z</time>
      </trkpt>
      <trkpt lat="42.431104" lon="-8.841265">
        <ele>153.9</ele>
        <time>1970-01-01T00:25:46.000Z</time>
      </trkpt>
      <trkpt lat="42.431064" lon="-8.84135">
        <ele>154</ele>
        <time>1970-01-01T00:25:49.000Z</time>
      </trkpt>
      <trkpt lat="42.431021" lon="-8.841401">
        <ele>154.1</ele>
        <time>1970-01-01T00:25:52.000Z</time>
      </trkpt>
      <trkpt lat="42.43095" lon="-8.841473">
        <ele>154.2</ele>
        <time>1970-01-01T00:25:58.000Z</time>
      </trkpt>
      <trkpt lat="42.430923" lon="-8.841596">
        <ele>154.5</ele>
        <time>1970-01-01T00:26:04.000Z</time>
      </trkpt>
      <trkpt lat="42.430934" lon="-8.841651">
        <ele>154.7</ele>
        <time>1970-01-01T00:26:06.000Z</time>
      </trkpt>
      <trkpt lat="42.430952" lon="-8.841707">
        <ele>155</ele>
        <time>1970-01-01T00:26:08.000Z</time>
      </trkpt>
      <trkpt lat="42.430989" lon="-8.841834">
        <ele>155.7</ele>
        <time>1970-01-01T00:26:12.000Z</time>
      </trkpt>
      <trkpt lat="42.430968" lon="-8.841948">
        <ele>156.3</ele>
        <time>1970-01-01T00:26:16.000Z</time>
      </trkpt>
      <trkpt lat="42.431042" lon="-8.842188">
        <ele>158.3</ele>
        <time>1970-01-01T00:26:27.000Z</time>
      </trkpt>
      <trkpt lat="42.431104" lon="-8.842421">
        <ele>159.9</ele>
        <time>1970-01-01T00:26:36.000Z</time>
      </trkpt>
      <trkpt lat="42.431122" lon="-8.842608">
        <ele>161</ele>
        <time>1970-01-01T00:26:43.000Z</time>
      </trkpt>
      <trkpt lat="42.431103" lon="-8.842742">
        <ele>161.6</ele>
        <time>1970-01-01T00:26:48.000Z</time>
      </trkpt>
      <trkpt lat="42.430997" lon="-8.842956">
        <ele>162.2</ele>
        <time>1970-01-01T00:26:58.000Z</time>
      </trkpt>
      <trkpt lat="42.430974" lon="-8.843022">
        <ele>162.3</ele>
        <time>1970-01-01T00:27:01.000Z</time>
      </trkpt>
      <trkpt lat="42.430953" lon="-8.843094">
        <ele>162.3</ele>
        <time>1970-01-01T00:27:04.000Z</time>
      </trkpt>
      <trkpt lat="42.430947" lon="-8.843118">
        <ele>162.4</ele>
        <time>1970-01-01T00:27:05.000Z</time>
      </trkpt>
      <trkpt lat="42.430941" lon="-8.843141">
        <ele>162.4</ele>
        <time>1970-01-01T00:27:06.000Z</time>
      </trkpt>
      <trkpt lat="42.430935" lon="-8.843165">
        <ele>162.4</ele>
        <time>1970-01-01T00:27:07.000Z</time>
      </trkpt>
      <trkpt lat="42.430923" lon="-8.843213">
        <ele>162.4</ele>
        <time>1970-01-01T00:27:08.000Z</time>
      </trkpt>
      <trkpt lat="42.430902" lon="-8.843262">
        <ele>162.4</ele>
        <time>1970-01-01T00:27:11.000Z</time>
      </trkpt>
      <trkpt lat="42.430875" lon="-8.843305">
        <ele>162.4</ele>
        <time>1970-01-01T00:27:13.000Z</time>
      </trkpt>
      <trkpt lat="42.430863" lon="-8.843325">
        <ele>162.4</ele>
        <time>1970-01-01T00:27:14.000Z</time>
      </trkpt>
      <trkpt lat="42.430839" lon="-8.843356">
        <ele>162.4</ele>
        <time>1970-01-01T00:27:16.000Z</time>
      </trkpt>
      <trkpt lat="42.430826" lon="-8.84337">
        <ele>162.4</ele>
        <time>1970-01-01T00:27:17.000Z</time>
      </trkpt>
      <trkpt lat="42.430794" lon="-8.843399">
        <ele>162.4</ele>
        <time>1970-01-01T00:27:19.000Z</time>
      </trkpt>
      <trkpt lat="42.430752" lon="-8.843445">
        <ele>162.4</ele>
        <time>1970-01-01T00:27:22.000Z</time>
      </trkpt>
      <trkpt lat="42.430711" lon="-8.84361">
        <ele>162.4</ele>
        <time>1970-01-01T00:27:29.000Z</time>
      </trkpt>
      <trkpt lat="42.430712" lon="-8.843633">
        <ele>162.3</ele>
        <time>1970-01-01T00:27:30.000Z</time>
      </trkpt>
      <trkpt lat="42.430713" lon="-8.843654">
        <ele>162.3</ele>
        <time>1970-01-01T00:27:31.000Z</time>
      </trkpt>
      <trkpt lat="42.430706" lon="-8.843913">
        <ele>161.3</ele>
        <time>1970-01-01T00:27:41.000Z</time>
      </trkpt>
      <trkpt lat="42.430724" lon="-8.844189">
        <ele>159.8</ele>
        <time>1970-01-01T00:27:48.000Z</time>
      </trkpt>
      <trkpt lat="42.430741" lon="-8.844487">
        <ele>158</ele>
        <time>1970-01-01T00:27:53.000Z</time>
      </trkpt>
      <trkpt lat="42.430834" lon="-8.844766">
        <ele>156.5</ele>
        <time>1970-01-01T00:27:57.000Z</time>
      </trkpt>
      <trkpt lat="42.430881" lon="-8.845067">
        <ele>155</ele>
        <time>1970-01-01T00:28:01.000Z</time>
      </trkpt>
      <trkpt lat="42.430916" lon="-8.845364">
        <ele>153.9</ele>
        <time>1970-01-01T00:28:05.000Z</time>
      </trkpt>
      <trkpt lat="42.430952" lon="-8.845638">
        <ele>153.1</ele>
        <time>1970-01-01T00:28:09.000Z</time>
      </trkpt>
      <trkpt lat="42.431052" lon="-8.84587">
        <ele>152.5</ele>
        <time>1970-01-01T00:28:14.000Z</time>
      </trkpt>
      <trkpt lat="42.431123" lon="-8.846026">
        <ele>152.4</ele>
        <time>1970-01-01T00:28:22.000Z</time>
      </trkpt>
      <trkpt lat="42.431198" lon="-8.846109">
        <ele>152.6</ele>
        <time>1970-01-01T00:28:39.000Z</time>
      </trkpt>
      <trkpt lat="42.431348" lon="-8.846248">
        <ele>153.4</ele>
        <time>1970-01-01T00:28:46.000Z</time>
      </trkpt>
      <trkpt lat="42.431405" lon="-8.846313">
        <ele>154.1</ele>
        <time>1970-01-01T00:28:49.000Z</time>
      </trkpt>
      <trkpt lat="42.431457" lon="-8.846371">
        <ele>154.9</ele>
        <time>1970-01-01T00:28:52.000Z</time>
      </trkpt>
      <trkpt lat="42.431489" lon="-8.846447">
        <ele>155.7</ele>
        <time>1970-01-01T00:28:55.000Z</time>
      </trkpt>
      <trkpt lat="42.431492" lon="-8.846475">
        <ele>155.9</ele>
        <time>1970-01-01T00:28:56.000Z</time>
      </trkpt>
      <trkpt lat="42.431496" lon="-8.8465">
        <ele>156.1</ele>
        <time>1970-01-01T00:28:57.000Z</time>
      </trkpt>
      <trkpt lat="42.431507" lon="-8.846571">
        <ele>156.6</ele>
        <time>1970-01-01T00:29:00.000Z</time>
      </trkpt>
      <trkpt lat="42.431518" lon="-8.846638">
        <ele>157.1</ele>
        <time>1970-01-01T00:29:03.000Z</time>
      </trkpt>
      <trkpt lat="42.431521" lon="-8.846658">
        <ele>157.2</ele>
        <time>1970-01-01T00:29:04.000Z</time>
      </trkpt>
      <trkpt lat="42.431523" lon="-8.846679">
        <ele>157.4</ele>
        <time>1970-01-01T00:29:05.000Z</time>
      </trkpt>
      <trkpt lat="42.431525" lon="-8.846699">
        <ele>157.5</ele>
        <time>1970-01-01T00:29:06.000Z</time>
      </trkpt>
      <trkpt lat="42.431526" lon="-8.846712">
        <ele>157.6</ele>
        <time>1970-01-01T00:29:07.000Z</time>
      </trkpt>
      <trkpt lat="42.431525" lon="-8.846719">
        <ele>157.7</ele>
        <time>1970-01-01T00:29:08.000Z</time>
      </trkpt>
      <trkpt lat="42.431525" lon="-8.846719">
        <ele>157.7</ele>
        <time>1970-01-01T00:29:09.000Z</time>
      </trkpt>
      <trkpt lat="42.431524" lon="-8.846719">
        <ele>157.7</ele>
        <time>1970-01-01T00:29:10.000Z</time>
      </trkpt>
      <trkpt lat="42.431525" lon="-8.846719">
        <ele>157.7</ele>
        <time>1970-01-01T00:29:11.000Z</time>
      </trkpt>
      <trkpt lat="42.431455" lon="-8.846833">
        <ele>158.8</ele>
        <time>1970-01-01T00:30:41.000Z</time>
      </trkpt>
      <trkpt lat="42.431437" lon="-8.846845">
        <ele>159</ele>
        <time>1970-01-01T00:30:42.000Z</time>
      </trkpt>
      <trkpt lat="42.431258" lon="-8.84694">
        <ele>159.3</ele>
        <time>1970-01-01T00:30:48.000Z</time>
      </trkpt>
      <trkpt lat="42.431079" lon="-8.847058">
        <ele>159.7</ele>
        <time>1970-01-01T00:30:53.000Z</time>
      </trkpt>
      <trkpt lat="42.430974" lon="-8.847214">
        <ele>159.8</ele>
        <time>1970-01-01T00:30:57.000Z</time>
      </trkpt>
      <trkpt lat="42.43095" lon="-8.847256">
        <ele>159.7</ele>
        <time>1970-01-01T00:30:58.000Z</time>
      </trkpt>
      <trkpt lat="42.430908" lon="-8.847341">
        <ele>159.6</ele>
        <time>1970-01-01T00:30:59.000Z</time>
      </trkpt>
      <trkpt lat="42.430806" lon="-8.847547">
        <ele>159.2</ele>
        <time>1970-01-01T00:31:05.000Z</time>
      </trkpt>
      <trkpt lat="42.430677" lon="-8.847715">
        <ele>157.4</ele>
        <time>1970-01-01T00:31:11.000Z</time>
      </trkpt>
      <trkpt lat="42.43051" lon="-8.847851">
        <ele>155.3</ele>
        <time>1970-01-01T00:31:16.000Z</time>
      </trkpt>
      <trkpt lat="42.430308" lon="-8.848027">
        <ele>152.2</ele>
        <time>1970-01-01T00:31:20.000Z</time>
      </trkpt>
      <trkpt lat="42.430179" lon="-8.848265">
        <ele>148.5</ele>
        <time>1970-01-01T00:31:23.000Z</time>
      </trkpt>
      <trkpt lat="42.43009" lon="-8.84851">
        <ele>145</ele>
        <time>1970-01-01T00:31:26.000Z</time>
      </trkpt>
      <trkpt lat="42.429988" lon="-8.848756">
        <ele>141.4</ele>
        <time>1970-01-01T00:31:29.000Z</time>
      </trkpt>
      <trkpt lat="42.429952" lon="-8.848833">
        <ele>140.3</ele>
        <time>1970-01-01T00:31:30.000Z</time>
      </trkpt>
      <trkpt lat="42.42982" lon="-8.849042">
        <ele>136.9</ele>
        <time>1970-01-01T00:31:33.000Z</time>
      </trkpt>
      <trkpt lat="42.429638" lon="-8.849237">
        <ele>133.1</ele>
        <time>1970-01-01T00:31:36.000Z</time>
      </trkpt>
      <trkpt lat="42.429445" lon="-8.84946">
        <ele>128.8</ele>
        <time>1970-01-01T00:31:39.000Z</time>
      </trkpt>
      <trkpt lat="42.429331" lon="-8.849631">
        <ele>126.3</ele>
        <time>1970-01-01T00:31:41.000Z</time>
      </trkpt>
      <trkpt lat="42.429284" lon="-8.849715">
        <ele>125.3</ele>
        <time>1970-01-01T00:31:42.000Z</time>
      </trkpt>
      <trkpt lat="42.429242" lon="-8.849798">
        <ele>124.4</ele>
        <time>1970-01-01T00:31:43.000Z</time>
      </trkpt>
      <trkpt lat="42.429203" lon="-8.849875">
        <ele>123.5</ele>
        <time>1970-01-01T00:31:44.000Z</time>
      </trkpt>
      <trkpt lat="42.429158" lon="-8.849952">
        <ele>122.5</ele>
        <time>1970-01-01T00:31:45.000Z</time>
      </trkpt>
      <trkpt lat="42.429061" lon="-8.850103">
        <ele>121</ele>
        <time>1970-01-01T00:31:47.000Z</time>
      </trkpt>
      <trkpt lat="42.429013" lon="-8.850181">
        <ele>120.2</ele>
        <time>1970-01-01T00:31:48.000Z</time>
      </trkpt>
      <trkpt lat="42.428916" lon="-8.850339">
        <ele>118.2</ele>
        <time>1970-01-01T00:31:49.000Z</time>
      </trkpt>
      <trkpt lat="42.428869" lon="-8.850419">
        <ele>117</ele>
        <time>1970-01-01T00:31:51.000Z</time>
      </trkpt>
      <trkpt lat="42.428756" lon="-8.850632">
        <ele>114.3</ele>
        <time>1970-01-01T00:31:54.000Z</time>
      </trkpt>
      <trkpt lat="42.428668" lon="-8.85083">
        <ele>112.5</ele>
        <time>1970-01-01T00:31:57.000Z</time>
      </trkpt>
      <trkpt lat="42.428559" lon="-8.851052">
        <ele>111.1</ele>
        <time>1970-01-01T00:32:02.000Z</time>
      </trkpt>
      <trkpt lat="42.428508" lon="-8.851168">
        <ele>110.4</ele>
        <time>1970-01-01T00:32:06.000Z</time>
      </trkpt>
      <trkpt lat="42.428443" lon="-8.85132">
        <ele>109.6</ele>
        <time>1970-01-01T00:32:09.000Z</time>
      </trkpt>
      <trkpt lat="42.428352" lon="-8.85154">
        <ele>107.6</ele>
        <time>1970-01-01T00:32:12.000Z</time>
      </trkpt>
      <trkpt lat="42.428272" lon="-8.851791">
        <ele>105.7</ele>
        <time>1970-01-01T00:32:15.000Z</time>
      </trkpt>
      <trkpt lat="42.428207" lon="-8.852072">
        <ele>104.4</ele>
        <time>1970-01-01T00:32:18.000Z</time>
      </trkpt>
      <trkpt lat="42.428186" lon="-8.852171">
        <ele>103.9</ele>
        <time>1970-01-01T00:32:19.000Z</time>
      </trkpt>
      <trkpt lat="42.428169" lon="-8.852269">
        <ele>103.4</ele>
        <time>1970-01-01T00:32:20.000Z</time>
      </trkpt>
      <trkpt lat="42.428131" lon="-8.852549">
        <ele>102.3</ele>
        <time>1970-01-01T00:32:23.000Z</time>
      </trkpt>
      <trkpt lat="42.428104" lon="-8.852803">
        <ele>101.2</ele>
        <time>1970-01-01T00:32:26.000Z</time>
      </trkpt>
      <trkpt lat="42.428067" lon="-8.852959">
        <ele>100.5</ele>
        <time>1970-01-01T00:32:33.000Z</time>
      </trkpt>
      <trkpt lat="42.428026" lon="-8.852918">
        <ele>99.7</ele>
        <time>1970-01-01T00:32:40.000Z</time>
      </trkpt>
      <trkpt lat="42.427979" lon="-8.852863">
        <ele>99.6</ele>
        <time>1970-01-01T00:32:44.000Z</time>
      </trkpt>
      <trkpt lat="42.4279" lon="-8.852776">
        <ele>99.4</ele>
        <time>1970-01-01T00:32:49.000Z</time>
      </trkpt>
      <trkpt lat="42.427786" lon="-8.852626">
        <ele>99.1</ele>
        <time>1970-01-01T00:32:56.000Z</time>
      </trkpt>
      <trkpt lat="42.427767" lon="-8.852607">
        <ele>99</ele>
        <time>1970-01-01T00:33:01.000Z</time>
      </trkpt>
      <trkpt lat="42.427678" lon="-8.852597">
        <ele>98.8</ele>
        <time>1970-01-01T00:34:30.000Z</time>
      </trkpt>
      <trkpt lat="42.427652" lon="-8.852611">
        <ele>98.8</ele>
        <time>1970-01-01T00:34:31.000Z</time>
      </trkpt>
      <trkpt lat="42.427475" lon="-8.852766">
        <ele>98</ele>
        <time>1970-01-01T00:34:37.000Z</time>
      </trkpt>
      <trkpt lat="42.427308" lon="-8.852943">
        <ele>96.3</ele>
        <time>1970-01-01T00:34:43.000Z</time>
      </trkpt>
      <trkpt lat="42.427129" lon="-8.853098">
        <ele>94.6</ele>
        <time>1970-01-01T00:34:48.000Z</time>
      </trkpt>
      <trkpt lat="42.427094" lon="-8.853125">
        <ele>94.3</ele>
        <time>1970-01-01T00:34:49.000Z</time>
      </trkpt>
      <trkpt lat="42.426943" lon="-8.853293">
        <ele>92.8</ele>
        <time>1970-01-01T00:34:54.000Z</time>
      </trkpt>
      <trkpt lat="42.426921" lon="-8.853343">
        <ele>92.4</ele>
        <time>1970-01-01T00:34:55.000Z</time>
      </trkpt>
      <trkpt lat="42.426903" lon="-8.853399">
        <ele>92</ele>
        <time>1970-01-01T00:34:56.000Z</time>
      </trkpt>
      <trkpt lat="42.426889" lon="-8.853457">
        <ele>91.5</ele>
        <time>1970-01-01T00:34:57.000Z</time>
      </trkpt>
      <trkpt lat="42.426877" lon="-8.853517">
        <ele>91.1</ele>
        <time>1970-01-01T00:34:58.000Z</time>
      </trkpt>
      <trkpt lat="42.42681" lon="-8.853772">
        <ele>89.1</ele>
        <time>1970-01-01T00:35:02.000Z</time>
      </trkpt>
      <trkpt lat="42.426761" lon="-8.85405">
        <ele>87.2</ele>
        <time>1970-01-01T00:35:06.000Z</time>
      </trkpt>
      <trkpt lat="42.426822" lon="-8.854277">
        <ele>85.7</ele>
        <time>1970-01-01T00:35:10.000Z</time>
      </trkpt>
      <trkpt lat="42.426835" lon="-8.854389">
        <ele>84.8</ele>
        <time>1970-01-01T00:35:12.000Z</time>
      </trkpt>
      <trkpt lat="42.426841" lon="-8.854655">
        <ele>83.6</ele>
        <time>1970-01-01T00:35:16.000Z</time>
      </trkpt>
      <trkpt lat="42.426819" lon="-8.854782">
        <ele>83</ele>
        <time>1970-01-01T00:35:18.000Z</time>
      </trkpt>
      <trkpt lat="42.426775" lon="-8.854894">
        <ele>82.6</ele>
        <time>1970-01-01T00:35:20.000Z</time>
      </trkpt>
      <trkpt lat="42.426649" lon="-8.855133">
        <ele>82</ele>
        <time>1970-01-01T00:35:25.000Z</time>
      </trkpt>
      <trkpt lat="42.426588" lon="-8.855292">
        <ele>81.7</ele>
        <time>1970-01-01T00:35:28.000Z</time>
      </trkpt>
      <trkpt lat="42.426516" lon="-8.855548">
        <ele>80.1</ele>
        <time>1970-01-01T00:35:32.000Z</time>
      </trkpt>
      <trkpt lat="42.426495" lon="-8.855605">
        <ele>79.7</ele>
        <time>1970-01-01T00:35:33.000Z</time>
      </trkpt>
      <trkpt lat="42.426445" lon="-8.855709">
        <ele>78.8</ele>
        <time>1970-01-01T00:35:35.000Z</time>
      </trkpt>
      <trkpt lat="42.42639" lon="-8.855805">
        <ele>78</ele>
        <time>1970-01-01T00:35:38.000Z</time>
      </trkpt>
      <trkpt lat="42.426384" lon="-8.855833">
        <ele>77.8</ele>
        <time>1970-01-01T00:35:39.000Z</time>
      </trkpt>
      <trkpt lat="42.426389" lon="-8.855862">
        <ele>77.6</ele>
        <time>1970-01-01T00:35:40.000Z</time>
      </trkpt>
      <trkpt lat="42.426399" lon="-8.855895">
        <ele>77.3</ele>
        <time>1970-01-01T00:35:41.000Z</time>
      </trkpt>
      <trkpt lat="42.426419" lon="-8.855927">
        <ele>76.9</ele>
        <time>1970-01-01T00:35:42.000Z</time>
      </trkpt>
      <trkpt lat="42.426517" lon="-8.856084">
        <ele>76</ele>
        <time>1970-01-01T00:35:46.000Z</time>
      </trkpt>
      <trkpt lat="42.426546" lon="-8.856182">
        <ele>75.6</ele>
        <time>1970-01-01T00:35:47.000Z</time>
      </trkpt>
      <trkpt lat="42.426542" lon="-8.856209">
        <ele>75.6</ele>
        <time>1970-01-01T00:35:48.000Z</time>
      </trkpt>
      <trkpt lat="42.426538" lon="-8.856236">
        <ele>75.5</ele>
        <time>1970-01-01T00:35:49.000Z</time>
      </trkpt>
      <trkpt lat="42.426479" lon="-8.856352">
        <ele>75.3</ele>
        <time>1970-01-01T00:35:52.000Z</time>
      </trkpt>
      <trkpt lat="42.426472" lon="-8.856393">
        <ele>75.3</ele>
        <time>1970-01-01T00:35:55.000Z</time>
      </trkpt>
      <trkpt lat="42.426472" lon="-8.856392">
        <ele>75.3</ele>
        <time>1970-01-01T00:35:57.000Z</time>
      </trkpt>
      <trkpt lat="42.426503" lon="-8.856442">
        <ele>75.3</ele>
        <time>1970-01-01T00:37:13.000Z</time>
      </trkpt>
      <trkpt lat="42.42666" lon="-8.856606">
        <ele>75.5</ele>
        <time>1970-01-01T00:37:23.000Z</time>
      </trkpt>
      <trkpt lat="42.426697" lon="-8.856644">
        <ele>75.5</ele>
        <time>1970-01-01T00:37:25.000Z</time>
      </trkpt>
      <trkpt lat="42.42675" lon="-8.856699">
        <ele>75.6</ele>
        <time>1970-01-01T00:37:28.000Z</time>
      </trkpt>
      <trkpt lat="42.426768" lon="-8.856717">
        <ele>75.6</ele>
        <time>1970-01-01T00:37:29.000Z</time>
      </trkpt>
      <trkpt lat="42.426786" lon="-8.856734">
        <ele>75.6</ele>
        <time>1970-01-01T00:37:30.000Z</time>
      </trkpt>
      <trkpt lat="42.426949" lon="-8.856894">
        <ele>75.5</ele>
        <time>1970-01-01T00:37:39.000Z</time>
      </trkpt>
      <trkpt lat="42.427005" lon="-8.856938">
        <ele>75.6</ele>
        <time>1970-01-01T00:37:42.000Z</time>
      </trkpt>
      <trkpt lat="42.427026" lon="-8.856951">
        <ele>75.6</ele>
        <time>1970-01-01T00:37:43.000Z</time>
      </trkpt>
      <trkpt lat="42.427195" lon="-8.857045">
        <ele>76.1</ele>
        <time>1970-01-01T00:37:52.000Z</time>
      </trkpt>
      <trkpt lat="42.427238" lon="-8.857296">
        <ele>74.8</ele>
        <time>1970-01-01T00:37:59.000Z</time>
      </trkpt>
      <trkpt lat="42.427235" lon="-8.857409">
        <ele>74.3</ele>
        <time>1970-01-01T00:38:01.000Z</time>
      </trkpt>
      <trkpt lat="42.427195" lon="-8.85766">
        <ele>73</ele>
        <time>1970-01-01T00:38:05.000Z</time>
      </trkpt>
      <trkpt lat="42.42716" lon="-8.857863">
        <ele>72</ele>
        <time>1970-01-01T00:38:08.000Z</time>
      </trkpt>
      <trkpt lat="42.427142" lon="-8.858009">
        <ele>71.2</ele>
        <time>1970-01-01T00:38:09.000Z</time>
      </trkpt>
      <trkpt lat="42.427091" lon="-8.85832">
        <ele>69.8</ele>
        <time>1970-01-01T00:38:14.000Z</time>
      </trkpt>
      <trkpt lat="42.427055" lon="-8.85863">
        <ele>68.5</ele>
        <time>1970-01-01T00:38:18.000Z</time>
      </trkpt>
      <trkpt lat="42.427037" lon="-8.858933">
        <ele>67.3</ele>
        <time>1970-01-01T00:38:22.000Z</time>
      </trkpt>
      <trkpt lat="42.42703" lon="-8.859087">
        <ele>66.1</ele>
        <time>1970-01-01T00:38:24.000Z</time>
      </trkpt>
      <trkpt lat="42.427022" lon="-8.859332">
        <ele>64.2</ele>
        <time>1970-01-01T00:38:27.000Z</time>
      </trkpt>
      <trkpt lat="42.427029" lon="-8.859506">
        <ele>62.6</ele>
        <time>1970-01-01T00:38:29.000Z</time>
      </trkpt>
      <trkpt lat="42.427062" lon="-8.859661">
        <ele>61</ele>
        <time>1970-01-01T00:38:31.000Z</time>
      </trkpt>
      <trkpt lat="42.427095" lon="-8.8598">
        <ele>60</ele>
        <time>1970-01-01T00:38:33.000Z</time>
      </trkpt>
      <trkpt lat="42.427096" lon="-8.860064">
        <ele>58.7</ele>
        <time>1970-01-01T00:38:37.000Z</time>
      </trkpt>
      <trkpt lat="42.42709" lon="-8.860127">
        <ele>58.3</ele>
        <time>1970-01-01T00:38:38.000Z</time>
      </trkpt>
      <trkpt lat="42.427069" lon="-8.860426">
        <ele>56.4</ele>
        <time>1970-01-01T00:38:43.000Z</time>
      </trkpt>
      <trkpt lat="42.427119" lon="-8.860547">
        <ele>55.5</ele>
        <time>1970-01-01T00:38:45.000Z</time>
      </trkpt>
      <trkpt lat="42.427219" lon="-8.860813">
        <ele>53.3</ele>
        <time>1970-01-01T00:38:50.000Z</time>
      </trkpt>
      <trkpt lat="42.427293" lon="-8.860999">
        <ele>51.5</ele>
        <time>1970-01-01T00:38:53.000Z</time>
      </trkpt>
      <trkpt lat="42.427294" lon="-8.861142">
        <ele>50.5</ele>
        <time>1970-01-01T00:38:55.000Z</time>
      </trkpt>
      <trkpt lat="42.427271" lon="-8.861245">
        <ele>49.7</ele>
        <time>1970-01-01T00:38:57.000Z</time>
      </trkpt>
      <trkpt lat="42.427124" lon="-8.861454">
        <ele>48.2</ele>
        <time>1970-01-01T00:39:05.000Z</time>
      </trkpt>
      <trkpt lat="42.426996" lon="-8.861634">
        <ele>47.3</ele>
        <time>1970-01-01T00:39:09.000Z</time>
      </trkpt>
      <trkpt lat="42.426896" lon="-8.861732">
        <ele>46.6</ele>
        <time>1970-01-01T00:39:11.000Z</time>
      </trkpt>
      <trkpt lat="42.426719" lon="-8.86187">
        <ele>45.4</ele>
        <time>1970-01-01T00:39:14.000Z</time>
      </trkpt>
      <trkpt lat="42.426655" lon="-8.861977">
        <ele>44.3</ele>
        <time>1970-01-01T00:39:16.000Z</time>
      </trkpt>
      <trkpt lat="42.42663" lon="-8.862203">
        <ele>43.1</ele>
        <time>1970-01-01T00:39:19.000Z</time>
      </trkpt>
      <trkpt lat="42.426606" lon="-8.862382">
        <ele>42.2</ele>
        <time>1970-01-01T00:39:21.000Z</time>
      </trkpt>
      <trkpt lat="42.426624" lon="-8.862569">
        <ele>41.3</ele>
        <time>1970-01-01T00:39:23.000Z</time>
      </trkpt>
      <trkpt lat="42.426754" lon="-8.862783">
        <ele>39.9</ele>
        <time>1970-01-01T00:39:26.000Z</time>
      </trkpt>
      <trkpt lat="42.426888" lon="-8.863017">
        <ele>37.9</ele>
        <time>1970-01-01T00:39:29.000Z</time>
      </trkpt>
      <trkpt lat="42.426972" lon="-8.863323">
        <ele>35.7</ele>
        <time>1970-01-01T00:39:32.000Z</time>
      </trkpt>
      <trkpt lat="42.427054" lon="-8.863666">
        <ele>33.9</ele>
        <time>1970-01-01T00:39:35.000Z</time>
      </trkpt>
      <trkpt lat="42.427128" lon="-8.863974">
        <ele>32.4</ele>
        <time>1970-01-01T00:39:38.000Z</time>
      </trkpt>
      <trkpt lat="42.427131" lon="-8.864131">
        <ele>31.7</ele>
        <time>1970-01-01T00:39:40.000Z</time>
      </trkpt>
      <trkpt lat="42.427064" lon="-8.86444">
        <ele>30.4</ele>
        <time>1970-01-01T00:39:44.000Z</time>
      </trkpt>
      <trkpt lat="42.427037" lon="-8.864514">
        <ele>30.1</ele>
        <time>1970-01-01T00:39:45.000Z</time>
      </trkpt>
      <trkpt lat="42.42693" lon="-8.864724">
        <ele>29.3</ele>
        <time>1970-01-01T00:39:48.000Z</time>
      </trkpt>
      <trkpt lat="42.426842" lon="-8.864848">
        <ele>28.8</ele>
        <time>1970-01-01T00:39:50.000Z</time>
      </trkpt>
      <trkpt lat="42.426738" lon="-8.864931">
        <ele>28.4</ele>
        <time>1970-01-01T00:39:52.000Z</time>
      </trkpt>
      <trkpt lat="42.426507" lon="-8.865019">
        <ele>26.9</ele>
        <time>1970-01-01T00:39:56.000Z</time>
      </trkpt>
      <trkpt lat="42.426334" lon="-8.865114">
        <ele>25.8</ele>
        <time>1970-01-01T00:39:59.000Z</time>
      </trkpt>
      <trkpt lat="42.426225" lon="-8.865208">
        <ele>25.5</ele>
        <time>1970-01-01T00:40:01.000Z</time>
      </trkpt>
      <trkpt lat="42.426087" lon="-8.86538">
        <ele>25.2</ele>
        <time>1970-01-01T00:40:04.000Z</time>
      </trkpt>
      <trkpt lat="42.425953" lon="-8.865594">
        <ele>25.2</ele>
        <time>1970-01-01T00:40:08.000Z</time>
      </trkpt>
      <trkpt lat="42.425832" lon="-8.86582">
        <ele>25.7</ele>
        <time>1970-01-01T00:40:14.000Z</time>
      </trkpt>
      <trkpt lat="42.42575" lon="-8.866035">
        <ele>26.5</ele>
        <time>1970-01-01T00:40:20.000Z</time>
      </trkpt>
      <trkpt lat="42.425752" lon="-8.866217">
        <ele>27</ele>
        <time>1970-01-01T00:40:25.000Z</time>
      </trkpt>
      <trkpt lat="42.425764" lon="-8.866348">
        <ele>27.4</ele>
        <time>1970-01-01T00:40:29.000Z</time>
      </trkpt>
      <trkpt lat="42.425773" lon="-8.866447">
        <ele>27.7</ele>
        <time>1970-01-01T00:40:32.000Z</time>
      </trkpt>
      <trkpt lat="42.425777" lon="-8.866516">
        <ele>27.8</ele>
        <time>1970-01-01T00:40:33.000Z</time>
      </trkpt>
      <trkpt lat="42.425777" lon="-8.866516">
        <ele>27.8</ele>
        <time>1970-01-01T00:40:34.000Z</time>
      </trkpt>
      <trkpt lat="42.425791" lon="-8.866614">
        <ele>27.9</ele>
        <time>1970-01-01T00:40:37.000Z</time>
      </trkpt>
      <trkpt lat="42.425865" lon="-8.866815">
        <ele>27.8</ele>
        <time>1970-01-01T00:40:44.000Z</time>
      </trkpt>
      <trkpt lat="42.425907" lon="-8.866923">
        <ele>27.7</ele>
        <time>1970-01-01T00:40:48.000Z</time>
      </trkpt>
      <trkpt lat="42.426034" lon="-8.867105">
        <ele>27</ele>
        <time>1970-01-01T00:40:56.000Z</time>
      </trkpt>
      <trkpt lat="42.426139" lon="-8.86719">
        <ele>26.4</ele>
        <time>1970-01-01T00:41:00.000Z</time>
      </trkpt>
      <trkpt lat="42.42627" lon="-8.867316">
        <ele>25.4</ele>
        <time>1970-01-01T00:41:04.000Z</time>
      </trkpt>
      <trkpt lat="42.426337" lon="-8.867416">
        <ele>24.9</ele>
        <time>1970-01-01T00:41:06.000Z</time>
      </trkpt>
      <trkpt lat="42.426448" lon="-8.867674">
        <ele>24.1</ele>
        <time>1970-01-01T00:41:10.000Z</time>
      </trkpt>
      <trkpt lat="42.42653" lon="-8.867875">
        <ele>23.6</ele>
        <time>1970-01-01T00:41:13.000Z</time>
      </trkpt>
      <trkpt lat="42.426647" lon="-8.868032">
        <ele>23.2</ele>
        <time>1970-01-01T00:41:16.000Z</time>
      </trkpt>
      <trkpt lat="42.426842" lon="-8.868152">
        <ele>22.8</ele>
        <time>1970-01-01T00:41:20.000Z</time>
      </trkpt>
      <trkpt lat="42.427039" lon="-8.868207">
        <ele>22.3</ele>
        <time>1970-01-01T00:41:24.000Z</time>
      </trkpt>
      <trkpt lat="42.427242" lon="-8.868285">
        <ele>22</ele>
        <time>1970-01-01T00:41:28.000Z</time>
      </trkpt>
      <trkpt lat="42.427434" lon="-8.868377">
        <ele>21.8</ele>
        <time>1970-01-01T00:41:32.000Z</time>
      </trkpt>
      <trkpt lat="42.42757" lon="-8.868439">
        <ele>21.5</ele>
        <time>1970-01-01T00:41:35.000Z</time>
      </trkpt>
      <trkpt lat="42.427749" lon="-8.868508">
        <ele>21</ele>
        <time>1970-01-01T00:41:39.000Z</time>
      </trkpt>
      <trkpt lat="42.42784" lon="-8.868534">
        <ele>20.7</ele>
        <time>1970-01-01T00:41:41.000Z</time>
      </trkpt>
      <trkpt lat="42.427884" lon="-8.868548">
        <ele>20.6</ele>
        <time>1970-01-01T00:41:42.000Z</time>
      </trkpt>
      <trkpt lat="42.427926" lon="-8.868569">
        <ele>20.5</ele>
        <time>1970-01-01T00:41:43.000Z</time>
      </trkpt>
      <trkpt lat="42.428009" lon="-8.868617">
        <ele>20.3</ele>
        <time>1970-01-01T00:41:44.000Z</time>
      </trkpt>
      <trkpt lat="42.428009" lon="-8.868617">
        <ele>20.3</ele>
        <time>1970-01-01T00:41:45.000Z</time>
      </trkpt>
      <trkpt lat="42.428094" lon="-8.868664">
        <ele>20.2</ele>
        <time>1970-01-01T00:41:47.000Z</time>
      </trkpt>
      <trkpt lat="42.428176" lon="-8.868705">
        <ele>20.1</ele>
        <time>1970-01-01T00:41:49.000Z</time>
      </trkpt>
      <trkpt lat="42.428254" lon="-8.868751">
        <ele>20</ele>
        <time>1970-01-01T00:41:50.000Z</time>
      </trkpt>
      <trkpt lat="42.428254" lon="-8.868751">
        <ele>20</ele>
        <time>1970-01-01T00:41:51.000Z</time>
      </trkpt>
      <trkpt lat="42.428328" lon="-8.868794">
        <ele>19.9</ele>
        <time>1970-01-01T00:41:53.000Z</time>
      </trkpt>
      <trkpt lat="42.428361" lon="-8.868819">
        <ele>19.9</ele>
        <time>1970-01-01T00:41:54.000Z</time>
      </trkpt>
      <trkpt lat="42.428479" lon="-8.86896">
        <ele>19.9</ele>
        <time>1970-01-01T00:42:00.000Z</time>
      </trkpt>
      <trkpt lat="42.428513" lon="-8.868997">
        <ele>19.8</ele>
        <time>1970-01-01T00:42:02.000Z</time>
      </trkpt>
      <trkpt lat="42.428565" lon="-8.869049">
        <ele>19.8</ele>
        <time>1970-01-01T00:42:03.000Z</time>
      </trkpt>
      <trkpt lat="42.428565" lon="-8.869049">
        <ele>19.8</ele>
        <time>1970-01-01T00:42:04.000Z</time>
      </trkpt>
      <trkpt lat="42.428697" lon="-8.8692">
        <ele>19.5</ele>
        <time>1970-01-01T00:42:11.000Z</time>
      </trkpt>
      <trkpt lat="42.428743" lon="-8.86922">
        <ele>19.4</ele>
        <time>1970-01-01T00:42:15.000Z</time>
      </trkpt>
      <trkpt lat="42.428743" lon="-8.869223">
        <ele>19.4</ele>
        <time>1970-01-01T00:42:17.000Z</time>
      </trkpt>
      <trkpt lat="42.428817" lon="-8.869323">
        <ele>19.1</ele>
        <time>1970-01-01T00:44:08.000Z</time>
      </trkpt>
      <trkpt lat="42.42884" lon="-8.869353">
        <ele>19</ele>
        <time>1970-01-01T00:44:09.000Z</time>
      </trkpt>
      <trkpt lat="42.428896" lon="-8.869421">
        <ele>18.8</ele>
        <time>1970-01-01T00:44:10.000Z</time>
      </trkpt>
      <trkpt lat="42.428999" lon="-8.86954">
        <ele>18.3</ele>
        <time>1970-01-01T00:44:14.000Z</time>
      </trkpt>
      <trkpt lat="42.429116" lon="-8.869671">
        <ele>17.9</ele>
        <time>1970-01-01T00:44:17.000Z</time>
      </trkpt>
      <trkpt lat="42.429281" lon="-8.86984">
        <ele>17.3</ele>
        <time>1970-01-01T00:44:21.000Z</time>
      </trkpt>
      <trkpt lat="42.429451" lon="-8.869982">
        <ele>16.7</ele>
        <time>1970-01-01T00:44:25.000Z</time>
      </trkpt>
      <trkpt lat="42.429624" lon="-8.870113">
        <ele>16</ele>
        <time>1970-01-01T00:44:29.000Z</time>
      </trkpt>
      <trkpt lat="42.429669" lon="-8.870143">
        <ele>15.8</ele>
        <time>1970-01-01T00:44:30.000Z</time>
      </trkpt>
      <trkpt lat="42.429759" lon="-8.870188">
        <ele>15.5</ele>
        <time>1970-01-01T00:44:32.000Z</time>
      </trkpt>
      <trkpt lat="42.429941" lon="-8.870213">
        <ele>14.9</ele>
        <time>1970-01-01T00:44:36.000Z</time>
      </trkpt>
      <trkpt lat="42.43014" lon="-8.870194">
        <ele>14.1</ele>
        <time>1970-01-01T00:44:40.000Z</time>
      </trkpt>
      <trkpt lat="42.430353" lon="-8.870184">
        <ele>13.6</ele>
        <time>1970-01-01T00:44:44.000Z</time>
      </trkpt>
      <trkpt lat="42.430567" lon="-8.870182">
        <ele>13.1</ele>
        <time>1970-01-01T00:44:48.000Z</time>
      </trkpt>
      <trkpt lat="42.430766" lon="-8.870176">
        <ele>12.6</ele>
        <time>1970-01-01T00:44:52.000Z</time>
      </trkpt>
      <trkpt lat="42.430947" lon="-8.870186">
        <ele>12.1</ele>
        <time>1970-01-01T00:44:56.000Z</time>
      </trkpt>
      <trkpt lat="42.431012" lon="-8.870256">
        <ele>11.9</ele>
        <time>1970-01-01T00:44:58.000Z</time>
      </trkpt>
      <trkpt lat="42.431023" lon="-8.870502">
        <ele>11.1</ele>
        <time>1970-01-01T00:45:03.000Z</time>
      </trkpt>
      <trkpt lat="42.431034" lon="-8.870771">
        <ele>10.4</ele>
        <time>1970-01-01T00:45:11.000Z</time>
      </trkpt>
      <trkpt lat="42.431065" lon="-8.871038">
        <ele>9.3</ele>
        <time>1970-01-01T00:45:18.000Z</time>
      </trkpt>
      <trkpt lat="42.431117" lon="-8.871292">
        <ele>8.1</ele>
        <time>1970-01-01T00:45:23.000Z</time>
      </trkpt>
      <trkpt lat="42.431173" lon="-8.871529">
        <ele>7.2</ele>
        <time>1970-01-01T00:45:27.000Z</time>
      </trkpt>
      <trkpt lat="42.431228" lon="-8.871766">
        <ele>6.4</ele>
        <time>1970-01-01T00:45:31.000Z</time>
      </trkpt>
      <trkpt lat="42.431288" lon="-8.871965">
        <ele>6</ele>
        <time>1970-01-01T00:45:35.000Z</time>
      </trkpt>
      <trkpt lat="42.431352" lon="-8.872128">
        <ele>5.4</ele>
        <time>1970-01-01T00:45:43.000Z</time>
      </trkpt>
      <trkpt lat="42.431387" lon="-8.872243">
        <ele>4.9</ele>
        <time>1970-01-01T00:45:47.000Z</time>
      </trkpt>
      <trkpt lat="42.431217" lon="-8.872312">
        <ele>4.9</ele>
        <time>1970-01-01T00:45:53.000Z</time>
      </trkpt>
      <trkpt lat="42.431146" lon="-8.872339">
        <ele>5</ele>
        <time>1970-01-01T00:45:54.000Z</time>
      </trkpt>
      <trkpt lat="42.431146" lon="-8.872339">
        <ele>5</ele>
        <time>1970-01-01T00:45:55.000Z</time>
      </trkpt>
      <trkpt lat="42.431072" lon="-8.872373">
        <ele>5.1</ele>
        <time>1970-01-01T00:45:57.000Z</time>
      </trkpt>
      <trkpt lat="42.430995" lon="-8.872408">
        <ele>5.3</ele>
        <time>1970-01-01T00:45:59.000Z</time>
      </trkpt>
      <trkpt lat="42.430955" lon="-8.872426">
        <ele>5.4</ele>
        <time>1970-01-01T00:46:00.000Z</time>
      </trkpt>
      <trkpt lat="42.430915" lon="-8.872446">
        <ele>5.5</ele>
        <time>1970-01-01T00:46:01.000Z</time>
      </trkpt>
      <trkpt lat="42.430749" lon="-8.87253">
        <ele>6.2</ele>
        <time>1970-01-01T00:46:05.000Z</time>
      </trkpt>
      <trkpt lat="42.430632" lon="-8.872595">
        <ele>6.7</ele>
        <time>1970-01-01T00:46:08.000Z</time>
      </trkpt>
      <trkpt lat="42.430597" lon="-8.872615">
        <ele>6.8</ele>
        <time>1970-01-01T00:46:09.000Z</time>
      </trkpt>
      <trkpt lat="42.430531" lon="-8.872651">
        <ele>7</ele>
        <time>1970-01-01T00:46:11.000Z</time>
      </trkpt>
      <trkpt lat="42.430474" lon="-8.872686">
        <ele>7.2</ele>
        <time>1970-01-01T00:46:12.000Z</time>
      </trkpt>
      <trkpt lat="42.430296" lon="-8.87281">
        <ele>8</ele>
        <time>1970-01-01T00:46:21.000Z</time>
      </trkpt>
      <trkpt lat="42.430113" lon="-8.872918">
        <ele>8.6</ele>
        <time>1970-01-01T00:46:28.000Z</time>
      </trkpt>
      <trkpt lat="42.429936" lon="-8.873018">
        <ele>9.4</ele>
        <time>1970-01-01T00:46:36.000Z</time>
      </trkpt>
      <trkpt lat="42.429803" lon="-8.873091">
        <ele>10.1</ele>
        <time>1970-01-01T00:46:42.000Z</time>
      </trkpt>
      <trkpt lat="42.429695" lon="-8.873147">
        <ele>10.7</ele>
        <time>1970-01-01T00:46:47.000Z</time>
      </trkpt>
      <trkpt lat="42.42965" lon="-8.873169">
        <ele>10.9</ele>
        <time>1970-01-01T00:46:48.000Z</time>
      </trkpt>
      <trkpt lat="42.42965" lon="-8.873169">
        <ele>10.9</ele>
        <time>1970-01-01T00:46:49.000Z</time>
      </trkpt>
      <trkpt lat="42.429493" lon="-8.873253">
        <ele>11.4</ele>
        <time>1970-01-01T00:46:56.000Z</time>
      </trkpt>
      <trkpt lat="42.429451" lon="-8.873273">
        <ele>11.5</ele>
        <time>1970-01-01T00:46:58.000Z</time>
      </trkpt>
      <trkpt lat="42.429413" lon="-8.87329">
        <ele>11.5</ele>
        <time>1970-01-01T00:46:59.000Z</time>
      </trkpt>
      <trkpt lat="42.429413" lon="-8.87329">
        <ele>11.5</ele>
        <time>1970-01-01T00:47:00.000Z</time>
      </trkpt>
      <trkpt lat="42.4293" lon="-8.873331">
        <ele>11.9</ele>
        <time>1970-01-01T00:47:06.000Z</time>
      </trkpt>
      <trkpt lat="42.429286" lon="-8.873339">
        <ele>11.9</ele>
        <time>1970-01-01T00:47:07.000Z</time>
      </trkpt>
      <trkpt lat="42.429275" lon="-8.873368">
        <ele>11.9</ele>
        <time>1970-01-01T00:47:09.000Z</time>
      </trkpt>
      <trkpt lat="42.429274" lon="-8.873386">
        <ele>11.9</ele>
        <time>1970-01-01T00:47:10.000Z</time>
      </trkpt>
      <trkpt lat="42.429282" lon="-8.87345">
        <ele>11.8</ele>
        <time>1970-01-01T00:47:13.000Z</time>
      </trkpt>
      <trkpt lat="42.429302" lon="-8.873536">
        <ele>11.8</ele>
        <time>1970-01-01T00:47:16.000Z</time>
      </trkpt>
      <trkpt lat="42.429315" lon="-8.873622">
        <ele>11.8</ele>
        <time>1970-01-01T00:47:19.000Z</time>
      </trkpt>
      <trkpt lat="42.429326" lon="-8.87371">
        <ele>11.7</ele>
        <time>1970-01-01T00:47:22.000Z</time>
      </trkpt>
      <trkpt lat="42.429344" lon="-8.873801">
        <ele>11.5</ele>
        <time>1970-01-01T00:47:25.000Z</time>
      </trkpt>
      <trkpt lat="42.429348" lon="-8.873829">
        <ele>11.3</ele>
        <time>1970-01-01T00:47:26.000Z</time>
      </trkpt>
      <trkpt lat="42.429358" lon="-8.874074">
        <ele>10.3</ele>
        <time>1970-01-01T00:47:34.000Z</time>
      </trkpt>
      <trkpt lat="42.429367" lon="-8.874204">
        <ele>9.6</ele>
        <time>1970-01-01T00:47:38.000Z</time>
      </trkpt>
      <trkpt lat="42.429389" lon="-8.87445">
        <ele>8.9</ele>
        <time>1970-01-01T00:47:46.000Z</time>
      </trkpt>
      <trkpt lat="42.429398" lon="-8.874594">
        <ele>8.6</ele>
        <time>1970-01-01T00:47:51.000Z</time>
      </trkpt>
      <trkpt lat="42.429414" lon="-8.87468">
        <ele>8.4</ele>
        <time>1970-01-01T00:47:54.000Z</time>
      </trkpt>
      <trkpt lat="42.429403" lon="-8.874923">
        <ele>7.7</ele>
        <time>1970-01-01T00:48:03.000Z</time>
      </trkpt>
      <trkpt lat="42.429424" lon="-8.875182">
        <ele>6.6</ele>
        <time>1970-01-01T00:48:12.000Z</time>
      </trkpt>
      <trkpt lat="42.429451" lon="-8.875424">
        <ele>5.6</ele>
        <time>1970-01-01T00:48:18.000Z</time>
      </trkpt>
      <trkpt lat="42.429453" lon="-8.875474">
        <ele>5.3</ele>
        <time>1970-01-01T00:48:19.000Z</time>
      </trkpt>
      <trkpt lat="42.429467" lon="-8.875638">
        <ele>4.6</ele>
        <time>1970-01-01T00:48:22.000Z</time>
      </trkpt>
      <trkpt lat="42.429472" lon="-8.875697">
        <ele>4.4</ele>
        <time>1970-01-01T00:48:23.000Z</time>
      </trkpt>
      <trkpt lat="42.429484" lon="-8.875822">
        <ele>3.8</ele>
        <time>1970-01-01T00:48:24.000Z</time>
      </trkpt>
      <trkpt lat="42.429484" lon="-8.875822">
        <ele>3.8</ele>
        <time>1970-01-01T00:48:25.000Z</time>
      </trkpt>
      <trkpt lat="42.429529" lon="-8.876098">
        <ele>2.5</ele>
        <time>1970-01-01T00:48:30.000Z</time>
      </trkpt>
      <trkpt lat="42.429553" lon="-8.876206">
        <ele>2</ele>
        <time>1970-01-01T00:48:32.000Z</time>
      </trkpt>
      <trkpt lat="42.429566" lon="-8.876264">
        <ele>1.7</ele>
        <time>1970-01-01T00:48:33.000Z</time>
      </trkpt>
      <trkpt lat="42.429578" lon="-8.876323">
        <ele>1.5</ele>
        <time>1970-01-01T00:48:34.000Z</time>
      </trkpt>
      <trkpt lat="42.429586" lon="-8.876384">
        <ele>1.5</ele>
        <time>1970-01-01T00:48:35.000Z</time>
      </trkpt>
      <trkpt lat="42.429609" lon="-8.876565">
        <ele>1.3</ele>
        <time>1970-01-01T00:48:38.000Z</time>
      </trkpt>
      <trkpt lat="42.429611" lon="-8.87673">
        <ele>1.2</ele>
        <time>1970-01-01T00:48:41.000Z</time>
      </trkpt>
      <trkpt lat="42.429631" lon="-8.876981">
        <ele>1.1</ele>
        <time>1970-01-01T00:48:49.000Z</time>
      </trkpt>
      <trkpt lat="42.429677" lon="-8.877242">
        <ele>1</ele>
        <time>1970-01-01T00:48:59.000Z</time>
      </trkpt>
      <trkpt lat="42.429696" lon="-8.877331">
        <ele>1</ele>
        <time>1970-01-01T00:49:03.000Z</time>
      </trkpt>
      <trkpt lat="42.429728" lon="-8.877579">
        <ele>0.8</ele>
        <time>1970-01-01T00:49:12.000Z</time>
      </trkpt>
      <trkpt lat="42.429752" lon="-8.877701">
        <ele>0.6</ele>
        <time>1970-01-01T00:49:16.000Z</time>
      </trkpt>
      <trkpt lat="42.429798" lon="-8.877916">
        <ele>0.2</ele>
        <time>1970-01-01T00:49:25.000Z</time>
      </trkpt>
      <trkpt lat="42.429893" lon="-8.877998">
        <ele>0.5</ele>
        <time>1970-01-01T00:49:32.000Z</time>
      </trkpt>
      <trkpt lat="42.429908" lon="-8.87804">
        <ele>0.6</ele>
        <time>1970-01-01T00:49:38.000Z</time>
      </trkpt>
      <trkpt lat="42.429842" lon="-8.877865">
        <ele>0.8</ele>
        <time>1970-01-01T00:50:30.000Z</time>
      </trkpt>
      <trkpt lat="42.429774" lon="-8.877823">
        <ele>0.9</ele>
        <time>1970-01-01T00:50:34.000Z</time>
      </trkpt>
      <trkpt lat="42.429743" lon="-8.877583">
        <ele>1</ele>
        <time>1970-01-01T00:50:42.000Z</time>
      </trkpt>
      <trkpt lat="42.429735" lon="-8.877502">
        <ele>1</ele>
        <time>1970-01-01T00:50:45.000Z</time>
      </trkpt>
      <trkpt lat="42.429726" lon="-8.877447">
        <ele>1</ele>
        <time>1970-01-01T00:50:47.000Z</time>
      </trkpt>
      <trkpt lat="42.429715" lon="-8.877387">
        <ele>1</ele>
        <time>1970-01-01T00:50:48.000Z</time>
      </trkpt>
      <trkpt lat="42.429715" lon="-8.877387">
        <ele>1</ele>
        <time>1970-01-01T00:50:49.000Z</time>
      </trkpt>
      <trkpt lat="42.429698" lon="-8.877299">
        <ele>1.1</ele>
        <time>1970-01-01T00:50:52.000Z</time>
      </trkpt>
      <trkpt lat="42.429675" lon="-8.877188">
        <ele>1.1</ele>
        <time>1970-01-01T00:50:56.000Z</time>
      </trkpt>
      <trkpt lat="42.42967" lon="-8.877138">
        <ele>1.1</ele>
        <time>1970-01-01T00:50:58.000Z</time>
      </trkpt>
      <trkpt lat="42.429664" lon="-8.877078">
        <ele>1.1</ele>
        <time>1970-01-01T00:51:00.000Z</time>
      </trkpt>
      <trkpt lat="42.429661" lon="-8.877044">
        <ele>1.1</ele>
        <time>1970-01-01T00:51:01.000Z</time>
      </trkpt>
      <trkpt lat="42.42965" lon="-8.876971">
        <ele>1.1</ele>
        <time>1970-01-01T00:51:02.000Z</time>
      </trkpt>
      <trkpt lat="42.42965" lon="-8.876971">
        <ele>1.1</ele>
        <time>1970-01-01T00:51:03.000Z</time>
      </trkpt>
      <trkpt lat="42.429643" lon="-8.876934">
        <ele>1.1</ele>
        <time>1970-01-01T00:51:04.000Z</time>
      </trkpt>
      <trkpt lat="42.429631" lon="-8.876852">
        <ele>1.1</ele>
        <time>1970-01-01T00:51:06.000Z</time>
      </trkpt>
      <trkpt lat="42.429601" lon="-8.876631">
        <ele>1.2</ele>
        <time>1970-01-01T00:51:12.000Z</time>
      </trkpt>
      <trkpt lat="42.429599" lon="-8.876435">
        <ele>1.4</ele>
        <time>1970-01-01T00:51:19.000Z</time>
      </trkpt>
      <trkpt lat="42.429601" lon="-8.87641">
        <ele>1.4</ele>
        <time>1970-01-01T00:51:20.000Z</time>
      </trkpt>
      <trkpt lat="42.429624" lon="-8.876265">
        <ele>1.6</ele>
        <time>1970-01-01T00:51:24.000Z</time>
      </trkpt>
      <trkpt lat="42.429637" lon="-8.875995">
        <ele>2.9</ele>
        <time>1970-01-01T00:51:32.000Z</time>
      </trkpt>
      <trkpt lat="42.429624" lon="-8.875851">
        <ele>3.6</ele>
        <time>1970-01-01T00:51:37.000Z</time>
      </trkpt>
      <trkpt lat="42.429593" lon="-8.875714">
        <ele>4.2</ele>
        <time>1970-01-01T00:51:42.000Z</time>
      </trkpt>
      <trkpt lat="42.429553" lon="-8.875472">
        <ele>5.3</ele>
        <time>1970-01-01T00:51:51.000Z</time>
      </trkpt>
      <trkpt lat="42.429557" lon="-8.875335">
        <ele>5.9</ele>
        <time>1970-01-01T00:51:56.000Z</time>
      </trkpt>
      <trkpt lat="42.429585" lon="-8.875198">
        <ele>6.7</ele>
        <time>1970-01-01T00:52:01.000Z</time>
      </trkpt>
      <trkpt lat="42.429614" lon="-8.875064">
        <ele>7.1</ele>
        <time>1970-01-01T00:52:06.000Z</time>
      </trkpt>
      <trkpt lat="42.429635" lon="-8.874863">
        <ele>7.6</ele>
        <time>1970-01-01T00:52:13.000Z</time>
      </trkpt>
      <trkpt lat="42.429633" lon="-8.874724">
        <ele>7.7</ele>
        <time>1970-01-01T00:52:18.000Z</time>
      </trkpt>
      <trkpt lat="42.429644" lon="-8.874442">
        <ele>7.4</ele>
        <time>1970-01-01T00:52:26.000Z</time>
      </trkpt>
      <trkpt lat="42.429665" lon="-8.874256">
        <ele>7.6</ele>
        <time>1970-01-01T00:52:31.000Z</time>
      </trkpt>
      <trkpt lat="42.429737" lon="-8.874018">
        <ele>7.5</ele>
        <time>1970-01-01T00:52:38.000Z</time>
      </trkpt>
      <trkpt lat="42.429836" lon="-8.873798">
        <ele>7.3</ele>
        <time>1970-01-01T00:52:45.000Z</time>
      </trkpt>
      <trkpt lat="42.42994" lon="-8.873598">
        <ele>7.7</ele>
        <time>1970-01-01T00:52:53.000Z</time>
      </trkpt>
      <trkpt lat="42.430049" lon="-8.873381">
        <ele>7.5</ele>
        <time>1970-01-01T00:53:00.000Z</time>
      </trkpt>
      <trkpt lat="42.430137" lon="-8.873169">
        <ele>7.6</ele>
        <time>1970-01-01T00:53:06.000Z</time>
      </trkpt>
      <trkpt lat="42.430256" lon="-8.872935">
        <ele>7.8</ele>
        <time>1970-01-01T00:53:12.000Z</time>
      </trkpt>
      <trkpt lat="42.430392" lon="-8.872738">
        <ele>7.8</ele>
        <time>1970-01-01T00:53:18.000Z</time>
      </trkpt>
      <trkpt lat="42.430577" lon="-8.872627">
        <ele>7.5</ele>
        <time>1970-01-01T00:53:26.000Z</time>
      </trkpt>
      <trkpt lat="42.430753" lon="-8.872527">
        <ele>7.2</ele>
        <time>1970-01-01T00:53:35.000Z</time>
      </trkpt>
      <trkpt lat="42.430769" lon="-8.872514">
        <ele>7.2</ele>
        <time>1970-01-01T00:53:40.000Z</time>
      </trkpt>
      <trkpt lat="42.43072" lon="-8.87259">
        <ele>7.1</ele>
        <time>1970-01-01T00:54:02.000Z</time>
      </trkpt>
      <trkpt lat="42.430718" lon="-8.872634">
        <ele>7</ele>
        <time>1970-01-01T00:54:05.000Z</time>
      </trkpt>
      <trkpt lat="42.430705" lon="-8.872682">
        <ele>7</ele>
        <time>1970-01-01T00:54:08.000Z</time>
      </trkpt>
      <trkpt lat="42.430701" lon="-8.872699">
        <ele>7</ele>
        <time>1970-01-01T00:54:09.000Z</time>
      </trkpt>
      <trkpt lat="42.430694" lon="-8.872725">
        <ele>6.8</ele>
        <time>1970-01-01T00:54:11.000Z</time>
      </trkpt>
      <trkpt lat="42.430693" lon="-8.872757">
        <ele>6.5</ele>
        <time>1970-01-01T00:54:12.000Z</time>
      </trkpt>
      <trkpt lat="42.430693" lon="-8.872757">
        <ele>6.5</ele>
        <time>1970-01-01T00:54:13.000Z</time>
      </trkpt>
      <trkpt lat="42.430692" lon="-8.872766">
        <ele>6.5</ele>
        <time>1970-01-01T00:54:14.000Z</time>
      </trkpt>
      <trkpt lat="42.4307" lon="-8.872784">
        <ele>6.5</ele>
        <time>1970-01-01T00:54:16.000Z</time>
      </trkpt>
      <trkpt lat="42.430708" lon="-8.872797">
        <ele>6.2</ele>
        <time>1970-01-01T00:54:17.000Z</time>
      </trkpt>
      <trkpt lat="42.430723" lon="-8.872833">
        <ele>6.1</ele>
        <time>1970-01-01T00:54:18.000Z</time>
      </trkpt>
      <trkpt lat="42.430767" lon="-8.872887">
        <ele>5.3</ele>
        <time>1970-01-01T00:54:22.000Z</time>
      </trkpt>
      <trkpt lat="42.430795" lon="-8.872904">
        <ele>5.1</ele>
        <time>1970-01-01T00:54:24.000Z</time>
      </trkpt>
      <trkpt lat="42.430804" lon="-8.872912">
        <ele>5.1</ele>
        <time>1970-01-01T00:54:25.000Z</time>
      </trkpt>
      <trkpt lat="42.430806" lon="-8.872917">
        <ele>4.9</ele>
        <time>1970-01-01T00:54:26.000Z</time>
      </trkpt>
      <trkpt lat="42.430806" lon="-8.872921">
        <ele>4.6</ele>
        <time>1970-01-01T00:54:27.000Z</time>
      </trkpt>
      <trkpt lat="42.430838" lon="-8.872948">
        <ele>4.4</ele>
        <time>1970-01-01T00:54:30.000Z</time>
      </trkpt>
      <trkpt lat="42.43087" lon="-8.872972">
        <ele>4</ele>
        <time>1970-01-01T00:54:31.000Z</time>
      </trkpt>
      <trkpt lat="42.43087" lon="-8.872972">
        <ele>4</ele>
        <time>1970-01-01T00:54:32.000Z</time>
      </trkpt>
      <trkpt lat="42.430901" lon="-8.872992">
        <ele>3.9</ele>
        <time>1970-01-01T00:54:34.000Z</time>
      </trkpt>
      <trkpt lat="42.430915" lon="-8.872998">
        <ele>3.9</ele>
        <time>1970-01-01T00:54:35.000Z</time>
      </trkpt>
      <trkpt lat="42.430915" lon="-8.872998">
        <ele>3.9</ele>
        <time>1970-01-01T00:54:36.000Z</time>
      </trkpt>
      <trkpt lat="42.430918" lon="-8.873002">
        <ele>3.9</ele>
        <time>1970-01-01T00:54:37.000Z</time>
      </trkpt>
      <trkpt lat="42.430938" lon="-8.873026">
        <ele>3.5</ele>
        <time>1970-01-01T00:54:39.000Z</time>
      </trkpt>
      <trkpt lat="42.430952" lon="-8.873037">
        <ele>3.5</ele>
        <time>1970-01-01T00:54:40.000Z</time>
      </trkpt>
      <trkpt lat="42.430979" lon="-8.87305">
        <ele>3.1</ele>
        <time>1970-01-01T00:54:42.000Z</time>
      </trkpt>
      <trkpt lat="42.431051" lon="-8.873082">
        <ele>3</ele>
        <time>1970-01-01T00:54:47.000Z</time>
      </trkpt>
      <trkpt lat="42.431108" lon="-8.873091">
        <ele>2.8</ele>
        <time>1970-01-01T00:54:51.000Z</time>
      </trkpt>
      <trkpt lat="42.431211" lon="-8.87308">
        <ele>3</ele>
        <time>1970-01-01T00:54:58.000Z</time>
      </trkpt>
      <trkpt lat="42.43127" lon="-8.873068">
        <ele>3</ele>
        <time>1970-01-01T00:55:03.000Z</time>
      </trkpt>
      <trkpt lat="42.431328" lon="-8.873051">
        <ele>3</ele>
        <time>1970-01-01T00:55:08.000Z</time>
      </trkpt>
      <trkpt lat="42.431425" lon="-8.873017">
        <ele>3.1</ele>
        <time>1970-01-01T00:55:16.000Z</time>
      </trkpt>
      <trkpt lat="42.431446" lon="-8.873016">
        <ele>3</ele>
        <time>1970-01-01T00:55:20.000Z</time>
      </trkpt>
      <trkpt lat="42.43145" lon="-8.873015">
        <ele>3</ele>
        <time>1970-01-01T00:55:23.000Z</time>
      </trkpt>
      <trkpt lat="42.43152" lon="-8.873022">
        <ele>3</ele>
        <time>1970-01-01T00:55:35.000Z</time>
      </trkpt>
      <trkpt lat="42.431525" lon="-8.873021">
        <ele>3</ele>
        <time>1970-01-01T00:55:36.000Z</time>
      </trkpt>
      <trkpt lat="42.431529" lon="-8.873025">
        <ele>2.9</ele>
        <time>1970-01-01T00:55:37.000Z</time>
      </trkpt>
      <trkpt lat="42.431709" lon="-8.873065">
        <ele>2.8</ele>
        <time>1970-01-01T00:55:49.000Z</time>
      </trkpt>
      <trkpt lat="42.431856" lon="-8.873057">
        <ele>2.6</ele>
        <time>1970-01-01T00:56:07.000Z</time>
      </trkpt>
      <trkpt lat="42.431957" lon="-8.873074">
        <ele>2.4</ele>
        <time>1970-01-01T00:56:18.000Z</time>
      </trkpt>
      <trkpt lat="42.43197" lon="-8.873073">
        <ele>2.4</ele>
        <time>1970-01-01T00:56:19.000Z</time>
      </trkpt>
      <trkpt lat="42.431997" lon="-8.873068">
        <ele>2.3</ele>
        <time>1970-01-01T00:56:21.000Z</time>
      </trkpt>
      <trkpt lat="42.432052" lon="-8.873078">
        <ele>2.2</ele>
        <time>1970-01-01T00:56:25.000Z</time>
      </trkpt>
      <trkpt lat="42.432108" lon="-8.873095">
        <ele>2.1</ele>
        <time>1970-01-01T00:56:30.000Z</time>
      </trkpt>
      <trkpt lat="42.432137" lon="-8.873096">
        <ele>2.1</ele>
        <time>1970-01-01T00:56:33.000Z</time>
      </trkpt>
      <trkpt lat="42.432172" lon="-8.873107">
        <ele>2.1</ele>
        <time>1970-01-01T00:56:36.000Z</time>
      </trkpt>
      <trkpt lat="42.432204" lon="-8.873116">
        <ele>2</ele>
        <time>1970-01-01T00:56:39.000Z</time>
      </trkpt>
      <trkpt lat="42.432219" lon="-8.873118">
        <ele>2</ele>
        <time>1970-01-01T00:56:41.000Z</time>
      </trkpt>
      <trkpt lat="42.432353" lon="-8.873092">
        <ele>2</ele>
        <time>1970-01-01T00:56:52.000Z</time>
      </trkpt>
      <trkpt lat="42.432454" lon="-8.873023">
        <ele>1.9</ele>
        <time>1970-01-01T00:56:59.000Z</time>
      </trkpt>
      <trkpt lat="42.432521" lon="-8.872932">
        <ele>1.7</ele>
        <time>1970-01-01T00:57:07.000Z</time>
      </trkpt>
      <trkpt lat="42.43261" lon="-8.872792">
        <ele>1.4</ele>
        <time>1970-01-01T00:57:18.000Z</time>
      </trkpt>
      <trkpt lat="42.432658" lon="-8.872663">
        <ele>1.3</ele>
        <time>1970-01-01T00:57:27.000Z</time>
      </trkpt>
      <trkpt lat="42.432708" lon="-8.872529">
        <ele>1.2</ele>
        <time>1970-01-01T00:57:36.000Z</time>
      </trkpt>
      <trkpt lat="42.432814" lon="-8.87233">
        <ele>1.2</ele>
        <time>1970-01-01T00:57:49.000Z</time>
      </trkpt>
      <trkpt lat="42.432925" lon="-8.872133">
        <ele>1.4</ele>
        <time>1970-01-01T00:58:03.000Z</time>
      </trkpt>
      <trkpt lat="42.433041" lon="-8.871944">
        <ele>1.4</ele>
        <time>1970-01-01T00:58:18.000Z</time>
      </trkpt>
      <trkpt lat="42.433191" lon="-8.871788">
        <ele>1.4</ele>
        <time>1970-01-01T00:58:36.000Z</time>
      </trkpt>
      <trkpt lat="42.433342" lon="-8.871635">
        <ele>1.3</ele>
        <time>1970-01-01T00:58:51.000Z</time>
      </trkpt>
      <trkpt lat="42.433502" lon="-8.871501">
        <ele>1.5</ele>
        <time>1970-01-01T00:59:06.000Z</time>
      </trkpt>
      <trkpt lat="42.43366" lon="-8.871378">
        <ele>1.4</ele>
        <time>1970-01-01T00:59:22.000Z</time>
      </trkpt>
      <trkpt lat="42.43368" lon="-8.871356">
        <ele>1.6</ele>
        <time>1970-01-01T00:59:24.000Z</time>
      </trkpt>
      <trkpt lat="42.433846" lon="-8.871248">
        <ele>1.8</ele>
        <time>1970-01-01T00:59:36.000Z</time>
      </trkpt>
      <trkpt lat="42.433879" lon="-8.87124">
        <ele>1.8</ele>
        <time>1970-01-01T00:59:40.000Z</time>
      </trkpt>
      <trkpt lat="42.434058" lon="-8.871159">
        <ele>1.7</ele>
        <time>1970-01-01T00:59:50.000Z</time>
      </trkpt>
      <trkpt lat="42.434231" lon="-8.871071">
        <ele>1.5</ele>
        <time>1970-01-01T01:00:05.000Z</time>
      </trkpt>
      <trkpt lat="42.434346" lon="-8.871056">
        <ele>1.2</ele>
        <time>1970-01-01T01:00:17.000Z</time>
      </trkpt>
      <trkpt lat="42.434383" lon="-8.871067">
        <ele>1.1</ele>
        <time>1970-01-01T01:00:20.000Z</time>
      </trkpt>
      <trkpt lat="42.434568" lon="-8.871034">
        <ele>1</ele>
        <time>1970-01-01T01:00:30.000Z</time>
      </trkpt>
      <trkpt lat="42.434615" lon="-8.87102">
        <ele>1.1</ele>
        <time>1970-01-01T01:00:34.000Z</time>
      </trkpt>
      <trkpt lat="42.434801" lon="-8.870987">
        <ele>1.7</ele>
        <time>1970-01-01T01:00:50.000Z</time>
      </trkpt>
      <trkpt lat="42.434983" lon="-8.870994">
        <ele>2.2</ele>
        <time>1970-01-01T01:01:05.000Z</time>
      </trkpt>
      <trkpt lat="42.435027" lon="-8.870993">
        <ele>2.5</ele>
        <time>1970-01-01T01:01:09.000Z</time>
      </trkpt>
      <trkpt lat="42.435209" lon="-8.871008">
        <ele>3.2</ele>
        <time>1970-01-01T01:01:22.000Z</time>
      </trkpt>
      <trkpt lat="42.435339" lon="-8.871008">
        <ele>3.5</ele>
        <time>1970-01-01T01:01:33.000Z</time>
      </trkpt>
      <trkpt lat="42.43536" lon="-8.870998">
        <ele>3.5</ele>
        <time>1970-01-01T01:01:35.000Z</time>
      </trkpt>
      <trkpt lat="42.435448" lon="-8.871019">
        <ele>3.7</ele>
        <time>1970-01-01T01:01:44.000Z</time>
      </trkpt>
      <trkpt lat="42.435486" lon="-8.870992">
        <ele>3.8</ele>
        <time>1970-01-01T01:01:52.000Z</time>
      </trkpt>
      <trkpt lat="42.436122" lon="-8.870627">
        <ele>5.9</ele>
        <time>1970-01-01T01:03:23.000Z</time>
      </trkpt>
      <trkpt lat="42.436133" lon="-8.870629">
        <ele>5.9</ele>
        <time>1970-01-01T01:03:24.000Z</time>
      </trkpt>
      <trkpt lat="42.436184" lon="-8.870638">
        <ele>6</ele>
        <time>1970-01-01T01:03:31.000Z</time>
      </trkpt>
      <trkpt lat="42.43617" lon="-8.870657">
        <ele>5.7</ele>
        <time>1970-01-01T01:04:12.000Z</time>
      </trkpt>
      <trkpt lat="42.436086" lon="-8.870631">
        <ele>5.8</ele>
        <time>1970-01-01T01:04:17.000Z</time>
      </trkpt>
      <trkpt lat="42.436042" lon="-8.870625">
        <ele>5.7</ele>
        <time>1970-01-01T01:04:22.000Z</time>
      </trkpt>
      <trkpt lat="42.436026" lon="-8.87061">
        <ele>5.6</ele>
        <time>1970-01-01T01:04:25.000Z</time>
      </trkpt>
      <trkpt lat="42.435943" lon="-8.870608">
        <ele>5.5</ele>
        <time>1970-01-01T01:04:29.000Z</time>
      </trkpt>
      <trkpt lat="42.435782" lon="-8.87075">
        <ele>4.9</ele>
        <time>1970-01-01T01:04:43.000Z</time>
      </trkpt>
      <trkpt lat="42.4357" lon="-8.870862">
        <ele>4.5</ele>
        <time>1970-01-01T01:04:54.000Z</time>
      </trkpt>
      <trkpt lat="42.435719" lon="-8.870987">
        <ele>4.2</ele>
        <time>1970-01-01T01:05:03.000Z</time>
      </trkpt>
      <trkpt lat="42.435797" lon="-8.871099">
        <ele>3.9</ele>
        <time>1970-01-01T01:05:15.000Z</time>
      </trkpt>
      <trkpt lat="42.435813" lon="-8.871114">
        <ele>3.9</ele>
        <time>1970-01-01T01:05:16.000Z</time>
      </trkpt>
      <trkpt lat="42.435827" lon="-8.871126">
        <ele>3.7</ele>
        <time>1970-01-01T01:05:19.000Z</time>
      </trkpt>
      <trkpt lat="42.435842" lon="-8.871141">
        <ele>3.7</ele>
        <time>1970-01-01T01:05:20.000Z</time>
      </trkpt>
      <trkpt lat="42.435842" lon="-8.871141">
        <ele>3.7</ele>
        <time>1970-01-01T01:05:21.000Z</time>
      </trkpt>
      <trkpt lat="42.43592" lon="-8.871203">
        <ele>3.2</ele>
        <time>1970-01-01T01:05:31.000Z</time>
      </trkpt>
      <trkpt lat="42.435957" lon="-8.871231">
        <ele>3.1</ele>
        <time>1970-01-01T01:05:35.000Z</time>
      </trkpt>
      <trkpt lat="42.436029" lon="-8.871263">
        <ele>2.8</ele>
        <time>1970-01-01T01:05:42.000Z</time>
      </trkpt>
      <trkpt lat="42.436038" lon="-8.871268">
        <ele>2.8</ele>
        <time>1970-01-01T01:05:43.000Z</time>
      </trkpt>
      <trkpt lat="42.436127" lon="-8.871284">
        <ele>2.6</ele>
        <time>1970-01-01T01:05:53.000Z</time>
      </trkpt>
      <trkpt lat="42.43622" lon="-8.871306">
        <ele>2.4</ele>
        <time>1970-01-01T01:06:02.000Z</time>
      </trkpt>
      <trkpt lat="42.436253" lon="-8.871279">
        <ele>2.5</ele>
        <time>1970-01-01T01:06:07.000Z</time>
      </trkpt>
      <trkpt lat="42.436264" lon="-8.871274">
        <ele>2.5</ele>
        <time>1970-01-01T01:06:08.000Z</time>
      </trkpt>
      <trkpt lat="42.436305" lon="-8.871225">
        <ele>2.7</ele>
        <time>1970-01-01T01:06:13.000Z</time>
      </trkpt>
      <trkpt lat="42.43635" lon="-8.871232">
        <ele>2.8</ele>
        <time>1970-01-01T01:06:22.000Z</time>
      </trkpt>
      <trkpt lat="42.436408" lon="-8.871259">
        <ele>2.8</ele>
        <time>1970-01-01T01:06:27.000Z</time>
      </trkpt>
      <trkpt lat="42.436427" lon="-8.87128">
        <ele>2.9</ele>
        <time>1970-01-01T01:06:28.000Z</time>
      </trkpt>
      <trkpt lat="42.436427" lon="-8.87128">
        <ele>2.8</ele>
        <time>1970-01-01T01:06:29.000Z</time>
      </trkpt>
      <trkpt lat="42.43645" lon="-8.871312">
        <ele>2.8</ele>
        <time>1970-01-01T01:06:32.000Z</time>
      </trkpt>
      <trkpt lat="42.436499" lon="-8.871312">
        <ele>2.9</ele>
        <time>1970-01-01T01:06:36.000Z</time>
      </trkpt>
      <trkpt lat="42.436575" lon="-8.87127">
        <ele>3.5</ele>
        <time>1970-01-01T01:06:42.000Z</time>
      </trkpt>
      <trkpt lat="42.436588" lon="-8.871261">
        <ele>3.6</ele>
        <time>1970-01-01T01:06:43.000Z</time>
      </trkpt>
      <trkpt lat="42.436737" lon="-8.87109">
        <ele>5</ele>
        <time>1970-01-01T01:06:54.000Z</time>
      </trkpt>
      <trkpt lat="42.436792" lon="-8.871027">
        <ele>5.3</ele>
        <time>1970-01-01T01:07:03.000Z</time>
      </trkpt>
      <trkpt lat="42.436954" lon="-8.870898">
        <ele>5.4</ele>
        <time>1970-01-01T01:07:15.000Z</time>
      </trkpt>
      <trkpt lat="42.437" lon="-8.870886">
        <ele>5.3</ele>
        <time>1970-01-01T01:07:20.000Z</time>
      </trkpt>
      <trkpt lat="42.437047" lon="-8.870895">
        <ele>5.2</ele>
        <time>1970-01-01T01:07:24.000Z</time>
      </trkpt>
      <trkpt lat="42.437202" lon="-8.870785">
        <ele>5.2</ele>
        <time>1970-01-01T01:07:34.000Z</time>
      </trkpt>
      <trkpt lat="42.437261" lon="-8.87073">
        <ele>5.1</ele>
        <time>1970-01-01T01:07:40.000Z</time>
      </trkpt>
      <trkpt lat="42.437316" lon="-8.8708">
        <ele>5.1</ele>
        <time>1970-01-01T01:07:48.000Z</time>
      </trkpt>
      <trkpt lat="42.437337" lon="-8.870857">
        <ele>5.1</ele>
        <time>1970-01-01T01:07:52.000Z</time>
      </trkpt>
      <trkpt lat="42.437391" lon="-8.870981">
        <ele>5.1</ele>
        <time>1970-01-01T01:07:59.000Z</time>
      </trkpt>
      <trkpt lat="42.437391" lon="-8.871125">
        <ele>5.1</ele>
        <time>1970-01-01T01:08:08.000Z</time>
      </trkpt>
      <trkpt lat="42.437377" lon="-8.871155">
        <ele>5.1</ele>
        <time>1970-01-01T01:08:14.000Z</time>
      </trkpt>
      <trkpt lat="42.437378" lon="-8.871155">
        <ele>5.1</ele>
        <time>1970-01-01T01:08:15.000Z</time>
      </trkpt>
      <trkpt lat="42.437379" lon="-8.871154">
        <ele>5.1</ele>
        <time>1970-01-01T01:08:16.000Z</time>
      </trkpt>
      <trkpt lat="42.437442" lon="-8.871216">
        <ele>5.1</ele>
        <time>1970-01-01T01:08:50.000Z</time>
      </trkpt>
      <trkpt lat="42.437479" lon="-8.871253">
        <ele>5.1</ele>
        <time>1970-01-01T01:08:53.000Z</time>
      </trkpt>
      <trkpt lat="42.437494" lon="-8.871267">
        <ele>5.1</ele>
        <time>1970-01-01T01:08:54.000Z</time>
      </trkpt>
      <trkpt lat="42.437508" lon="-8.871278">
        <ele>5.1</ele>
        <time>1970-01-01T01:08:55.000Z</time>
      </trkpt>
      <trkpt lat="42.437519" lon="-8.871287">
        <ele>5.1</ele>
        <time>1970-01-01T01:08:56.000Z</time>
      </trkpt>
      <trkpt lat="42.437527" lon="-8.871294">
        <ele>5.1</ele>
        <time>1970-01-01T01:08:57.000Z</time>
      </trkpt>
      <trkpt lat="42.437531" lon="-8.871308">
        <ele>5.1</ele>
        <time>1970-01-01T01:08:59.000Z</time>
      </trkpt>
      <trkpt lat="42.437566" lon="-8.871332">
        <ele>5.1</ele>
        <time>1970-01-01T01:09:03.000Z</time>
      </trkpt>
      <trkpt lat="42.437594" lon="-8.871345">
        <ele>5.1</ele>
        <time>1970-01-01T01:09:04.000Z</time>
      </trkpt>
      <trkpt lat="42.437734" lon="-8.871434">
        <ele>5.1</ele>
        <time>1970-01-01T01:09:16.000Z</time>
      </trkpt>
      <trkpt lat="42.437768" lon="-8.87145">
        <ele>5</ele>
        <time>1970-01-01T01:09:19.000Z</time>
      </trkpt>
      <trkpt lat="42.437897" lon="-8.871555">
        <ele>4.9</ele>
        <time>1970-01-01T01:09:29.000Z</time>
      </trkpt>
      <trkpt lat="42.437988" lon="-8.871622">
        <ele>4.7</ele>
        <time>1970-01-01T01:09:37.000Z</time>
      </trkpt>
      <trkpt lat="42.438114" lon="-8.871709">
        <ele>4.5</ele>
        <time>1970-01-01T01:09:46.000Z</time>
      </trkpt>
      <trkpt lat="42.438229" lon="-8.871778">
        <ele>4.2</ele>
        <time>1970-01-01T01:09:55.000Z</time>
      </trkpt>
      <trkpt lat="42.438412" lon="-8.871832">
        <ele>3.8</ele>
        <time>1970-01-01T01:10:10.000Z</time>
      </trkpt>
      <trkpt lat="42.438595" lon="-8.871869">
        <ele>3.4</ele>
        <time>1970-01-01T01:10:24.000Z</time>
      </trkpt>
      <trkpt lat="42.438782" lon="-8.871873">
        <ele>2.9</ele>
        <time>1970-01-01T01:10:37.000Z</time>
      </trkpt>
      <trkpt lat="42.438963" lon="-8.871878">
        <ele>2.5</ele>
        <time>1970-01-01T01:10:51.000Z</time>
      </trkpt>
      <trkpt lat="42.439148" lon="-8.871885">
        <ele>2.3</ele>
        <time>1970-01-01T01:11:05.000Z</time>
      </trkpt>
      <trkpt lat="42.439338" lon="-8.871927">
        <ele>2.1</ele>
        <time>1970-01-01T01:11:19.000Z</time>
      </trkpt>
      <trkpt lat="42.439518" lon="-8.87194">
        <ele>2.1</ele>
        <time>1970-01-01T01:11:34.000Z</time>
      </trkpt>
      <trkpt lat="42.439593" lon="-8.871956">
        <ele>2.1</ele>
        <time>1970-01-01T01:11:40.000Z</time>
      </trkpt>
      <trkpt lat="42.439621" lon="-8.87196">
        <ele>2.1</ele>
        <time>1970-01-01T01:11:42.000Z</time>
      </trkpt>
      <trkpt lat="42.439811" lon="-8.871981">
        <ele>2.2</ele>
        <time>1970-01-01T01:11:57.000Z</time>
      </trkpt>
      <trkpt lat="42.440002" lon="-8.87199">
        <ele>2.5</ele>
        <time>1970-01-01T01:12:12.000Z</time>
      </trkpt>
      <trkpt lat="42.440034" lon="-8.87199">
        <ele>2.5</ele>
        <time>1970-01-01T01:12:16.000Z</time>
      </trkpt>
      <trkpt lat="42.440063" lon="-8.872004">
        <ele>2.5</ele>
        <time>1970-01-01T01:12:18.000Z</time>
      </trkpt>
      <trkpt lat="42.440251" lon="-8.872048">
        <ele>2.7</ele>
        <time>1970-01-01T01:12:31.000Z</time>
      </trkpt>
      <trkpt lat="42.440433" lon="-8.872105">
        <ele>2.8</ele>
        <time>1970-01-01T01:12:44.000Z</time>
      </trkpt>
      <trkpt lat="42.440475" lon="-8.872132">
        <ele>2.9</ele>
        <time>1970-01-01T01:12:50.000Z</time>
      </trkpt>
      <trkpt lat="42.440515" lon="-8.872151">
        <ele>2.9</ele>
        <time>1970-01-01T01:12:53.000Z</time>
      </trkpt>
      <trkpt lat="42.440697" lon="-8.872217">
        <ele>2.9</ele>
        <time>1970-01-01T01:13:04.000Z</time>
      </trkpt>
      <trkpt lat="42.440847" lon="-8.872244">
        <ele>3</ele>
        <time>1970-01-01T01:13:14.000Z</time>
      </trkpt>
      <trkpt lat="42.440892" lon="-8.872244">
        <ele>3</ele>
        <time>1970-01-01T01:13:17.000Z</time>
      </trkpt>
      <trkpt lat="42.440919" lon="-8.872263">
        <ele>3.1</ele>
        <time>1970-01-01T01:13:20.000Z</time>
      </trkpt>
      <trkpt lat="42.440941" lon="-8.872276">
        <ele>3.1</ele>
        <time>1970-01-01T01:13:23.000Z</time>
      </trkpt>
      <trkpt lat="42.441058" lon="-8.872307">
        <ele>3.2</ele>
        <time>1970-01-01T01:13:31.000Z</time>
      </trkpt>
      <trkpt lat="42.44118" lon="-8.872329">
        <ele>3.3</ele>
        <time>1970-01-01T01:13:40.000Z</time>
      </trkpt>
      <trkpt lat="42.441373" lon="-8.872352">
        <ele>3.6</ele>
        <time>1970-01-01T01:13:53.000Z</time>
      </trkpt>
      <trkpt lat="42.441402" lon="-8.87236">
        <ele>3.6</ele>
        <time>1970-01-01T01:13:57.000Z</time>
      </trkpt>
      <trkpt lat="42.441447" lon="-8.872369">
        <ele>3.7</ele>
        <time>1970-01-01T01:14:02.000Z</time>
      </trkpt>
      <trkpt lat="42.441518" lon="-8.872416">
        <ele>3.7</ele>
        <time>1970-01-01T01:14:06.000Z</time>
      </trkpt>
      <trkpt lat="42.441647" lon="-8.872471">
        <ele>3.7</ele>
        <time>1970-01-01T01:14:16.000Z</time>
      </trkpt>
      <trkpt lat="42.441826" lon="-8.872521">
        <ele>3.7</ele>
        <time>1970-01-01T01:14:29.000Z</time>
      </trkpt>
      <trkpt lat="42.441843" lon="-8.872535">
        <ele>3.7</ele>
        <time>1970-01-01T01:14:31.000Z</time>
      </trkpt>
      <trkpt lat="42.441956" lon="-8.872569">
        <ele>3.5</ele>
        <time>1970-01-01T01:14:40.000Z</time>
      </trkpt>
      <trkpt lat="42.44197" lon="-8.872574">
        <ele>3.5</ele>
        <time>1970-01-01T01:14:41.000Z</time>
      </trkpt>
      <trkpt lat="42.441984" lon="-8.872579">
        <ele>3.5</ele>
        <time>1970-01-01T01:14:42.000Z</time>
      </trkpt>
      <trkpt lat="42.442115" lon="-8.872621">
        <ele>3.4</ele>
        <time>1970-01-01T01:14:52.000Z</time>
      </trkpt>
      <trkpt lat="42.442271" lon="-8.872702">
        <ele>3.3</ele>
        <time>1970-01-01T01:15:04.000Z</time>
      </trkpt>
      <trkpt lat="42.442292" lon="-8.872704">
        <ele>3.3</ele>
        <time>1970-01-01T01:15:06.000Z</time>
      </trkpt>
      <trkpt lat="42.442328" lon="-8.872741">
        <ele>3.2</ele>
        <time>1970-01-01T01:15:11.000Z</time>
      </trkpt>
      <trkpt lat="42.442388" lon="-8.872767">
        <ele>3.2</ele>
        <time>1970-01-01T01:15:16.000Z</time>
      </trkpt>
      <trkpt lat="42.442501" lon="-8.872784">
        <ele>3</ele>
        <time>1970-01-01T01:15:23.000Z</time>
      </trkpt>
      <trkpt lat="42.442572" lon="-8.872827">
        <ele>2.9</ele>
        <time>1970-01-01T01:15:32.000Z</time>
      </trkpt>
      <trkpt lat="42.442757" lon="-8.872872">
        <ele>2.8</ele>
        <time>1970-01-01T01:15:46.000Z</time>
      </trkpt>
      <trkpt lat="42.442772" lon="-8.872868">
        <ele>2.8</ele>
        <time>1970-01-01T01:15:51.000Z</time>
      </trkpt>
      <trkpt lat="42.442856" lon="-8.872896">
        <ele>2.7</ele>
        <time>1970-01-01T01:16:19.000Z</time>
      </trkpt>
      <trkpt lat="42.442949" lon="-8.872924">
        <ele>2.7</ele>
        <time>1970-01-01T01:16:26.000Z</time>
      </trkpt>
      <trkpt lat="42.442968" lon="-8.872958">
        <ele>2.7</ele>
        <time>1970-01-01T01:16:29.000Z</time>
      </trkpt>
      <trkpt lat="42.443139" lon="-8.873055">
        <ele>2.6</ele>
        <time>1970-01-01T01:16:42.000Z</time>
      </trkpt>
      <trkpt lat="42.443252" lon="-8.873107">
        <ele>2.5</ele>
        <time>1970-01-01T01:16:50.000Z</time>
      </trkpt>
      <trkpt lat="42.44343" lon="-8.873202">
        <ele>2.4</ele>
        <time>1970-01-01T01:17:04.000Z</time>
      </trkpt>
      <trkpt lat="42.443601" lon="-8.873288">
        <ele>2.3</ele>
        <time>1970-01-01T01:17:17.000Z</time>
      </trkpt>
      <trkpt lat="42.44365" lon="-8.873337">
        <ele>2.3</ele>
        <time>1970-01-01T01:17:23.000Z</time>
      </trkpt>
      <trkpt lat="42.44369" lon="-8.87336">
        <ele>2.3</ele>
        <time>1970-01-01T01:17:26.000Z</time>
      </trkpt>
      <trkpt lat="42.443786" lon="-8.873408">
        <ele>2.3</ele>
        <time>1970-01-01T01:17:33.000Z</time>
      </trkpt>
      <trkpt lat="42.443804" lon="-8.873457">
        <ele>2.3</ele>
        <time>1970-01-01T01:17:38.000Z</time>
      </trkpt>
      <trkpt lat="42.44399" lon="-8.873502">
        <ele>2.4</ele>
        <time>1970-01-01T01:17:52.000Z</time>
      </trkpt>
      <trkpt lat="42.444162" lon="-8.873583">
        <ele>2.7</ele>
        <time>1970-01-01T01:18:06.000Z</time>
      </trkpt>
      <trkpt lat="42.444319" lon="-8.873659">
        <ele>2.6</ele>
        <time>1970-01-01T01:18:20.000Z</time>
      </trkpt>
      <trkpt lat="42.444489" lon="-8.873766">
        <ele>2.3</ele>
        <time>1970-01-01T01:18:35.000Z</time>
      </trkpt>
      <trkpt lat="42.444549" lon="-8.873812">
        <ele>2.3</ele>
        <time>1970-01-01T01:18:41.000Z</time>
      </trkpt>
      <trkpt lat="42.444574" lon="-8.87383">
        <ele>2.3</ele>
        <time>1970-01-01T01:18:43.000Z</time>
      </trkpt>
      <trkpt lat="42.444687" lon="-8.873893">
        <ele>2.2</ele>
        <time>1970-01-01T01:18:52.000Z</time>
      </trkpt>
      <trkpt lat="42.444856" lon="-8.873985">
        <ele>2.2</ele>
        <time>1970-01-01T01:19:07.000Z</time>
      </trkpt>
      <trkpt lat="42.445026" lon="-8.874091">
        <ele>2.2</ele>
        <time>1970-01-01T01:19:23.000Z</time>
      </trkpt>
      <trkpt lat="42.445186" lon="-8.874205">
        <ele>2.2</ele>
        <time>1970-01-01T01:19:38.000Z</time>
      </trkpt>
      <trkpt lat="42.44536" lon="-8.874311">
        <ele>2.2</ele>
        <time>1970-01-01T01:19:54.000Z</time>
      </trkpt>
      <trkpt lat="42.445373" lon="-8.874337">
        <ele>2.2</ele>
        <time>1970-01-01T01:19:57.000Z</time>
      </trkpt>
      <trkpt lat="42.445416" lon="-8.87437">
        <ele>2.2</ele>
        <time>1970-01-01T01:20:02.000Z</time>
      </trkpt>
      <trkpt lat="42.445538" lon="-8.874458">
        <ele>2.2</ele>
        <time>1970-01-01T01:20:11.000Z</time>
      </trkpt>
      <trkpt lat="42.445554" lon="-8.874475">
        <ele>2.2</ele>
        <time>1970-01-01T01:20:13.000Z</time>
      </trkpt>
      <trkpt lat="42.445647" lon="-8.874536">
        <ele>2.1</ele>
        <time>1970-01-01T01:20:20.000Z</time>
      </trkpt>
      <trkpt lat="42.445668" lon="-8.874524">
        <ele>2.1</ele>
        <time>1970-01-01T01:20:22.000Z</time>
      </trkpt>
      <trkpt lat="42.445833" lon="-8.874627">
        <ele>2.1</ele>
        <time>1970-01-01T01:20:36.000Z</time>
      </trkpt>
      <trkpt lat="42.446002" lon="-8.874735">
        <ele>2.1</ele>
        <time>1970-01-01T01:20:49.000Z</time>
      </trkpt>
      <trkpt lat="42.446171" lon="-8.874853">
        <ele>2.1</ele>
        <time>1970-01-01T01:21:03.000Z</time>
      </trkpt>
      <trkpt lat="42.446328" lon="-8.874977">
        <ele>2.1</ele>
        <time>1970-01-01T01:21:19.000Z</time>
      </trkpt>
      <trkpt lat="42.446502" lon="-8.875091">
        <ele>2.1</ele>
        <time>1970-01-01T01:21:33.000Z</time>
      </trkpt>
      <trkpt lat="42.446672" lon="-8.875211">
        <ele>2.1</ele>
        <time>1970-01-01T01:21:48.000Z</time>
      </trkpt>
      <trkpt lat="42.446742" lon="-8.875288">
        <ele>2.1</ele>
        <time>1970-01-01T01:21:55.000Z</time>
      </trkpt>
      <trkpt lat="42.446912" lon="-8.875399">
        <ele>2.1</ele>
        <time>1970-01-01T01:22:09.000Z</time>
      </trkpt>
      <trkpt lat="42.446993" lon="-8.875453">
        <ele>2</ele>
        <time>1970-01-01T01:22:14.000Z</time>
      </trkpt>
      <trkpt lat="42.447017" lon="-8.87547">
        <ele>2</ele>
        <time>1970-01-01T01:22:15.000Z</time>
      </trkpt>
      <trkpt lat="42.447173" lon="-8.875599">
        <ele>2</ele>
        <time>1970-01-01T01:22:30.000Z</time>
      </trkpt>
      <trkpt lat="42.44734" lon="-8.875707">
        <ele>2</ele>
        <time>1970-01-01T01:22:46.000Z</time>
      </trkpt>
      <trkpt lat="42.447497" lon="-8.875849">
        <ele>2</ele>
        <time>1970-01-01T01:23:00.000Z</time>
      </trkpt>
      <trkpt lat="42.447659" lon="-8.875968">
        <ele>2</ele>
        <time>1970-01-01T01:23:14.000Z</time>
      </trkpt>
      <trkpt lat="42.447805" lon="-8.876112">
        <ele>1.5</ele>
        <time>1970-01-01T01:23:26.000Z</time>
      </trkpt>
      <trkpt lat="42.447967" lon="-8.876253">
        <ele>1</ele>
        <time>1970-01-01T01:23:36.000Z</time>
      </trkpt>
      <trkpt lat="42.448045" lon="-8.876319">
        <ele>0.8</ele>
        <time>1970-01-01T01:23:40.000Z</time>
      </trkpt>
      <trkpt lat="42.44811" lon="-8.876374">
        <ele>0.8</ele>
        <time>1970-01-01T01:23:43.000Z</time>
      </trkpt>
      <trkpt lat="42.448127" lon="-8.876391">
        <ele>0.8</ele>
        <time>1970-01-01T01:23:44.000Z</time>
      </trkpt>
      <trkpt lat="42.448151" lon="-8.876431">
        <ele>0.8</ele>
        <time>1970-01-01T01:23:45.000Z</time>
      </trkpt>
      <trkpt lat="42.448151" lon="-8.876431">
        <ele>0.8</ele>
        <time>1970-01-01T01:23:46.000Z</time>
      </trkpt>
      <trkpt lat="42.448164" lon="-8.876448">
        <ele>0.8</ele>
        <time>1970-01-01T01:23:47.000Z</time>
      </trkpt>
      <trkpt lat="42.448196" lon="-8.876486">
        <ele>0.8</ele>
        <time>1970-01-01T01:23:49.000Z</time>
      </trkpt>
      <trkpt lat="42.448217" lon="-8.876508">
        <ele>0.8</ele>
        <time>1970-01-01T01:23:50.000Z</time>
      </trkpt>
      <trkpt lat="42.448385" lon="-8.876615">
        <ele>0.8</ele>
        <time>1970-01-01T01:23:56.000Z</time>
      </trkpt>
      <trkpt lat="42.448479" lon="-8.876685">
        <ele>0.8</ele>
        <time>1970-01-01T01:24:00.000Z</time>
      </trkpt>
      <trkpt lat="42.448533" lon="-8.876712">
        <ele>0.8</ele>
        <time>1970-01-01T01:24:02.000Z</time>
      </trkpt>
      <trkpt lat="42.448662" lon="-8.876788">
        <ele>0.8</ele>
        <time>1970-01-01T01:24:07.000Z</time>
      </trkpt>
      <trkpt lat="42.44875" lon="-8.876853">
        <ele>0.8</ele>
        <time>1970-01-01T01:24:11.000Z</time>
      </trkpt>
      <trkpt lat="42.448787" lon="-8.876888">
        <ele>0.8</ele>
        <time>1970-01-01T01:24:13.000Z</time>
      </trkpt>
      <trkpt lat="42.448836" lon="-8.876918">
        <ele>0.8</ele>
        <time>1970-01-01T01:24:14.000Z</time>
      </trkpt>
      <trkpt lat="42.449014" lon="-8.87706">
        <ele>0.8</ele>
        <time>1970-01-01T01:24:23.000Z</time>
      </trkpt>
      <trkpt lat="42.449036" lon="-8.877078">
        <ele>0.8</ele>
        <time>1970-01-01T01:24:24.000Z</time>
      </trkpt>
      <trkpt lat="42.44908" lon="-8.877113">
        <ele>1</ele>
        <time>1970-01-01T01:24:26.000Z</time>
      </trkpt>
      <trkpt lat="42.449161" lon="-8.877189">
        <ele>1.1</ele>
        <time>1970-01-01T01:24:30.000Z</time>
      </trkpt>
      <trkpt lat="42.449311" lon="-8.877324">
        <ele>1.4</ele>
        <time>1970-01-01T01:24:37.000Z</time>
      </trkpt>
      <trkpt lat="42.449493" lon="-8.877455">
        <ele>1.6</ele>
        <time>1970-01-01T01:24:45.000Z</time>
      </trkpt>
      <trkpt lat="42.449665" lon="-8.877584">
        <ele>1.8</ele>
        <time>1970-01-01T01:24:52.000Z</time>
      </trkpt>
      <trkpt lat="42.449832" lon="-8.877728">
        <ele>1.8</ele>
        <time>1970-01-01T01:25:01.000Z</time>
      </trkpt>
      <trkpt lat="42.449989" lon="-8.877829">
        <ele>2.1</ele>
        <time>1970-01-01T01:25:08.000Z</time>
      </trkpt>
      <trkpt lat="42.450139" lon="-8.87794">
        <ele>2.3</ele>
        <time>1970-01-01T01:25:15.000Z</time>
      </trkpt>
      <trkpt lat="42.4503" lon="-8.878089">
        <ele>2.4</ele>
        <time>1970-01-01T01:25:23.000Z</time>
      </trkpt>
      <trkpt lat="42.450473" lon="-8.878226">
        <ele>2.5</ele>
        <time>1970-01-01T01:25:31.000Z</time>
      </trkpt>
      <trkpt lat="42.450598" lon="-8.878314">
        <ele>2.5</ele>
        <time>1970-01-01T01:25:36.000Z</time>
      </trkpt>
      <trkpt lat="42.450739" lon="-8.878423">
        <ele>2.3</ele>
        <time>1970-01-01T01:25:42.000Z</time>
      </trkpt>
      <trkpt lat="42.450906" lon="-8.87856">
        <ele>2.2</ele>
        <time>1970-01-01T01:25:51.000Z</time>
      </trkpt>
      <trkpt lat="42.451095" lon="-8.878594">
        <ele>2.1</ele>
        <time>1970-01-01T01:26:00.000Z</time>
      </trkpt>
      <trkpt lat="42.451237" lon="-8.878527">
        <ele>2.1</ele>
        <time>1970-01-01T01:26:11.000Z</time>
      </trkpt>
      <trkpt lat="42.451253" lon="-8.878525">
        <ele>2.1</ele>
        <time>1970-01-01T01:26:15.000Z</time>
      </trkpt>
      <trkpt lat="42.45125" lon="-8.878523">
        <ele>2.1</ele>
        <time>1970-01-01T01:26:17.000Z</time>
      </trkpt>
    </trkseg>
  </trk>
</gpx>
